<?xml version="1.0" encoding="UTF-8" standalone="no" ?>
<gpx xmlns="http://www.topografix.com/GPX/1/1" xmlns:xsi="http://www.w3.org/2001/XMLSchema-instance" xsi:schemaLocation="http://www.topografix.com/GPX/1/1 http://www.topografix.com/GPX/1/1/gpx.xsd" version="1.1" creator="VisuGPX - https://www.visugpx.com">
  <metadata>
    <name>velotaf 5/09</name>
  </metadata>
  <trk>
    <name><![CDATA[velotaf]]></name>
    <trkseg>
      <trkpt lat="46.58541" lon="5.74172">
        <ele>610.6</ele>
        <time>2022-09-06T04:31:20Z</time>
      </trkpt>
      <trkpt lat="46.58546" lon="5.74161">
        <ele>610.4</ele>
        <time>2022-09-06T04:31:21Z</time>
      </trkpt>
      <trkpt lat="46.58552" lon="5.74151">
        <ele>610.2</ele>
        <time>2022-09-06T04:31:22Z</time>
      </trkpt>
      <trkpt lat="46.58558" lon="5.74141">
        <ele>610</ele>
        <time>2022-09-06T04:31:23Z</time>
      </trkpt>
      <trkpt lat="46.58564" lon="5.7413">
        <ele>609.8</ele>
        <time>2022-09-06T04:31:24Z</time>
      </trkpt>
      <trkpt lat="46.5857" lon="5.74119">
        <ele>609.6</ele>
        <time>2022-09-06T04:31:25Z</time>
      </trkpt>
      <trkpt lat="46.58576" lon="5.74109">
        <ele>609.2</ele>
        <time>2022-09-06T04:31:26Z</time>
      </trkpt>
      <trkpt lat="46.58582" lon="5.74098">
        <ele>609.2</ele>
        <time>2022-09-06T04:31:27Z</time>
      </trkpt>
      <trkpt lat="46.58588" lon="5.74087">
        <ele>608.8</ele>
        <time>2022-09-06T04:31:28Z</time>
      </trkpt>
      <trkpt lat="46.58594" lon="5.74076">
        <ele>608.8</ele>
        <time>2022-09-06T04:31:29Z</time>
      </trkpt>
      <trkpt lat="46.586" lon="5.74065">
        <ele>608.4</ele>
        <time>2022-09-06T04:31:30Z</time>
      </trkpt>
      <trkpt lat="46.58607" lon="5.74054">
        <ele>608.4</ele>
        <time>2022-09-06T04:31:31Z</time>
      </trkpt>
      <trkpt lat="46.58613" lon="5.74043">
        <ele>608</ele>
        <time>2022-09-06T04:31:32Z</time>
      </trkpt>
      <trkpt lat="46.58619" lon="5.74032">
        <ele>607.8</ele>
        <time>2022-09-06T04:31:33Z</time>
      </trkpt>
      <trkpt lat="46.58625" lon="5.74021">
        <ele>607.6</ele>
        <time>2022-09-06T04:31:34Z</time>
      </trkpt>
      <trkpt lat="46.58632" lon="5.7401">
        <ele>607.6</ele>
        <time>2022-09-06T04:31:35Z</time>
      </trkpt>
      <trkpt lat="46.58638" lon="5.73999">
        <ele>607.2</ele>
        <time>2022-09-06T04:31:36Z</time>
      </trkpt>
      <trkpt lat="46.58644" lon="5.73988">
        <ele>607</ele>
        <time>2022-09-06T04:31:37Z</time>
      </trkpt>
      <trkpt lat="46.58651" lon="5.73977">
        <ele>607</ele>
        <time>2022-09-06T04:31:38Z</time>
      </trkpt>
      <trkpt lat="46.58657" lon="5.73966">
        <ele>606.6</ele>
        <time>2022-09-06T04:31:39Z</time>
      </trkpt>
      <trkpt lat="46.58663" lon="5.73955">
        <ele>606.2</ele>
        <time>2022-09-06T04:31:40Z</time>
      </trkpt>
      <trkpt lat="46.5867" lon="5.73944">
        <ele>606</ele>
        <time>2022-09-06T04:31:41Z</time>
      </trkpt>
      <trkpt lat="46.58676" lon="5.73933">
        <ele>606</ele>
        <time>2022-09-06T04:31:42Z</time>
      </trkpt>
      <trkpt lat="46.58682" lon="5.73921">
        <ele>605.6</ele>
        <time>2022-09-06T04:31:43Z</time>
      </trkpt>
      <trkpt lat="46.58688" lon="5.7391">
        <ele>605.2</ele>
        <time>2022-09-06T04:31:44Z</time>
      </trkpt>
      <trkpt lat="46.58693" lon="5.73898">
        <ele>605</ele>
        <time>2022-09-06T04:31:45Z</time>
      </trkpt>
      <trkpt lat="46.58699" lon="5.73886">
        <ele>604.6</ele>
        <time>2022-09-06T04:31:46Z</time>
      </trkpt>
      <trkpt lat="46.58704" lon="5.73874">
        <ele>604.2</ele>
        <time>2022-09-06T04:31:47Z</time>
      </trkpt>
      <trkpt lat="46.5871" lon="5.73861">
        <ele>603.8</ele>
        <time>2022-09-06T04:31:48Z</time>
      </trkpt>
      <trkpt lat="46.58715" lon="5.73849">
        <ele>603.4</ele>
        <time>2022-09-06T04:31:49Z</time>
      </trkpt>
      <trkpt lat="46.58723" lon="5.73829">
        <ele>603.4</ele>
        <time>2022-09-06T04:31:50Z</time>
      </trkpt>
      <trkpt lat="46.58726" lon="5.73823">
        <ele>603.2</ele>
        <time>2022-09-06T04:31:51Z</time>
      </trkpt>
      <trkpt lat="46.58731" lon="5.7381">
        <ele>602.8</ele>
        <time>2022-09-06T04:31:52Z</time>
      </trkpt>
      <trkpt lat="46.58737" lon="5.73797">
        <ele>602.2</ele>
        <time>2022-09-06T04:31:53Z</time>
      </trkpt>
      <trkpt lat="46.58742" lon="5.73783">
        <ele>601.8</ele>
        <time>2022-09-06T04:31:54Z</time>
      </trkpt>
      <trkpt lat="46.58747" lon="5.7377">
        <ele>601.2</ele>
        <time>2022-09-06T04:31:55Z</time>
      </trkpt>
      <trkpt lat="46.58752" lon="5.73756">
        <ele>600.8</ele>
        <time>2022-09-06T04:31:56Z</time>
      </trkpt>
      <trkpt lat="46.58757" lon="5.73742">
        <ele>600.2</ele>
        <time>2022-09-06T04:31:57Z</time>
      </trkpt>
      <trkpt lat="46.58762" lon="5.73728">
        <ele>599.6</ele>
        <time>2022-09-06T04:31:58Z</time>
      </trkpt>
      <trkpt lat="46.58766" lon="5.73713">
        <ele>599</ele>
        <time>2022-09-06T04:31:59Z</time>
      </trkpt>
      <trkpt lat="46.5877" lon="5.73698">
        <ele>598.2</ele>
        <time>2022-09-06T04:32:00Z</time>
      </trkpt>
      <trkpt lat="46.58777" lon="5.73674">
        <ele>597</ele>
        <time>2022-09-06T04:32:01Z</time>
      </trkpt>
      <trkpt lat="46.58784" lon="5.7365">
        <ele>596.2</ele>
        <time>2022-09-06T04:32:02Z</time>
      </trkpt>
      <trkpt lat="46.58788" lon="5.73634">
        <ele>595.6</ele>
        <time>2022-09-06T04:32:03Z</time>
      </trkpt>
      <trkpt lat="46.58792" lon="5.73618">
        <ele>594.8</ele>
        <time>2022-09-06T04:32:04Z</time>
      </trkpt>
      <trkpt lat="46.58794" lon="5.7361">
        <ele>594</ele>
        <time>2022-09-06T04:32:05Z</time>
      </trkpt>
      <trkpt lat="46.58797" lon="5.73602">
        <ele>593.4</ele>
        <time>2022-09-06T04:32:06Z</time>
      </trkpt>
      <trkpt lat="46.58801" lon="5.73585">
        <ele>592.6</ele>
        <time>2022-09-06T04:32:07Z</time>
      </trkpt>
      <trkpt lat="46.58806" lon="5.73568">
        <ele>591.8</ele>
        <time>2022-09-06T04:32:08Z</time>
      </trkpt>
      <trkpt lat="46.5881" lon="5.73551">
        <ele>591</ele>
        <time>2022-09-06T04:32:09Z</time>
      </trkpt>
      <trkpt lat="46.58817" lon="5.73526">
        <ele>591</ele>
        <time>2022-09-06T04:32:10Z</time>
      </trkpt>
      <trkpt lat="46.58819" lon="5.73518">
        <ele>590.2</ele>
        <time>2022-09-06T04:32:11Z</time>
      </trkpt>
      <trkpt lat="46.58824" lon="5.73501">
        <ele>589.4</ele>
        <time>2022-09-06T04:32:12Z</time>
      </trkpt>
      <trkpt lat="46.58829" lon="5.73484">
        <ele>588.4</ele>
        <time>2022-09-06T04:32:13Z</time>
      </trkpt>
      <trkpt lat="46.58833" lon="5.73467">
        <ele>587.8</ele>
        <time>2022-09-06T04:32:14Z</time>
      </trkpt>
      <trkpt lat="46.58838" lon="5.7345">
        <ele>587</ele>
        <time>2022-09-06T04:32:15Z</time>
      </trkpt>
      <trkpt lat="46.58843" lon="5.73433">
        <ele>586.4</ele>
        <time>2022-09-06T04:32:16Z</time>
      </trkpt>
      <trkpt lat="46.58849" lon="5.73417">
        <ele>585.6</ele>
        <time>2022-09-06T04:32:17Z</time>
      </trkpt>
      <trkpt lat="46.58855" lon="5.734">
        <ele>584.8</ele>
        <time>2022-09-06T04:32:18Z</time>
      </trkpt>
      <trkpt lat="46.58861" lon="5.73384">
        <ele>583.4</ele>
        <time>2022-09-06T04:32:19Z</time>
      </trkpt>
      <trkpt lat="46.58867" lon="5.73368">
        <ele>582.6</ele>
        <time>2022-09-06T04:32:20Z</time>
      </trkpt>
      <trkpt lat="46.58874" lon="5.73352">
        <ele>582</ele>
        <time>2022-09-06T04:32:21Z</time>
      </trkpt>
      <trkpt lat="46.5888" lon="5.73337">
        <ele>581.4</ele>
        <time>2022-09-06T04:32:22Z</time>
      </trkpt>
      <trkpt lat="46.58886" lon="5.7332">
        <ele>580.6</ele>
        <time>2022-09-06T04:32:23Z</time>
      </trkpt>
      <trkpt lat="46.58892" lon="5.73304">
        <ele>580</ele>
        <time>2022-09-06T04:32:24Z</time>
      </trkpt>
      <trkpt lat="46.58898" lon="5.73288">
        <ele>579.4</ele>
        <time>2022-09-06T04:32:25Z</time>
      </trkpt>
      <trkpt lat="46.58905" lon="5.73273">
        <ele>578.8</ele>
        <time>2022-09-06T04:32:26Z</time>
      </trkpt>
      <trkpt lat="46.58911" lon="5.73257">
        <ele>578.4</ele>
        <time>2022-09-06T04:32:27Z</time>
      </trkpt>
      <trkpt lat="46.58917" lon="5.73241">
        <ele>577.6</ele>
        <time>2022-09-06T04:32:28Z</time>
      </trkpt>
      <trkpt lat="46.58923" lon="5.73225">
        <ele>577.2</ele>
        <time>2022-09-06T04:32:29Z</time>
      </trkpt>
      <trkpt lat="46.58928" lon="5.73209">
        <ele>576.6</ele>
        <time>2022-09-06T04:32:30Z</time>
      </trkpt>
      <trkpt lat="46.58933" lon="5.73193">
        <ele>576</ele>
        <time>2022-09-06T04:32:31Z</time>
      </trkpt>
      <trkpt lat="46.58936" lon="5.73176">
        <ele>575.4</ele>
        <time>2022-09-06T04:32:32Z</time>
      </trkpt>
      <trkpt lat="46.58939" lon="5.73159">
        <ele>574.8</ele>
        <time>2022-09-06T04:32:33Z</time>
      </trkpt>
      <trkpt lat="46.58942" lon="5.73142">
        <ele>574.2</ele>
        <time>2022-09-06T04:32:34Z</time>
      </trkpt>
      <trkpt lat="46.58943" lon="5.73125">
        <ele>573.6</ele>
        <time>2022-09-06T04:32:35Z</time>
      </trkpt>
      <trkpt lat="46.58944" lon="5.73107">
        <ele>573</ele>
        <time>2022-09-06T04:32:36Z</time>
      </trkpt>
      <trkpt lat="46.58944" lon="5.7309">
        <ele>572.4</ele>
        <time>2022-09-06T04:32:37Z</time>
      </trkpt>
      <trkpt lat="46.58944" lon="5.73072">
        <ele>571.8</ele>
        <time>2022-09-06T04:32:38Z</time>
      </trkpt>
      <trkpt lat="46.58945" lon="5.73054">
        <ele>571.4</ele>
        <time>2022-09-06T04:32:39Z</time>
      </trkpt>
      <trkpt lat="46.58945" lon="5.73037">
        <ele>570.8</ele>
        <time>2022-09-06T04:32:40Z</time>
      </trkpt>
      <trkpt lat="46.58945" lon="5.73019">
        <ele>570.4</ele>
        <time>2022-09-06T04:32:41Z</time>
      </trkpt>
      <trkpt lat="46.58945" lon="5.73002">
        <ele>570</ele>
        <time>2022-09-06T04:32:42Z</time>
      </trkpt>
      <trkpt lat="46.58945" lon="5.72984">
        <ele>569.6</ele>
        <time>2022-09-06T04:32:43Z</time>
      </trkpt>
      <trkpt lat="46.58945" lon="5.72967">
        <ele>569.2</ele>
        <time>2022-09-06T04:32:44Z</time>
      </trkpt>
      <trkpt lat="46.58945" lon="5.7295">
        <ele>568.8</ele>
        <time>2022-09-06T04:32:45Z</time>
      </trkpt>
      <trkpt lat="46.58945" lon="5.72934">
        <ele>568.6</ele>
        <time>2022-09-06T04:32:46Z</time>
      </trkpt>
      <trkpt lat="46.58945" lon="5.72918">
        <ele>568.4</ele>
        <time>2022-09-06T04:32:47Z</time>
      </trkpt>
      <trkpt lat="46.58945" lon="5.72902">
        <ele>568.4</ele>
        <time>2022-09-06T04:32:48Z</time>
      </trkpt>
      <trkpt lat="46.58945" lon="5.72887">
        <ele>568</ele>
        <time>2022-09-06T04:32:49Z</time>
      </trkpt>
      <trkpt lat="46.58945" lon="5.72872">
        <ele>568</ele>
        <time>2022-09-06T04:32:50Z</time>
      </trkpt>
      <trkpt lat="46.58945" lon="5.72857">
        <ele>567.6</ele>
        <time>2022-09-06T04:32:51Z</time>
      </trkpt>
      <trkpt lat="46.58945" lon="5.72842">
        <ele>567.4</ele>
        <time>2022-09-06T04:32:52Z</time>
      </trkpt>
      <trkpt lat="46.58945" lon="5.72828">
        <ele>567.4</ele>
        <time>2022-09-06T04:32:53Z</time>
      </trkpt>
      <trkpt lat="46.58944" lon="5.72814">
        <ele>567</ele>
        <time>2022-09-06T04:32:54Z</time>
      </trkpt>
      <trkpt lat="46.58944" lon="5.728">
        <ele>567</ele>
        <time>2022-09-06T04:32:55Z</time>
      </trkpt>
      <trkpt lat="46.58945" lon="5.72786">
        <ele>566.8</ele>
        <time>2022-09-06T04:32:56Z</time>
      </trkpt>
      <trkpt lat="46.58945" lon="5.72772">
        <ele>566.8</ele>
        <time>2022-09-06T04:32:57Z</time>
      </trkpt>
      <trkpt lat="46.58945" lon="5.72758">
        <ele>566.6</ele>
        <time>2022-09-06T04:32:58Z</time>
      </trkpt>
      <trkpt lat="46.58945" lon="5.72745">
        <ele>566.6</ele>
        <time>2022-09-06T04:32:59Z</time>
      </trkpt>
      <trkpt lat="46.58945" lon="5.72732">
        <ele>566.4</ele>
        <time>2022-09-06T04:33:00Z</time>
      </trkpt>
      <trkpt lat="46.58945" lon="5.72719">
        <ele>566.4</ele>
        <time>2022-09-06T04:33:01Z</time>
      </trkpt>
      <trkpt lat="46.58944" lon="5.72706">
        <ele>566</ele>
        <time>2022-09-06T04:33:02Z</time>
      </trkpt>
      <trkpt lat="46.58944" lon="5.72693">
        <ele>566</ele>
        <time>2022-09-06T04:33:03Z</time>
      </trkpt>
      <trkpt lat="46.58944" lon="5.7268">
        <ele>566</ele>
        <time>2022-09-06T04:33:04Z</time>
      </trkpt>
      <trkpt lat="46.58944" lon="5.72667">
        <ele>565.8</ele>
        <time>2022-09-06T04:33:05Z</time>
      </trkpt>
      <trkpt lat="46.58944" lon="5.72654">
        <ele>565.8</ele>
        <time>2022-09-06T04:33:06Z</time>
      </trkpt>
      <trkpt lat="46.58944" lon="5.72641">
        <ele>565.8</ele>
        <time>2022-09-06T04:33:07Z</time>
      </trkpt>
      <trkpt lat="46.58944" lon="5.72627">
        <ele>565.6</ele>
        <time>2022-09-06T04:33:08Z</time>
      </trkpt>
      <trkpt lat="46.58944" lon="5.72614">
        <ele>565.6</ele>
        <time>2022-09-06T04:33:09Z</time>
      </trkpt>
      <trkpt lat="46.58944" lon="5.72601">
        <ele>565.2</ele>
        <time>2022-09-06T04:33:10Z</time>
      </trkpt>
      <trkpt lat="46.58944" lon="5.72588">
        <ele>565.2</ele>
        <time>2022-09-06T04:33:11Z</time>
      </trkpt>
      <trkpt lat="46.58944" lon="5.72575">
        <ele>565.2</ele>
        <time>2022-09-06T04:33:12Z</time>
      </trkpt>
      <trkpt lat="46.58944" lon="5.72563">
        <ele>565</ele>
        <time>2022-09-06T04:33:13Z</time>
      </trkpt>
      <trkpt lat="46.58945" lon="5.7255">
        <ele>565</ele>
        <time>2022-09-06T04:33:14Z</time>
      </trkpt>
      <trkpt lat="46.58945" lon="5.72537">
        <ele>565</ele>
        <time>2022-09-06T04:33:15Z</time>
      </trkpt>
      <trkpt lat="46.58945" lon="5.72525">
        <ele>564.6</ele>
        <time>2022-09-06T04:33:16Z</time>
      </trkpt>
      <trkpt lat="46.58945" lon="5.72512">
        <ele>564.6</ele>
        <time>2022-09-06T04:33:17Z</time>
      </trkpt>
      <trkpt lat="46.58945" lon="5.725">
        <ele>564.4</ele>
        <time>2022-09-06T04:33:18Z</time>
      </trkpt>
      <trkpt lat="46.58945" lon="5.72488">
        <ele>564.4</ele>
        <time>2022-09-06T04:33:19Z</time>
      </trkpt>
      <trkpt lat="46.58945" lon="5.72476">
        <ele>564.4</ele>
        <time>2022-09-06T04:33:20Z</time>
      </trkpt>
      <trkpt lat="46.58945" lon="5.72463">
        <ele>564.4</ele>
        <time>2022-09-06T04:33:21Z</time>
      </trkpt>
      <trkpt lat="46.58945" lon="5.72452">
        <ele>564.2</ele>
        <time>2022-09-06T04:33:22Z</time>
      </trkpt>
      <trkpt lat="46.58945" lon="5.7244">
        <ele>564.2</ele>
        <time>2022-09-06T04:33:23Z</time>
      </trkpt>
      <trkpt lat="46.58945" lon="5.72428">
        <ele>564.2</ele>
        <time>2022-09-06T04:33:24Z</time>
      </trkpt>
      <trkpt lat="46.58945" lon="5.72416">
        <ele>564.2</ele>
        <time>2022-09-06T04:33:25Z</time>
      </trkpt>
      <trkpt lat="46.58945" lon="5.72404">
        <ele>564.2</ele>
        <time>2022-09-06T04:33:26Z</time>
      </trkpt>
      <trkpt lat="46.58945" lon="5.72393">
        <ele>563.8</ele>
        <time>2022-09-06T04:33:27Z</time>
      </trkpt>
      <trkpt lat="46.58945" lon="5.72381">
        <ele>563.8</ele>
        <time>2022-09-06T04:33:28Z</time>
      </trkpt>
      <trkpt lat="46.58945" lon="5.72369">
        <ele>563.6</ele>
        <time>2022-09-06T04:33:29Z</time>
      </trkpt>
      <trkpt lat="46.58945" lon="5.72358">
        <ele>563.6</ele>
        <time>2022-09-06T04:33:30Z</time>
      </trkpt>
      <trkpt lat="46.58945" lon="5.72346">
        <ele>563.6</ele>
        <time>2022-09-06T04:33:31Z</time>
      </trkpt>
      <trkpt lat="46.58945" lon="5.72335">
        <ele>563.6</ele>
        <time>2022-09-06T04:33:32Z</time>
      </trkpt>
      <trkpt lat="46.58945" lon="5.72323">
        <ele>563.6</ele>
        <time>2022-09-06T04:33:33Z</time>
      </trkpt>
      <trkpt lat="46.58945" lon="5.72312">
        <ele>563.4</ele>
        <time>2022-09-06T04:33:34Z</time>
      </trkpt>
      <trkpt lat="46.58945" lon="5.723">
        <ele>563.4</ele>
        <time>2022-09-06T04:33:35Z</time>
      </trkpt>
      <trkpt lat="46.58945" lon="5.72289">
        <ele>563.4</ele>
        <time>2022-09-06T04:33:36Z</time>
      </trkpt>
      <trkpt lat="46.58945" lon="5.72277">
        <ele>563.2</ele>
        <time>2022-09-06T04:33:37Z</time>
      </trkpt>
      <trkpt lat="46.58945" lon="5.72266">
        <ele>563.2</ele>
        <time>2022-09-06T04:33:38Z</time>
      </trkpt>
      <trkpt lat="46.58945" lon="5.72254">
        <ele>563.2</ele>
        <time>2022-09-06T04:33:39Z</time>
      </trkpt>
      <trkpt lat="46.58945" lon="5.72243">
        <ele>563.2</ele>
        <time>2022-09-06T04:33:40Z</time>
      </trkpt>
      <trkpt lat="46.58945" lon="5.72231">
        <ele>563.2</ele>
        <time>2022-09-06T04:33:41Z</time>
      </trkpt>
      <trkpt lat="46.58945" lon="5.7222">
        <ele>563.2</ele>
        <time>2022-09-06T04:33:42Z</time>
      </trkpt>
      <trkpt lat="46.58945" lon="5.72208">
        <ele>563.2</ele>
        <time>2022-09-06T04:33:43Z</time>
      </trkpt>
      <trkpt lat="46.58945" lon="5.72197">
        <ele>563.2</ele>
        <time>2022-09-06T04:33:44Z</time>
      </trkpt>
      <trkpt lat="46.58946" lon="5.72185">
        <ele>563.2</ele>
        <time>2022-09-06T04:33:45Z</time>
      </trkpt>
      <trkpt lat="46.58946" lon="5.72174">
        <ele>563.2</ele>
        <time>2022-09-06T04:33:46Z</time>
      </trkpt>
      <trkpt lat="46.58946" lon="5.72163">
        <ele>563.2</ele>
        <time>2022-09-06T04:33:47Z</time>
      </trkpt>
      <trkpt lat="46.58946" lon="5.72152">
        <ele>563.2</ele>
        <time>2022-09-06T04:33:48Z</time>
      </trkpt>
      <trkpt lat="46.58946" lon="5.7214">
        <ele>563.2</ele>
        <time>2022-09-06T04:33:49Z</time>
      </trkpt>
      <trkpt lat="46.58946" lon="5.72129">
        <ele>563.2</ele>
        <time>2022-09-06T04:33:50Z</time>
      </trkpt>
      <trkpt lat="46.58946" lon="5.72118">
        <ele>563.2</ele>
        <time>2022-09-06T04:33:51Z</time>
      </trkpt>
      <trkpt lat="46.58946" lon="5.72107">
        <ele>563.2</ele>
        <time>2022-09-06T04:33:52Z</time>
      </trkpt>
      <trkpt lat="46.58947" lon="5.72096">
        <ele>562.8</ele>
        <time>2022-09-06T04:33:53Z</time>
      </trkpt>
      <trkpt lat="46.58947" lon="5.72085">
        <ele>562.8</ele>
        <time>2022-09-06T04:33:54Z</time>
      </trkpt>
      <trkpt lat="46.58947" lon="5.72074">
        <ele>562.8</ele>
        <time>2022-09-06T04:33:55Z</time>
      </trkpt>
      <trkpt lat="46.58947" lon="5.72063">
        <ele>562.8</ele>
        <time>2022-09-06T04:33:56Z</time>
      </trkpt>
      <trkpt lat="46.58947" lon="5.72052">
        <ele>562.8</ele>
        <time>2022-09-06T04:33:57Z</time>
      </trkpt>
      <trkpt lat="46.58947" lon="5.7204">
        <ele>562.8</ele>
        <time>2022-09-06T04:33:58Z</time>
      </trkpt>
      <trkpt lat="46.58947" lon="5.72029">
        <ele>562.8</ele>
        <time>2022-09-06T04:33:59Z</time>
      </trkpt>
      <trkpt lat="46.58947" lon="5.72018">
        <ele>562.8</ele>
        <time>2022-09-06T04:34:00Z</time>
      </trkpt>
      <trkpt lat="46.58948" lon="5.72007">
        <ele>562.6</ele>
        <time>2022-09-06T04:34:01Z</time>
      </trkpt>
      <trkpt lat="46.58948" lon="5.71996">
        <ele>562.6</ele>
        <time>2022-09-06T04:34:02Z</time>
      </trkpt>
      <trkpt lat="46.58948" lon="5.71985">
        <ele>562.4</ele>
        <time>2022-09-06T04:34:03Z</time>
      </trkpt>
      <trkpt lat="46.58948" lon="5.71974">
        <ele>562.4</ele>
        <time>2022-09-06T04:34:04Z</time>
      </trkpt>
      <trkpt lat="46.58948" lon="5.71962">
        <ele>562.4</ele>
        <time>2022-09-06T04:34:05Z</time>
      </trkpt>
      <trkpt lat="46.58948" lon="5.71951">
        <ele>562.2</ele>
        <time>2022-09-06T04:34:06Z</time>
      </trkpt>
      <trkpt lat="46.58948" lon="5.7194">
        <ele>562.2</ele>
        <time>2022-09-06T04:34:07Z</time>
      </trkpt>
      <trkpt lat="46.58948" lon="5.71929">
        <ele>562.2</ele>
        <time>2022-09-06T04:34:08Z</time>
      </trkpt>
      <trkpt lat="46.58948" lon="5.71918">
        <ele>562.2</ele>
        <time>2022-09-06T04:34:09Z</time>
      </trkpt>
      <trkpt lat="46.58948" lon="5.71907">
        <ele>562</ele>
        <time>2022-09-06T04:34:10Z</time>
      </trkpt>
      <trkpt lat="46.58948" lon="5.71895">
        <ele>562</ele>
        <time>2022-09-06T04:34:11Z</time>
      </trkpt>
      <trkpt lat="46.58948" lon="5.71884">
        <ele>562</ele>
        <time>2022-09-06T04:34:12Z</time>
      </trkpt>
      <trkpt lat="46.58948" lon="5.71873">
        <ele>562</ele>
        <time>2022-09-06T04:34:13Z</time>
      </trkpt>
      <trkpt lat="46.58948" lon="5.71862">
        <ele>561.8</ele>
        <time>2022-09-06T04:34:14Z</time>
      </trkpt>
      <trkpt lat="46.58948" lon="5.7185">
        <ele>561.8</ele>
        <time>2022-09-06T04:34:15Z</time>
      </trkpt>
      <trkpt lat="46.58948" lon="5.71839">
        <ele>561.8</ele>
        <time>2022-09-06T04:34:16Z</time>
      </trkpt>
      <trkpt lat="46.58948" lon="5.71828">
        <ele>561.8</ele>
        <time>2022-09-06T04:34:17Z</time>
      </trkpt>
      <trkpt lat="46.58947" lon="5.71816">
        <ele>561.8</ele>
        <time>2022-09-06T04:34:18Z</time>
      </trkpt>
      <trkpt lat="46.58947" lon="5.71805">
        <ele>561.8</ele>
        <time>2022-09-06T04:34:19Z</time>
      </trkpt>
      <trkpt lat="46.58947" lon="5.71794">
        <ele>561.8</ele>
        <time>2022-09-06T04:34:20Z</time>
      </trkpt>
      <trkpt lat="46.58947" lon="5.71783">
        <ele>561.8</ele>
        <time>2022-09-06T04:34:21Z</time>
      </trkpt>
      <trkpt lat="46.58946" lon="5.71771">
        <ele>561.4</ele>
        <time>2022-09-06T04:34:22Z</time>
      </trkpt>
      <trkpt lat="46.58946" lon="5.7176">
        <ele>561.4</ele>
        <time>2022-09-06T04:34:23Z</time>
      </trkpt>
      <trkpt lat="46.58946" lon="5.71749">
        <ele>561.4</ele>
        <time>2022-09-06T04:34:24Z</time>
      </trkpt>
      <trkpt lat="46.58946" lon="5.71738">
        <ele>561.2</ele>
        <time>2022-09-06T04:34:25Z</time>
      </trkpt>
      <trkpt lat="46.58946" lon="5.71727">
        <ele>561.2</ele>
        <time>2022-09-06T04:34:26Z</time>
      </trkpt>
      <trkpt lat="46.58946" lon="5.71716">
        <ele>561.2</ele>
        <time>2022-09-06T04:34:27Z</time>
      </trkpt>
      <trkpt lat="46.58946" lon="5.71705">
        <ele>561.2</ele>
        <time>2022-09-06T04:34:28Z</time>
      </trkpt>
      <trkpt lat="46.58946" lon="5.71694">
        <ele>561.2</ele>
        <time>2022-09-06T04:34:29Z</time>
      </trkpt>
      <trkpt lat="46.58946" lon="5.71683">
        <ele>561.2</ele>
        <time>2022-09-06T04:34:30Z</time>
      </trkpt>
      <trkpt lat="46.58945" lon="5.71672">
        <ele>561</ele>
        <time>2022-09-06T04:34:31Z</time>
      </trkpt>
      <trkpt lat="46.58945" lon="5.71661">
        <ele>561</ele>
        <time>2022-09-06T04:34:32Z</time>
      </trkpt>
      <trkpt lat="46.58945" lon="5.7165">
        <ele>561</ele>
        <time>2022-09-06T04:34:33Z</time>
      </trkpt>
      <trkpt lat="46.58945" lon="5.71639">
        <ele>561</ele>
        <time>2022-09-06T04:34:34Z</time>
      </trkpt>
      <trkpt lat="46.58945" lon="5.71628">
        <ele>561</ele>
        <time>2022-09-06T04:34:35Z</time>
      </trkpt>
      <trkpt lat="46.58945" lon="5.71617">
        <ele>560.8</ele>
        <time>2022-09-06T04:34:36Z</time>
      </trkpt>
      <trkpt lat="46.58945" lon="5.71606">
        <ele>560.8</ele>
        <time>2022-09-06T04:34:37Z</time>
      </trkpt>
      <trkpt lat="46.58945" lon="5.71595">
        <ele>560.8</ele>
        <time>2022-09-06T04:34:38Z</time>
      </trkpt>
      <trkpt lat="46.58945" lon="5.71584">
        <ele>560.6</ele>
        <time>2022-09-06T04:34:39Z</time>
      </trkpt>
      <trkpt lat="46.58945" lon="5.71573">
        <ele>560.6</ele>
        <time>2022-09-06T04:34:40Z</time>
      </trkpt>
      <trkpt lat="46.58945" lon="5.71562">
        <ele>560.6</ele>
        <time>2022-09-06T04:34:41Z</time>
      </trkpt>
      <trkpt lat="46.58945" lon="5.7155">
        <ele>560.6</ele>
        <time>2022-09-06T04:34:42Z</time>
      </trkpt>
      <trkpt lat="46.58945" lon="5.71539">
        <ele>560.4</ele>
        <time>2022-09-06T04:34:43Z</time>
      </trkpt>
      <trkpt lat="46.58945" lon="5.71528">
        <ele>560.4</ele>
        <time>2022-09-06T04:34:44Z</time>
      </trkpt>
      <trkpt lat="46.58945" lon="5.71516">
        <ele>560.4</ele>
        <time>2022-09-06T04:34:45Z</time>
      </trkpt>
      <trkpt lat="46.58945" lon="5.71505">
        <ele>560.4</ele>
        <time>2022-09-06T04:34:46Z</time>
      </trkpt>
      <trkpt lat="46.58945" lon="5.71493">
        <ele>560</ele>
        <time>2022-09-06T04:34:47Z</time>
      </trkpt>
      <trkpt lat="46.58945" lon="5.71481">
        <ele>560</ele>
        <time>2022-09-06T04:34:48Z</time>
      </trkpt>
      <trkpt lat="46.58945" lon="5.7147">
        <ele>559.8</ele>
        <time>2022-09-06T04:34:49Z</time>
      </trkpt>
      <trkpt lat="46.58945" lon="5.71458">
        <ele>559.8</ele>
        <time>2022-09-06T04:34:50Z</time>
      </trkpt>
      <trkpt lat="46.58945" lon="5.71446">
        <ele>559.6</ele>
        <time>2022-09-06T04:34:51Z</time>
      </trkpt>
      <trkpt lat="46.58945" lon="5.71435">
        <ele>559.6</ele>
        <time>2022-09-06T04:34:52Z</time>
      </trkpt>
      <trkpt lat="46.58945" lon="5.71423">
        <ele>559.6</ele>
        <time>2022-09-06T04:34:53Z</time>
      </trkpt>
      <trkpt lat="46.58945" lon="5.71411">
        <ele>559.4</ele>
        <time>2022-09-06T04:34:54Z</time>
      </trkpt>
      <trkpt lat="46.58945" lon="5.714">
        <ele>559.4</ele>
        <time>2022-09-06T04:34:55Z</time>
      </trkpt>
      <trkpt lat="46.58945" lon="5.71388">
        <ele>559.4</ele>
        <time>2022-09-06T04:34:56Z</time>
      </trkpt>
      <trkpt lat="46.58945" lon="5.71376">
        <ele>559.4</ele>
        <time>2022-09-06T04:34:57Z</time>
      </trkpt>
      <trkpt lat="46.58945" lon="5.71365">
        <ele>559.2</ele>
        <time>2022-09-06T04:34:58Z</time>
      </trkpt>
      <trkpt lat="46.58945" lon="5.71353">
        <ele>559.2</ele>
        <time>2022-09-06T04:34:59Z</time>
      </trkpt>
      <trkpt lat="46.58945" lon="5.71342">
        <ele>559.2</ele>
        <time>2022-09-06T04:35:00Z</time>
      </trkpt>
      <trkpt lat="46.58946" lon="5.7133">
        <ele>558.8</ele>
        <time>2022-09-06T04:35:01Z</time>
      </trkpt>
      <trkpt lat="46.58946" lon="5.71319">
        <ele>558.8</ele>
        <time>2022-09-06T04:35:02Z</time>
      </trkpt>
      <trkpt lat="46.58946" lon="5.71308">
        <ele>558.8</ele>
        <time>2022-09-06T04:35:03Z</time>
      </trkpt>
      <trkpt lat="46.58946" lon="5.71296">
        <ele>558.8</ele>
        <time>2022-09-06T04:35:04Z</time>
      </trkpt>
      <trkpt lat="46.58946" lon="5.71285">
        <ele>558.8</ele>
        <time>2022-09-06T04:35:05Z</time>
      </trkpt>
      <trkpt lat="46.58946" lon="5.71273">
        <ele>558.6</ele>
        <time>2022-09-06T04:35:06Z</time>
      </trkpt>
      <trkpt lat="46.58946" lon="5.71262">
        <ele>558.6</ele>
        <time>2022-09-06T04:35:07Z</time>
      </trkpt>
      <trkpt lat="46.58946" lon="5.71251">
        <ele>558.6</ele>
        <time>2022-09-06T04:35:08Z</time>
      </trkpt>
      <trkpt lat="46.58946" lon="5.71239">
        <ele>558.2</ele>
        <time>2022-09-06T04:35:09Z</time>
      </trkpt>
      <trkpt lat="46.58946" lon="5.71228">
        <ele>558.2</ele>
        <time>2022-09-06T04:35:10Z</time>
      </trkpt>
      <trkpt lat="46.58946" lon="5.71217">
        <ele>558.2</ele>
        <time>2022-09-06T04:35:11Z</time>
      </trkpt>
      <trkpt lat="46.58946" lon="5.71206">
        <ele>558.2</ele>
        <time>2022-09-06T04:35:12Z</time>
      </trkpt>
      <trkpt lat="46.58946" lon="5.71194">
        <ele>558</ele>
        <time>2022-09-06T04:35:13Z</time>
      </trkpt>
      <trkpt lat="46.58946" lon="5.71183">
        <ele>558</ele>
        <time>2022-09-06T04:35:14Z</time>
      </trkpt>
      <trkpt lat="46.58946" lon="5.71172">
        <ele>558</ele>
        <time>2022-09-06T04:35:15Z</time>
      </trkpt>
      <trkpt lat="46.58946" lon="5.71161">
        <ele>557.8</ele>
        <time>2022-09-06T04:35:16Z</time>
      </trkpt>
      <trkpt lat="46.58946" lon="5.7115">
        <ele>557.8</ele>
        <time>2022-09-06T04:35:17Z</time>
      </trkpt>
      <trkpt lat="46.58946" lon="5.71138">
        <ele>557.8</ele>
        <time>2022-09-06T04:35:18Z</time>
      </trkpt>
      <trkpt lat="46.58946" lon="5.71127">
        <ele>557.6</ele>
        <time>2022-09-06T04:35:19Z</time>
      </trkpt>
      <trkpt lat="46.58946" lon="5.71116">
        <ele>557.6</ele>
        <time>2022-09-06T04:35:20Z</time>
      </trkpt>
      <trkpt lat="46.58946" lon="5.71105">
        <ele>557.6</ele>
        <time>2022-09-06T04:35:21Z</time>
      </trkpt>
      <trkpt lat="46.58946" lon="5.71093">
        <ele>557.6</ele>
        <time>2022-09-06T04:35:22Z</time>
      </trkpt>
      <trkpt lat="46.58946" lon="5.71082">
        <ele>557.4</ele>
        <time>2022-09-06T04:35:23Z</time>
      </trkpt>
      <trkpt lat="46.58946" lon="5.71071">
        <ele>557.4</ele>
        <time>2022-09-06T04:35:24Z</time>
      </trkpt>
      <trkpt lat="46.58946" lon="5.7106">
        <ele>557.4</ele>
        <time>2022-09-06T04:35:25Z</time>
      </trkpt>
      <trkpt lat="46.58946" lon="5.71049">
        <ele>557.4</ele>
        <time>2022-09-06T04:35:26Z</time>
      </trkpt>
      <trkpt lat="46.58946" lon="5.71038">
        <ele>557.4</ele>
        <time>2022-09-06T04:35:27Z</time>
      </trkpt>
      <trkpt lat="46.58946" lon="5.71027">
        <ele>557</ele>
        <time>2022-09-06T04:35:28Z</time>
      </trkpt>
      <trkpt lat="46.58946" lon="5.71016">
        <ele>557.4</ele>
        <time>2022-09-06T04:35:29Z</time>
      </trkpt>
      <trkpt lat="46.58946" lon="5.71005">
        <ele>557.4</ele>
        <time>2022-09-06T04:35:30Z</time>
      </trkpt>
      <trkpt lat="46.58946" lon="5.70994">
        <ele>557.4</ele>
        <time>2022-09-06T04:35:31Z</time>
      </trkpt>
      <trkpt lat="46.58946" lon="5.70983">
        <ele>557</ele>
        <time>2022-09-06T04:35:32Z</time>
      </trkpt>
      <trkpt lat="46.58946" lon="5.70972">
        <ele>557</ele>
        <time>2022-09-06T04:35:33Z</time>
      </trkpt>
      <trkpt lat="46.58947" lon="5.70961">
        <ele>556.8</ele>
        <time>2022-09-06T04:35:34Z</time>
      </trkpt>
      <trkpt lat="46.58947" lon="5.70951">
        <ele>556.8</ele>
        <time>2022-09-06T04:35:35Z</time>
      </trkpt>
      <trkpt lat="46.58947" lon="5.7094">
        <ele>556.8</ele>
        <time>2022-09-06T04:35:36Z</time>
      </trkpt>
      <trkpt lat="46.58947" lon="5.70929">
        <ele>556.6</ele>
        <time>2022-09-06T04:35:37Z</time>
      </trkpt>
      <trkpt lat="46.58947" lon="5.70919">
        <ele>556.6</ele>
        <time>2022-09-06T04:35:38Z</time>
      </trkpt>
      <trkpt lat="46.58946" lon="5.70908">
        <ele>556.6</ele>
        <time>2022-09-06T04:35:39Z</time>
      </trkpt>
      <trkpt lat="46.58946" lon="5.70897">
        <ele>556.6</ele>
        <time>2022-09-06T04:35:40Z</time>
      </trkpt>
      <trkpt lat="46.58945" lon="5.70887">
        <ele>556.2</ele>
        <time>2022-09-06T04:35:41Z</time>
      </trkpt>
      <trkpt lat="46.58944" lon="5.70876">
        <ele>556</ele>
        <time>2022-09-06T04:35:42Z</time>
      </trkpt>
      <trkpt lat="46.58942" lon="5.70865">
        <ele>556</ele>
        <time>2022-09-06T04:35:43Z</time>
      </trkpt>
      <trkpt lat="46.58941" lon="5.70855">
        <ele>555.6</ele>
        <time>2022-09-06T04:35:44Z</time>
      </trkpt>
      <trkpt lat="46.58938" lon="5.70844">
        <ele>555.6</ele>
        <time>2022-09-06T04:35:45Z</time>
      </trkpt>
      <trkpt lat="46.58936" lon="5.70834">
        <ele>555.2</ele>
        <time>2022-09-06T04:35:46Z</time>
      </trkpt>
      <trkpt lat="46.58934" lon="5.70823">
        <ele>555.2</ele>
        <time>2022-09-06T04:35:47Z</time>
      </trkpt>
      <trkpt lat="46.58931" lon="5.70813">
        <ele>555.2</ele>
        <time>2022-09-06T04:35:48Z</time>
      </trkpt>
      <trkpt lat="46.58928" lon="5.70803">
        <ele>555</ele>
        <time>2022-09-06T04:35:49Z</time>
      </trkpt>
      <trkpt lat="46.58924" lon="5.70793">
        <ele>555</ele>
        <time>2022-09-06T04:35:50Z</time>
      </trkpt>
      <trkpt lat="46.5892" lon="5.70784">
        <ele>554.6</ele>
        <time>2022-09-06T04:35:51Z</time>
      </trkpt>
      <trkpt lat="46.58916" lon="5.70775">
        <ele>554.6</ele>
        <time>2022-09-06T04:35:52Z</time>
      </trkpt>
      <trkpt lat="46.58911" lon="5.70766">
        <ele>554.4</ele>
        <time>2022-09-06T04:35:53Z</time>
      </trkpt>
      <trkpt lat="46.58906" lon="5.70757">
        <ele>554.4</ele>
        <time>2022-09-06T04:35:54Z</time>
      </trkpt>
      <trkpt lat="46.58901" lon="5.70748">
        <ele>554.2</ele>
        <time>2022-09-06T04:35:55Z</time>
      </trkpt>
      <trkpt lat="46.58895" lon="5.7074">
        <ele>554.2</ele>
        <time>2022-09-06T04:35:56Z</time>
      </trkpt>
      <trkpt lat="46.58889" lon="5.70732">
        <ele>553.8</ele>
        <time>2022-09-06T04:35:57Z</time>
      </trkpt>
      <trkpt lat="46.58883" lon="5.70724">
        <ele>553.8</ele>
        <time>2022-09-06T04:35:58Z</time>
      </trkpt>
      <trkpt lat="46.58877" lon="5.70717">
        <ele>553.6</ele>
        <time>2022-09-06T04:35:59Z</time>
      </trkpt>
      <trkpt lat="46.5887" lon="5.7071">
        <ele>553.6</ele>
        <time>2022-09-06T04:36:00Z</time>
      </trkpt>
      <trkpt lat="46.58864" lon="5.70704">
        <ele>553.2</ele>
        <time>2022-09-06T04:36:01Z</time>
      </trkpt>
      <trkpt lat="46.58857" lon="5.70698">
        <ele>553.2</ele>
        <time>2022-09-06T04:36:02Z</time>
      </trkpt>
      <trkpt lat="46.58849" lon="5.70693">
        <ele>553</ele>
        <time>2022-09-06T04:36:03Z</time>
      </trkpt>
      <trkpt lat="46.58842" lon="5.70687">
        <ele>553</ele>
        <time>2022-09-06T04:36:04Z</time>
      </trkpt>
      <trkpt lat="46.58835" lon="5.70681">
        <ele>553</ele>
        <time>2022-09-06T04:36:05Z</time>
      </trkpt>
      <trkpt lat="46.58828" lon="5.70676">
        <ele>552.6</ele>
        <time>2022-09-06T04:36:06Z</time>
      </trkpt>
      <trkpt lat="46.58821" lon="5.7067">
        <ele>552.6</ele>
        <time>2022-09-06T04:36:07Z</time>
      </trkpt>
      <trkpt lat="46.58814" lon="5.70664">
        <ele>552.4</ele>
        <time>2022-09-06T04:36:08Z</time>
      </trkpt>
      <trkpt lat="46.58807" lon="5.70658">
        <ele>552.4</ele>
        <time>2022-09-06T04:36:09Z</time>
      </trkpt>
      <trkpt lat="46.58801" lon="5.70651">
        <ele>552</ele>
        <time>2022-09-06T04:36:10Z</time>
      </trkpt>
      <trkpt lat="46.58795" lon="5.70644">
        <ele>552</ele>
        <time>2022-09-06T04:36:11Z</time>
      </trkpt>
      <trkpt lat="46.58789" lon="5.70637">
        <ele>552</ele>
        <time>2022-09-06T04:36:12Z</time>
      </trkpt>
      <trkpt lat="46.58783" lon="5.70629">
        <ele>551.8</ele>
        <time>2022-09-06T04:36:13Z</time>
      </trkpt>
      <trkpt lat="46.58778" lon="5.70621">
        <ele>551.8</ele>
        <time>2022-09-06T04:36:14Z</time>
      </trkpt>
      <trkpt lat="46.58773" lon="5.70612">
        <ele>551.4</ele>
        <time>2022-09-06T04:36:15Z</time>
      </trkpt>
      <trkpt lat="46.58767" lon="5.70604">
        <ele>551.4</ele>
        <time>2022-09-06T04:36:16Z</time>
      </trkpt>
      <trkpt lat="46.58762" lon="5.70595">
        <ele>551</ele>
        <time>2022-09-06T04:36:17Z</time>
      </trkpt>
      <trkpt lat="46.58757" lon="5.70586">
        <ele>551</ele>
        <time>2022-09-06T04:36:18Z</time>
      </trkpt>
      <trkpt lat="46.58752" lon="5.70577">
        <ele>550.8</ele>
        <time>2022-09-06T04:36:19Z</time>
      </trkpt>
      <trkpt lat="46.58747" lon="5.70568">
        <ele>550.4</ele>
        <time>2022-09-06T04:36:20Z</time>
      </trkpt>
      <trkpt lat="46.58742" lon="5.70558">
        <ele>550.2</ele>
        <time>2022-09-06T04:36:21Z</time>
      </trkpt>
      <trkpt lat="46.58736" lon="5.70548">
        <ele>549.8</ele>
        <time>2022-09-06T04:36:22Z</time>
      </trkpt>
      <trkpt lat="46.58731" lon="5.70539">
        <ele>549.4</ele>
        <time>2022-09-06T04:36:23Z</time>
      </trkpt>
      <trkpt lat="46.58726" lon="5.70528">
        <ele>549</ele>
        <time>2022-09-06T04:36:24Z</time>
      </trkpt>
      <trkpt lat="46.5872" lon="5.70518">
        <ele>548.6</ele>
        <time>2022-09-06T04:36:25Z</time>
      </trkpt>
      <trkpt lat="46.58715" lon="5.70508">
        <ele>548.2</ele>
        <time>2022-09-06T04:36:26Z</time>
      </trkpt>
      <trkpt lat="46.58709" lon="5.70497">
        <ele>547.8</ele>
        <time>2022-09-06T04:36:27Z</time>
      </trkpt>
      <trkpt lat="46.58703" lon="5.70487">
        <ele>547.2</ele>
        <time>2022-09-06T04:36:28Z</time>
      </trkpt>
      <trkpt lat="46.58697" lon="5.70477">
        <ele>546.6</ele>
        <time>2022-09-06T04:36:29Z</time>
      </trkpt>
      <trkpt lat="46.5869" lon="5.70469">
        <ele>546.2</ele>
        <time>2022-09-06T04:36:30Z</time>
      </trkpt>
      <trkpt lat="46.58681" lon="5.70463">
        <ele>545.6</ele>
        <time>2022-09-06T04:36:31Z</time>
      </trkpt>
      <trkpt lat="46.58671" lon="5.70459">
        <ele>545.2</ele>
        <time>2022-09-06T04:36:32Z</time>
      </trkpt>
      <trkpt lat="46.58659" lon="5.70457">
        <ele>544.6</ele>
        <time>2022-09-06T04:36:33Z</time>
      </trkpt>
      <trkpt lat="46.58648" lon="5.70455">
        <ele>544.2</ele>
        <time>2022-09-06T04:36:34Z</time>
      </trkpt>
      <trkpt lat="46.58638" lon="5.70453">
        <ele>543.6</ele>
        <time>2022-09-06T04:36:35Z</time>
      </trkpt>
      <trkpt lat="46.58629" lon="5.7045">
        <ele>543</ele>
        <time>2022-09-06T04:36:36Z</time>
      </trkpt>
      <trkpt lat="46.58619" lon="5.70443">
        <ele>542.4</ele>
        <time>2022-09-06T04:36:37Z</time>
      </trkpt>
      <trkpt lat="46.58611" lon="5.70432">
        <ele>541.6</ele>
        <time>2022-09-06T04:36:38Z</time>
      </trkpt>
      <trkpt lat="46.58605" lon="5.70419">
        <ele>541</ele>
        <time>2022-09-06T04:36:39Z</time>
      </trkpt>
      <trkpt lat="46.58601" lon="5.70404">
        <ele>540.4</ele>
        <time>2022-09-06T04:36:40Z</time>
      </trkpt>
      <trkpt lat="46.586" lon="5.70387">
        <ele>539.8</ele>
        <time>2022-09-06T04:36:41Z</time>
      </trkpt>
      <trkpt lat="46.58601" lon="5.7037">
        <ele>539.2</ele>
        <time>2022-09-06T04:36:42Z</time>
      </trkpt>
      <trkpt lat="46.58602" lon="5.70355">
        <ele>538.6</ele>
        <time>2022-09-06T04:36:43Z</time>
      </trkpt>
      <trkpt lat="46.58603" lon="5.70339">
        <ele>538</ele>
        <time>2022-09-06T04:36:44Z</time>
      </trkpt>
      <trkpt lat="46.58603" lon="5.70323">
        <ele>537.4</ele>
        <time>2022-09-06T04:36:45Z</time>
      </trkpt>
      <trkpt lat="46.58605" lon="5.70308">
        <ele>536.8</ele>
        <time>2022-09-06T04:36:46Z</time>
      </trkpt>
      <trkpt lat="46.58605" lon="5.7029">
        <ele>536.2</ele>
        <time>2022-09-06T04:36:47Z</time>
      </trkpt>
      <trkpt lat="46.58606" lon="5.70274">
        <ele>535.8</ele>
        <time>2022-09-06T04:36:48Z</time>
      </trkpt>
      <trkpt lat="46.58606" lon="5.70259">
        <ele>535.2</ele>
        <time>2022-09-06T04:36:49Z</time>
      </trkpt>
      <trkpt lat="46.58605" lon="5.70246">
        <ele>534.6</ele>
        <time>2022-09-06T04:36:50Z</time>
      </trkpt>
      <trkpt lat="46.58602" lon="5.70236">
        <ele>534.2</ele>
        <time>2022-09-06T04:36:51Z</time>
      </trkpt>
      <trkpt lat="46.58598" lon="5.70224">
        <ele>533.6</ele>
        <time>2022-09-06T04:36:52Z</time>
      </trkpt>
      <trkpt lat="46.5859" lon="5.70212">
        <ele>533</ele>
        <time>2022-09-06T04:36:53Z</time>
      </trkpt>
      <trkpt lat="46.58581" lon="5.70203">
        <ele>532.4</ele>
        <time>2022-09-06T04:36:54Z</time>
      </trkpt>
      <trkpt lat="46.58573" lon="5.70197">
        <ele>531.8</ele>
        <time>2022-09-06T04:36:55Z</time>
      </trkpt>
      <trkpt lat="46.58563" lon="5.70193">
        <ele>531.2</ele>
        <time>2022-09-06T04:36:56Z</time>
      </trkpt>
      <trkpt lat="46.58553" lon="5.7019">
        <ele>530.6</ele>
        <time>2022-09-06T04:36:57Z</time>
      </trkpt>
      <trkpt lat="46.58543" lon="5.70187">
        <ele>530</ele>
        <time>2022-09-06T04:36:58Z</time>
      </trkpt>
      <trkpt lat="46.58534" lon="5.70181">
        <ele>529.4</ele>
        <time>2022-09-06T04:36:59Z</time>
      </trkpt>
      <trkpt lat="46.58526" lon="5.70173">
        <ele>528.6</ele>
        <time>2022-09-06T04:37:00Z</time>
      </trkpt>
      <trkpt lat="46.58521" lon="5.7016">
        <ele>528</ele>
        <time>2022-09-06T04:37:01Z</time>
      </trkpt>
      <trkpt lat="46.58516" lon="5.70145">
        <ele>527.4</ele>
        <time>2022-09-06T04:37:02Z</time>
      </trkpt>
      <trkpt lat="46.58513" lon="5.70131">
        <ele>527</ele>
        <time>2022-09-06T04:37:03Z</time>
      </trkpt>
      <trkpt lat="46.58511" lon="5.70116">
        <ele>526.6</ele>
        <time>2022-09-06T04:37:04Z</time>
      </trkpt>
      <trkpt lat="46.58509" lon="5.701">
        <ele>526.6</ele>
        <time>2022-09-06T04:37:05Z</time>
      </trkpt>
      <trkpt lat="46.58508" lon="5.70086">
        <ele>526.6</ele>
        <time>2022-09-06T04:37:06Z</time>
      </trkpt>
      <trkpt lat="46.58506" lon="5.70071">
        <ele>526.6</ele>
        <time>2022-09-06T04:37:07Z</time>
      </trkpt>
      <trkpt lat="46.58506" lon="5.70057">
        <ele>526.4</ele>
        <time>2022-09-06T04:37:08Z</time>
      </trkpt>
      <trkpt lat="46.58505" lon="5.70044">
        <ele>526.4</ele>
        <time>2022-09-06T04:37:09Z</time>
      </trkpt>
      <trkpt lat="46.58504" lon="5.70032">
        <ele>526.2</ele>
        <time>2022-09-06T04:37:10Z</time>
      </trkpt>
      <trkpt lat="46.58503" lon="5.70019">
        <ele>526.2</ele>
        <time>2022-09-06T04:37:11Z</time>
      </trkpt>
      <trkpt lat="46.58502" lon="5.70007">
        <ele>525.8</ele>
        <time>2022-09-06T04:37:12Z</time>
      </trkpt>
      <trkpt lat="46.58501" lon="5.69994">
        <ele>525.6</ele>
        <time>2022-09-06T04:37:13Z</time>
      </trkpt>
      <trkpt lat="46.585" lon="5.69982">
        <ele>525.2</ele>
        <time>2022-09-06T04:37:14Z</time>
      </trkpt>
      <trkpt lat="46.58501" lon="5.69968">
        <ele>524.8</ele>
        <time>2022-09-06T04:37:15Z</time>
      </trkpt>
      <trkpt lat="46.58502" lon="5.69954">
        <ele>524.6</ele>
        <time>2022-09-06T04:37:16Z</time>
      </trkpt>
      <trkpt lat="46.58503" lon="5.6994">
        <ele>524.4</ele>
        <time>2022-09-06T04:37:17Z</time>
      </trkpt>
      <trkpt lat="46.58506" lon="5.69927">
        <ele>524.4</ele>
        <time>2022-09-06T04:37:18Z</time>
      </trkpt>
      <trkpt lat="46.5851" lon="5.69914">
        <ele>524</ele>
        <time>2022-09-06T04:37:19Z</time>
      </trkpt>
      <trkpt lat="46.58514" lon="5.69902">
        <ele>524</ele>
        <time>2022-09-06T04:37:20Z</time>
      </trkpt>
      <trkpt lat="46.58517" lon="5.6989">
        <ele>523.8</ele>
        <time>2022-09-06T04:37:21Z</time>
      </trkpt>
      <trkpt lat="46.5852" lon="5.69877">
        <ele>523.8</ele>
        <time>2022-09-06T04:37:22Z</time>
      </trkpt>
      <trkpt lat="46.58523" lon="5.69865">
        <ele>523.8</ele>
        <time>2022-09-06T04:37:23Z</time>
      </trkpt>
      <trkpt lat="46.58527" lon="5.69853">
        <ele>523.8</ele>
        <time>2022-09-06T04:37:24Z</time>
      </trkpt>
      <trkpt lat="46.5853" lon="5.69842">
        <ele>523.8</ele>
        <time>2022-09-06T04:37:25Z</time>
      </trkpt>
      <trkpt lat="46.58533" lon="5.6983">
        <ele>523.8</ele>
        <time>2022-09-06T04:37:26Z</time>
      </trkpt>
      <trkpt lat="46.58536" lon="5.69819">
        <ele>523.8</ele>
        <time>2022-09-06T04:37:27Z</time>
      </trkpt>
      <trkpt lat="46.5854" lon="5.69808">
        <ele>523.8</ele>
        <time>2022-09-06T04:37:28Z</time>
      </trkpt>
      <trkpt lat="46.58543" lon="5.69797">
        <ele>523.8</ele>
        <time>2022-09-06T04:37:29Z</time>
      </trkpt>
      <trkpt lat="46.58546" lon="5.69787">
        <ele>523.8</ele>
        <time>2022-09-06T04:37:30Z</time>
      </trkpt>
      <trkpt lat="46.58549" lon="5.69776">
        <ele>523.8</ele>
        <time>2022-09-06T04:37:31Z</time>
      </trkpt>
      <trkpt lat="46.58552" lon="5.69766">
        <ele>523.8</ele>
        <time>2022-09-06T04:37:32Z</time>
      </trkpt>
      <trkpt lat="46.58555" lon="5.69756">
        <ele>523.8</ele>
        <time>2022-09-06T04:37:33Z</time>
      </trkpt>
      <trkpt lat="46.58558" lon="5.69747">
        <ele>523.8</ele>
        <time>2022-09-06T04:37:34Z</time>
      </trkpt>
      <trkpt lat="46.58561" lon="5.69737">
        <ele>523.8</ele>
        <time>2022-09-06T04:37:35Z</time>
      </trkpt>
      <trkpt lat="46.58564" lon="5.69728">
        <ele>523.8</ele>
        <time>2022-09-06T04:37:36Z</time>
      </trkpt>
      <trkpt lat="46.58566" lon="5.69719">
        <ele>523.8</ele>
        <time>2022-09-06T04:37:37Z</time>
      </trkpt>
      <trkpt lat="46.58569" lon="5.69709">
        <ele>524.2</ele>
        <time>2022-09-06T04:37:38Z</time>
      </trkpt>
      <trkpt lat="46.58572" lon="5.697">
        <ele>524.2</ele>
        <time>2022-09-06T04:37:39Z</time>
      </trkpt>
      <trkpt lat="46.58575" lon="5.69691">
        <ele>524.2</ele>
        <time>2022-09-06T04:37:40Z</time>
      </trkpt>
      <trkpt lat="46.58578" lon="5.69681">
        <ele>524.2</ele>
        <time>2022-09-06T04:37:41Z</time>
      </trkpt>
      <trkpt lat="46.58581" lon="5.69672">
        <ele>524.2</ele>
        <time>2022-09-06T04:37:42Z</time>
      </trkpt>
      <trkpt lat="46.58584" lon="5.69662">
        <ele>524.2</ele>
        <time>2022-09-06T04:37:43Z</time>
      </trkpt>
      <trkpt lat="46.58587" lon="5.69653">
        <ele>524.2</ele>
        <time>2022-09-06T04:37:44Z</time>
      </trkpt>
      <trkpt lat="46.5859" lon="5.69644">
        <ele>524.2</ele>
        <time>2022-09-06T04:37:45Z</time>
      </trkpt>
      <trkpt lat="46.58592" lon="5.69635">
        <ele>524.4</ele>
        <time>2022-09-06T04:37:46Z</time>
      </trkpt>
      <trkpt lat="46.58594" lon="5.69626">
        <ele>524.4</ele>
        <time>2022-09-06T04:37:47Z</time>
      </trkpt>
      <trkpt lat="46.58597" lon="5.69617">
        <ele>524.4</ele>
        <time>2022-09-06T04:37:48Z</time>
      </trkpt>
      <trkpt lat="46.586" lon="5.69608">
        <ele>524.4</ele>
        <time>2022-09-06T04:37:49Z</time>
      </trkpt>
      <trkpt lat="46.58603" lon="5.69599">
        <ele>524.4</ele>
        <time>2022-09-06T04:37:50Z</time>
      </trkpt>
      <trkpt lat="46.58605" lon="5.6959">
        <ele>524.4</ele>
        <time>2022-09-06T04:37:51Z</time>
      </trkpt>
      <trkpt lat="46.58608" lon="5.69581">
        <ele>524.4</ele>
        <time>2022-09-06T04:37:52Z</time>
      </trkpt>
      <trkpt lat="46.5861" lon="5.69572">
        <ele>524.6</ele>
        <time>2022-09-06T04:37:53Z</time>
      </trkpt>
      <trkpt lat="46.58612" lon="5.69563">
        <ele>524.6</ele>
        <time>2022-09-06T04:37:54Z</time>
      </trkpt>
      <trkpt lat="46.58614" lon="5.69555">
        <ele>524.8</ele>
        <time>2022-09-06T04:37:55Z</time>
      </trkpt>
      <trkpt lat="46.58617" lon="5.69547">
        <ele>524.8</ele>
        <time>2022-09-06T04:37:56Z</time>
      </trkpt>
      <trkpt lat="46.58619" lon="5.69538">
        <ele>524.8</ele>
        <time>2022-09-06T04:37:57Z</time>
      </trkpt>
      <trkpt lat="46.58621" lon="5.6953">
        <ele>525</ele>
        <time>2022-09-06T04:37:58Z</time>
      </trkpt>
      <trkpt lat="46.58623" lon="5.69522">
        <ele>525</ele>
        <time>2022-09-06T04:37:59Z</time>
      </trkpt>
      <trkpt lat="46.58626" lon="5.69514">
        <ele>525</ele>
        <time>2022-09-06T04:38:00Z</time>
      </trkpt>
      <trkpt lat="46.58628" lon="5.69507">
        <ele>525.4</ele>
        <time>2022-09-06T04:38:01Z</time>
      </trkpt>
      <trkpt lat="46.5863" lon="5.695">
        <ele>525.4</ele>
        <time>2022-09-06T04:38:02Z</time>
      </trkpt>
      <trkpt lat="46.58633" lon="5.69492">
        <ele>525.4</ele>
        <time>2022-09-06T04:38:03Z</time>
      </trkpt>
      <trkpt lat="46.58635" lon="5.69485">
        <ele>525.6</ele>
        <time>2022-09-06T04:38:04Z</time>
      </trkpt>
      <trkpt lat="46.58637" lon="5.69478">
        <ele>525.6</ele>
        <time>2022-09-06T04:38:05Z</time>
      </trkpt>
      <trkpt lat="46.58639" lon="5.6947">
        <ele>525.6</ele>
        <time>2022-09-06T04:38:06Z</time>
      </trkpt>
      <trkpt lat="46.58642" lon="5.69463">
        <ele>525.8</ele>
        <time>2022-09-06T04:38:07Z</time>
      </trkpt>
      <trkpt lat="46.58644" lon="5.69456">
        <ele>525.8</ele>
        <time>2022-09-06T04:38:08Z</time>
      </trkpt>
      <trkpt lat="46.58646" lon="5.69449">
        <ele>526.2</ele>
        <time>2022-09-06T04:38:09Z</time>
      </trkpt>
      <trkpt lat="46.58648" lon="5.69443">
        <ele>526.2</ele>
        <time>2022-09-06T04:38:10Z</time>
      </trkpt>
      <trkpt lat="46.58651" lon="5.69436">
        <ele>526.4</ele>
        <time>2022-09-06T04:38:11Z</time>
      </trkpt>
      <trkpt lat="46.58653" lon="5.69429">
        <ele>526.4</ele>
        <time>2022-09-06T04:38:12Z</time>
      </trkpt>
      <trkpt lat="46.58655" lon="5.69422">
        <ele>526.6</ele>
        <time>2022-09-06T04:38:13Z</time>
      </trkpt>
      <trkpt lat="46.58657" lon="5.69415">
        <ele>526.6</ele>
        <time>2022-09-06T04:38:14Z</time>
      </trkpt>
      <trkpt lat="46.58659" lon="5.69408">
        <ele>526.8</ele>
        <time>2022-09-06T04:38:15Z</time>
      </trkpt>
      <trkpt lat="46.58661" lon="5.694">
        <ele>526.8</ele>
        <time>2022-09-06T04:38:16Z</time>
      </trkpt>
      <trkpt lat="46.58662" lon="5.69393">
        <ele>527</ele>
        <time>2022-09-06T04:38:17Z</time>
      </trkpt>
      <trkpt lat="46.58664" lon="5.69386">
        <ele>527</ele>
        <time>2022-09-06T04:38:18Z</time>
      </trkpt>
      <trkpt lat="46.58666" lon="5.69379">
        <ele>527</ele>
        <time>2022-09-06T04:38:19Z</time>
      </trkpt>
      <trkpt lat="46.58669" lon="5.69372">
        <ele>527</ele>
        <time>2022-09-06T04:38:20Z</time>
      </trkpt>
      <trkpt lat="46.58673" lon="5.69357">
        <ele>527.4</ele>
        <time>2022-09-06T04:38:21Z</time>
      </trkpt>
      <trkpt lat="46.58676" lon="5.69349">
        <ele>527.4</ele>
        <time>2022-09-06T04:38:22Z</time>
      </trkpt>
      <trkpt lat="46.58678" lon="5.69341">
        <ele>527.4</ele>
        <time>2022-09-06T04:38:23Z</time>
      </trkpt>
      <trkpt lat="46.5868" lon="5.69334">
        <ele>527.4</ele>
        <time>2022-09-06T04:38:24Z</time>
      </trkpt>
      <trkpt lat="46.58682" lon="5.69326">
        <ele>527.4</ele>
        <time>2022-09-06T04:38:25Z</time>
      </trkpt>
      <trkpt lat="46.58685" lon="5.69318">
        <ele>527.4</ele>
        <time>2022-09-06T04:38:26Z</time>
      </trkpt>
      <trkpt lat="46.58687" lon="5.6931">
        <ele>527.4</ele>
        <time>2022-09-06T04:38:27Z</time>
      </trkpt>
      <trkpt lat="46.5869" lon="5.69302">
        <ele>527.4</ele>
        <time>2022-09-06T04:38:28Z</time>
      </trkpt>
      <trkpt lat="46.58693" lon="5.69294">
        <ele>527.4</ele>
        <time>2022-09-06T04:38:29Z</time>
      </trkpt>
      <trkpt lat="46.58696" lon="5.69286">
        <ele>527.4</ele>
        <time>2022-09-06T04:38:30Z</time>
      </trkpt>
      <trkpt lat="46.58699" lon="5.69278">
        <ele>527.6</ele>
        <time>2022-09-06T04:38:31Z</time>
      </trkpt>
      <trkpt lat="46.58702" lon="5.6927">
        <ele>527.6</ele>
        <time>2022-09-06T04:38:32Z</time>
      </trkpt>
      <trkpt lat="46.58705" lon="5.69261">
        <ele>527.6</ele>
        <time>2022-09-06T04:38:33Z</time>
      </trkpt>
      <trkpt lat="46.58707" lon="5.69253">
        <ele>527.6</ele>
        <time>2022-09-06T04:38:34Z</time>
      </trkpt>
      <trkpt lat="46.58709" lon="5.69245">
        <ele>527.6</ele>
        <time>2022-09-06T04:38:35Z</time>
      </trkpt>
      <trkpt lat="46.58712" lon="5.69237">
        <ele>527.6</ele>
        <time>2022-09-06T04:38:36Z</time>
      </trkpt>
      <trkpt lat="46.58714" lon="5.69229">
        <ele>527.6</ele>
        <time>2022-09-06T04:38:37Z</time>
      </trkpt>
      <trkpt lat="46.58716" lon="5.69222">
        <ele>527.6</ele>
        <time>2022-09-06T04:38:38Z</time>
      </trkpt>
      <trkpt lat="46.5872" lon="5.69215">
        <ele>527.6</ele>
        <time>2022-09-06T04:38:39Z</time>
      </trkpt>
      <trkpt lat="46.58724" lon="5.6921">
        <ele>527.8</ele>
        <time>2022-09-06T04:38:40Z</time>
      </trkpt>
      <trkpt lat="46.5873" lon="5.69207">
        <ele>527.8</ele>
        <time>2022-09-06T04:38:41Z</time>
      </trkpt>
      <trkpt lat="46.58736" lon="5.69207">
        <ele>527.8</ele>
        <time>2022-09-06T04:38:42Z</time>
      </trkpt>
      <trkpt lat="46.58742" lon="5.69208">
        <ele>527.8</ele>
        <time>2022-09-06T04:38:43Z</time>
      </trkpt>
      <trkpt lat="46.58748" lon="5.69211">
        <ele>527.8</ele>
        <time>2022-09-06T04:38:44Z</time>
      </trkpt>
      <trkpt lat="46.58755" lon="5.69213">
        <ele>527.4</ele>
        <time>2022-09-06T04:38:45Z</time>
      </trkpt>
      <trkpt lat="46.58762" lon="5.69215">
        <ele>527.4</ele>
        <time>2022-09-06T04:38:46Z</time>
      </trkpt>
      <trkpt lat="46.5877" lon="5.69217">
        <ele>527.2</ele>
        <time>2022-09-06T04:38:47Z</time>
      </trkpt>
      <trkpt lat="46.58777" lon="5.69219">
        <ele>527</ele>
        <time>2022-09-06T04:38:48Z</time>
      </trkpt>
      <trkpt lat="46.58786" lon="5.69222">
        <ele>526.6</ele>
        <time>2022-09-06T04:38:49Z</time>
      </trkpt>
      <trkpt lat="46.58794" lon="5.69224">
        <ele>526.4</ele>
        <time>2022-09-06T04:38:50Z</time>
      </trkpt>
      <trkpt lat="46.58803" lon="5.69226">
        <ele>526</ele>
        <time>2022-09-06T04:38:51Z</time>
      </trkpt>
      <trkpt lat="46.58811" lon="5.69228">
        <ele>525.6</ele>
        <time>2022-09-06T04:38:52Z</time>
      </trkpt>
      <trkpt lat="46.5882" lon="5.6923">
        <ele>525.2</ele>
        <time>2022-09-06T04:38:53Z</time>
      </trkpt>
      <trkpt lat="46.58828" lon="5.69232">
        <ele>525</ele>
        <time>2022-09-06T04:38:54Z</time>
      </trkpt>
      <trkpt lat="46.58837" lon="5.69234">
        <ele>524.4</ele>
        <time>2022-09-06T04:38:55Z</time>
      </trkpt>
      <trkpt lat="46.58845" lon="5.69233">
        <ele>524.4</ele>
        <time>2022-09-06T04:38:56Z</time>
      </trkpt>
      <trkpt lat="46.58853" lon="5.69231">
        <ele>524.2</ele>
        <time>2022-09-06T04:38:57Z</time>
      </trkpt>
      <trkpt lat="46.58861" lon="5.69228">
        <ele>524.2</ele>
        <time>2022-09-06T04:38:58Z</time>
      </trkpt>
      <trkpt lat="46.58869" lon="5.69223">
        <ele>524</ele>
        <time>2022-09-06T04:38:59Z</time>
      </trkpt>
      <trkpt lat="46.58876" lon="5.69217">
        <ele>524</ele>
        <time>2022-09-06T04:39:00Z</time>
      </trkpt>
      <trkpt lat="46.58882" lon="5.6921">
        <ele>523.8</ele>
        <time>2022-09-06T04:39:01Z</time>
      </trkpt>
      <trkpt lat="46.58888" lon="5.69204">
        <ele>523.8</ele>
        <time>2022-09-06T04:39:02Z</time>
      </trkpt>
      <trkpt lat="46.58894" lon="5.69197">
        <ele>523.8</ele>
        <time>2022-09-06T04:39:03Z</time>
      </trkpt>
      <trkpt lat="46.589" lon="5.69191">
        <ele>523.8</ele>
        <time>2022-09-06T04:39:04Z</time>
      </trkpt>
      <trkpt lat="46.58906" lon="5.69184">
        <ele>523.8</ele>
        <time>2022-09-06T04:39:05Z</time>
      </trkpt>
      <trkpt lat="46.58911" lon="5.69178">
        <ele>523.4</ele>
        <time>2022-09-06T04:39:06Z</time>
      </trkpt>
      <trkpt lat="46.58917" lon="5.69171">
        <ele>523.4</ele>
        <time>2022-09-06T04:39:07Z</time>
      </trkpt>
      <trkpt lat="46.58922" lon="5.69165">
        <ele>523.4</ele>
        <time>2022-09-06T04:39:08Z</time>
      </trkpt>
      <trkpt lat="46.58928" lon="5.69158">
        <ele>523.4</ele>
        <time>2022-09-06T04:39:09Z</time>
      </trkpt>
      <trkpt lat="46.58933" lon="5.69152">
        <ele>523.6</ele>
        <time>2022-09-06T04:39:10Z</time>
      </trkpt>
      <trkpt lat="46.58938" lon="5.69146">
        <ele>523.6</ele>
        <time>2022-09-06T04:39:11Z</time>
      </trkpt>
      <trkpt lat="46.58944" lon="5.69141">
        <ele>523.6</ele>
        <time>2022-09-06T04:39:12Z</time>
      </trkpt>
      <trkpt lat="46.5895" lon="5.69135">
        <ele>523.6</ele>
        <time>2022-09-06T04:39:13Z</time>
      </trkpt>
      <trkpt lat="46.58956" lon="5.69131">
        <ele>523.6</ele>
        <time>2022-09-06T04:39:14Z</time>
      </trkpt>
      <trkpt lat="46.58962" lon="5.69126">
        <ele>523.6</ele>
        <time>2022-09-06T04:39:15Z</time>
      </trkpt>
      <trkpt lat="46.58968" lon="5.69122">
        <ele>523.6</ele>
        <time>2022-09-06T04:39:16Z</time>
      </trkpt>
      <trkpt lat="46.58974" lon="5.69118">
        <ele>523.6</ele>
        <time>2022-09-06T04:39:17Z</time>
      </trkpt>
      <trkpt lat="46.5898" lon="5.69115">
        <ele>523.6</ele>
        <time>2022-09-06T04:39:18Z</time>
      </trkpt>
      <trkpt lat="46.58986" lon="5.69112">
        <ele>523.6</ele>
        <time>2022-09-06T04:39:19Z</time>
      </trkpt>
      <trkpt lat="46.58992" lon="5.6911">
        <ele>523.6</ele>
        <time>2022-09-06T04:39:20Z</time>
      </trkpt>
      <trkpt lat="46.58999" lon="5.69108">
        <ele>523.6</ele>
        <time>2022-09-06T04:39:21Z</time>
      </trkpt>
      <trkpt lat="46.59005" lon="5.69106">
        <ele>523.6</ele>
        <time>2022-09-06T04:39:22Z</time>
      </trkpt>
      <trkpt lat="46.59011" lon="5.69105">
        <ele>523.8</ele>
        <time>2022-09-06T04:39:23Z</time>
      </trkpt>
      <trkpt lat="46.59017" lon="5.69104">
        <ele>523.8</ele>
        <time>2022-09-06T04:39:24Z</time>
      </trkpt>
      <trkpt lat="46.59024" lon="5.69103">
        <ele>523.8</ele>
        <time>2022-09-06T04:39:25Z</time>
      </trkpt>
      <trkpt lat="46.5903" lon="5.69101">
        <ele>523.8</ele>
        <time>2022-09-06T04:39:26Z</time>
      </trkpt>
      <trkpt lat="46.59036" lon="5.69101">
        <ele>523.8</ele>
        <time>2022-09-06T04:39:27Z</time>
      </trkpt>
      <trkpt lat="46.59042" lon="5.69099">
        <ele>523.8</ele>
        <time>2022-09-06T04:39:28Z</time>
      </trkpt>
      <trkpt lat="46.59048" lon="5.69098">
        <ele>523.8</ele>
        <time>2022-09-06T04:39:29Z</time>
      </trkpt>
      <trkpt lat="46.59054" lon="5.69097">
        <ele>523.8</ele>
        <time>2022-09-06T04:39:30Z</time>
      </trkpt>
      <trkpt lat="46.5906" lon="5.69096">
        <ele>523.8</ele>
        <time>2022-09-06T04:39:31Z</time>
      </trkpt>
      <trkpt lat="46.59066" lon="5.69094">
        <ele>523.8</ele>
        <time>2022-09-06T04:39:32Z</time>
      </trkpt>
      <trkpt lat="46.59072" lon="5.69092">
        <ele>523.8</ele>
        <time>2022-09-06T04:39:33Z</time>
      </trkpt>
      <trkpt lat="46.59078" lon="5.6909">
        <ele>523.8</ele>
        <time>2022-09-06T04:39:34Z</time>
      </trkpt>
      <trkpt lat="46.59084" lon="5.69088">
        <ele>524.2</ele>
        <time>2022-09-06T04:39:35Z</time>
      </trkpt>
      <trkpt lat="46.5909" lon="5.69086">
        <ele>524.2</ele>
        <time>2022-09-06T04:39:36Z</time>
      </trkpt>
      <trkpt lat="46.59096" lon="5.69083">
        <ele>524.2</ele>
        <time>2022-09-06T04:39:37Z</time>
      </trkpt>
      <trkpt lat="46.59102" lon="5.69081">
        <ele>524.2</ele>
        <time>2022-09-06T04:39:38Z</time>
      </trkpt>
      <trkpt lat="46.59108" lon="5.69079">
        <ele>524.2</ele>
        <time>2022-09-06T04:39:39Z</time>
      </trkpt>
      <trkpt lat="46.59114" lon="5.69076">
        <ele>524.2</ele>
        <time>2022-09-06T04:39:40Z</time>
      </trkpt>
      <trkpt lat="46.5912" lon="5.69074">
        <ele>524.2</ele>
        <time>2022-09-06T04:39:41Z</time>
      </trkpt>
      <trkpt lat="46.59126" lon="5.69072">
        <ele>524.2</ele>
        <time>2022-09-06T04:39:42Z</time>
      </trkpt>
      <trkpt lat="46.59132" lon="5.6907">
        <ele>524.2</ele>
        <time>2022-09-06T04:39:43Z</time>
      </trkpt>
      <trkpt lat="46.59138" lon="5.69067">
        <ele>524.2</ele>
        <time>2022-09-06T04:39:44Z</time>
      </trkpt>
      <trkpt lat="46.59144" lon="5.69065">
        <ele>524.4</ele>
        <time>2022-09-06T04:39:45Z</time>
      </trkpt>
      <trkpt lat="46.5915" lon="5.69062">
        <ele>524.4</ele>
        <time>2022-09-06T04:39:46Z</time>
      </trkpt>
      <trkpt lat="46.59156" lon="5.6906">
        <ele>524.4</ele>
        <time>2022-09-06T04:39:47Z</time>
      </trkpt>
      <trkpt lat="46.59162" lon="5.69057">
        <ele>524.4</ele>
        <time>2022-09-06T04:39:48Z</time>
      </trkpt>
      <trkpt lat="46.59168" lon="5.69055">
        <ele>524.4</ele>
        <time>2022-09-06T04:39:49Z</time>
      </trkpt>
      <trkpt lat="46.59174" lon="5.69052">
        <ele>524.4</ele>
        <time>2022-09-06T04:39:50Z</time>
      </trkpt>
      <trkpt lat="46.5918" lon="5.69049">
        <ele>524.4</ele>
        <time>2022-09-06T04:39:51Z</time>
      </trkpt>
      <trkpt lat="46.59185" lon="5.69045">
        <ele>524.6</ele>
        <time>2022-09-06T04:39:52Z</time>
      </trkpt>
      <trkpt lat="46.59191" lon="5.69041">
        <ele>524.6</ele>
        <time>2022-09-06T04:39:53Z</time>
      </trkpt>
      <trkpt lat="46.59197" lon="5.69037">
        <ele>524.6</ele>
        <time>2022-09-06T04:39:54Z</time>
      </trkpt>
      <trkpt lat="46.59202" lon="5.69033">
        <ele>524.6</ele>
        <time>2022-09-06T04:39:55Z</time>
      </trkpt>
      <trkpt lat="46.59207" lon="5.69028">
        <ele>524.6</ele>
        <time>2022-09-06T04:39:56Z</time>
      </trkpt>
      <trkpt lat="46.59212" lon="5.69023">
        <ele>524.6</ele>
        <time>2022-09-06T04:39:57Z</time>
      </trkpt>
      <trkpt lat="46.59218" lon="5.69018">
        <ele>524.6</ele>
        <time>2022-09-06T04:39:58Z</time>
      </trkpt>
      <trkpt lat="46.59223" lon="5.69013">
        <ele>524.6</ele>
        <time>2022-09-06T04:39:59Z</time>
      </trkpt>
      <trkpt lat="46.59229" lon="5.69008">
        <ele>524.6</ele>
        <time>2022-09-06T04:40:00Z</time>
      </trkpt>
      <trkpt lat="46.59234" lon="5.69004">
        <ele>524.6</ele>
        <time>2022-09-06T04:40:01Z</time>
      </trkpt>
      <trkpt lat="46.5924" lon="5.69">
        <ele>524.6</ele>
        <time>2022-09-06T04:40:02Z</time>
      </trkpt>
      <trkpt lat="46.59246" lon="5.68997">
        <ele>524.6</ele>
        <time>2022-09-06T04:40:03Z</time>
      </trkpt>
      <trkpt lat="46.59253" lon="5.68994">
        <ele>524.6</ele>
        <time>2022-09-06T04:40:04Z</time>
      </trkpt>
      <trkpt lat="46.59259" lon="5.68992">
        <ele>524.6</ele>
        <time>2022-09-06T04:40:05Z</time>
      </trkpt>
      <trkpt lat="46.59265" lon="5.6899">
        <ele>524.6</ele>
        <time>2022-09-06T04:40:06Z</time>
      </trkpt>
      <trkpt lat="46.59272" lon="5.6899">
        <ele>524.6</ele>
        <time>2022-09-06T04:40:07Z</time>
      </trkpt>
      <trkpt lat="46.59278" lon="5.68989">
        <ele>524.6</ele>
        <time>2022-09-06T04:40:08Z</time>
      </trkpt>
      <trkpt lat="46.59285" lon="5.6899">
        <ele>524.6</ele>
        <time>2022-09-06T04:40:09Z</time>
      </trkpt>
      <trkpt lat="46.59291" lon="5.6899">
        <ele>524.8</ele>
        <time>2022-09-06T04:40:10Z</time>
      </trkpt>
      <trkpt lat="46.59297" lon="5.68991">
        <ele>524.8</ele>
        <time>2022-09-06T04:40:11Z</time>
      </trkpt>
      <trkpt lat="46.59303" lon="5.68991">
        <ele>524.8</ele>
        <time>2022-09-06T04:40:12Z</time>
      </trkpt>
      <trkpt lat="46.59308" lon="5.68992">
        <ele>524.8</ele>
        <time>2022-09-06T04:40:13Z</time>
      </trkpt>
      <trkpt lat="46.59314" lon="5.68992">
        <ele>525.2</ele>
        <time>2022-09-06T04:40:14Z</time>
      </trkpt>
      <trkpt lat="46.59319" lon="5.68992">
        <ele>525.2</ele>
        <time>2022-09-06T04:40:15Z</time>
      </trkpt>
      <trkpt lat="46.59325" lon="5.68992">
        <ele>525.4</ele>
        <time>2022-09-06T04:40:16Z</time>
      </trkpt>
      <trkpt lat="46.5933" lon="5.68991">
        <ele>525.4</ele>
        <time>2022-09-06T04:40:17Z</time>
      </trkpt>
      <trkpt lat="46.59336" lon="5.68991">
        <ele>525.6</ele>
        <time>2022-09-06T04:40:18Z</time>
      </trkpt>
      <trkpt lat="46.59341" lon="5.6899">
        <ele>525.6</ele>
        <time>2022-09-06T04:40:19Z</time>
      </trkpt>
      <trkpt lat="46.59347" lon="5.6899">
        <ele>525.8</ele>
        <time>2022-09-06T04:40:20Z</time>
      </trkpt>
      <trkpt lat="46.59353" lon="5.6899">
        <ele>525.8</ele>
        <time>2022-09-06T04:40:21Z</time>
      </trkpt>
      <trkpt lat="46.59358" lon="5.6899">
        <ele>526.2</ele>
        <time>2022-09-06T04:40:22Z</time>
      </trkpt>
      <trkpt lat="46.59364" lon="5.6899">
        <ele>526.2</ele>
        <time>2022-09-06T04:40:23Z</time>
      </trkpt>
      <trkpt lat="46.5937" lon="5.6899">
        <ele>526.2</ele>
        <time>2022-09-06T04:40:24Z</time>
      </trkpt>
      <trkpt lat="46.59376" lon="5.6899">
        <ele>526.4</ele>
        <time>2022-09-06T04:40:25Z</time>
      </trkpt>
      <trkpt lat="46.59382" lon="5.6899">
        <ele>526.4</ele>
        <time>2022-09-06T04:40:26Z</time>
      </trkpt>
      <trkpt lat="46.59387" lon="5.6899">
        <ele>526.4</ele>
        <time>2022-09-06T04:40:27Z</time>
      </trkpt>
      <trkpt lat="46.59393" lon="5.6899">
        <ele>526.6</ele>
        <time>2022-09-06T04:40:28Z</time>
      </trkpt>
      <trkpt lat="46.59399" lon="5.6899">
        <ele>526.6</ele>
        <time>2022-09-06T04:40:29Z</time>
      </trkpt>
      <trkpt lat="46.59405" lon="5.6899">
        <ele>526.6</ele>
        <time>2022-09-06T04:40:30Z</time>
      </trkpt>
      <trkpt lat="46.59411" lon="5.6899">
        <ele>526.8</ele>
        <time>2022-09-06T04:40:31Z</time>
      </trkpt>
      <trkpt lat="46.59416" lon="5.6899">
        <ele>526.8</ele>
        <time>2022-09-06T04:40:32Z</time>
      </trkpt>
      <trkpt lat="46.59422" lon="5.68988">
        <ele>526.8</ele>
        <time>2022-09-06T04:40:33Z</time>
      </trkpt>
      <trkpt lat="46.59427" lon="5.68986">
        <ele>526.8</ele>
        <time>2022-09-06T04:40:34Z</time>
      </trkpt>
      <trkpt lat="46.59433" lon="5.68984">
        <ele>526.8</ele>
        <time>2022-09-06T04:40:35Z</time>
      </trkpt>
      <trkpt lat="46.59438" lon="5.68981">
        <ele>527</ele>
        <time>2022-09-06T04:40:36Z</time>
      </trkpt>
      <trkpt lat="46.59443" lon="5.68977">
        <ele>527</ele>
        <time>2022-09-06T04:40:37Z</time>
      </trkpt>
      <trkpt lat="46.59448" lon="5.68974">
        <ele>527.2</ele>
        <time>2022-09-06T04:40:38Z</time>
      </trkpt>
      <trkpt lat="46.59453" lon="5.6897">
        <ele>527.2</ele>
        <time>2022-09-06T04:40:39Z</time>
      </trkpt>
      <trkpt lat="46.59457" lon="5.68966">
        <ele>527.6</ele>
        <time>2022-09-06T04:40:40Z</time>
      </trkpt>
      <trkpt lat="46.59462" lon="5.68962">
        <ele>527.6</ele>
        <time>2022-09-06T04:40:41Z</time>
      </trkpt>
      <trkpt lat="46.59466" lon="5.68958">
        <ele>528</ele>
        <time>2022-09-06T04:40:42Z</time>
      </trkpt>
      <trkpt lat="46.5947" lon="5.68955">
        <ele>528</ele>
        <time>2022-09-06T04:40:43Z</time>
      </trkpt>
      <trkpt lat="46.59474" lon="5.68952">
        <ele>528.4</ele>
        <time>2022-09-06T04:40:44Z</time>
      </trkpt>
      <trkpt lat="46.59479" lon="5.6895">
        <ele>528.6</ele>
        <time>2022-09-06T04:40:45Z</time>
      </trkpt>
      <trkpt lat="46.59483" lon="5.68948">
        <ele>528.8</ele>
        <time>2022-09-06T04:40:46Z</time>
      </trkpt>
      <trkpt lat="46.59487" lon="5.68946">
        <ele>528.8</ele>
        <time>2022-09-06T04:40:47Z</time>
      </trkpt>
      <trkpt lat="46.59492" lon="5.68945">
        <ele>529.2</ele>
        <time>2022-09-06T04:40:48Z</time>
      </trkpt>
      <trkpt lat="46.59497" lon="5.68944">
        <ele>529.2</ele>
        <time>2022-09-06T04:40:49Z</time>
      </trkpt>
      <trkpt lat="46.59502" lon="5.68943">
        <ele>529.4</ele>
        <time>2022-09-06T04:40:50Z</time>
      </trkpt>
      <trkpt lat="46.59507" lon="5.68942">
        <ele>529.4</ele>
        <time>2022-09-06T04:40:51Z</time>
      </trkpt>
      <trkpt lat="46.59511" lon="5.68941">
        <ele>529.8</ele>
        <time>2022-09-06T04:40:52Z</time>
      </trkpt>
      <trkpt lat="46.59516" lon="5.6894">
        <ele>529.8</ele>
        <time>2022-09-06T04:40:53Z</time>
      </trkpt>
      <trkpt lat="46.59521" lon="5.6894">
        <ele>530</ele>
        <time>2022-09-06T04:40:54Z</time>
      </trkpt>
      <trkpt lat="46.59526" lon="5.68939">
        <ele>530</ele>
        <time>2022-09-06T04:40:55Z</time>
      </trkpt>
      <trkpt lat="46.5953" lon="5.68938">
        <ele>530.4</ele>
        <time>2022-09-06T04:40:56Z</time>
      </trkpt>
      <trkpt lat="46.59535" lon="5.68938">
        <ele>530.4</ele>
        <time>2022-09-06T04:40:57Z</time>
      </trkpt>
      <trkpt lat="46.59539" lon="5.68937">
        <ele>530.6</ele>
        <time>2022-09-06T04:40:58Z</time>
      </trkpt>
      <trkpt lat="46.59544" lon="5.68937">
        <ele>530.6</ele>
        <time>2022-09-06T04:40:59Z</time>
      </trkpt>
      <trkpt lat="46.59548" lon="5.68936">
        <ele>531</ele>
        <time>2022-09-06T04:41:00Z</time>
      </trkpt>
      <trkpt lat="46.59553" lon="5.68935">
        <ele>531</ele>
        <time>2022-09-06T04:41:01Z</time>
      </trkpt>
      <trkpt lat="46.59557" lon="5.68935">
        <ele>531.2</ele>
        <time>2022-09-06T04:41:02Z</time>
      </trkpt>
      <trkpt lat="46.59562" lon="5.68935">
        <ele>531.2</ele>
        <time>2022-09-06T04:41:03Z</time>
      </trkpt>
      <trkpt lat="46.59566" lon="5.68934">
        <ele>531.2</ele>
        <time>2022-09-06T04:41:04Z</time>
      </trkpt>
      <trkpt lat="46.59571" lon="5.68933">
        <ele>531.6</ele>
        <time>2022-09-06T04:41:05Z</time>
      </trkpt>
      <trkpt lat="46.59575" lon="5.68932">
        <ele>531.6</ele>
        <time>2022-09-06T04:41:06Z</time>
      </trkpt>
      <trkpt lat="46.5958" lon="5.68931">
        <ele>531.6</ele>
        <time>2022-09-06T04:41:07Z</time>
      </trkpt>
      <trkpt lat="46.59584" lon="5.6893">
        <ele>531.8</ele>
        <time>2022-09-06T04:41:08Z</time>
      </trkpt>
      <trkpt lat="46.59589" lon="5.68928">
        <ele>531.8</ele>
        <time>2022-09-06T04:41:09Z</time>
      </trkpt>
      <trkpt lat="46.59594" lon="5.68927">
        <ele>531.8</ele>
        <time>2022-09-06T04:41:10Z</time>
      </trkpt>
      <trkpt lat="46.59598" lon="5.68925">
        <ele>531.8</ele>
        <time>2022-09-06T04:41:11Z</time>
      </trkpt>
      <trkpt lat="46.59603" lon="5.68924">
        <ele>531.8</ele>
        <time>2022-09-06T04:41:12Z</time>
      </trkpt>
      <trkpt lat="46.59607" lon="5.68922">
        <ele>532</ele>
        <time>2022-09-06T04:41:13Z</time>
      </trkpt>
      <trkpt lat="46.59612" lon="5.68921">
        <ele>532</ele>
        <time>2022-09-06T04:41:14Z</time>
      </trkpt>
      <trkpt lat="46.59617" lon="5.68919">
        <ele>532.2</ele>
        <time>2022-09-06T04:41:15Z</time>
      </trkpt>
      <trkpt lat="46.59621" lon="5.68918">
        <ele>532.2</ele>
        <time>2022-09-06T04:41:16Z</time>
      </trkpt>
      <trkpt lat="46.59626" lon="5.68916">
        <ele>532.4</ele>
        <time>2022-09-06T04:41:17Z</time>
      </trkpt>
      <trkpt lat="46.59631" lon="5.68914">
        <ele>532.4</ele>
        <time>2022-09-06T04:41:18Z</time>
      </trkpt>
      <trkpt lat="46.59636" lon="5.68912">
        <ele>532.4</ele>
        <time>2022-09-06T04:41:19Z</time>
      </trkpt>
      <trkpt lat="46.59641" lon="5.6891">
        <ele>532.4</ele>
        <time>2022-09-06T04:41:20Z</time>
      </trkpt>
      <trkpt lat="46.59646" lon="5.68907">
        <ele>532.4</ele>
        <time>2022-09-06T04:41:21Z</time>
      </trkpt>
      <trkpt lat="46.59651" lon="5.68905">
        <ele>532.4</ele>
        <time>2022-09-06T04:41:22Z</time>
      </trkpt>
      <trkpt lat="46.59657" lon="5.68903">
        <ele>532.4</ele>
        <time>2022-09-06T04:41:23Z</time>
      </trkpt>
      <trkpt lat="46.59662" lon="5.68901">
        <ele>532.4</ele>
        <time>2022-09-06T04:41:24Z</time>
      </trkpt>
      <trkpt lat="46.59668" lon="5.68898">
        <ele>532.4</ele>
        <time>2022-09-06T04:41:25Z</time>
      </trkpt>
      <trkpt lat="46.59674" lon="5.68896">
        <ele>532.4</ele>
        <time>2022-09-06T04:41:26Z</time>
      </trkpt>
      <trkpt lat="46.59679" lon="5.68894">
        <ele>532.4</ele>
        <time>2022-09-06T04:41:27Z</time>
      </trkpt>
      <trkpt lat="46.59685" lon="5.68892">
        <ele>532.4</ele>
        <time>2022-09-06T04:41:28Z</time>
      </trkpt>
      <trkpt lat="46.59691" lon="5.6889">
        <ele>532.4</ele>
        <time>2022-09-06T04:41:29Z</time>
      </trkpt>
      <trkpt lat="46.59696" lon="5.68887">
        <ele>532.4</ele>
        <time>2022-09-06T04:41:30Z</time>
      </trkpt>
      <trkpt lat="46.59702" lon="5.68885">
        <ele>532.4</ele>
        <time>2022-09-06T04:41:31Z</time>
      </trkpt>
      <trkpt lat="46.59707" lon="5.68883">
        <ele>532.4</ele>
        <time>2022-09-06T04:41:32Z</time>
      </trkpt>
      <trkpt lat="46.59713" lon="5.68881">
        <ele>532.4</ele>
        <time>2022-09-06T04:41:33Z</time>
      </trkpt>
      <trkpt lat="46.59718" lon="5.68879">
        <ele>532.4</ele>
        <time>2022-09-06T04:41:34Z</time>
      </trkpt>
      <trkpt lat="46.59724" lon="5.68876">
        <ele>532.4</ele>
        <time>2022-09-06T04:41:35Z</time>
      </trkpt>
      <trkpt lat="46.59729" lon="5.68874">
        <ele>532.4</ele>
        <time>2022-09-06T04:41:36Z</time>
      </trkpt>
      <trkpt lat="46.59734" lon="5.68872">
        <ele>532.6</ele>
        <time>2022-09-06T04:41:37Z</time>
      </trkpt>
      <trkpt lat="46.59739" lon="5.6887">
        <ele>532.6</ele>
        <time>2022-09-06T04:41:38Z</time>
      </trkpt>
      <trkpt lat="46.59744" lon="5.68869">
        <ele>532.6</ele>
        <time>2022-09-06T04:41:39Z</time>
      </trkpt>
      <trkpt lat="46.59744" lon="5.68869">
        <ele>533</ele>
        <time>2022-09-06T04:41:40Z</time>
      </trkpt>
      <trkpt lat="46.59749" lon="5.68867">
        <ele>533</ele>
        <time>2022-09-06T04:41:41Z</time>
      </trkpt>
      <trkpt lat="46.59754" lon="5.68865">
        <ele>533</ele>
        <time>2022-09-06T04:41:42Z</time>
      </trkpt>
      <trkpt lat="46.59759" lon="5.68864">
        <ele>533.2</ele>
        <time>2022-09-06T04:41:43Z</time>
      </trkpt>
      <trkpt lat="46.59764" lon="5.68862">
        <ele>533.2</ele>
        <time>2022-09-06T04:41:44Z</time>
      </trkpt>
      <trkpt lat="46.59769" lon="5.68861">
        <ele>533.6</ele>
        <time>2022-09-06T04:41:45Z</time>
      </trkpt>
      <trkpt lat="46.59774" lon="5.68859">
        <ele>533.6</ele>
        <time>2022-09-06T04:41:46Z</time>
      </trkpt>
      <trkpt lat="46.59778" lon="5.68857">
        <ele>533.8</ele>
        <time>2022-09-06T04:41:47Z</time>
      </trkpt>
      <trkpt lat="46.59783" lon="5.68855">
        <ele>533.8</ele>
        <time>2022-09-06T04:41:48Z</time>
      </trkpt>
      <trkpt lat="46.59788" lon="5.68854">
        <ele>534</ele>
        <time>2022-09-06T04:41:49Z</time>
      </trkpt>
      <trkpt lat="46.59793" lon="5.68852">
        <ele>534</ele>
        <time>2022-09-06T04:41:50Z</time>
      </trkpt>
      <trkpt lat="46.59797" lon="5.68851">
        <ele>534.2</ele>
        <time>2022-09-06T04:41:51Z</time>
      </trkpt>
      <trkpt lat="46.59802" lon="5.6885">
        <ele>534.2</ele>
        <time>2022-09-06T04:41:52Z</time>
      </trkpt>
      <trkpt lat="46.59807" lon="5.68848">
        <ele>534.6</ele>
        <time>2022-09-06T04:41:53Z</time>
      </trkpt>
      <trkpt lat="46.59812" lon="5.68847">
        <ele>534.6</ele>
        <time>2022-09-06T04:41:54Z</time>
      </trkpt>
      <trkpt lat="46.59816" lon="5.68845">
        <ele>534.6</ele>
        <time>2022-09-06T04:41:55Z</time>
      </trkpt>
      <trkpt lat="46.59821" lon="5.68844">
        <ele>534.8</ele>
        <time>2022-09-06T04:41:56Z</time>
      </trkpt>
      <trkpt lat="46.59825" lon="5.68843">
        <ele>534.8</ele>
        <time>2022-09-06T04:41:57Z</time>
      </trkpt>
      <trkpt lat="46.5983" lon="5.68842">
        <ele>535.2</ele>
        <time>2022-09-06T04:41:58Z</time>
      </trkpt>
      <trkpt lat="46.59834" lon="5.68842">
        <ele>535.2</ele>
        <time>2022-09-06T04:41:59Z</time>
      </trkpt>
      <trkpt lat="46.59838" lon="5.68842">
        <ele>535.4</ele>
        <time>2022-09-06T04:42:00Z</time>
      </trkpt>
      <trkpt lat="46.59842" lon="5.68841">
        <ele>535.8</ele>
        <time>2022-09-06T04:42:01Z</time>
      </trkpt>
      <trkpt lat="46.59846" lon="5.68841">
        <ele>536</ele>
        <time>2022-09-06T04:42:02Z</time>
      </trkpt>
      <trkpt lat="46.59849" lon="5.68841">
        <ele>536.2</ele>
        <time>2022-09-06T04:42:03Z</time>
      </trkpt>
      <trkpt lat="46.59853" lon="5.6884">
        <ele>536.4</ele>
        <time>2022-09-06T04:42:04Z</time>
      </trkpt>
      <trkpt lat="46.59856" lon="5.6884">
        <ele>536.4</ele>
        <time>2022-09-06T04:42:05Z</time>
      </trkpt>
      <trkpt lat="46.5986" lon="5.6884">
        <ele>536.8</ele>
        <time>2022-09-06T04:42:06Z</time>
      </trkpt>
      <trkpt lat="46.59864" lon="5.68839">
        <ele>537.2</ele>
        <time>2022-09-06T04:42:07Z</time>
      </trkpt>
      <trkpt lat="46.59867" lon="5.68839">
        <ele>537.4</ele>
        <time>2022-09-06T04:42:08Z</time>
      </trkpt>
      <trkpt lat="46.59871" lon="5.68839">
        <ele>537.4</ele>
        <time>2022-09-06T04:42:09Z</time>
      </trkpt>
      <trkpt lat="46.59874" lon="5.68839">
        <ele>537.8</ele>
        <time>2022-09-06T04:42:10Z</time>
      </trkpt>
      <trkpt lat="46.59878" lon="5.68838">
        <ele>537.8</ele>
        <time>2022-09-06T04:42:11Z</time>
      </trkpt>
      <trkpt lat="46.59881" lon="5.68838">
        <ele>538.2</ele>
        <time>2022-09-06T04:42:12Z</time>
      </trkpt>
      <trkpt lat="46.59885" lon="5.68838">
        <ele>538.6</ele>
        <time>2022-09-06T04:42:13Z</time>
      </trkpt>
      <trkpt lat="46.59888" lon="5.68838">
        <ele>538.8</ele>
        <time>2022-09-06T04:42:14Z</time>
      </trkpt>
      <trkpt lat="46.59891" lon="5.68838">
        <ele>539</ele>
        <time>2022-09-06T04:42:15Z</time>
      </trkpt>
      <trkpt lat="46.59894" lon="5.68837">
        <ele>539</ele>
        <time>2022-09-06T04:42:16Z</time>
      </trkpt>
      <trkpt lat="46.59897" lon="5.68837">
        <ele>539.4</ele>
        <time>2022-09-06T04:42:17Z</time>
      </trkpt>
      <trkpt lat="46.599" lon="5.68837">
        <ele>539.6</ele>
        <time>2022-09-06T04:42:18Z</time>
      </trkpt>
      <trkpt lat="46.59904" lon="5.68837">
        <ele>540</ele>
        <time>2022-09-06T04:42:19Z</time>
      </trkpt>
      <trkpt lat="46.59907" lon="5.68836">
        <ele>540.2</ele>
        <time>2022-09-06T04:42:20Z</time>
      </trkpt>
      <trkpt lat="46.5991" lon="5.68836">
        <ele>540.6</ele>
        <time>2022-09-06T04:42:21Z</time>
      </trkpt>
      <trkpt lat="46.59913" lon="5.68835">
        <ele>540.8</ele>
        <time>2022-09-06T04:42:22Z</time>
      </trkpt>
      <trkpt lat="46.59916" lon="5.68834">
        <ele>541</ele>
        <time>2022-09-06T04:42:23Z</time>
      </trkpt>
      <trkpt lat="46.59918" lon="5.68833">
        <ele>541.2</ele>
        <time>2022-09-06T04:42:24Z</time>
      </trkpt>
      <trkpt lat="46.59921" lon="5.68832">
        <ele>541.6</ele>
        <time>2022-09-06T04:42:25Z</time>
      </trkpt>
      <trkpt lat="46.59924" lon="5.68831">
        <ele>541.8</ele>
        <time>2022-09-06T04:42:26Z</time>
      </trkpt>
      <trkpt lat="46.59926" lon="5.6883">
        <ele>542.2</ele>
        <time>2022-09-06T04:42:27Z</time>
      </trkpt>
      <trkpt lat="46.59929" lon="5.68829">
        <ele>542.4</ele>
        <time>2022-09-06T04:42:28Z</time>
      </trkpt>
      <trkpt lat="46.59932" lon="5.68828">
        <ele>542.6</ele>
        <time>2022-09-06T04:42:29Z</time>
      </trkpt>
      <trkpt lat="46.59934" lon="5.68827">
        <ele>543</ele>
        <time>2022-09-06T04:42:30Z</time>
      </trkpt>
      <trkpt lat="46.59937" lon="5.68826">
        <ele>543.2</ele>
        <time>2022-09-06T04:42:31Z</time>
      </trkpt>
      <trkpt lat="46.5994" lon="5.68825">
        <ele>543.6</ele>
        <time>2022-09-06T04:42:32Z</time>
      </trkpt>
      <trkpt lat="46.59943" lon="5.68825">
        <ele>544</ele>
        <time>2022-09-06T04:42:33Z</time>
      </trkpt>
      <trkpt lat="46.59945" lon="5.68825">
        <ele>544.4</ele>
        <time>2022-09-06T04:42:34Z</time>
      </trkpt>
      <trkpt lat="46.59948" lon="5.68825">
        <ele>544.6</ele>
        <time>2022-09-06T04:42:35Z</time>
      </trkpt>
      <trkpt lat="46.59951" lon="5.68825">
        <ele>545</ele>
        <time>2022-09-06T04:42:36Z</time>
      </trkpt>
      <trkpt lat="46.59953" lon="5.68826">
        <ele>545.2</ele>
        <time>2022-09-06T04:42:37Z</time>
      </trkpt>
      <trkpt lat="46.59956" lon="5.68826">
        <ele>545.6</ele>
        <time>2022-09-06T04:42:38Z</time>
      </trkpt>
      <trkpt lat="46.59958" lon="5.68828">
        <ele>545.8</ele>
        <time>2022-09-06T04:42:39Z</time>
      </trkpt>
      <trkpt lat="46.59961" lon="5.68829">
        <ele>546</ele>
        <time>2022-09-06T04:42:40Z</time>
      </trkpt>
      <trkpt lat="46.59963" lon="5.68831">
        <ele>546.2</ele>
        <time>2022-09-06T04:42:41Z</time>
      </trkpt>
      <trkpt lat="46.59966" lon="5.68833">
        <ele>546.6</ele>
        <time>2022-09-06T04:42:42Z</time>
      </trkpt>
      <trkpt lat="46.59968" lon="5.68835">
        <ele>546.8</ele>
        <time>2022-09-06T04:42:43Z</time>
      </trkpt>
      <trkpt lat="46.59971" lon="5.68836">
        <ele>547.2</ele>
        <time>2022-09-06T04:42:44Z</time>
      </trkpt>
      <trkpt lat="46.59973" lon="5.68838">
        <ele>547.4</ele>
        <time>2022-09-06T04:42:45Z</time>
      </trkpt>
      <trkpt lat="46.59976" lon="5.68841">
        <ele>547.6</ele>
        <time>2022-09-06T04:42:46Z</time>
      </trkpt>
      <trkpt lat="46.59979" lon="5.68844">
        <ele>548</ele>
        <time>2022-09-06T04:42:47Z</time>
      </trkpt>
      <trkpt lat="46.59982" lon="5.68846">
        <ele>548.2</ele>
        <time>2022-09-06T04:42:48Z</time>
      </trkpt>
      <trkpt lat="46.59985" lon="5.68849">
        <ele>548.2</ele>
        <time>2022-09-06T04:42:49Z</time>
      </trkpt>
      <trkpt lat="46.59988" lon="5.68851">
        <ele>548.6</ele>
        <time>2022-09-06T04:42:50Z</time>
      </trkpt>
      <trkpt lat="46.59991" lon="5.68853">
        <ele>548.8</ele>
        <time>2022-09-06T04:42:51Z</time>
      </trkpt>
      <trkpt lat="46.59994" lon="5.68855">
        <ele>548.8</ele>
        <time>2022-09-06T04:42:52Z</time>
      </trkpt>
      <trkpt lat="46.59997" lon="5.68857">
        <ele>549.2</ele>
        <time>2022-09-06T04:42:53Z</time>
      </trkpt>
      <trkpt lat="46.6" lon="5.68859">
        <ele>549.4</ele>
        <time>2022-09-06T04:42:54Z</time>
      </trkpt>
      <trkpt lat="46.60003" lon="5.68861">
        <ele>549.4</ele>
        <time>2022-09-06T04:42:55Z</time>
      </trkpt>
      <trkpt lat="46.60006" lon="5.68862">
        <ele>549.8</ele>
        <time>2022-09-06T04:42:56Z</time>
      </trkpt>
      <trkpt lat="46.60009" lon="5.68864">
        <ele>550</ele>
        <time>2022-09-06T04:42:57Z</time>
      </trkpt>
      <trkpt lat="46.60012" lon="5.68864">
        <ele>550</ele>
        <time>2022-09-06T04:42:58Z</time>
      </trkpt>
      <trkpt lat="46.60015" lon="5.68865">
        <ele>550.4</ele>
        <time>2022-09-06T04:42:59Z</time>
      </trkpt>
      <trkpt lat="46.60018" lon="5.68866">
        <ele>550.4</ele>
        <time>2022-09-06T04:43:00Z</time>
      </trkpt>
      <trkpt lat="46.60022" lon="5.68867">
        <ele>550.6</ele>
        <time>2022-09-06T04:43:01Z</time>
      </trkpt>
      <trkpt lat="46.60025" lon="5.68868">
        <ele>551</ele>
        <time>2022-09-06T04:43:02Z</time>
      </trkpt>
      <trkpt lat="46.60028" lon="5.68869">
        <ele>551.2</ele>
        <time>2022-09-06T04:43:03Z</time>
      </trkpt>
      <trkpt lat="46.60031" lon="5.68869">
        <ele>551.2</ele>
        <time>2022-09-06T04:43:04Z</time>
      </trkpt>
      <trkpt lat="46.60033" lon="5.6887">
        <ele>551.4</ele>
        <time>2022-09-06T04:43:05Z</time>
      </trkpt>
      <trkpt lat="46.60036" lon="5.68871">
        <ele>551.6</ele>
        <time>2022-09-06T04:43:06Z</time>
      </trkpt>
      <trkpt lat="46.60039" lon="5.68872">
        <ele>552</ele>
        <time>2022-09-06T04:43:07Z</time>
      </trkpt>
      <trkpt lat="46.60042" lon="5.68872">
        <ele>552</ele>
        <time>2022-09-06T04:43:08Z</time>
      </trkpt>
      <trkpt lat="46.60045" lon="5.68872">
        <ele>552.2</ele>
        <time>2022-09-06T04:43:09Z</time>
      </trkpt>
      <trkpt lat="46.60048" lon="5.68872">
        <ele>552.6</ele>
        <time>2022-09-06T04:43:10Z</time>
      </trkpt>
      <trkpt lat="46.6005" lon="5.68873">
        <ele>552.8</ele>
        <time>2022-09-06T04:43:11Z</time>
      </trkpt>
      <trkpt lat="46.60053" lon="5.68874">
        <ele>553</ele>
        <time>2022-09-06T04:43:12Z</time>
      </trkpt>
      <trkpt lat="46.60056" lon="5.68874">
        <ele>553</ele>
        <time>2022-09-06T04:43:13Z</time>
      </trkpt>
      <trkpt lat="46.60058" lon="5.68874">
        <ele>553.2</ele>
        <time>2022-09-06T04:43:14Z</time>
      </trkpt>
      <trkpt lat="46.60061" lon="5.68875">
        <ele>553.2</ele>
        <time>2022-09-06T04:43:15Z</time>
      </trkpt>
      <trkpt lat="46.60064" lon="5.68876">
        <ele>553.6</ele>
        <time>2022-09-06T04:43:16Z</time>
      </trkpt>
      <trkpt lat="46.60067" lon="5.68876">
        <ele>553.6</ele>
        <time>2022-09-06T04:43:17Z</time>
      </trkpt>
      <trkpt lat="46.6007" lon="5.68877">
        <ele>553.6</ele>
        <time>2022-09-06T04:43:18Z</time>
      </trkpt>
      <trkpt lat="46.60073" lon="5.68879">
        <ele>554</ele>
        <time>2022-09-06T04:43:19Z</time>
      </trkpt>
      <trkpt lat="46.60076" lon="5.6888">
        <ele>554</ele>
        <time>2022-09-06T04:43:20Z</time>
      </trkpt>
      <trkpt lat="46.60079" lon="5.68881">
        <ele>554.2</ele>
        <time>2022-09-06T04:43:21Z</time>
      </trkpt>
      <trkpt lat="46.60082" lon="5.68882">
        <ele>554.2</ele>
        <time>2022-09-06T04:43:22Z</time>
      </trkpt>
      <trkpt lat="46.60085" lon="5.68883">
        <ele>554.4</ele>
        <time>2022-09-06T04:43:23Z</time>
      </trkpt>
      <trkpt lat="46.60088" lon="5.68884">
        <ele>554.4</ele>
        <time>2022-09-06T04:43:24Z</time>
      </trkpt>
      <trkpt lat="46.60091" lon="5.68885">
        <ele>554.8</ele>
        <time>2022-09-06T04:43:25Z</time>
      </trkpt>
      <trkpt lat="46.60094" lon="5.68886">
        <ele>554.8</ele>
        <time>2022-09-06T04:43:26Z</time>
      </trkpt>
      <trkpt lat="46.60097" lon="5.68888">
        <ele>554.8</ele>
        <time>2022-09-06T04:43:27Z</time>
      </trkpt>
      <trkpt lat="46.601" lon="5.68889">
        <ele>554.8</ele>
        <time>2022-09-06T04:43:28Z</time>
      </trkpt>
      <trkpt lat="46.60103" lon="5.6889">
        <ele>554.8</ele>
        <time>2022-09-06T04:43:29Z</time>
      </trkpt>
      <trkpt lat="46.60106" lon="5.68891">
        <ele>555</ele>
        <time>2022-09-06T04:43:30Z</time>
      </trkpt>
      <trkpt lat="46.60109" lon="5.68892">
        <ele>555</ele>
        <time>2022-09-06T04:43:31Z</time>
      </trkpt>
      <trkpt lat="46.60112" lon="5.68893">
        <ele>555</ele>
        <time>2022-09-06T04:43:32Z</time>
      </trkpt>
      <trkpt lat="46.60114" lon="5.68894">
        <ele>555.2</ele>
        <time>2022-09-06T04:43:33Z</time>
      </trkpt>
      <trkpt lat="46.60116" lon="5.68896">
        <ele>555.2</ele>
        <time>2022-09-06T04:43:34Z</time>
      </trkpt>
      <trkpt lat="46.60117" lon="5.68899">
        <ele>555.2</ele>
        <time>2022-09-06T04:43:35Z</time>
      </trkpt>
      <trkpt lat="46.60119" lon="5.68902">
        <ele>555.4</ele>
        <time>2022-09-06T04:43:36Z</time>
      </trkpt>
      <trkpt lat="46.6012" lon="5.68905">
        <ele>555.4</ele>
        <time>2022-09-06T04:43:37Z</time>
      </trkpt>
      <trkpt lat="46.60121" lon="5.68908">
        <ele>555.4</ele>
        <time>2022-09-06T04:43:38Z</time>
      </trkpt>
      <trkpt lat="46.60122" lon="5.68909">
        <ele>555.4</ele>
        <time>2022-09-06T04:43:39Z</time>
      </trkpt>
      <trkpt lat="46.60124" lon="5.6891">
        <ele>555.4</ele>
        <time>2022-09-06T04:43:40Z</time>
      </trkpt>
      <trkpt lat="46.60128" lon="5.68905">
        <ele>555.6</ele>
        <time>2022-09-06T04:45:19Z</time>
      </trkpt>
      <trkpt lat="46.6013" lon="5.68904">
        <ele>555.6</ele>
        <time>2022-09-06T04:45:20Z</time>
      </trkpt>
      <trkpt lat="46.60132" lon="5.68903">
        <ele>555.6</ele>
        <time>2022-09-06T04:45:21Z</time>
      </trkpt>
      <trkpt lat="46.60135" lon="5.68904">
        <ele>555.6</ele>
        <time>2022-09-06T04:45:22Z</time>
      </trkpt>
      <trkpt lat="46.60138" lon="5.68904">
        <ele>555.6</ele>
        <time>2022-09-06T04:45:23Z</time>
      </trkpt>
      <trkpt lat="46.60141" lon="5.68906">
        <ele>555.6</ele>
        <time>2022-09-06T04:45:24Z</time>
      </trkpt>
      <trkpt lat="46.60144" lon="5.68907">
        <ele>555.6</ele>
        <time>2022-09-06T04:45:25Z</time>
      </trkpt>
      <trkpt lat="46.60148" lon="5.68909">
        <ele>555.6</ele>
        <time>2022-09-06T04:45:26Z</time>
      </trkpt>
      <trkpt lat="46.60151" lon="5.6891">
        <ele>555.6</ele>
        <time>2022-09-06T04:45:27Z</time>
      </trkpt>
      <trkpt lat="46.60155" lon="5.68911">
        <ele>556</ele>
        <time>2022-09-06T04:45:28Z</time>
      </trkpt>
      <trkpt lat="46.60159" lon="5.68913">
        <ele>556</ele>
        <time>2022-09-06T04:45:29Z</time>
      </trkpt>
      <trkpt lat="46.60163" lon="5.68915">
        <ele>556</ele>
        <time>2022-09-06T04:45:30Z</time>
      </trkpt>
      <trkpt lat="46.60167" lon="5.68916">
        <ele>556</ele>
        <time>2022-09-06T04:45:31Z</time>
      </trkpt>
      <trkpt lat="46.60171" lon="5.68917">
        <ele>556</ele>
        <time>2022-09-06T04:45:32Z</time>
      </trkpt>
      <trkpt lat="46.60175" lon="5.68918">
        <ele>556</ele>
        <time>2022-09-06T04:45:33Z</time>
      </trkpt>
      <trkpt lat="46.60179" lon="5.68919">
        <ele>556</ele>
        <time>2022-09-06T04:45:34Z</time>
      </trkpt>
      <trkpt lat="46.60183" lon="5.68921">
        <ele>556</ele>
        <time>2022-09-06T04:45:35Z</time>
      </trkpt>
      <trkpt lat="46.60188" lon="5.68923">
        <ele>556</ele>
        <time>2022-09-06T04:45:36Z</time>
      </trkpt>
      <trkpt lat="46.60193" lon="5.68924">
        <ele>556</ele>
        <time>2022-09-06T04:45:37Z</time>
      </trkpt>
      <trkpt lat="46.60199" lon="5.68926">
        <ele>556</ele>
        <time>2022-09-06T04:45:38Z</time>
      </trkpt>
      <trkpt lat="46.60204" lon="5.68927">
        <ele>556.2</ele>
        <time>2022-09-06T04:45:39Z</time>
      </trkpt>
      <trkpt lat="46.60209" lon="5.68928">
        <ele>556.2</ele>
        <time>2022-09-06T04:45:40Z</time>
      </trkpt>
      <trkpt lat="46.60214" lon="5.68929">
        <ele>556.2</ele>
        <time>2022-09-06T04:45:41Z</time>
      </trkpt>
      <trkpt lat="46.60219" lon="5.6893">
        <ele>556.2</ele>
        <time>2022-09-06T04:45:42Z</time>
      </trkpt>
      <trkpt lat="46.60224" lon="5.68932">
        <ele>556.4</ele>
        <time>2022-09-06T04:45:43Z</time>
      </trkpt>
      <trkpt lat="46.6023" lon="5.68934">
        <ele>556.4</ele>
        <time>2022-09-06T04:45:44Z</time>
      </trkpt>
      <trkpt lat="46.60235" lon="5.68935">
        <ele>556.4</ele>
        <time>2022-09-06T04:45:45Z</time>
      </trkpt>
      <trkpt lat="46.6024" lon="5.68936">
        <ele>556.8</ele>
        <time>2022-09-06T04:45:46Z</time>
      </trkpt>
      <trkpt lat="46.60245" lon="5.68937">
        <ele>556.8</ele>
        <time>2022-09-06T04:45:47Z</time>
      </trkpt>
      <trkpt lat="46.6025" lon="5.68939">
        <ele>557</ele>
        <time>2022-09-06T04:45:48Z</time>
      </trkpt>
      <trkpt lat="46.60254" lon="5.68941">
        <ele>557</ele>
        <time>2022-09-06T04:45:49Z</time>
      </trkpt>
      <trkpt lat="46.60259" lon="5.68943">
        <ele>557.4</ele>
        <time>2022-09-06T04:45:50Z</time>
      </trkpt>
      <trkpt lat="46.60263" lon="5.68944">
        <ele>557.4</ele>
        <time>2022-09-06T04:45:51Z</time>
      </trkpt>
      <trkpt lat="46.60268" lon="5.68946">
        <ele>557.6</ele>
        <time>2022-09-06T04:45:52Z</time>
      </trkpt>
      <trkpt lat="46.60272" lon="5.68947">
        <ele>557.6</ele>
        <time>2022-09-06T04:45:53Z</time>
      </trkpt>
      <trkpt lat="46.60277" lon="5.68948">
        <ele>557.8</ele>
        <time>2022-09-06T04:45:54Z</time>
      </trkpt>
      <trkpt lat="46.60281" lon="5.68949">
        <ele>557.8</ele>
        <time>2022-09-06T04:45:55Z</time>
      </trkpt>
      <trkpt lat="46.60286" lon="5.68951">
        <ele>557.8</ele>
        <time>2022-09-06T04:45:56Z</time>
      </trkpt>
      <trkpt lat="46.60291" lon="5.68953">
        <ele>558</ele>
        <time>2022-09-06T04:45:57Z</time>
      </trkpt>
      <trkpt lat="46.60295" lon="5.68955">
        <ele>558</ele>
        <time>2022-09-06T04:45:58Z</time>
      </trkpt>
      <trkpt lat="46.603" lon="5.68956">
        <ele>558</ele>
        <time>2022-09-06T04:45:59Z</time>
      </trkpt>
      <trkpt lat="46.60304" lon="5.68958">
        <ele>558.4</ele>
        <time>2022-09-06T04:46:00Z</time>
      </trkpt>
      <trkpt lat="46.60309" lon="5.68959">
        <ele>558.4</ele>
        <time>2022-09-06T04:46:01Z</time>
      </trkpt>
      <trkpt lat="46.60314" lon="5.6896">
        <ele>558.6</ele>
        <time>2022-09-06T04:46:02Z</time>
      </trkpt>
      <trkpt lat="46.60318" lon="5.6896">
        <ele>558.6</ele>
        <time>2022-09-06T04:46:03Z</time>
      </trkpt>
      <trkpt lat="46.60324" lon="5.6896">
        <ele>558.6</ele>
        <time>2022-09-06T04:46:04Z</time>
      </trkpt>
      <trkpt lat="46.60329" lon="5.68958">
        <ele>558.6</ele>
        <time>2022-09-06T04:46:05Z</time>
      </trkpt>
      <trkpt lat="46.60334" lon="5.68954">
        <ele>558.6</ele>
        <time>2022-09-06T04:46:06Z</time>
      </trkpt>
      <trkpt lat="46.6034" lon="5.6895">
        <ele>558.6</ele>
        <time>2022-09-06T04:46:07Z</time>
      </trkpt>
      <trkpt lat="46.6034" lon="5.6895">
        <ele>558.6</ele>
        <time>2022-09-06T04:46:08Z</time>
      </trkpt>
      <trkpt lat="46.60345" lon="5.68945">
        <ele>558.4</ele>
        <time>2022-09-06T04:46:09Z</time>
      </trkpt>
      <trkpt lat="46.60351" lon="5.6894">
        <ele>558.4</ele>
        <time>2022-09-06T04:46:10Z</time>
      </trkpt>
      <trkpt lat="46.60356" lon="5.68934">
        <ele>558.4</ele>
        <time>2022-09-06T04:46:11Z</time>
      </trkpt>
      <trkpt lat="46.60362" lon="5.68928">
        <ele>558</ele>
        <time>2022-09-06T04:46:12Z</time>
      </trkpt>
      <trkpt lat="46.60367" lon="5.68922">
        <ele>558</ele>
        <time>2022-09-06T04:46:13Z</time>
      </trkpt>
      <trkpt lat="46.60373" lon="5.68916">
        <ele>558</ele>
        <time>2022-09-06T04:46:14Z</time>
      </trkpt>
      <trkpt lat="46.60379" lon="5.6891">
        <ele>558</ele>
        <time>2022-09-06T04:46:15Z</time>
      </trkpt>
      <trkpt lat="46.60385" lon="5.68905">
        <ele>557.8</ele>
        <time>2022-09-06T04:46:16Z</time>
      </trkpt>
      <trkpt lat="46.60392" lon="5.68901">
        <ele>557.8</ele>
        <time>2022-09-06T04:46:17Z</time>
      </trkpt>
      <trkpt lat="46.60398" lon="5.68897">
        <ele>557.8</ele>
        <time>2022-09-06T04:46:18Z</time>
      </trkpt>
      <trkpt lat="46.60405" lon="5.68895">
        <ele>557.6</ele>
        <time>2022-09-06T04:46:19Z</time>
      </trkpt>
      <trkpt lat="46.60412" lon="5.68894">
        <ele>557.6</ele>
        <time>2022-09-06T04:46:20Z</time>
      </trkpt>
      <trkpt lat="46.60419" lon="5.68895">
        <ele>557.6</ele>
        <time>2022-09-06T04:46:21Z</time>
      </trkpt>
      <trkpt lat="46.60426" lon="5.68897">
        <ele>557.6</ele>
        <time>2022-09-06T04:46:22Z</time>
      </trkpt>
      <trkpt lat="46.60432" lon="5.68901">
        <ele>557.8</ele>
        <time>2022-09-06T04:46:23Z</time>
      </trkpt>
      <trkpt lat="46.60437" lon="5.68905">
        <ele>557.8</ele>
        <time>2022-09-06T04:46:24Z</time>
      </trkpt>
      <trkpt lat="46.60443" lon="5.68909">
        <ele>557.8</ele>
        <time>2022-09-06T04:46:25Z</time>
      </trkpt>
      <trkpt lat="46.60448" lon="5.68913">
        <ele>558</ele>
        <time>2022-09-06T04:46:26Z</time>
      </trkpt>
      <trkpt lat="46.60453" lon="5.68917">
        <ele>558</ele>
        <time>2022-09-06T04:46:27Z</time>
      </trkpt>
      <trkpt lat="46.60458" lon="5.68921">
        <ele>558.4</ele>
        <time>2022-09-06T04:46:28Z</time>
      </trkpt>
      <trkpt lat="46.60463" lon="5.68925">
        <ele>558.6</ele>
        <time>2022-09-06T04:46:29Z</time>
      </trkpt>
      <trkpt lat="46.60468" lon="5.68929">
        <ele>558.6</ele>
        <time>2022-09-06T04:46:30Z</time>
      </trkpt>
      <trkpt lat="46.60472" lon="5.68933">
        <ele>558.8</ele>
        <time>2022-09-06T04:46:31Z</time>
      </trkpt>
      <trkpt lat="46.60477" lon="5.68937">
        <ele>558.8</ele>
        <time>2022-09-06T04:46:32Z</time>
      </trkpt>
      <trkpt lat="46.60482" lon="5.68942">
        <ele>559.2</ele>
        <time>2022-09-06T04:46:33Z</time>
      </trkpt>
      <trkpt lat="46.60487" lon="5.68946">
        <ele>559.2</ele>
        <time>2022-09-06T04:46:34Z</time>
      </trkpt>
      <trkpt lat="46.60493" lon="5.68951">
        <ele>559.2</ele>
        <time>2022-09-06T04:46:35Z</time>
      </trkpt>
      <trkpt lat="46.60498" lon="5.68957">
        <ele>559.2</ele>
        <time>2022-09-06T04:46:36Z</time>
      </trkpt>
      <trkpt lat="46.60504" lon="5.68962">
        <ele>559.2</ele>
        <time>2022-09-06T04:46:37Z</time>
      </trkpt>
      <trkpt lat="46.6051" lon="5.68968">
        <ele>559.2</ele>
        <time>2022-09-06T04:46:38Z</time>
      </trkpt>
      <trkpt lat="46.60516" lon="5.68974">
        <ele>559</ele>
        <time>2022-09-06T04:46:39Z</time>
      </trkpt>
      <trkpt lat="46.60522" lon="5.6898">
        <ele>559</ele>
        <time>2022-09-06T04:46:40Z</time>
      </trkpt>
      <trkpt lat="46.60528" lon="5.68986">
        <ele>558.6</ele>
        <time>2022-09-06T04:46:41Z</time>
      </trkpt>
      <trkpt lat="46.60534" lon="5.68992">
        <ele>558.6</ele>
        <time>2022-09-06T04:46:42Z</time>
      </trkpt>
      <trkpt lat="46.60541" lon="5.68998">
        <ele>558.4</ele>
        <time>2022-09-06T04:46:43Z</time>
      </trkpt>
      <trkpt lat="46.60547" lon="5.69004">
        <ele>558.4</ele>
        <time>2022-09-06T04:46:44Z</time>
      </trkpt>
      <trkpt lat="46.60552" lon="5.69011">
        <ele>558.4</ele>
        <time>2022-09-06T04:46:45Z</time>
      </trkpt>
      <trkpt lat="46.60558" lon="5.69017">
        <ele>558.4</ele>
        <time>2022-09-06T04:46:46Z</time>
      </trkpt>
      <trkpt lat="46.60563" lon="5.69024">
        <ele>558.4</ele>
        <time>2022-09-06T04:46:47Z</time>
      </trkpt>
      <trkpt lat="46.60568" lon="5.6903">
        <ele>558.4</ele>
        <time>2022-09-06T04:46:48Z</time>
      </trkpt>
      <trkpt lat="46.60572" lon="5.69037">
        <ele>558.4</ele>
        <time>2022-09-06T04:46:49Z</time>
      </trkpt>
      <trkpt lat="46.60576" lon="5.69043">
        <ele>558.4</ele>
        <time>2022-09-06T04:46:50Z</time>
      </trkpt>
      <trkpt lat="46.6058" lon="5.69048">
        <ele>558.6</ele>
        <time>2022-09-06T04:46:51Z</time>
      </trkpt>
      <trkpt lat="46.60584" lon="5.69053">
        <ele>558.8</ele>
        <time>2022-09-06T04:46:52Z</time>
      </trkpt>
      <trkpt lat="46.60587" lon="5.69058">
        <ele>559.2</ele>
        <time>2022-09-06T04:46:53Z</time>
      </trkpt>
      <trkpt lat="46.6059" lon="5.69063">
        <ele>559.4</ele>
        <time>2022-09-06T04:46:54Z</time>
      </trkpt>
      <trkpt lat="46.60593" lon="5.69067">
        <ele>559.8</ele>
        <time>2022-09-06T04:46:55Z</time>
      </trkpt>
      <trkpt lat="46.60596" lon="5.69074">
        <ele>559.8</ele>
        <time>2022-09-06T04:46:56Z</time>
      </trkpt>
      <trkpt lat="46.60598" lon="5.69077">
        <ele>560.2</ele>
        <time>2022-09-06T04:46:57Z</time>
      </trkpt>
      <trkpt lat="46.606" lon="5.69081">
        <ele>560.2</ele>
        <time>2022-09-06T04:46:58Z</time>
      </trkpt>
      <trkpt lat="46.60603" lon="5.69086">
        <ele>560.4</ele>
        <time>2022-09-06T04:46:59Z</time>
      </trkpt>
      <trkpt lat="46.60606" lon="5.6909">
        <ele>560.4</ele>
        <time>2022-09-06T04:47:00Z</time>
      </trkpt>
      <trkpt lat="46.60608" lon="5.69095">
        <ele>560.6</ele>
        <time>2022-09-06T04:47:01Z</time>
      </trkpt>
      <trkpt lat="46.60611" lon="5.69099">
        <ele>560.6</ele>
        <time>2022-09-06T04:47:02Z</time>
      </trkpt>
      <trkpt lat="46.60614" lon="5.69104">
        <ele>560.6</ele>
        <time>2022-09-06T04:47:03Z</time>
      </trkpt>
      <trkpt lat="46.60616" lon="5.69108">
        <ele>560.8</ele>
        <time>2022-09-06T04:47:04Z</time>
      </trkpt>
      <trkpt lat="46.60619" lon="5.69112">
        <ele>560.8</ele>
        <time>2022-09-06T04:47:05Z</time>
      </trkpt>
      <trkpt lat="46.60621" lon="5.69116">
        <ele>560.8</ele>
        <time>2022-09-06T04:47:06Z</time>
      </trkpt>
      <trkpt lat="46.60623" lon="5.69119">
        <ele>560.8</ele>
        <time>2022-09-06T04:47:07Z</time>
      </trkpt>
      <trkpt lat="46.60624" lon="5.69121">
        <ele>560.8</ele>
        <time>2022-09-06T04:47:08Z</time>
      </trkpt>
      <trkpt lat="46.60625" lon="5.69122">
        <ele>560.8</ele>
        <time>2022-09-06T04:47:09Z</time>
      </trkpt>
      <trkpt lat="46.6063" lon="5.69125">
        <ele>560.8</ele>
        <time>2022-09-06T04:48:02Z</time>
      </trkpt>
      <trkpt lat="46.60632" lon="5.69127">
        <ele>560.8</ele>
        <time>2022-09-06T04:48:03Z</time>
      </trkpt>
      <trkpt lat="46.60634" lon="5.6913">
        <ele>560.8</ele>
        <time>2022-09-06T04:48:04Z</time>
      </trkpt>
      <trkpt lat="46.60637" lon="5.69134">
        <ele>560.8</ele>
        <time>2022-09-06T04:48:05Z</time>
      </trkpt>
      <trkpt lat="46.6064" lon="5.69137">
        <ele>560.8</ele>
        <time>2022-09-06T04:48:06Z</time>
      </trkpt>
      <trkpt lat="46.60643" lon="5.69142">
        <ele>560.6</ele>
        <time>2022-09-06T04:48:07Z</time>
      </trkpt>
      <trkpt lat="46.60647" lon="5.69147">
        <ele>560.6</ele>
        <time>2022-09-06T04:48:08Z</time>
      </trkpt>
      <trkpt lat="46.60651" lon="5.69151">
        <ele>560.4</ele>
        <time>2022-09-06T04:48:09Z</time>
      </trkpt>
      <trkpt lat="46.60656" lon="5.69156">
        <ele>560.2</ele>
        <time>2022-09-06T04:48:10Z</time>
      </trkpt>
      <trkpt lat="46.60662" lon="5.69162">
        <ele>560.2</ele>
        <time>2022-09-06T04:48:11Z</time>
      </trkpt>
      <trkpt lat="46.60667" lon="5.69167">
        <ele>559.8</ele>
        <time>2022-09-06T04:48:12Z</time>
      </trkpt>
      <trkpt lat="46.60673" lon="5.69173">
        <ele>559.4</ele>
        <time>2022-09-06T04:48:13Z</time>
      </trkpt>
      <trkpt lat="46.60679" lon="5.69178">
        <ele>559.2</ele>
        <time>2022-09-06T04:48:14Z</time>
      </trkpt>
      <trkpt lat="46.60685" lon="5.69184">
        <ele>559</ele>
        <time>2022-09-06T04:48:15Z</time>
      </trkpt>
      <trkpt lat="46.60691" lon="5.69191">
        <ele>558.6</ele>
        <time>2022-09-06T04:48:16Z</time>
      </trkpt>
      <trkpt lat="46.60697" lon="5.69197">
        <ele>558.4</ele>
        <time>2022-09-06T04:48:17Z</time>
      </trkpt>
      <trkpt lat="46.60703" lon="5.69203">
        <ele>558.2</ele>
        <time>2022-09-06T04:48:18Z</time>
      </trkpt>
      <trkpt lat="46.60709" lon="5.69209">
        <ele>557.8</ele>
        <time>2022-09-06T04:48:19Z</time>
      </trkpt>
      <trkpt lat="46.60715" lon="5.69214">
        <ele>557.6</ele>
        <time>2022-09-06T04:48:20Z</time>
      </trkpt>
      <trkpt lat="46.60721" lon="5.6922">
        <ele>557.6</ele>
        <time>2022-09-06T04:48:21Z</time>
      </trkpt>
      <trkpt lat="46.60726" lon="5.69226">
        <ele>557.6</ele>
        <time>2022-09-06T04:48:22Z</time>
      </trkpt>
      <trkpt lat="46.60732" lon="5.69231">
        <ele>557.4</ele>
        <time>2022-09-06T04:48:23Z</time>
      </trkpt>
      <trkpt lat="46.60737" lon="5.69237">
        <ele>557.4</ele>
        <time>2022-09-06T04:48:24Z</time>
      </trkpt>
      <trkpt lat="46.60743" lon="5.69243">
        <ele>557.4</ele>
        <time>2022-09-06T04:48:25Z</time>
      </trkpt>
      <trkpt lat="46.60748" lon="5.69248">
        <ele>557.2</ele>
        <time>2022-09-06T04:48:26Z</time>
      </trkpt>
      <trkpt lat="46.60754" lon="5.69254">
        <ele>557.2</ele>
        <time>2022-09-06T04:48:27Z</time>
      </trkpt>
      <trkpt lat="46.60759" lon="5.69259">
        <ele>557.2</ele>
        <time>2022-09-06T04:48:28Z</time>
      </trkpt>
      <trkpt lat="46.60764" lon="5.69264">
        <ele>557.2</ele>
        <time>2022-09-06T04:48:29Z</time>
      </trkpt>
      <trkpt lat="46.60769" lon="5.6927">
        <ele>557.2</ele>
        <time>2022-09-06T04:48:30Z</time>
      </trkpt>
      <trkpt lat="46.60775" lon="5.69275">
        <ele>557.2</ele>
        <time>2022-09-06T04:48:31Z</time>
      </trkpt>
      <trkpt lat="46.6078" lon="5.69281">
        <ele>557.2</ele>
        <time>2022-09-06T04:48:32Z</time>
      </trkpt>
      <trkpt lat="46.60786" lon="5.69286">
        <ele>556.8</ele>
        <time>2022-09-06T04:48:33Z</time>
      </trkpt>
      <trkpt lat="46.60791" lon="5.69292">
        <ele>556.8</ele>
        <time>2022-09-06T04:48:34Z</time>
      </trkpt>
      <trkpt lat="46.60797" lon="5.69299">
        <ele>556.6</ele>
        <time>2022-09-06T04:48:35Z</time>
      </trkpt>
      <trkpt lat="46.60803" lon="5.69305">
        <ele>556.6</ele>
        <time>2022-09-06T04:48:36Z</time>
      </trkpt>
      <trkpt lat="46.60806" lon="5.69309">
        <ele>556.2</ele>
        <time>2022-09-06T04:48:37Z</time>
      </trkpt>
      <trkpt lat="46.60809" lon="5.69312">
        <ele>555.8</ele>
        <time>2022-09-06T04:48:38Z</time>
      </trkpt>
      <trkpt lat="46.60816" lon="5.69319">
        <ele>555.6</ele>
        <time>2022-09-06T04:48:39Z</time>
      </trkpt>
      <trkpt lat="46.60822" lon="5.69326">
        <ele>555.2</ele>
        <time>2022-09-06T04:48:40Z</time>
      </trkpt>
      <trkpt lat="46.60829" lon="5.69333">
        <ele>554.8</ele>
        <time>2022-09-06T04:48:41Z</time>
      </trkpt>
      <trkpt lat="46.60835" lon="5.69341">
        <ele>554.6</ele>
        <time>2022-09-06T04:48:42Z</time>
      </trkpt>
      <trkpt lat="46.60842" lon="5.69349">
        <ele>554</ele>
        <time>2022-09-06T04:48:43Z</time>
      </trkpt>
      <trkpt lat="46.60849" lon="5.69357">
        <ele>553.6</ele>
        <time>2022-09-06T04:48:44Z</time>
      </trkpt>
      <trkpt lat="46.60856" lon="5.69365">
        <ele>553.2</ele>
        <time>2022-09-06T04:48:45Z</time>
      </trkpt>
      <trkpt lat="46.60863" lon="5.69375">
        <ele>552.8</ele>
        <time>2022-09-06T04:48:46Z</time>
      </trkpt>
      <trkpt lat="46.6087" lon="5.69384">
        <ele>552.2</ele>
        <time>2022-09-06T04:48:47Z</time>
      </trkpt>
      <trkpt lat="46.60878" lon="5.69393">
        <ele>551.8</ele>
        <time>2022-09-06T04:48:48Z</time>
      </trkpt>
      <trkpt lat="46.60887" lon="5.69402">
        <ele>551.6</ele>
        <time>2022-09-06T04:48:49Z</time>
      </trkpt>
      <trkpt lat="46.60895" lon="5.6941">
        <ele>551.2</ele>
        <time>2022-09-06T04:48:50Z</time>
      </trkpt>
      <trkpt lat="46.60903" lon="5.69419">
        <ele>551</ele>
        <time>2022-09-06T04:48:51Z</time>
      </trkpt>
      <trkpt lat="46.60911" lon="5.69427">
        <ele>550.6</ele>
        <time>2022-09-06T04:48:52Z</time>
      </trkpt>
      <trkpt lat="46.60919" lon="5.69435">
        <ele>550.2</ele>
        <time>2022-09-06T04:48:53Z</time>
      </trkpt>
      <trkpt lat="46.60927" lon="5.69442">
        <ele>549.8</ele>
        <time>2022-09-06T04:48:54Z</time>
      </trkpt>
      <trkpt lat="46.60936" lon="5.6945">
        <ele>549.4</ele>
        <time>2022-09-06T04:48:55Z</time>
      </trkpt>
      <trkpt lat="46.60944" lon="5.69459">
        <ele>548.8</ele>
        <time>2022-09-06T04:48:56Z</time>
      </trkpt>
      <trkpt lat="46.60953" lon="5.69467">
        <ele>548.2</ele>
        <time>2022-09-06T04:48:57Z</time>
      </trkpt>
      <trkpt lat="46.60962" lon="5.69477">
        <ele>547.6</ele>
        <time>2022-09-06T04:48:58Z</time>
      </trkpt>
      <trkpt lat="46.60971" lon="5.69486">
        <ele>546.8</ele>
        <time>2022-09-06T04:48:59Z</time>
      </trkpt>
      <trkpt lat="46.6098" lon="5.69495">
        <ele>546.2</ele>
        <time>2022-09-06T04:49:00Z</time>
      </trkpt>
      <trkpt lat="46.6099" lon="5.69503">
        <ele>545.8</ele>
        <time>2022-09-06T04:49:01Z</time>
      </trkpt>
      <trkpt lat="46.60999" lon="5.69512">
        <ele>545.2</ele>
        <time>2022-09-06T04:49:02Z</time>
      </trkpt>
      <trkpt lat="46.61008" lon="5.6952">
        <ele>544.8</ele>
        <time>2022-09-06T04:49:03Z</time>
      </trkpt>
      <trkpt lat="46.61017" lon="5.6953">
        <ele>544.6</ele>
        <time>2022-09-06T04:49:04Z</time>
      </trkpt>
      <trkpt lat="46.61025" lon="5.69539">
        <ele>544.4</ele>
        <time>2022-09-06T04:49:05Z</time>
      </trkpt>
      <trkpt lat="46.61033" lon="5.69546">
        <ele>544.2</ele>
        <time>2022-09-06T04:49:06Z</time>
      </trkpt>
      <trkpt lat="46.61041" lon="5.69554">
        <ele>544.2</ele>
        <time>2022-09-06T04:49:07Z</time>
      </trkpt>
      <trkpt lat="46.61048" lon="5.69561">
        <ele>544.2</ele>
        <time>2022-09-06T04:49:08Z</time>
      </trkpt>
      <trkpt lat="46.61055" lon="5.69568">
        <ele>544.2</ele>
        <time>2022-09-06T04:49:09Z</time>
      </trkpt>
      <trkpt lat="46.61062" lon="5.69574">
        <ele>544.2</ele>
        <time>2022-09-06T04:49:10Z</time>
      </trkpt>
      <trkpt lat="46.61068" lon="5.69579">
        <ele>544.2</ele>
        <time>2022-09-06T04:49:11Z</time>
      </trkpt>
      <trkpt lat="46.61075" lon="5.69584">
        <ele>544.4</ele>
        <time>2022-09-06T04:49:12Z</time>
      </trkpt>
      <trkpt lat="46.61081" lon="5.69589">
        <ele>544.8</ele>
        <time>2022-09-06T04:49:13Z</time>
      </trkpt>
      <trkpt lat="46.61087" lon="5.69592">
        <ele>545.2</ele>
        <time>2022-09-06T04:49:14Z</time>
      </trkpt>
      <trkpt lat="46.61092" lon="5.69596">
        <ele>545.4</ele>
        <time>2022-09-06T04:49:15Z</time>
      </trkpt>
      <trkpt lat="46.61096" lon="5.696">
        <ele>545.4</ele>
        <time>2022-09-06T04:49:16Z</time>
      </trkpt>
      <trkpt lat="46.61101" lon="5.69604">
        <ele>546</ele>
        <time>2022-09-06T04:49:17Z</time>
      </trkpt>
      <trkpt lat="46.61106" lon="5.69608">
        <ele>546.2</ele>
        <time>2022-09-06T04:49:18Z</time>
      </trkpt>
      <trkpt lat="46.61111" lon="5.69611">
        <ele>546.6</ele>
        <time>2022-09-06T04:49:19Z</time>
      </trkpt>
      <trkpt lat="46.61115" lon="5.69614">
        <ele>547</ele>
        <time>2022-09-06T04:49:20Z</time>
      </trkpt>
      <trkpt lat="46.6112" lon="5.69618">
        <ele>547.4</ele>
        <time>2022-09-06T04:49:21Z</time>
      </trkpt>
      <trkpt lat="46.61124" lon="5.69621">
        <ele>547.8</ele>
        <time>2022-09-06T04:49:22Z</time>
      </trkpt>
      <trkpt lat="46.61128" lon="5.69625">
        <ele>548</ele>
        <time>2022-09-06T04:49:23Z</time>
      </trkpt>
      <trkpt lat="46.61132" lon="5.6963">
        <ele>548.8</ele>
        <time>2022-09-06T04:49:24Z</time>
      </trkpt>
      <trkpt lat="46.61135" lon="5.69635">
        <ele>549</ele>
        <time>2022-09-06T04:49:25Z</time>
      </trkpt>
      <trkpt lat="46.61139" lon="5.6964">
        <ele>549.4</ele>
        <time>2022-09-06T04:49:26Z</time>
      </trkpt>
      <trkpt lat="46.61142" lon="5.69645">
        <ele>549.8</ele>
        <time>2022-09-06T04:49:27Z</time>
      </trkpt>
      <trkpt lat="46.61145" lon="5.6965">
        <ele>550.2</ele>
        <time>2022-09-06T04:49:28Z</time>
      </trkpt>
      <trkpt lat="46.61148" lon="5.69656">
        <ele>550.4</ele>
        <time>2022-09-06T04:49:29Z</time>
      </trkpt>
      <trkpt lat="46.6115" lon="5.69662">
        <ele>550.8</ele>
        <time>2022-09-06T04:49:30Z</time>
      </trkpt>
      <trkpt lat="46.61152" lon="5.69668">
        <ele>551</ele>
        <time>2022-09-06T04:49:31Z</time>
      </trkpt>
      <trkpt lat="46.61155" lon="5.69673">
        <ele>551.2</ele>
        <time>2022-09-06T04:49:32Z</time>
      </trkpt>
      <trkpt lat="46.61157" lon="5.69679">
        <ele>551.4</ele>
        <time>2022-09-06T04:49:33Z</time>
      </trkpt>
      <trkpt lat="46.6116" lon="5.69685">
        <ele>551.8</ele>
        <time>2022-09-06T04:49:34Z</time>
      </trkpt>
      <trkpt lat="46.61164" lon="5.69691">
        <ele>552</ele>
        <time>2022-09-06T04:49:35Z</time>
      </trkpt>
      <trkpt lat="46.61167" lon="5.69697">
        <ele>552.2</ele>
        <time>2022-09-06T04:49:36Z</time>
      </trkpt>
      <trkpt lat="46.6117" lon="5.69703">
        <ele>552.6</ele>
        <time>2022-09-06T04:49:37Z</time>
      </trkpt>
      <trkpt lat="46.61173" lon="5.69709">
        <ele>552.8</ele>
        <time>2022-09-06T04:49:38Z</time>
      </trkpt>
      <trkpt lat="46.61176" lon="5.69715">
        <ele>552.8</ele>
        <time>2022-09-06T04:49:39Z</time>
      </trkpt>
      <trkpt lat="46.61179" lon="5.69722">
        <ele>553</ele>
        <time>2022-09-06T04:49:40Z</time>
      </trkpt>
      <trkpt lat="46.61182" lon="5.69728">
        <ele>553</ele>
        <time>2022-09-06T04:49:41Z</time>
      </trkpt>
      <trkpt lat="46.61185" lon="5.69735">
        <ele>553.2</ele>
        <time>2022-09-06T04:49:42Z</time>
      </trkpt>
      <trkpt lat="46.61188" lon="5.69741">
        <ele>553.2</ele>
        <time>2022-09-06T04:49:43Z</time>
      </trkpt>
      <trkpt lat="46.6119" lon="5.69748">
        <ele>553.6</ele>
        <time>2022-09-06T04:49:44Z</time>
      </trkpt>
      <trkpt lat="46.61193" lon="5.69755">
        <ele>553.6</ele>
        <time>2022-09-06T04:49:45Z</time>
      </trkpt>
      <trkpt lat="46.61196" lon="5.69762">
        <ele>553.6</ele>
        <time>2022-09-06T04:49:46Z</time>
      </trkpt>
      <trkpt lat="46.61198" lon="5.69769">
        <ele>553.8</ele>
        <time>2022-09-06T04:49:47Z</time>
      </trkpt>
      <trkpt lat="46.61201" lon="5.69777">
        <ele>553.8</ele>
        <time>2022-09-06T04:49:48Z</time>
      </trkpt>
      <trkpt lat="46.61204" lon="5.69784">
        <ele>553.8</ele>
        <time>2022-09-06T04:49:49Z</time>
      </trkpt>
      <trkpt lat="46.61207" lon="5.69792">
        <ele>553.8</ele>
        <time>2022-09-06T04:49:50Z</time>
      </trkpt>
      <trkpt lat="46.6121" lon="5.69799">
        <ele>553.8</ele>
        <time>2022-09-06T04:49:51Z</time>
      </trkpt>
      <trkpt lat="46.61213" lon="5.69807">
        <ele>553.8</ele>
        <time>2022-09-06T04:49:52Z</time>
      </trkpt>
      <trkpt lat="46.61215" lon="5.69815">
        <ele>553.8</ele>
        <time>2022-09-06T04:49:53Z</time>
      </trkpt>
      <trkpt lat="46.61218" lon="5.69823">
        <ele>553.8</ele>
        <time>2022-09-06T04:49:54Z</time>
      </trkpt>
      <trkpt lat="46.61221" lon="5.6983">
        <ele>553.8</ele>
        <time>2022-09-06T04:49:55Z</time>
      </trkpt>
      <trkpt lat="46.61224" lon="5.69838">
        <ele>553.8</ele>
        <time>2022-09-06T04:49:56Z</time>
      </trkpt>
      <trkpt lat="46.61227" lon="5.69846">
        <ele>553.8</ele>
        <time>2022-09-06T04:49:57Z</time>
      </trkpt>
      <trkpt lat="46.6123" lon="5.69854">
        <ele>554</ele>
        <time>2022-09-06T04:49:58Z</time>
      </trkpt>
      <trkpt lat="46.61233" lon="5.69862">
        <ele>554</ele>
        <time>2022-09-06T04:49:59Z</time>
      </trkpt>
      <trkpt lat="46.61235" lon="5.6987">
        <ele>554</ele>
        <time>2022-09-06T04:50:00Z</time>
      </trkpt>
      <trkpt lat="46.61238" lon="5.69879">
        <ele>554</ele>
        <time>2022-09-06T04:50:01Z</time>
      </trkpt>
      <trkpt lat="46.61241" lon="5.69887">
        <ele>554</ele>
        <time>2022-09-06T04:50:02Z</time>
      </trkpt>
      <trkpt lat="46.61244" lon="5.69895">
        <ele>554</ele>
        <time>2022-09-06T04:50:03Z</time>
      </trkpt>
      <trkpt lat="46.61248" lon="5.69903">
        <ele>554</ele>
        <time>2022-09-06T04:50:04Z</time>
      </trkpt>
      <trkpt lat="46.61251" lon="5.69911">
        <ele>554</ele>
        <time>2022-09-06T04:50:05Z</time>
      </trkpt>
      <trkpt lat="46.61254" lon="5.69919">
        <ele>554</ele>
        <time>2022-09-06T04:50:06Z</time>
      </trkpt>
      <trkpt lat="46.61257" lon="5.69927">
        <ele>554</ele>
        <time>2022-09-06T04:50:07Z</time>
      </trkpt>
      <trkpt lat="46.61261" lon="5.69935">
        <ele>553.8</ele>
        <time>2022-09-06T04:50:08Z</time>
      </trkpt>
      <trkpt lat="46.61265" lon="5.69943">
        <ele>553.8</ele>
        <time>2022-09-06T04:50:09Z</time>
      </trkpt>
      <trkpt lat="46.61269" lon="5.6995">
        <ele>553.8</ele>
        <time>2022-09-06T04:50:10Z</time>
      </trkpt>
      <trkpt lat="46.61274" lon="5.69957">
        <ele>553.8</ele>
        <time>2022-09-06T04:50:11Z</time>
      </trkpt>
      <trkpt lat="46.61278" lon="5.69964">
        <ele>553.6</ele>
        <time>2022-09-06T04:50:12Z</time>
      </trkpt>
      <trkpt lat="46.61283" lon="5.6997">
        <ele>553.6</ele>
        <time>2022-09-06T04:50:13Z</time>
      </trkpt>
      <trkpt lat="46.61288" lon="5.69976">
        <ele>553.6</ele>
        <time>2022-09-06T04:50:14Z</time>
      </trkpt>
      <trkpt lat="46.61293" lon="5.69981">
        <ele>553.6</ele>
        <time>2022-09-06T04:50:15Z</time>
      </trkpt>
      <trkpt lat="46.61298" lon="5.69987">
        <ele>553.6</ele>
        <time>2022-09-06T04:50:16Z</time>
      </trkpt>
      <trkpt lat="46.61303" lon="5.69991">
        <ele>553.6</ele>
        <time>2022-09-06T04:50:17Z</time>
      </trkpt>
      <trkpt lat="46.61309" lon="5.69996">
        <ele>553.8</ele>
        <time>2022-09-06T04:50:18Z</time>
      </trkpt>
      <trkpt lat="46.61314" lon="5.7">
        <ele>553.8</ele>
        <time>2022-09-06T04:50:19Z</time>
      </trkpt>
      <trkpt lat="46.61319" lon="5.70005">
        <ele>553.8</ele>
        <time>2022-09-06T04:50:20Z</time>
      </trkpt>
      <trkpt lat="46.61325" lon="5.70009">
        <ele>553.8</ele>
        <time>2022-09-06T04:50:21Z</time>
      </trkpt>
      <trkpt lat="46.6133" lon="5.70013">
        <ele>553.8</ele>
        <time>2022-09-06T04:50:22Z</time>
      </trkpt>
      <trkpt lat="46.61335" lon="5.70018">
        <ele>554.2</ele>
        <time>2022-09-06T04:50:23Z</time>
      </trkpt>
      <trkpt lat="46.6134" lon="5.70022">
        <ele>554.2</ele>
        <time>2022-09-06T04:50:24Z</time>
      </trkpt>
      <trkpt lat="46.61346" lon="5.70026">
        <ele>554.2</ele>
        <time>2022-09-06T04:50:25Z</time>
      </trkpt>
      <trkpt lat="46.61351" lon="5.7003">
        <ele>554.2</ele>
        <time>2022-09-06T04:50:26Z</time>
      </trkpt>
      <trkpt lat="46.61357" lon="5.70035">
        <ele>554.2</ele>
        <time>2022-09-06T04:50:27Z</time>
      </trkpt>
      <trkpt lat="46.61362" lon="5.70039">
        <ele>554.2</ele>
        <time>2022-09-06T04:50:28Z</time>
      </trkpt>
      <trkpt lat="46.61368" lon="5.70043">
        <ele>554.2</ele>
        <time>2022-09-06T04:50:29Z</time>
      </trkpt>
      <trkpt lat="46.61373" lon="5.70047">
        <ele>554.2</ele>
        <time>2022-09-06T04:50:30Z</time>
      </trkpt>
      <trkpt lat="46.61379" lon="5.70052">
        <ele>554.2</ele>
        <time>2022-09-06T04:50:31Z</time>
      </trkpt>
      <trkpt lat="46.61384" lon="5.70056">
        <ele>554.2</ele>
        <time>2022-09-06T04:50:32Z</time>
      </trkpt>
      <trkpt lat="46.6139" lon="5.70059">
        <ele>554.2</ele>
        <time>2022-09-06T04:50:33Z</time>
      </trkpt>
      <trkpt lat="46.61396" lon="5.70063">
        <ele>554.2</ele>
        <time>2022-09-06T04:50:34Z</time>
      </trkpt>
      <trkpt lat="46.61402" lon="5.70066">
        <ele>554.2</ele>
        <time>2022-09-06T04:50:35Z</time>
      </trkpt>
      <trkpt lat="46.61408" lon="5.7007">
        <ele>554.2</ele>
        <time>2022-09-06T04:50:36Z</time>
      </trkpt>
      <trkpt lat="46.61413" lon="5.70073">
        <ele>554.2</ele>
        <time>2022-09-06T04:50:37Z</time>
      </trkpt>
      <trkpt lat="46.61419" lon="5.70077">
        <ele>554.2</ele>
        <time>2022-09-06T04:50:38Z</time>
      </trkpt>
      <trkpt lat="46.61425" lon="5.70079">
        <ele>554.2</ele>
        <time>2022-09-06T04:50:39Z</time>
      </trkpt>
      <trkpt lat="46.61431" lon="5.70082">
        <ele>554.2</ele>
        <time>2022-09-06T04:50:40Z</time>
      </trkpt>
      <trkpt lat="46.61437" lon="5.70085">
        <ele>554.2</ele>
        <time>2022-09-06T04:50:41Z</time>
      </trkpt>
      <trkpt lat="46.61443" lon="5.70088">
        <ele>554.2</ele>
        <time>2022-09-06T04:50:42Z</time>
      </trkpt>
      <trkpt lat="46.61449" lon="5.7009">
        <ele>554.2</ele>
        <time>2022-09-06T04:50:43Z</time>
      </trkpt>
      <trkpt lat="46.61455" lon="5.70093">
        <ele>554.2</ele>
        <time>2022-09-06T04:50:44Z</time>
      </trkpt>
      <trkpt lat="46.61461" lon="5.70095">
        <ele>554.2</ele>
        <time>2022-09-06T04:50:45Z</time>
      </trkpt>
      <trkpt lat="46.61467" lon="5.70097">
        <ele>554.2</ele>
        <time>2022-09-06T04:50:46Z</time>
      </trkpt>
      <trkpt lat="46.61473" lon="5.701">
        <ele>554.2</ele>
        <time>2022-09-06T04:50:47Z</time>
      </trkpt>
      <trkpt lat="46.61479" lon="5.70102">
        <ele>554.2</ele>
        <time>2022-09-06T04:50:48Z</time>
      </trkpt>
      <trkpt lat="46.61485" lon="5.70105">
        <ele>554.2</ele>
        <time>2022-09-06T04:50:49Z</time>
      </trkpt>
      <trkpt lat="46.61491" lon="5.70107">
        <ele>554.2</ele>
        <time>2022-09-06T04:50:50Z</time>
      </trkpt>
      <trkpt lat="46.61497" lon="5.7011">
        <ele>554.2</ele>
        <time>2022-09-06T04:50:51Z</time>
      </trkpt>
      <trkpt lat="46.61502" lon="5.70113">
        <ele>554.2</ele>
        <time>2022-09-06T04:50:52Z</time>
      </trkpt>
      <trkpt lat="46.61508" lon="5.70116">
        <ele>554.2</ele>
        <time>2022-09-06T04:50:53Z</time>
      </trkpt>
      <trkpt lat="46.61514" lon="5.70119">
        <ele>554.2</ele>
        <time>2022-09-06T04:50:54Z</time>
      </trkpt>
      <trkpt lat="46.6152" lon="5.70121">
        <ele>554.2</ele>
        <time>2022-09-06T04:50:55Z</time>
      </trkpt>
      <trkpt lat="46.61526" lon="5.70124">
        <ele>554.2</ele>
        <time>2022-09-06T04:50:56Z</time>
      </trkpt>
      <trkpt lat="46.61531" lon="5.70127">
        <ele>554.2</ele>
        <time>2022-09-06T04:50:57Z</time>
      </trkpt>
      <trkpt lat="46.61537" lon="5.7013">
        <ele>554.4</ele>
        <time>2022-09-06T04:50:58Z</time>
      </trkpt>
      <trkpt lat="46.61543" lon="5.70134">
        <ele>554.4</ele>
        <time>2022-09-06T04:50:59Z</time>
      </trkpt>
      <trkpt lat="46.61548" lon="5.70137">
        <ele>554.4</ele>
        <time>2022-09-06T04:51:00Z</time>
      </trkpt>
      <trkpt lat="46.61554" lon="5.70139">
        <ele>554.4</ele>
        <time>2022-09-06T04:51:01Z</time>
      </trkpt>
      <trkpt lat="46.6156" lon="5.70142">
        <ele>554.4</ele>
        <time>2022-09-06T04:51:02Z</time>
      </trkpt>
      <trkpt lat="46.61566" lon="5.70144">
        <ele>554.4</ele>
        <time>2022-09-06T04:51:03Z</time>
      </trkpt>
      <trkpt lat="46.61572" lon="5.70147">
        <ele>554.4</ele>
        <time>2022-09-06T04:51:04Z</time>
      </trkpt>
      <trkpt lat="46.61578" lon="5.70149">
        <ele>554.4</ele>
        <time>2022-09-06T04:51:05Z</time>
      </trkpt>
      <trkpt lat="46.61584" lon="5.70151">
        <ele>554.4</ele>
        <time>2022-09-06T04:51:06Z</time>
      </trkpt>
      <trkpt lat="46.6159" lon="5.70153">
        <ele>554.4</ele>
        <time>2022-09-06T04:51:07Z</time>
      </trkpt>
      <trkpt lat="46.61597" lon="5.70154">
        <ele>554.4</ele>
        <time>2022-09-06T04:51:08Z</time>
      </trkpt>
      <trkpt lat="46.61603" lon="5.70155">
        <ele>554.4</ele>
        <time>2022-09-06T04:51:09Z</time>
      </trkpt>
      <trkpt lat="46.61609" lon="5.70155">
        <ele>554.4</ele>
        <time>2022-09-06T04:51:10Z</time>
      </trkpt>
      <trkpt lat="46.61615" lon="5.70155">
        <ele>554.4</ele>
        <time>2022-09-06T04:51:11Z</time>
      </trkpt>
      <trkpt lat="46.61621" lon="5.70155">
        <ele>554.4</ele>
        <time>2022-09-06T04:51:12Z</time>
      </trkpt>
      <trkpt lat="46.61627" lon="5.70155">
        <ele>554.4</ele>
        <time>2022-09-06T04:51:13Z</time>
      </trkpt>
      <trkpt lat="46.61633" lon="5.70155">
        <ele>554.6</ele>
        <time>2022-09-06T04:51:14Z</time>
      </trkpt>
      <trkpt lat="46.61639" lon="5.70155">
        <ele>554.6</ele>
        <time>2022-09-06T04:51:15Z</time>
      </trkpt>
      <trkpt lat="46.61645" lon="5.70154">
        <ele>554.6</ele>
        <time>2022-09-06T04:51:16Z</time>
      </trkpt>
      <trkpt lat="46.61651" lon="5.70153">
        <ele>554.6</ele>
        <time>2022-09-06T04:51:17Z</time>
      </trkpt>
      <trkpt lat="46.61657" lon="5.70152">
        <ele>554.6</ele>
        <time>2022-09-06T04:51:18Z</time>
      </trkpt>
      <trkpt lat="46.61663" lon="5.7015">
        <ele>554.6</ele>
        <time>2022-09-06T04:51:19Z</time>
      </trkpt>
      <trkpt lat="46.61669" lon="5.70149">
        <ele>554.6</ele>
        <time>2022-09-06T04:51:20Z</time>
      </trkpt>
      <trkpt lat="46.61674" lon="5.70148">
        <ele>554.6</ele>
        <time>2022-09-06T04:51:21Z</time>
      </trkpt>
      <trkpt lat="46.6168" lon="5.70146">
        <ele>554.8</ele>
        <time>2022-09-06T04:51:22Z</time>
      </trkpt>
      <trkpt lat="46.61686" lon="5.70145">
        <ele>554.8</ele>
        <time>2022-09-06T04:51:23Z</time>
      </trkpt>
      <trkpt lat="46.61694" lon="5.70142">
        <ele>554.8</ele>
        <time>2022-09-06T04:51:24Z</time>
      </trkpt>
      <trkpt lat="46.61697" lon="5.70141">
        <ele>554.8</ele>
        <time>2022-09-06T04:51:25Z</time>
      </trkpt>
      <trkpt lat="46.61703" lon="5.70141">
        <ele>555.2</ele>
        <time>2022-09-06T04:51:26Z</time>
      </trkpt>
      <trkpt lat="46.61708" lon="5.7014">
        <ele>555.4</ele>
        <time>2022-09-06T04:51:27Z</time>
      </trkpt>
      <trkpt lat="46.61713" lon="5.7014">
        <ele>555.4</ele>
        <time>2022-09-06T04:51:28Z</time>
      </trkpt>
      <trkpt lat="46.61719" lon="5.70139">
        <ele>555.6</ele>
        <time>2022-09-06T04:51:29Z</time>
      </trkpt>
      <trkpt lat="46.61724" lon="5.70139">
        <ele>555.6</ele>
        <time>2022-09-06T04:51:30Z</time>
      </trkpt>
      <trkpt lat="46.61729" lon="5.70139">
        <ele>556</ele>
        <time>2022-09-06T04:51:31Z</time>
      </trkpt>
      <trkpt lat="46.61734" lon="5.70139">
        <ele>556</ele>
        <time>2022-09-06T04:51:32Z</time>
      </trkpt>
      <trkpt lat="46.61739" lon="5.7014">
        <ele>556.2</ele>
        <time>2022-09-06T04:51:33Z</time>
      </trkpt>
      <trkpt lat="46.61744" lon="5.70141">
        <ele>556.2</ele>
        <time>2022-09-06T04:51:34Z</time>
      </trkpt>
      <trkpt lat="46.61749" lon="5.70142">
        <ele>556.6</ele>
        <time>2022-09-06T04:51:35Z</time>
      </trkpt>
      <trkpt lat="46.61754" lon="5.70144">
        <ele>556.6</ele>
        <time>2022-09-06T04:51:36Z</time>
      </trkpt>
      <trkpt lat="46.61759" lon="5.70145">
        <ele>556.6</ele>
        <time>2022-09-06T04:51:37Z</time>
      </trkpt>
      <trkpt lat="46.61764" lon="5.70146">
        <ele>556.8</ele>
        <time>2022-09-06T04:51:38Z</time>
      </trkpt>
      <trkpt lat="46.6177" lon="5.70148">
        <ele>556.8</ele>
        <time>2022-09-06T04:51:39Z</time>
      </trkpt>
      <trkpt lat="46.61775" lon="5.7015">
        <ele>556.8</ele>
        <time>2022-09-06T04:51:40Z</time>
      </trkpt>
      <trkpt lat="46.61781" lon="5.70151">
        <ele>556.8</ele>
        <time>2022-09-06T04:51:41Z</time>
      </trkpt>
      <trkpt lat="46.61787" lon="5.70153">
        <ele>556.8</ele>
        <time>2022-09-06T04:51:42Z</time>
      </trkpt>
      <trkpt lat="46.61793" lon="5.70155">
        <ele>556.8</ele>
        <time>2022-09-06T04:51:43Z</time>
      </trkpt>
      <trkpt lat="46.61798" lon="5.70156">
        <ele>556.8</ele>
        <time>2022-09-06T04:51:44Z</time>
      </trkpt>
      <trkpt lat="46.61804" lon="5.70158">
        <ele>557</ele>
        <time>2022-09-06T04:51:45Z</time>
      </trkpt>
      <trkpt lat="46.6181" lon="5.70159">
        <ele>557</ele>
        <time>2022-09-06T04:51:46Z</time>
      </trkpt>
      <trkpt lat="46.61819" lon="5.70162">
        <ele>557</ele>
        <time>2022-09-06T04:51:47Z</time>
      </trkpt>
      <trkpt lat="46.61822" lon="5.70163">
        <ele>557</ele>
        <time>2022-09-06T04:51:48Z</time>
      </trkpt>
      <trkpt lat="46.61827" lon="5.70165">
        <ele>557</ele>
        <time>2022-09-06T04:51:49Z</time>
      </trkpt>
      <trkpt lat="46.61833" lon="5.70167">
        <ele>557</ele>
        <time>2022-09-06T04:51:50Z</time>
      </trkpt>
      <trkpt lat="46.61839" lon="5.70168">
        <ele>557</ele>
        <time>2022-09-06T04:51:51Z</time>
      </trkpt>
      <trkpt lat="46.61845" lon="5.7017">
        <ele>557</ele>
        <time>2022-09-06T04:51:52Z</time>
      </trkpt>
      <trkpt lat="46.6185" lon="5.70172">
        <ele>557</ele>
        <time>2022-09-06T04:51:53Z</time>
      </trkpt>
      <trkpt lat="46.61856" lon="5.70174">
        <ele>557</ele>
        <time>2022-09-06T04:51:54Z</time>
      </trkpt>
      <trkpt lat="46.61862" lon="5.70177">
        <ele>557.2</ele>
        <time>2022-09-06T04:51:55Z</time>
      </trkpt>
      <trkpt lat="46.61868" lon="5.70179">
        <ele>557.2</ele>
        <time>2022-09-06T04:51:56Z</time>
      </trkpt>
      <trkpt lat="46.61874" lon="5.70181">
        <ele>557.2</ele>
        <time>2022-09-06T04:51:57Z</time>
      </trkpt>
      <trkpt lat="46.61879" lon="5.70183">
        <ele>557.2</ele>
        <time>2022-09-06T04:51:58Z</time>
      </trkpt>
      <trkpt lat="46.61885" lon="5.70186">
        <ele>557.2</ele>
        <time>2022-09-06T04:51:59Z</time>
      </trkpt>
      <trkpt lat="46.61891" lon="5.70189">
        <ele>557.2</ele>
        <time>2022-09-06T04:52:00Z</time>
      </trkpt>
      <trkpt lat="46.61897" lon="5.70191">
        <ele>557.2</ele>
        <time>2022-09-06T04:52:01Z</time>
      </trkpt>
      <trkpt lat="46.61903" lon="5.70194">
        <ele>557.2</ele>
        <time>2022-09-06T04:52:02Z</time>
      </trkpt>
      <trkpt lat="46.61908" lon="5.70196">
        <ele>557.2</ele>
        <time>2022-09-06T04:52:03Z</time>
      </trkpt>
      <trkpt lat="46.61914" lon="5.70198">
        <ele>557.2</ele>
        <time>2022-09-06T04:52:04Z</time>
      </trkpt>
      <trkpt lat="46.6192" lon="5.70201">
        <ele>557.2</ele>
        <time>2022-09-06T04:52:05Z</time>
      </trkpt>
      <trkpt lat="46.61926" lon="5.70203">
        <ele>557.2</ele>
        <time>2022-09-06T04:52:06Z</time>
      </trkpt>
      <trkpt lat="46.61932" lon="5.70205">
        <ele>557.2</ele>
        <time>2022-09-06T04:52:07Z</time>
      </trkpt>
      <trkpt lat="46.61937" lon="5.70208">
        <ele>557.6</ele>
        <time>2022-09-06T04:52:08Z</time>
      </trkpt>
      <trkpt lat="46.61943" lon="5.7021">
        <ele>557.6</ele>
        <time>2022-09-06T04:52:09Z</time>
      </trkpt>
      <trkpt lat="46.61948" lon="5.70212">
        <ele>557.6</ele>
        <time>2022-09-06T04:52:10Z</time>
      </trkpt>
      <trkpt lat="46.61953" lon="5.70214">
        <ele>557.6</ele>
        <time>2022-09-06T04:52:11Z</time>
      </trkpt>
      <trkpt lat="46.61959" lon="5.70215">
        <ele>557.6</ele>
        <time>2022-09-06T04:52:12Z</time>
      </trkpt>
      <trkpt lat="46.61964" lon="5.70217">
        <ele>557.6</ele>
        <time>2022-09-06T04:52:13Z</time>
      </trkpt>
      <trkpt lat="46.61969" lon="5.7022">
        <ele>557.8</ele>
        <time>2022-09-06T04:52:14Z</time>
      </trkpt>
      <trkpt lat="46.61975" lon="5.70222">
        <ele>557.8</ele>
        <time>2022-09-06T04:52:15Z</time>
      </trkpt>
      <trkpt lat="46.6198" lon="5.70224">
        <ele>557.8</ele>
        <time>2022-09-06T04:52:16Z</time>
      </trkpt>
      <trkpt lat="46.61986" lon="5.70226">
        <ele>557.8</ele>
        <time>2022-09-06T04:52:17Z</time>
      </trkpt>
      <trkpt lat="46.61991" lon="5.70228">
        <ele>558</ele>
        <time>2022-09-06T04:52:18Z</time>
      </trkpt>
      <trkpt lat="46.61997" lon="5.7023">
        <ele>558</ele>
        <time>2022-09-06T04:52:19Z</time>
      </trkpt>
      <trkpt lat="46.62003" lon="5.70233">
        <ele>558</ele>
        <time>2022-09-06T04:52:20Z</time>
      </trkpt>
      <trkpt lat="46.62008" lon="5.70235">
        <ele>558</ele>
        <time>2022-09-06T04:52:21Z</time>
      </trkpt>
      <trkpt lat="46.62014" lon="5.70237">
        <ele>558</ele>
        <time>2022-09-06T04:52:22Z</time>
      </trkpt>
      <trkpt lat="46.6202" lon="5.70239">
        <ele>558</ele>
        <time>2022-09-06T04:52:23Z</time>
      </trkpt>
      <trkpt lat="46.62025" lon="5.70241">
        <ele>558</ele>
        <time>2022-09-06T04:52:24Z</time>
      </trkpt>
      <trkpt lat="46.62031" lon="5.70243">
        <ele>558</ele>
        <time>2022-09-06T04:52:25Z</time>
      </trkpt>
      <trkpt lat="46.62037" lon="5.70245">
        <ele>558</ele>
        <time>2022-09-06T04:52:26Z</time>
      </trkpt>
      <trkpt lat="46.62043" lon="5.70246">
        <ele>558</ele>
        <time>2022-09-06T04:52:27Z</time>
      </trkpt>
      <trkpt lat="46.62049" lon="5.70248">
        <ele>558</ele>
        <time>2022-09-06T04:52:28Z</time>
      </trkpt>
      <trkpt lat="46.62054" lon="5.7025">
        <ele>558</ele>
        <time>2022-09-06T04:52:29Z</time>
      </trkpt>
      <trkpt lat="46.6206" lon="5.70252">
        <ele>558</ele>
        <time>2022-09-06T04:52:30Z</time>
      </trkpt>
      <trkpt lat="46.62066" lon="5.70255">
        <ele>558</ele>
        <time>2022-09-06T04:52:31Z</time>
      </trkpt>
      <trkpt lat="46.62073" lon="5.70257">
        <ele>558</ele>
        <time>2022-09-06T04:52:32Z</time>
      </trkpt>
      <trkpt lat="46.62079" lon="5.7026">
        <ele>558</ele>
        <time>2022-09-06T04:52:33Z</time>
      </trkpt>
      <trkpt lat="46.62085" lon="5.70262">
        <ele>558</ele>
        <time>2022-09-06T04:52:34Z</time>
      </trkpt>
      <trkpt lat="46.62091" lon="5.70265">
        <ele>557.8</ele>
        <time>2022-09-06T04:52:35Z</time>
      </trkpt>
      <trkpt lat="46.62101" lon="5.70269">
        <ele>557.8</ele>
        <time>2022-09-06T04:52:36Z</time>
      </trkpt>
      <trkpt lat="46.62104" lon="5.70271">
        <ele>557.8</ele>
        <time>2022-09-06T04:52:37Z</time>
      </trkpt>
      <trkpt lat="46.62111" lon="5.70273">
        <ele>557.8</ele>
        <time>2022-09-06T04:52:38Z</time>
      </trkpt>
      <trkpt lat="46.62117" lon="5.70276">
        <ele>557.8</ele>
        <time>2022-09-06T04:52:39Z</time>
      </trkpt>
      <trkpt lat="46.62124" lon="5.7028">
        <ele>557.6</ele>
        <time>2022-09-06T04:52:40Z</time>
      </trkpt>
      <trkpt lat="46.6213" lon="5.70283">
        <ele>557.6</ele>
        <time>2022-09-06T04:52:41Z</time>
      </trkpt>
      <trkpt lat="46.62137" lon="5.70285">
        <ele>557.2</ele>
        <time>2022-09-06T04:52:42Z</time>
      </trkpt>
      <trkpt lat="46.62143" lon="5.70289">
        <ele>557.2</ele>
        <time>2022-09-06T04:52:43Z</time>
      </trkpt>
      <trkpt lat="46.62149" lon="5.70293">
        <ele>556.8</ele>
        <time>2022-09-06T04:52:44Z</time>
      </trkpt>
      <trkpt lat="46.62156" lon="5.70296">
        <ele>556.8</ele>
        <time>2022-09-06T04:52:46Z</time>
      </trkpt>
      <trkpt lat="46.62167" lon="5.70304">
        <ele>556.6</ele>
        <time>2022-09-06T04:52:47Z</time>
      </trkpt>
      <trkpt lat="46.62172" lon="5.7031">
        <ele>556.6</ele>
        <time>2022-09-06T04:52:48Z</time>
      </trkpt>
      <trkpt lat="46.62176" lon="5.70316">
        <ele>556.6</ele>
        <time>2022-09-06T04:52:49Z</time>
      </trkpt>
      <trkpt lat="46.6218" lon="5.70323">
        <ele>556.6</ele>
        <time>2022-09-06T04:52:50Z</time>
      </trkpt>
      <trkpt lat="46.62184" lon="5.70331">
        <ele>556.6</ele>
        <time>2022-09-06T04:52:51Z</time>
      </trkpt>
      <trkpt lat="46.62187" lon="5.70338">
        <ele>556.6</ele>
        <time>2022-09-06T04:52:52Z</time>
      </trkpt>
      <trkpt lat="46.62189" lon="5.70346">
        <ele>556.6</ele>
        <time>2022-09-06T04:52:53Z</time>
      </trkpt>
      <trkpt lat="46.62191" lon="5.70353">
        <ele>556.6</ele>
        <time>2022-09-06T04:52:54Z</time>
      </trkpt>
      <trkpt lat="46.62192" lon="5.7036">
        <ele>556.6</ele>
        <time>2022-09-06T04:52:55Z</time>
      </trkpt>
      <trkpt lat="46.62192" lon="5.70367">
        <ele>557</ele>
        <time>2022-09-06T04:52:56Z</time>
      </trkpt>
      <trkpt lat="46.62193" lon="5.70374">
        <ele>557</ele>
        <time>2022-09-06T04:52:57Z</time>
      </trkpt>
      <trkpt lat="46.62194" lon="5.70381">
        <ele>557.2</ele>
        <time>2022-09-06T04:52:58Z</time>
      </trkpt>
      <trkpt lat="46.62195" lon="5.70388">
        <ele>557.2</ele>
        <time>2022-09-06T04:52:59Z</time>
      </trkpt>
      <trkpt lat="46.62197" lon="5.70394">
        <ele>557.2</ele>
        <time>2022-09-06T04:53:00Z</time>
      </trkpt>
      <trkpt lat="46.62199" lon="5.70401">
        <ele>557.4</ele>
        <time>2022-09-06T04:53:01Z</time>
      </trkpt>
      <trkpt lat="46.62202" lon="5.70407">
        <ele>557.4</ele>
        <time>2022-09-06T04:53:02Z</time>
      </trkpt>
      <trkpt lat="46.62206" lon="5.70412">
        <ele>557.6</ele>
        <time>2022-09-06T04:53:03Z</time>
      </trkpt>
      <trkpt lat="46.6221" lon="5.70416">
        <ele>557.6</ele>
        <time>2022-09-06T04:53:04Z</time>
      </trkpt>
      <trkpt lat="46.62215" lon="5.70419">
        <ele>558</ele>
        <time>2022-09-06T04:53:05Z</time>
      </trkpt>
      <trkpt lat="46.6222" lon="5.70421">
        <ele>558</ele>
        <time>2022-09-06T04:53:06Z</time>
      </trkpt>
      <trkpt lat="46.62225" lon="5.70423">
        <ele>558</ele>
        <time>2022-09-06T04:53:07Z</time>
      </trkpt>
      <trkpt lat="46.6223" lon="5.70425">
        <ele>558</ele>
        <time>2022-09-06T04:53:08Z</time>
      </trkpt>
      <trkpt lat="46.62235" lon="5.70427">
        <ele>558</ele>
        <time>2022-09-06T04:53:09Z</time>
      </trkpt>
      <trkpt lat="46.6224" lon="5.70429">
        <ele>558</ele>
        <time>2022-09-06T04:53:10Z</time>
      </trkpt>
      <trkpt lat="46.62246" lon="5.7043">
        <ele>558</ele>
        <time>2022-09-06T04:53:11Z</time>
      </trkpt>
      <trkpt lat="46.62251" lon="5.70431">
        <ele>558</ele>
        <time>2022-09-06T04:53:12Z</time>
      </trkpt>
      <trkpt lat="46.62257" lon="5.70432">
        <ele>558</ele>
        <time>2022-09-06T04:53:13Z</time>
      </trkpt>
      <trkpt lat="46.62263" lon="5.70432">
        <ele>558</ele>
        <time>2022-09-06T04:53:14Z</time>
      </trkpt>
      <trkpt lat="46.62269" lon="5.70433">
        <ele>558</ele>
        <time>2022-09-06T04:53:15Z</time>
      </trkpt>
      <trkpt lat="46.62276" lon="5.70433">
        <ele>558</ele>
        <time>2022-09-06T04:53:16Z</time>
      </trkpt>
      <trkpt lat="46.62282" lon="5.70433">
        <ele>558</ele>
        <time>2022-09-06T04:53:17Z</time>
      </trkpt>
      <trkpt lat="46.62287" lon="5.70432">
        <ele>558</ele>
        <time>2022-09-06T04:53:18Z</time>
      </trkpt>
      <trkpt lat="46.62293" lon="5.70431">
        <ele>558</ele>
        <time>2022-09-06T04:53:19Z</time>
      </trkpt>
      <trkpt lat="46.62297" lon="5.7043">
        <ele>558</ele>
        <time>2022-09-06T04:53:20Z</time>
      </trkpt>
      <trkpt lat="46.62302" lon="5.70429">
        <ele>558</ele>
        <time>2022-09-06T04:53:21Z</time>
      </trkpt>
      <trkpt lat="46.62307" lon="5.70429">
        <ele>558</ele>
        <time>2022-09-06T04:53:22Z</time>
      </trkpt>
      <trkpt lat="46.62312" lon="5.70429">
        <ele>557.6</ele>
        <time>2022-09-06T04:53:23Z</time>
      </trkpt>
      <trkpt lat="46.62318" lon="5.70431">
        <ele>557.6</ele>
        <time>2022-09-06T04:53:24Z</time>
      </trkpt>
      <trkpt lat="46.62323" lon="5.70433">
        <ele>557.6</ele>
        <time>2022-09-06T04:53:25Z</time>
      </trkpt>
      <trkpt lat="46.62329" lon="5.70435">
        <ele>557.6</ele>
        <time>2022-09-06T04:53:26Z</time>
      </trkpt>
      <trkpt lat="46.62334" lon="5.70437">
        <ele>557.6</ele>
        <time>2022-09-06T04:53:27Z</time>
      </trkpt>
      <trkpt lat="46.6234" lon="5.70438">
        <ele>557.6</ele>
        <time>2022-09-06T04:53:28Z</time>
      </trkpt>
      <trkpt lat="46.62346" lon="5.70439">
        <ele>557.6</ele>
        <time>2022-09-06T04:53:29Z</time>
      </trkpt>
      <trkpt lat="46.62352" lon="5.7044">
        <ele>557.6</ele>
        <time>2022-09-06T04:53:30Z</time>
      </trkpt>
      <trkpt lat="46.62358" lon="5.70441">
        <ele>557.4</ele>
        <time>2022-09-06T04:53:31Z</time>
      </trkpt>
      <trkpt lat="46.62364" lon="5.70441">
        <ele>557.4</ele>
        <time>2022-09-06T04:53:32Z</time>
      </trkpt>
      <trkpt lat="46.6237" lon="5.70441">
        <ele>557.2</ele>
        <time>2022-09-06T04:53:33Z</time>
      </trkpt>
      <trkpt lat="46.62376" lon="5.70441">
        <ele>557.2</ele>
        <time>2022-09-06T04:53:34Z</time>
      </trkpt>
      <trkpt lat="46.62383" lon="5.70441">
        <ele>557</ele>
        <time>2022-09-06T04:53:35Z</time>
      </trkpt>
      <trkpt lat="46.62389" lon="5.70442">
        <ele>557</ele>
        <time>2022-09-06T04:53:36Z</time>
      </trkpt>
      <trkpt lat="46.62396" lon="5.70444">
        <ele>556.6</ele>
        <time>2022-09-06T04:53:37Z</time>
      </trkpt>
      <trkpt lat="46.62402" lon="5.70447">
        <ele>556.6</ele>
        <time>2022-09-06T04:53:38Z</time>
      </trkpt>
      <trkpt lat="46.62408" lon="5.70451">
        <ele>556.6</ele>
        <time>2022-09-06T04:53:39Z</time>
      </trkpt>
      <trkpt lat="46.62413" lon="5.70456">
        <ele>556.4</ele>
        <time>2022-09-06T04:53:40Z</time>
      </trkpt>
      <trkpt lat="46.62419" lon="5.70462">
        <ele>556.4</ele>
        <time>2022-09-06T04:53:41Z</time>
      </trkpt>
      <trkpt lat="46.62424" lon="5.70469">
        <ele>556.4</ele>
        <time>2022-09-06T04:53:42Z</time>
      </trkpt>
      <trkpt lat="46.62428" lon="5.70475">
        <ele>556.4</ele>
        <time>2022-09-06T04:53:43Z</time>
      </trkpt>
      <trkpt lat="46.62432" lon="5.70482">
        <ele>556.6</ele>
        <time>2022-09-06T04:53:44Z</time>
      </trkpt>
      <trkpt lat="46.62436" lon="5.70487">
        <ele>556.6</ele>
        <time>2022-09-06T04:53:45Z</time>
      </trkpt>
      <trkpt lat="46.62441" lon="5.70492">
        <ele>557</ele>
        <time>2022-09-06T04:53:46Z</time>
      </trkpt>
      <trkpt lat="46.62445" lon="5.70496">
        <ele>557</ele>
        <time>2022-09-06T04:53:47Z</time>
      </trkpt>
      <trkpt lat="46.6245" lon="5.705">
        <ele>557.4</ele>
        <time>2022-09-06T04:53:48Z</time>
      </trkpt>
      <trkpt lat="46.62454" lon="5.70504">
        <ele>557.6</ele>
        <time>2022-09-06T04:53:49Z</time>
      </trkpt>
      <trkpt lat="46.62459" lon="5.70508">
        <ele>558</ele>
        <time>2022-09-06T04:53:50Z</time>
      </trkpt>
      <trkpt lat="46.62463" lon="5.70513">
        <ele>558</ele>
        <time>2022-09-06T04:53:51Z</time>
      </trkpt>
      <trkpt lat="46.62467" lon="5.70517">
        <ele>558.2</ele>
        <time>2022-09-06T04:53:52Z</time>
      </trkpt>
      <trkpt lat="46.62471" lon="5.70521">
        <ele>558.2</ele>
        <time>2022-09-06T04:53:53Z</time>
      </trkpt>
      <trkpt lat="46.62475" lon="5.70525">
        <ele>558.4</ele>
        <time>2022-09-06T04:53:54Z</time>
      </trkpt>
      <trkpt lat="46.62478" lon="5.7053">
        <ele>558.4</ele>
        <time>2022-09-06T04:53:55Z</time>
      </trkpt>
      <trkpt lat="46.62482" lon="5.70534">
        <ele>558.8</ele>
        <time>2022-09-06T04:53:56Z</time>
      </trkpt>
      <trkpt lat="46.62485" lon="5.70538">
        <ele>558.8</ele>
        <time>2022-09-06T04:53:57Z</time>
      </trkpt>
      <trkpt lat="46.62489" lon="5.70542">
        <ele>559</ele>
        <time>2022-09-06T04:53:58Z</time>
      </trkpt>
      <trkpt lat="46.62493" lon="5.70546">
        <ele>559</ele>
        <time>2022-09-06T04:53:59Z</time>
      </trkpt>
      <trkpt lat="46.62498" lon="5.70551">
        <ele>559</ele>
        <time>2022-09-06T04:54:00Z</time>
      </trkpt>
      <trkpt lat="46.62503" lon="5.70555">
        <ele>558.8</ele>
        <time>2022-09-06T04:54:01Z</time>
      </trkpt>
      <trkpt lat="46.62509" lon="5.7056">
        <ele>558.6</ele>
        <time>2022-09-06T04:54:02Z</time>
      </trkpt>
      <trkpt lat="46.62515" lon="5.70565">
        <ele>558.4</ele>
        <time>2022-09-06T04:54:03Z</time>
      </trkpt>
      <trkpt lat="46.62521" lon="5.70571">
        <ele>558</ele>
        <time>2022-09-06T04:54:04Z</time>
      </trkpt>
      <trkpt lat="46.62528" lon="5.70576">
        <ele>557.6</ele>
        <time>2022-09-06T04:54:05Z</time>
      </trkpt>
      <trkpt lat="46.62536" lon="5.70582">
        <ele>557.2</ele>
        <time>2022-09-06T04:54:06Z</time>
      </trkpt>
      <trkpt lat="46.62544" lon="5.70588">
        <ele>556.8</ele>
        <time>2022-09-06T04:54:07Z</time>
      </trkpt>
      <trkpt lat="46.62552" lon="5.70593">
        <ele>556.6</ele>
        <time>2022-09-06T04:54:08Z</time>
      </trkpt>
      <trkpt lat="46.6256" lon="5.70598">
        <ele>556.2</ele>
        <time>2022-09-06T04:54:09Z</time>
      </trkpt>
      <trkpt lat="46.62568" lon="5.70604">
        <ele>556.2</ele>
        <time>2022-09-06T04:54:10Z</time>
      </trkpt>
      <trkpt lat="46.62576" lon="5.70609">
        <ele>556.2</ele>
        <time>2022-09-06T04:54:11Z</time>
      </trkpt>
      <trkpt lat="46.62583" lon="5.70614">
        <ele>556.2</ele>
        <time>2022-09-06T04:54:12Z</time>
      </trkpt>
      <trkpt lat="46.6259" lon="5.70619">
        <ele>556.2</ele>
        <time>2022-09-06T04:54:13Z</time>
      </trkpt>
      <trkpt lat="46.62597" lon="5.70624">
        <ele>556.4</ele>
        <time>2022-09-06T04:54:14Z</time>
      </trkpt>
      <trkpt lat="46.62603" lon="5.70628">
        <ele>556.8</ele>
        <time>2022-09-06T04:54:15Z</time>
      </trkpt>
      <trkpt lat="46.62609" lon="5.70632">
        <ele>557</ele>
        <time>2022-09-06T04:54:16Z</time>
      </trkpt>
      <trkpt lat="46.62614" lon="5.70637">
        <ele>557.2</ele>
        <time>2022-09-06T04:54:17Z</time>
      </trkpt>
      <trkpt lat="46.62619" lon="5.70641">
        <ele>557.6</ele>
        <time>2022-09-06T04:54:18Z</time>
      </trkpt>
      <trkpt lat="46.62624" lon="5.70645">
        <ele>557.8</ele>
        <time>2022-09-06T04:54:19Z</time>
      </trkpt>
      <trkpt lat="46.62629" lon="5.70649">
        <ele>558.2</ele>
        <time>2022-09-06T04:54:20Z</time>
      </trkpt>
      <trkpt lat="46.62633" lon="5.70653">
        <ele>558.2</ele>
        <time>2022-09-06T04:54:21Z</time>
      </trkpt>
      <trkpt lat="46.62638" lon="5.70657">
        <ele>558.6</ele>
        <time>2022-09-06T04:54:22Z</time>
      </trkpt>
      <trkpt lat="46.62642" lon="5.70661">
        <ele>558.6</ele>
        <time>2022-09-06T04:54:23Z</time>
      </trkpt>
      <trkpt lat="46.62647" lon="5.70664">
        <ele>558.8</ele>
        <time>2022-09-06T04:54:24Z</time>
      </trkpt>
      <trkpt lat="46.62652" lon="5.70667">
        <ele>558.8</ele>
        <time>2022-09-06T04:54:25Z</time>
      </trkpt>
      <trkpt lat="46.62657" lon="5.7067">
        <ele>558.8</ele>
        <time>2022-09-06T04:54:26Z</time>
      </trkpt>
      <trkpt lat="46.62662" lon="5.70673">
        <ele>558.8</ele>
        <time>2022-09-06T04:54:27Z</time>
      </trkpt>
      <trkpt lat="46.62668" lon="5.70677">
        <ele>558.8</ele>
        <time>2022-09-06T04:54:28Z</time>
      </trkpt>
      <trkpt lat="46.62675" lon="5.7068">
        <ele>558.6</ele>
        <time>2022-09-06T04:54:29Z</time>
      </trkpt>
      <trkpt lat="46.62682" lon="5.70683">
        <ele>558.6</ele>
        <time>2022-09-06T04:54:30Z</time>
      </trkpt>
      <trkpt lat="46.62689" lon="5.70687">
        <ele>558</ele>
        <time>2022-09-06T04:54:31Z</time>
      </trkpt>
      <trkpt lat="46.62697" lon="5.70691">
        <ele>557.6</ele>
        <time>2022-09-06T04:54:32Z</time>
      </trkpt>
      <trkpt lat="46.62704" lon="5.70695">
        <ele>557.2</ele>
        <time>2022-09-06T04:54:33Z</time>
      </trkpt>
      <trkpt lat="46.62713" lon="5.70699">
        <ele>556.6</ele>
        <time>2022-09-06T04:54:34Z</time>
      </trkpt>
      <trkpt lat="46.62721" lon="5.70703">
        <ele>556.2</ele>
        <time>2022-09-06T04:54:35Z</time>
      </trkpt>
      <trkpt lat="46.6273" lon="5.70707">
        <ele>555.6</ele>
        <time>2022-09-06T04:54:36Z</time>
      </trkpt>
      <trkpt lat="46.62739" lon="5.70711">
        <ele>555</ele>
        <time>2022-09-06T04:54:37Z</time>
      </trkpt>
      <trkpt lat="46.62749" lon="5.70715">
        <ele>554.6</ele>
        <time>2022-09-06T04:54:38Z</time>
      </trkpt>
      <trkpt lat="46.62758" lon="5.70718">
        <ele>554.2</ele>
        <time>2022-09-06T04:54:39Z</time>
      </trkpt>
      <trkpt lat="46.62768" lon="5.7072">
        <ele>553.8</ele>
        <time>2022-09-06T04:54:40Z</time>
      </trkpt>
      <trkpt lat="46.62778" lon="5.70723">
        <ele>553.6</ele>
        <time>2022-09-06T04:54:41Z</time>
      </trkpt>
      <trkpt lat="46.62788" lon="5.70727">
        <ele>553.2</ele>
        <time>2022-09-06T04:54:42Z</time>
      </trkpt>
      <trkpt lat="46.62798" lon="5.70731">
        <ele>553</ele>
        <time>2022-09-06T04:54:43Z</time>
      </trkpt>
      <trkpt lat="46.62808" lon="5.70736">
        <ele>553</ele>
        <time>2022-09-06T04:54:44Z</time>
      </trkpt>
      <trkpt lat="46.62818" lon="5.70738">
        <ele>552.8</ele>
        <time>2022-09-06T04:54:45Z</time>
      </trkpt>
      <trkpt lat="46.62827" lon="5.7074">
        <ele>552.8</ele>
        <time>2022-09-06T04:54:46Z</time>
      </trkpt>
      <trkpt lat="46.62835" lon="5.70744">
        <ele>552.8</ele>
        <time>2022-09-06T04:54:47Z</time>
      </trkpt>
      <trkpt lat="46.62843" lon="5.70748">
        <ele>552.8</ele>
        <time>2022-09-06T04:54:48Z</time>
      </trkpt>
      <trkpt lat="46.62852" lon="5.70751">
        <ele>552.8</ele>
        <time>2022-09-06T04:54:49Z</time>
      </trkpt>
      <trkpt lat="46.62859" lon="5.70754">
        <ele>552.8</ele>
        <time>2022-09-06T04:54:50Z</time>
      </trkpt>
      <trkpt lat="46.62867" lon="5.70758">
        <ele>552.8</ele>
        <time>2022-09-06T04:54:51Z</time>
      </trkpt>
      <trkpt lat="46.62875" lon="5.70761">
        <ele>552.8</ele>
        <time>2022-09-06T04:54:52Z</time>
      </trkpt>
      <trkpt lat="46.62882" lon="5.70764">
        <ele>553</ele>
        <time>2022-09-06T04:54:53Z</time>
      </trkpt>
      <trkpt lat="46.62889" lon="5.70767">
        <ele>553</ele>
        <time>2022-09-06T04:54:54Z</time>
      </trkpt>
      <trkpt lat="46.62895" lon="5.7077">
        <ele>553.6</ele>
        <time>2022-09-06T04:54:55Z</time>
      </trkpt>
      <trkpt lat="46.62901" lon="5.70773">
        <ele>553.8</ele>
        <time>2022-09-06T04:54:56Z</time>
      </trkpt>
      <trkpt lat="46.62907" lon="5.70776">
        <ele>554</ele>
        <time>2022-09-06T04:54:57Z</time>
      </trkpt>
      <trkpt lat="46.62913" lon="5.70778">
        <ele>554.4</ele>
        <time>2022-09-06T04:54:58Z</time>
      </trkpt>
      <trkpt lat="46.62919" lon="5.70781">
        <ele>554.6</ele>
        <time>2022-09-06T04:54:59Z</time>
      </trkpt>
      <trkpt lat="46.62925" lon="5.70784">
        <ele>554.8</ele>
        <time>2022-09-06T04:55:00Z</time>
      </trkpt>
      <trkpt lat="46.6293" lon="5.70786">
        <ele>555.2</ele>
        <time>2022-09-06T04:55:01Z</time>
      </trkpt>
      <trkpt lat="46.62935" lon="5.70789">
        <ele>555.4</ele>
        <time>2022-09-06T04:55:02Z</time>
      </trkpt>
      <trkpt lat="46.6294" lon="5.70791">
        <ele>555.6</ele>
        <time>2022-09-06T04:55:03Z</time>
      </trkpt>
      <trkpt lat="46.62945" lon="5.70793">
        <ele>555.8</ele>
        <time>2022-09-06T04:55:04Z</time>
      </trkpt>
      <trkpt lat="46.62949" lon="5.70795">
        <ele>556.2</ele>
        <time>2022-09-06T04:55:05Z</time>
      </trkpt>
      <trkpt lat="46.62954" lon="5.70797">
        <ele>556.4</ele>
        <time>2022-09-06T04:55:06Z</time>
      </trkpt>
      <trkpt lat="46.62958" lon="5.70799">
        <ele>556.6</ele>
        <time>2022-09-06T04:55:07Z</time>
      </trkpt>
      <trkpt lat="46.62962" lon="5.70801">
        <ele>556.8</ele>
        <time>2022-09-06T04:55:08Z</time>
      </trkpt>
      <trkpt lat="46.62966" lon="5.70803">
        <ele>557.2</ele>
        <time>2022-09-06T04:55:09Z</time>
      </trkpt>
      <trkpt lat="46.6297" lon="5.70805">
        <ele>557.4</ele>
        <time>2022-09-06T04:55:10Z</time>
      </trkpt>
      <trkpt lat="46.62974" lon="5.70807">
        <ele>557.6</ele>
        <time>2022-09-06T04:55:11Z</time>
      </trkpt>
      <trkpt lat="46.62978" lon="5.70809">
        <ele>557.8</ele>
        <time>2022-09-06T04:55:12Z</time>
      </trkpt>
      <trkpt lat="46.62982" lon="5.70811">
        <ele>557.8</ele>
        <time>2022-09-06T04:55:13Z</time>
      </trkpt>
      <trkpt lat="46.62986" lon="5.70813">
        <ele>558.2</ele>
        <time>2022-09-06T04:55:14Z</time>
      </trkpt>
      <trkpt lat="46.6299" lon="5.70814">
        <ele>558.2</ele>
        <time>2022-09-06T04:55:15Z</time>
      </trkpt>
      <trkpt lat="46.62995" lon="5.70816">
        <ele>558.6</ele>
        <time>2022-09-06T04:55:16Z</time>
      </trkpt>
      <trkpt lat="46.62999" lon="5.70817">
        <ele>558.6</ele>
        <time>2022-09-06T04:55:17Z</time>
      </trkpt>
      <trkpt lat="46.63003" lon="5.70819">
        <ele>559</ele>
        <time>2022-09-06T04:55:18Z</time>
      </trkpt>
      <trkpt lat="46.63007" lon="5.70821">
        <ele>559.2</ele>
        <time>2022-09-06T04:55:19Z</time>
      </trkpt>
      <trkpt lat="46.63011" lon="5.70822">
        <ele>559.2</ele>
        <time>2022-09-06T04:55:20Z</time>
      </trkpt>
      <trkpt lat="46.63015" lon="5.70824">
        <ele>559.6</ele>
        <time>2022-09-06T04:55:21Z</time>
      </trkpt>
      <trkpt lat="46.63019" lon="5.70826">
        <ele>559.6</ele>
        <time>2022-09-06T04:55:22Z</time>
      </trkpt>
      <trkpt lat="46.63023" lon="5.70827">
        <ele>559.8</ele>
        <time>2022-09-06T04:55:23Z</time>
      </trkpt>
      <trkpt lat="46.63027" lon="5.70829">
        <ele>559.8</ele>
        <time>2022-09-06T04:55:24Z</time>
      </trkpt>
      <trkpt lat="46.63031" lon="5.7083">
        <ele>560.2</ele>
        <time>2022-09-06T04:55:25Z</time>
      </trkpt>
      <trkpt lat="46.63034" lon="5.70832">
        <ele>560.4</ele>
        <time>2022-09-06T04:55:26Z</time>
      </trkpt>
      <trkpt lat="46.63038" lon="5.70834">
        <ele>560.4</ele>
        <time>2022-09-06T04:55:27Z</time>
      </trkpt>
      <trkpt lat="46.63042" lon="5.70835">
        <ele>560.8</ele>
        <time>2022-09-06T04:55:28Z</time>
      </trkpt>
      <trkpt lat="46.63046" lon="5.70836">
        <ele>561.2</ele>
        <time>2022-09-06T04:55:29Z</time>
      </trkpt>
      <trkpt lat="46.63049" lon="5.70837">
        <ele>561.4</ele>
        <time>2022-09-06T04:55:30Z</time>
      </trkpt>
      <trkpt lat="46.63053" lon="5.70839">
        <ele>561.6</ele>
        <time>2022-09-06T04:55:31Z</time>
      </trkpt>
      <trkpt lat="46.63056" lon="5.7084">
        <ele>561.6</ele>
        <time>2022-09-06T04:55:32Z</time>
      </trkpt>
      <trkpt lat="46.6306" lon="5.70842">
        <ele>562</ele>
        <time>2022-09-06T04:55:33Z</time>
      </trkpt>
      <trkpt lat="46.63064" lon="5.70844">
        <ele>562</ele>
        <time>2022-09-06T04:55:34Z</time>
      </trkpt>
      <trkpt lat="46.63067" lon="5.70846">
        <ele>562.4</ele>
        <time>2022-09-06T04:55:35Z</time>
      </trkpt>
      <trkpt lat="46.63071" lon="5.70849">
        <ele>562.6</ele>
        <time>2022-09-06T04:55:36Z</time>
      </trkpt>
      <trkpt lat="46.63074" lon="5.70852">
        <ele>562.8</ele>
        <time>2022-09-06T04:55:37Z</time>
      </trkpt>
      <trkpt lat="46.63078" lon="5.70855">
        <ele>563.2</ele>
        <time>2022-09-06T04:55:38Z</time>
      </trkpt>
      <trkpt lat="46.63081" lon="5.70858">
        <ele>563.4</ele>
        <time>2022-09-06T04:55:39Z</time>
      </trkpt>
      <trkpt lat="46.63085" lon="5.70861">
        <ele>563.6</ele>
        <time>2022-09-06T04:55:40Z</time>
      </trkpt>
      <trkpt lat="46.63088" lon="5.70864">
        <ele>563.6</ele>
        <time>2022-09-06T04:55:41Z</time>
      </trkpt>
      <trkpt lat="46.63091" lon="5.70867">
        <ele>564</ele>
        <time>2022-09-06T04:55:42Z</time>
      </trkpt>
      <trkpt lat="46.63094" lon="5.7087">
        <ele>564.2</ele>
        <time>2022-09-06T04:55:43Z</time>
      </trkpt>
      <trkpt lat="46.63097" lon="5.70873">
        <ele>564.6</ele>
        <time>2022-09-06T04:55:44Z</time>
      </trkpt>
      <trkpt lat="46.63099" lon="5.70876">
        <ele>564.8</ele>
        <time>2022-09-06T04:55:45Z</time>
      </trkpt>
      <trkpt lat="46.63102" lon="5.70879">
        <ele>564.8</ele>
        <time>2022-09-06T04:55:46Z</time>
      </trkpt>
      <trkpt lat="46.63104" lon="5.70883">
        <ele>565.2</ele>
        <time>2022-09-06T04:55:47Z</time>
      </trkpt>
      <trkpt lat="46.63106" lon="5.70886">
        <ele>565.4</ele>
        <time>2022-09-06T04:55:48Z</time>
      </trkpt>
      <trkpt lat="46.63109" lon="5.70889">
        <ele>565.6</ele>
        <time>2022-09-06T04:55:49Z</time>
      </trkpt>
      <trkpt lat="46.63111" lon="5.70893">
        <ele>565.6</ele>
        <time>2022-09-06T04:55:50Z</time>
      </trkpt>
      <trkpt lat="46.63114" lon="5.70897">
        <ele>566.2</ele>
        <time>2022-09-06T04:55:51Z</time>
      </trkpt>
      <trkpt lat="46.63116" lon="5.70901">
        <ele>566.4</ele>
        <time>2022-09-06T04:55:52Z</time>
      </trkpt>
      <trkpt lat="46.63119" lon="5.70904">
        <ele>566.4</ele>
        <time>2022-09-06T04:55:53Z</time>
      </trkpt>
      <trkpt lat="46.63121" lon="5.70908">
        <ele>566.6</ele>
        <time>2022-09-06T04:55:54Z</time>
      </trkpt>
      <trkpt lat="46.63123" lon="5.70912">
        <ele>566.6</ele>
        <time>2022-09-06T04:55:55Z</time>
      </trkpt>
      <trkpt lat="46.63125" lon="5.70916">
        <ele>567</ele>
        <time>2022-09-06T04:55:56Z</time>
      </trkpt>
      <trkpt lat="46.63127" lon="5.7092">
        <ele>567</ele>
        <time>2022-09-06T04:55:57Z</time>
      </trkpt>
      <trkpt lat="46.63129" lon="5.70925">
        <ele>567.4</ele>
        <time>2022-09-06T04:55:58Z</time>
      </trkpt>
      <trkpt lat="46.63133" lon="5.70931">
        <ele>567.6</ele>
        <time>2022-09-06T04:55:59Z</time>
      </trkpt>
      <trkpt lat="46.63134" lon="5.70933">
        <ele>567.6</ele>
        <time>2022-09-06T04:56:00Z</time>
      </trkpt>
      <trkpt lat="46.63136" lon="5.70937">
        <ele>568</ele>
        <time>2022-09-06T04:56:01Z</time>
      </trkpt>
      <trkpt lat="46.63138" lon="5.70941">
        <ele>568</ele>
        <time>2022-09-06T04:56:02Z</time>
      </trkpt>
      <trkpt lat="46.63139" lon="5.70946">
        <ele>568.2</ele>
        <time>2022-09-06T04:56:03Z</time>
      </trkpt>
      <trkpt lat="46.63141" lon="5.7095">
        <ele>568.4</ele>
        <time>2022-09-06T04:56:04Z</time>
      </trkpt>
      <trkpt lat="46.63143" lon="5.70955">
        <ele>568.6</ele>
        <time>2022-09-06T04:56:05Z</time>
      </trkpt>
      <trkpt lat="46.63144" lon="5.70959">
        <ele>568.6</ele>
        <time>2022-09-06T04:56:06Z</time>
      </trkpt>
      <trkpt lat="46.63146" lon="5.70964">
        <ele>569</ele>
        <time>2022-09-06T04:56:07Z</time>
      </trkpt>
      <trkpt lat="46.63148" lon="5.70968">
        <ele>569</ele>
        <time>2022-09-06T04:56:08Z</time>
      </trkpt>
      <trkpt lat="46.6315" lon="5.70972">
        <ele>569.4</ele>
        <time>2022-09-06T04:56:09Z</time>
      </trkpt>
      <trkpt lat="46.63151" lon="5.70977">
        <ele>569.4</ele>
        <time>2022-09-06T04:56:10Z</time>
      </trkpt>
      <trkpt lat="46.63153" lon="5.70981">
        <ele>569.8</ele>
        <time>2022-09-06T04:56:11Z</time>
      </trkpt>
      <trkpt lat="46.63154" lon="5.70985">
        <ele>570</ele>
        <time>2022-09-06T04:56:12Z</time>
      </trkpt>
      <trkpt lat="46.63156" lon="5.70989">
        <ele>570</ele>
        <time>2022-09-06T04:56:13Z</time>
      </trkpt>
      <trkpt lat="46.63158" lon="5.70994">
        <ele>570.2</ele>
        <time>2022-09-06T04:56:14Z</time>
      </trkpt>
      <trkpt lat="46.6316" lon="5.70998">
        <ele>570.2</ele>
        <time>2022-09-06T04:56:15Z</time>
      </trkpt>
      <trkpt lat="46.63161" lon="5.71002">
        <ele>570.8</ele>
        <time>2022-09-06T04:56:16Z</time>
      </trkpt>
      <trkpt lat="46.63163" lon="5.71006">
        <ele>570.8</ele>
        <time>2022-09-06T04:56:17Z</time>
      </trkpt>
      <trkpt lat="46.63164" lon="5.71011">
        <ele>571</ele>
        <time>2022-09-06T04:56:18Z</time>
      </trkpt>
      <trkpt lat="46.63165" lon="5.71015">
        <ele>571</ele>
        <time>2022-09-06T04:56:19Z</time>
      </trkpt>
      <trkpt lat="46.63167" lon="5.71019">
        <ele>571.4</ele>
        <time>2022-09-06T04:56:20Z</time>
      </trkpt>
      <trkpt lat="46.63169" lon="5.71024">
        <ele>571.4</ele>
        <time>2022-09-06T04:56:21Z</time>
      </trkpt>
      <trkpt lat="46.6317" lon="5.71028">
        <ele>571.8</ele>
        <time>2022-09-06T04:56:22Z</time>
      </trkpt>
      <trkpt lat="46.63172" lon="5.71032">
        <ele>572</ele>
        <time>2022-09-06T04:56:23Z</time>
      </trkpt>
      <trkpt lat="46.63173" lon="5.71037">
        <ele>572.2</ele>
        <time>2022-09-06T04:56:24Z</time>
      </trkpt>
      <trkpt lat="46.63175" lon="5.71041">
        <ele>572.2</ele>
        <time>2022-09-06T04:56:25Z</time>
      </trkpt>
      <trkpt lat="46.63176" lon="5.71045">
        <ele>572.6</ele>
        <time>2022-09-06T04:56:26Z</time>
      </trkpt>
      <trkpt lat="46.63178" lon="5.71049">
        <ele>572.8</ele>
        <time>2022-09-06T04:56:27Z</time>
      </trkpt>
      <trkpt lat="46.6318" lon="5.71053">
        <ele>572.8</ele>
        <time>2022-09-06T04:56:28Z</time>
      </trkpt>
      <trkpt lat="46.63182" lon="5.71057">
        <ele>573.2</ele>
        <time>2022-09-06T04:56:29Z</time>
      </trkpt>
      <trkpt lat="46.63184" lon="5.71061">
        <ele>573.4</ele>
        <time>2022-09-06T04:56:30Z</time>
      </trkpt>
      <trkpt lat="46.63185" lon="5.71065">
        <ele>573.6</ele>
        <time>2022-09-06T04:56:31Z</time>
      </trkpt>
      <trkpt lat="46.63187" lon="5.71069">
        <ele>573.6</ele>
        <time>2022-09-06T04:56:32Z</time>
      </trkpt>
      <trkpt lat="46.63188" lon="5.71073">
        <ele>574</ele>
        <time>2022-09-06T04:56:33Z</time>
      </trkpt>
      <trkpt lat="46.6319" lon="5.71077">
        <ele>574</ele>
        <time>2022-09-06T04:56:34Z</time>
      </trkpt>
      <trkpt lat="46.63191" lon="5.71081">
        <ele>574.4</ele>
        <time>2022-09-06T04:56:35Z</time>
      </trkpt>
      <trkpt lat="46.63193" lon="5.71085">
        <ele>574.4</ele>
        <time>2022-09-06T04:56:36Z</time>
      </trkpt>
      <trkpt lat="46.63196" lon="5.71089">
        <ele>574.8</ele>
        <time>2022-09-06T04:56:37Z</time>
      </trkpt>
      <trkpt lat="46.63198" lon="5.71093">
        <ele>575</ele>
        <time>2022-09-06T04:56:38Z</time>
      </trkpt>
      <trkpt lat="46.632" lon="5.71097">
        <ele>575.2</ele>
        <time>2022-09-06T04:56:39Z</time>
      </trkpt>
      <trkpt lat="46.63203" lon="5.711">
        <ele>575.2</ele>
        <time>2022-09-06T04:56:40Z</time>
      </trkpt>
      <trkpt lat="46.63206" lon="5.71104">
        <ele>575.6</ele>
        <time>2022-09-06T04:56:41Z</time>
      </trkpt>
      <trkpt lat="46.63209" lon="5.71107">
        <ele>575.8</ele>
        <time>2022-09-06T04:56:42Z</time>
      </trkpt>
      <trkpt lat="46.63211" lon="5.7111">
        <ele>576</ele>
        <time>2022-09-06T04:56:43Z</time>
      </trkpt>
      <trkpt lat="46.63214" lon="5.71113">
        <ele>576</ele>
        <time>2022-09-06T04:56:44Z</time>
      </trkpt>
      <trkpt lat="46.63217" lon="5.71116">
        <ele>576.4</ele>
        <time>2022-09-06T04:56:45Z</time>
      </trkpt>
      <trkpt lat="46.6322" lon="5.71118">
        <ele>576.6</ele>
        <time>2022-09-06T04:56:46Z</time>
      </trkpt>
      <trkpt lat="46.63223" lon="5.7112">
        <ele>577</ele>
        <time>2022-09-06T04:56:47Z</time>
      </trkpt>
      <trkpt lat="46.63226" lon="5.71122">
        <ele>577.2</ele>
        <time>2022-09-06T04:56:48Z</time>
      </trkpt>
      <trkpt lat="46.6323" lon="5.71123">
        <ele>577.4</ele>
        <time>2022-09-06T04:56:49Z</time>
      </trkpt>
      <trkpt lat="46.63233" lon="5.71125">
        <ele>577.6</ele>
        <time>2022-09-06T04:56:50Z</time>
      </trkpt>
      <trkpt lat="46.63236" lon="5.71127">
        <ele>577.6</ele>
        <time>2022-09-06T04:56:51Z</time>
      </trkpt>
      <trkpt lat="46.63239" lon="5.71128">
        <ele>578</ele>
        <time>2022-09-06T04:56:52Z</time>
      </trkpt>
      <trkpt lat="46.63243" lon="5.71129">
        <ele>578</ele>
        <time>2022-09-06T04:56:53Z</time>
      </trkpt>
      <trkpt lat="46.63246" lon="5.7113">
        <ele>578.4</ele>
        <time>2022-09-06T04:56:54Z</time>
      </trkpt>
      <trkpt lat="46.6325" lon="5.7113">
        <ele>578.4</ele>
        <time>2022-09-06T04:56:55Z</time>
      </trkpt>
      <trkpt lat="46.63253" lon="5.71131">
        <ele>578.8</ele>
        <time>2022-09-06T04:56:56Z</time>
      </trkpt>
      <trkpt lat="46.63256" lon="5.7113">
        <ele>579</ele>
        <time>2022-09-06T04:56:57Z</time>
      </trkpt>
      <trkpt lat="46.6326" lon="5.7113">
        <ele>579.2</ele>
        <time>2022-09-06T04:56:58Z</time>
      </trkpt>
      <trkpt lat="46.63263" lon="5.71131">
        <ele>579.2</ele>
        <time>2022-09-06T04:56:59Z</time>
      </trkpt>
      <trkpt lat="46.63266" lon="5.71131">
        <ele>579.4</ele>
        <time>2022-09-06T04:57:00Z</time>
      </trkpt>
      <trkpt lat="46.63271" lon="5.71132">
        <ele>579.6</ele>
        <time>2022-09-06T04:57:01Z</time>
      </trkpt>
      <trkpt lat="46.63273" lon="5.71133">
        <ele>579.6</ele>
        <time>2022-09-06T04:57:02Z</time>
      </trkpt>
      <trkpt lat="46.63273" lon="5.71133">
        <ele>580.2</ele>
        <time>2022-09-06T04:57:03Z</time>
      </trkpt>
      <trkpt lat="46.63276" lon="5.71133">
        <ele>580.4</ele>
        <time>2022-09-06T04:57:04Z</time>
      </trkpt>
      <trkpt lat="46.63279" lon="5.71134">
        <ele>580.4</ele>
        <time>2022-09-06T04:57:05Z</time>
      </trkpt>
      <trkpt lat="46.63282" lon="5.71135">
        <ele>580.8</ele>
        <time>2022-09-06T04:57:06Z</time>
      </trkpt>
      <trkpt lat="46.63286" lon="5.71136">
        <ele>581</ele>
        <time>2022-09-06T04:57:07Z</time>
      </trkpt>
      <trkpt lat="46.63289" lon="5.71136">
        <ele>581</ele>
        <time>2022-09-06T04:57:08Z</time>
      </trkpt>
      <trkpt lat="46.63292" lon="5.71137">
        <ele>581.4</ele>
        <time>2022-09-06T04:57:09Z</time>
      </trkpt>
      <trkpt lat="46.63296" lon="5.71137">
        <ele>581.6</ele>
        <time>2022-09-06T04:57:10Z</time>
      </trkpt>
      <trkpt lat="46.633" lon="5.71137">
        <ele>582</ele>
        <time>2022-09-06T04:57:11Z</time>
      </trkpt>
      <trkpt lat="46.63303" lon="5.71137">
        <ele>582</ele>
        <time>2022-09-06T04:57:12Z</time>
      </trkpt>
      <trkpt lat="46.63307" lon="5.71137">
        <ele>582.2</ele>
        <time>2022-09-06T04:57:13Z</time>
      </trkpt>
      <trkpt lat="46.6331" lon="5.71137">
        <ele>582.2</ele>
        <time>2022-09-06T04:57:14Z</time>
      </trkpt>
      <trkpt lat="46.63314" lon="5.71137">
        <ele>582.4</ele>
        <time>2022-09-06T04:57:15Z</time>
      </trkpt>
      <trkpt lat="46.63317" lon="5.71137">
        <ele>582.4</ele>
        <time>2022-09-06T04:57:16Z</time>
      </trkpt>
      <trkpt lat="46.63321" lon="5.71137">
        <ele>582.8</ele>
        <time>2022-09-06T04:57:17Z</time>
      </trkpt>
      <trkpt lat="46.63325" lon="5.71137">
        <ele>582.8</ele>
        <time>2022-09-06T04:57:18Z</time>
      </trkpt>
      <trkpt lat="46.63328" lon="5.71137">
        <ele>583</ele>
        <time>2022-09-06T04:57:19Z</time>
      </trkpt>
      <trkpt lat="46.63332" lon="5.71137">
        <ele>583</ele>
        <time>2022-09-06T04:57:20Z</time>
      </trkpt>
      <trkpt lat="46.63336" lon="5.71138">
        <ele>583.2</ele>
        <time>2022-09-06T04:57:21Z</time>
      </trkpt>
      <trkpt lat="46.6334" lon="5.71137">
        <ele>583.2</ele>
        <time>2022-09-06T04:57:22Z</time>
      </trkpt>
      <trkpt lat="46.63344" lon="5.71137">
        <ele>583.6</ele>
        <time>2022-09-06T04:57:23Z</time>
      </trkpt>
      <trkpt lat="46.63348" lon="5.71137">
        <ele>583.6</ele>
        <time>2022-09-06T04:57:24Z</time>
      </trkpt>
      <trkpt lat="46.63351" lon="5.71137">
        <ele>583.8</ele>
        <time>2022-09-06T04:57:25Z</time>
      </trkpt>
      <trkpt lat="46.63355" lon="5.71137">
        <ele>584</ele>
        <time>2022-09-06T04:57:26Z</time>
      </trkpt>
      <trkpt lat="46.63359" lon="5.71137">
        <ele>584</ele>
        <time>2022-09-06T04:57:27Z</time>
      </trkpt>
      <trkpt lat="46.63363" lon="5.71137">
        <ele>584.2</ele>
        <time>2022-09-06T04:57:28Z</time>
      </trkpt>
      <trkpt lat="46.63367" lon="5.71137">
        <ele>584.2</ele>
        <time>2022-09-06T04:57:29Z</time>
      </trkpt>
      <trkpt lat="46.63371" lon="5.71137">
        <ele>584.4</ele>
        <time>2022-09-06T04:57:30Z</time>
      </trkpt>
      <trkpt lat="46.63376" lon="5.71137">
        <ele>584.8</ele>
        <time>2022-09-06T04:57:31Z</time>
      </trkpt>
      <trkpt lat="46.6338" lon="5.71137">
        <ele>584.8</ele>
        <time>2022-09-06T04:57:32Z</time>
      </trkpt>
      <trkpt lat="46.63384" lon="5.71136">
        <ele>585</ele>
        <time>2022-09-06T04:57:33Z</time>
      </trkpt>
      <trkpt lat="46.63393" lon="5.71136">
        <ele>585</ele>
        <time>2022-09-06T04:57:34Z</time>
      </trkpt>
      <trkpt lat="46.63397" lon="5.71136">
        <ele>585.2</ele>
        <time>2022-09-06T04:57:35Z</time>
      </trkpt>
      <trkpt lat="46.63401" lon="5.71136">
        <ele>585.2</ele>
        <time>2022-09-06T04:57:36Z</time>
      </trkpt>
      <trkpt lat="46.63406" lon="5.71136">
        <ele>585.6</ele>
        <time>2022-09-06T04:57:37Z</time>
      </trkpt>
      <trkpt lat="46.6341" lon="5.71136">
        <ele>585.6</ele>
        <time>2022-09-06T04:57:38Z</time>
      </trkpt>
      <trkpt lat="46.63414" lon="5.71137">
        <ele>585.6</ele>
        <time>2022-09-06T04:57:39Z</time>
      </trkpt>
      <trkpt lat="46.63418" lon="5.71138">
        <ele>585.6</ele>
        <time>2022-09-06T04:57:40Z</time>
      </trkpt>
      <trkpt lat="46.63423" lon="5.71139">
        <ele>585.8</ele>
        <time>2022-09-06T04:57:41Z</time>
      </trkpt>
      <trkpt lat="46.63427" lon="5.7114">
        <ele>585.8</ele>
        <time>2022-09-06T04:57:42Z</time>
      </trkpt>
      <trkpt lat="46.63432" lon="5.71141">
        <ele>586</ele>
        <time>2022-09-06T04:57:43Z</time>
      </trkpt>
      <trkpt lat="46.63436" lon="5.71141">
        <ele>586</ele>
        <time>2022-09-06T04:57:44Z</time>
      </trkpt>
      <trkpt lat="46.6344" lon="5.71142">
        <ele>586</ele>
        <time>2022-09-06T04:57:45Z</time>
      </trkpt>
      <trkpt lat="46.63445" lon="5.71143">
        <ele>586.4</ele>
        <time>2022-09-06T04:57:46Z</time>
      </trkpt>
      <trkpt lat="46.63449" lon="5.71144">
        <ele>586.4</ele>
        <time>2022-09-06T04:57:47Z</time>
      </trkpt>
      <trkpt lat="46.63453" lon="5.71144">
        <ele>586.6</ele>
        <time>2022-09-06T04:57:48Z</time>
      </trkpt>
      <trkpt lat="46.63458" lon="5.71146">
        <ele>586.6</ele>
        <time>2022-09-06T04:57:49Z</time>
      </trkpt>
      <trkpt lat="46.63462" lon="5.71147">
        <ele>586.8</ele>
        <time>2022-09-06T04:57:50Z</time>
      </trkpt>
      <trkpt lat="46.63466" lon="5.71148">
        <ele>586.8</ele>
        <time>2022-09-06T04:57:51Z</time>
      </trkpt>
      <trkpt lat="46.63471" lon="5.71149">
        <ele>587</ele>
        <time>2022-09-06T04:57:52Z</time>
      </trkpt>
      <trkpt lat="46.63475" lon="5.71149">
        <ele>587</ele>
        <time>2022-09-06T04:57:53Z</time>
      </trkpt>
      <trkpt lat="46.63479" lon="5.7115">
        <ele>587</ele>
        <time>2022-09-06T04:57:54Z</time>
      </trkpt>
      <trkpt lat="46.63484" lon="5.71151">
        <ele>587.4</ele>
        <time>2022-09-06T04:57:55Z</time>
      </trkpt>
      <trkpt lat="46.63488" lon="5.71152">
        <ele>587.4</ele>
        <time>2022-09-06T04:57:56Z</time>
      </trkpt>
      <trkpt lat="46.63492" lon="5.71153">
        <ele>587.4</ele>
        <time>2022-09-06T04:57:57Z</time>
      </trkpt>
      <trkpt lat="46.63496" lon="5.71154">
        <ele>587.8</ele>
        <time>2022-09-06T04:57:58Z</time>
      </trkpt>
      <trkpt lat="46.635" lon="5.71154">
        <ele>587.8</ele>
        <time>2022-09-06T04:57:59Z</time>
      </trkpt>
      <trkpt lat="46.63504" lon="5.71155">
        <ele>587.8</ele>
        <time>2022-09-06T04:58:00Z</time>
      </trkpt>
      <trkpt lat="46.63508" lon="5.71156">
        <ele>588</ele>
        <time>2022-09-06T04:58:01Z</time>
      </trkpt>
      <trkpt lat="46.63512" lon="5.71157">
        <ele>588</ele>
        <time>2022-09-06T04:58:02Z</time>
      </trkpt>
      <trkpt lat="46.63517" lon="5.71157">
        <ele>588</ele>
        <time>2022-09-06T04:58:03Z</time>
      </trkpt>
      <trkpt lat="46.63521" lon="5.71158">
        <ele>588.2</ele>
        <time>2022-09-06T04:58:04Z</time>
      </trkpt>
      <trkpt lat="46.63525" lon="5.71158">
        <ele>588.2</ele>
        <time>2022-09-06T04:58:05Z</time>
      </trkpt>
      <trkpt lat="46.63529" lon="5.71159">
        <ele>588.6</ele>
        <time>2022-09-06T04:58:06Z</time>
      </trkpt>
      <trkpt lat="46.63533" lon="5.7116">
        <ele>588.6</ele>
        <time>2022-09-06T04:58:07Z</time>
      </trkpt>
      <trkpt lat="46.63538" lon="5.71161">
        <ele>588.8</ele>
        <time>2022-09-06T04:58:08Z</time>
      </trkpt>
      <trkpt lat="46.63542" lon="5.71162">
        <ele>588.8</ele>
        <time>2022-09-06T04:58:09Z</time>
      </trkpt>
      <trkpt lat="46.63546" lon="5.71163">
        <ele>589</ele>
        <time>2022-09-06T04:58:10Z</time>
      </trkpt>
      <trkpt lat="46.6355" lon="5.71164">
        <ele>589</ele>
        <time>2022-09-06T04:58:11Z</time>
      </trkpt>
      <trkpt lat="46.63555" lon="5.71165">
        <ele>589.4</ele>
        <time>2022-09-06T04:58:12Z</time>
      </trkpt>
      <trkpt lat="46.63559" lon="5.71167">
        <ele>589.4</ele>
        <time>2022-09-06T04:58:13Z</time>
      </trkpt>
      <trkpt lat="46.63563" lon="5.71168">
        <ele>589.6</ele>
        <time>2022-09-06T04:58:14Z</time>
      </trkpt>
      <trkpt lat="46.63568" lon="5.7117">
        <ele>589.6</ele>
        <time>2022-09-06T04:58:15Z</time>
      </trkpt>
      <trkpt lat="46.63572" lon="5.71171">
        <ele>590</ele>
        <time>2022-09-06T04:58:16Z</time>
      </trkpt>
      <trkpt lat="46.63576" lon="5.71173">
        <ele>590</ele>
        <time>2022-09-06T04:58:17Z</time>
      </trkpt>
      <trkpt lat="46.6358" lon="5.71175">
        <ele>590.2</ele>
        <time>2022-09-06T04:58:18Z</time>
      </trkpt>
      <trkpt lat="46.63584" lon="5.71177">
        <ele>590.2</ele>
        <time>2022-09-06T04:58:19Z</time>
      </trkpt>
      <trkpt lat="46.63589" lon="5.71179">
        <ele>590.4</ele>
        <time>2022-09-06T04:58:20Z</time>
      </trkpt>
      <trkpt lat="46.63593" lon="5.71181">
        <ele>590.4</ele>
        <time>2022-09-06T04:58:21Z</time>
      </trkpt>
      <trkpt lat="46.63597" lon="5.71185">
        <ele>590.8</ele>
        <time>2022-09-06T04:58:22Z</time>
      </trkpt>
      <trkpt lat="46.63601" lon="5.71188">
        <ele>590.8</ele>
        <time>2022-09-06T04:58:23Z</time>
      </trkpt>
      <trkpt lat="46.63605" lon="5.71192">
        <ele>590.8</ele>
        <time>2022-09-06T04:58:24Z</time>
      </trkpt>
      <trkpt lat="46.63608" lon="5.71195">
        <ele>590.8</ele>
        <time>2022-09-06T04:58:25Z</time>
      </trkpt>
      <trkpt lat="46.63612" lon="5.71199">
        <ele>590.8</ele>
        <time>2022-09-06T04:58:26Z</time>
      </trkpt>
      <trkpt lat="46.63615" lon="5.71204">
        <ele>590.8</ele>
        <time>2022-09-06T04:58:27Z</time>
      </trkpt>
      <trkpt lat="46.63619" lon="5.71209">
        <ele>591</ele>
        <time>2022-09-06T04:58:28Z</time>
      </trkpt>
      <trkpt lat="46.63622" lon="5.71214">
        <ele>591</ele>
        <time>2022-09-06T04:58:29Z</time>
      </trkpt>
      <trkpt lat="46.63625" lon="5.7122">
        <ele>591</ele>
        <time>2022-09-06T04:58:30Z</time>
      </trkpt>
      <trkpt lat="46.63628" lon="5.71227">
        <ele>591</ele>
        <time>2022-09-06T04:58:31Z</time>
      </trkpt>
      <trkpt lat="46.63631" lon="5.71234">
        <ele>591</ele>
        <time>2022-09-06T04:58:32Z</time>
      </trkpt>
      <trkpt lat="46.63634" lon="5.71242">
        <ele>590.8</ele>
        <time>2022-09-06T04:58:33Z</time>
      </trkpt>
      <trkpt lat="46.63637" lon="5.71249">
        <ele>590.8</ele>
        <time>2022-09-06T04:58:34Z</time>
      </trkpt>
      <trkpt lat="46.6364" lon="5.71257">
        <ele>590.6</ele>
        <time>2022-09-06T04:58:35Z</time>
      </trkpt>
      <trkpt lat="46.63643" lon="5.71265">
        <ele>590.6</ele>
        <time>2022-09-06T04:58:36Z</time>
      </trkpt>
      <trkpt lat="46.63646" lon="5.71273">
        <ele>590.6</ele>
        <time>2022-09-06T04:58:37Z</time>
      </trkpt>
      <trkpt lat="46.6365" lon="5.71281">
        <ele>590.4</ele>
        <time>2022-09-06T04:58:38Z</time>
      </trkpt>
      <trkpt lat="46.63653" lon="5.7129">
        <ele>590.4</ele>
        <time>2022-09-06T04:58:39Z</time>
      </trkpt>
      <trkpt lat="46.63656" lon="5.71298">
        <ele>590.4</ele>
        <time>2022-09-06T04:58:40Z</time>
      </trkpt>
      <trkpt lat="46.63659" lon="5.71306">
        <ele>590.4</ele>
        <time>2022-09-06T04:58:41Z</time>
      </trkpt>
      <trkpt lat="46.63662" lon="5.71315">
        <ele>590</ele>
        <time>2022-09-06T04:58:42Z</time>
      </trkpt>
      <trkpt lat="46.63666" lon="5.71323">
        <ele>590</ele>
        <time>2022-09-06T04:58:43Z</time>
      </trkpt>
      <trkpt lat="46.63673" lon="5.71339">
        <ele>590</ele>
        <time>2022-09-06T04:58:44Z</time>
      </trkpt>
      <trkpt lat="46.63677" lon="5.71345">
        <ele>590</ele>
        <time>2022-09-06T04:58:45Z</time>
      </trkpt>
      <trkpt lat="46.63681" lon="5.71352">
        <ele>590</ele>
        <time>2022-09-06T04:58:46Z</time>
      </trkpt>
      <trkpt lat="46.63686" lon="5.71358">
        <ele>590</ele>
        <time>2022-09-06T04:58:47Z</time>
      </trkpt>
      <trkpt lat="46.63691" lon="5.71363">
        <ele>590</ele>
        <time>2022-09-06T04:58:48Z</time>
      </trkpt>
      <trkpt lat="46.63696" lon="5.71367">
        <ele>590</ele>
        <time>2022-09-06T04:58:49Z</time>
      </trkpt>
      <trkpt lat="46.63702" lon="5.71371">
        <ele>590</ele>
        <time>2022-09-06T04:58:50Z</time>
      </trkpt>
      <trkpt lat="46.63704" lon="5.71373">
        <ele>590.4</ele>
        <time>2022-09-06T04:58:51Z</time>
      </trkpt>
      <trkpt lat="46.63707" lon="5.71375">
        <ele>590.4</ele>
        <time>2022-09-06T04:58:52Z</time>
      </trkpt>
      <trkpt lat="46.63712" lon="5.71378">
        <ele>590.4</ele>
        <time>2022-09-06T04:58:53Z</time>
      </trkpt>
      <trkpt lat="46.63717" lon="5.71381">
        <ele>590.8</ele>
        <time>2022-09-06T04:58:54Z</time>
      </trkpt>
      <trkpt lat="46.63723" lon="5.71384">
        <ele>590.8</ele>
        <time>2022-09-06T04:58:55Z</time>
      </trkpt>
      <trkpt lat="46.63728" lon="5.71387">
        <ele>591</ele>
        <time>2022-09-06T04:58:56Z</time>
      </trkpt>
      <trkpt lat="46.63733" lon="5.71391">
        <ele>591</ele>
        <time>2022-09-06T04:58:57Z</time>
      </trkpt>
      <trkpt lat="46.63738" lon="5.71394">
        <ele>591.2</ele>
        <time>2022-09-06T04:58:58Z</time>
      </trkpt>
      <trkpt lat="46.63743" lon="5.71397">
        <ele>591.2</ele>
        <time>2022-09-06T04:58:59Z</time>
      </trkpt>
      <trkpt lat="46.63748" lon="5.714">
        <ele>591.6</ele>
        <time>2022-09-06T04:59:00Z</time>
      </trkpt>
      <trkpt lat="46.63753" lon="5.71403">
        <ele>591.6</ele>
        <time>2022-09-06T04:59:01Z</time>
      </trkpt>
      <trkpt lat="46.63758" lon="5.71406">
        <ele>591.6</ele>
        <time>2022-09-06T04:59:02Z</time>
      </trkpt>
      <trkpt lat="46.63763" lon="5.71409">
        <ele>592</ele>
        <time>2022-09-06T04:59:03Z</time>
      </trkpt>
      <trkpt lat="46.63769" lon="5.71413">
        <ele>592</ele>
        <time>2022-09-06T04:59:04Z</time>
      </trkpt>
      <trkpt lat="46.63774" lon="5.71416">
        <ele>592.4</ele>
        <time>2022-09-06T04:59:05Z</time>
      </trkpt>
      <trkpt lat="46.6378" lon="5.7142">
        <ele>592.6</ele>
        <time>2022-09-06T04:59:06Z</time>
      </trkpt>
      <trkpt lat="46.63785" lon="5.71424">
        <ele>592.8</ele>
        <time>2022-09-06T04:59:07Z</time>
      </trkpt>
      <trkpt lat="46.6379" lon="5.71428">
        <ele>592.8</ele>
        <time>2022-09-06T04:59:08Z</time>
      </trkpt>
      <trkpt lat="46.63795" lon="5.71431">
        <ele>593.2</ele>
        <time>2022-09-06T04:59:09Z</time>
      </trkpt>
      <trkpt lat="46.638" lon="5.71436">
        <ele>593.4</ele>
        <time>2022-09-06T04:59:10Z</time>
      </trkpt>
      <trkpt lat="46.63805" lon="5.7144">
        <ele>593.6</ele>
        <time>2022-09-06T04:59:11Z</time>
      </trkpt>
      <trkpt lat="46.63809" lon="5.71443">
        <ele>593.6</ele>
        <time>2022-09-06T04:59:12Z</time>
      </trkpt>
      <trkpt lat="46.63814" lon="5.71447">
        <ele>594</ele>
        <time>2022-09-06T04:59:13Z</time>
      </trkpt>
      <trkpt lat="46.63819" lon="5.71451">
        <ele>594.2</ele>
        <time>2022-09-06T04:59:14Z</time>
      </trkpt>
      <trkpt lat="46.63823" lon="5.71455">
        <ele>594.2</ele>
        <time>2022-09-06T04:59:15Z</time>
      </trkpt>
      <trkpt lat="46.63828" lon="5.7146">
        <ele>594.6</ele>
        <time>2022-09-06T04:59:16Z</time>
      </trkpt>
      <trkpt lat="46.63832" lon="5.71464">
        <ele>594.8</ele>
        <time>2022-09-06T04:59:17Z</time>
      </trkpt>
      <trkpt lat="46.63836" lon="5.71468">
        <ele>594.8</ele>
        <time>2022-09-06T04:59:18Z</time>
      </trkpt>
      <trkpt lat="46.6384" lon="5.71472">
        <ele>595.2</ele>
        <time>2022-09-06T04:59:19Z</time>
      </trkpt>
      <trkpt lat="46.63845" lon="5.71476">
        <ele>595.4</ele>
        <time>2022-09-06T04:59:20Z</time>
      </trkpt>
      <trkpt lat="46.63849" lon="5.7148">
        <ele>595.4</ele>
        <time>2022-09-06T04:59:21Z</time>
      </trkpt>
      <trkpt lat="46.63851" lon="5.71482">
        <ele>595.6</ele>
        <time>2022-09-06T04:59:22Z</time>
      </trkpt>
      <trkpt lat="46.63853" lon="5.71484">
        <ele>595.6</ele>
        <time>2022-09-06T04:59:23Z</time>
      </trkpt>
      <trkpt lat="46.63858" lon="5.71488">
        <ele>596</ele>
        <time>2022-09-06T04:59:24Z</time>
      </trkpt>
      <trkpt lat="46.63862" lon="5.71492">
        <ele>596</ele>
        <time>2022-09-06T04:59:25Z</time>
      </trkpt>
      <trkpt lat="46.63866" lon="5.71496">
        <ele>596.4</ele>
        <time>2022-09-06T04:59:26Z</time>
      </trkpt>
      <trkpt lat="46.6387" lon="5.715">
        <ele>596.4</ele>
        <time>2022-09-06T04:59:27Z</time>
      </trkpt>
      <trkpt lat="46.63875" lon="5.71504">
        <ele>596.6</ele>
        <time>2022-09-06T04:59:28Z</time>
      </trkpt>
      <trkpt lat="46.63879" lon="5.71508">
        <ele>596.6</ele>
        <time>2022-09-06T04:59:29Z</time>
      </trkpt>
      <trkpt lat="46.63883" lon="5.71512">
        <ele>597</ele>
        <time>2022-09-06T04:59:30Z</time>
      </trkpt>
      <trkpt lat="46.63887" lon="5.71517">
        <ele>597</ele>
        <time>2022-09-06T04:59:31Z</time>
      </trkpt>
      <trkpt lat="46.63892" lon="5.71521">
        <ele>597.2</ele>
        <time>2022-09-06T04:59:32Z</time>
      </trkpt>
      <trkpt lat="46.63896" lon="5.71525">
        <ele>597.4</ele>
        <time>2022-09-06T04:59:33Z</time>
      </trkpt>
      <trkpt lat="46.639" lon="5.71528">
        <ele>597.6</ele>
        <time>2022-09-06T04:59:34Z</time>
      </trkpt>
      <trkpt lat="46.63905" lon="5.71532">
        <ele>597.6</ele>
        <time>2022-09-06T04:59:35Z</time>
      </trkpt>
      <trkpt lat="46.63909" lon="5.71536">
        <ele>597.8</ele>
        <time>2022-09-06T04:59:36Z</time>
      </trkpt>
      <trkpt lat="46.63913" lon="5.71541">
        <ele>597.8</ele>
        <time>2022-09-06T04:59:37Z</time>
      </trkpt>
      <trkpt lat="46.63917" lon="5.71545">
        <ele>598</ele>
        <time>2022-09-06T04:59:38Z</time>
      </trkpt>
      <trkpt lat="46.63921" lon="5.7155">
        <ele>598</ele>
        <time>2022-09-06T04:59:39Z</time>
      </trkpt>
      <trkpt lat="46.63925" lon="5.71554">
        <ele>598</ele>
        <time>2022-09-06T04:59:40Z</time>
      </trkpt>
      <trkpt lat="46.6393" lon="5.71558">
        <ele>598</ele>
        <time>2022-09-06T04:59:41Z</time>
      </trkpt>
      <trkpt lat="46.63934" lon="5.71562">
        <ele>598.2</ele>
        <time>2022-09-06T04:59:42Z</time>
      </trkpt>
      <trkpt lat="46.63939" lon="5.71566">
        <ele>598.2</ele>
        <time>2022-09-06T04:59:43Z</time>
      </trkpt>
      <trkpt lat="46.63949" lon="5.71575">
        <ele>598.2</ele>
        <time>2022-09-06T04:59:44Z</time>
      </trkpt>
      <trkpt lat="46.63954" lon="5.71579">
        <ele>598.2</ele>
        <time>2022-09-06T04:59:45Z</time>
      </trkpt>
      <trkpt lat="46.63959" lon="5.71584">
        <ele>598.2</ele>
        <time>2022-09-06T04:59:46Z</time>
      </trkpt>
      <trkpt lat="46.63964" lon="5.71589">
        <ele>598.2</ele>
        <time>2022-09-06T04:59:47Z</time>
      </trkpt>
      <trkpt lat="46.63969" lon="5.71594">
        <ele>598.2</ele>
        <time>2022-09-06T04:59:48Z</time>
      </trkpt>
      <trkpt lat="46.63974" lon="5.71598">
        <ele>598.2</ele>
        <time>2022-09-06T04:59:49Z</time>
      </trkpt>
      <trkpt lat="46.63979" lon="5.71604">
        <ele>598.2</ele>
        <time>2022-09-06T04:59:50Z</time>
      </trkpt>
      <trkpt lat="46.63985" lon="5.71609">
        <ele>598.2</ele>
        <time>2022-09-06T04:59:51Z</time>
      </trkpt>
      <trkpt lat="46.6399" lon="5.71614">
        <ele>598.2</ele>
        <time>2022-09-06T04:59:52Z</time>
      </trkpt>
      <trkpt lat="46.63995" lon="5.71619">
        <ele>598.2</ele>
        <time>2022-09-06T04:59:53Z</time>
      </trkpt>
      <trkpt lat="46.63999" lon="5.71626">
        <ele>598.2</ele>
        <time>2022-09-06T04:59:54Z</time>
      </trkpt>
      <trkpt lat="46.64004" lon="5.71632">
        <ele>598.2</ele>
        <time>2022-09-06T04:59:55Z</time>
      </trkpt>
      <trkpt lat="46.64008" lon="5.71638">
        <ele>598.2</ele>
        <time>2022-09-06T04:59:56Z</time>
      </trkpt>
      <trkpt lat="46.64013" lon="5.71645">
        <ele>598.2</ele>
        <time>2022-09-06T04:59:57Z</time>
      </trkpt>
      <trkpt lat="46.64018" lon="5.71651">
        <ele>598.4</ele>
        <time>2022-09-06T04:59:58Z</time>
      </trkpt>
      <trkpt lat="46.64023" lon="5.71658">
        <ele>598.4</ele>
        <time>2022-09-06T04:59:59Z</time>
      </trkpt>
      <trkpt lat="46.64027" lon="5.71664">
        <ele>598.4</ele>
        <time>2022-09-06T05:00:00Z</time>
      </trkpt>
      <trkpt lat="46.64032" lon="5.71671">
        <ele>598.4</ele>
        <time>2022-09-06T05:00:01Z</time>
      </trkpt>
      <trkpt lat="46.64037" lon="5.71677">
        <ele>598.4</ele>
        <time>2022-09-06T05:00:02Z</time>
      </trkpt>
      <trkpt lat="46.64041" lon="5.71683">
        <ele>598.4</ele>
        <time>2022-09-06T05:00:03Z</time>
      </trkpt>
      <trkpt lat="46.64045" lon="5.71689">
        <ele>598.4</ele>
        <time>2022-09-06T05:00:04Z</time>
      </trkpt>
      <trkpt lat="46.6405" lon="5.71695">
        <ele>598.4</ele>
        <time>2022-09-06T05:00:05Z</time>
      </trkpt>
      <trkpt lat="46.64055" lon="5.717">
        <ele>598.4</ele>
        <time>2022-09-06T05:00:06Z</time>
      </trkpt>
      <trkpt lat="46.6406" lon="5.71705">
        <ele>598.4</ele>
        <time>2022-09-06T05:00:07Z</time>
      </trkpt>
      <trkpt lat="46.64066" lon="5.71709">
        <ele>598.4</ele>
        <time>2022-09-06T05:00:08Z</time>
      </trkpt>
      <trkpt lat="46.64072" lon="5.71713">
        <ele>598.4</ele>
        <time>2022-09-06T05:00:09Z</time>
      </trkpt>
      <trkpt lat="46.64078" lon="5.71717">
        <ele>598.8</ele>
        <time>2022-09-06T05:00:10Z</time>
      </trkpt>
      <trkpt lat="46.64084" lon="5.7172">
        <ele>598.8</ele>
        <time>2022-09-06T05:00:11Z</time>
      </trkpt>
      <trkpt lat="46.64089" lon="5.71723">
        <ele>598.8</ele>
        <time>2022-09-06T05:00:12Z</time>
      </trkpt>
      <trkpt lat="46.64095" lon="5.71726">
        <ele>599</ele>
        <time>2022-09-06T05:00:13Z</time>
      </trkpt>
      <trkpt lat="46.64101" lon="5.71729">
        <ele>599</ele>
        <time>2022-09-06T05:00:14Z</time>
      </trkpt>
      <trkpt lat="46.64106" lon="5.71732">
        <ele>599.2</ele>
        <time>2022-09-06T05:00:15Z</time>
      </trkpt>
      <trkpt lat="46.64112" lon="5.71734">
        <ele>599.2</ele>
        <time>2022-09-06T05:00:16Z</time>
      </trkpt>
      <trkpt lat="46.64117" lon="5.71736">
        <ele>599.2</ele>
        <time>2022-09-06T05:00:17Z</time>
      </trkpt>
      <trkpt lat="46.64122" lon="5.71738">
        <ele>599.6</ele>
        <time>2022-09-06T05:00:18Z</time>
      </trkpt>
      <trkpt lat="46.64128" lon="5.71739">
        <ele>599.6</ele>
        <time>2022-09-06T05:00:19Z</time>
      </trkpt>
      <trkpt lat="46.64133" lon="5.71739">
        <ele>599.8</ele>
        <time>2022-09-06T05:00:20Z</time>
      </trkpt>
      <trkpt lat="46.64138" lon="5.7174">
        <ele>599.8</ele>
        <time>2022-09-06T05:00:21Z</time>
      </trkpt>
      <trkpt lat="46.64144" lon="5.71741">
        <ele>599.8</ele>
        <time>2022-09-06T05:00:22Z</time>
      </trkpt>
      <trkpt lat="46.6415" lon="5.71741">
        <ele>599.8</ele>
        <time>2022-09-06T05:00:23Z</time>
      </trkpt>
      <trkpt lat="46.64156" lon="5.7174">
        <ele>599.8</ele>
        <time>2022-09-06T05:00:24Z</time>
      </trkpt>
      <trkpt lat="46.64162" lon="5.7174">
        <ele>600.2</ele>
        <time>2022-09-06T05:00:25Z</time>
      </trkpt>
      <trkpt lat="46.64168" lon="5.71739">
        <ele>600.2</ele>
        <time>2022-09-06T05:00:26Z</time>
      </trkpt>
      <trkpt lat="46.64173" lon="5.71738">
        <ele>600.2</ele>
        <time>2022-09-06T05:00:27Z</time>
      </trkpt>
      <trkpt lat="46.64179" lon="5.71736">
        <ele>600.2</ele>
        <time>2022-09-06T05:00:28Z</time>
      </trkpt>
      <trkpt lat="46.64184" lon="5.71735">
        <ele>600.2</ele>
        <time>2022-09-06T05:00:29Z</time>
      </trkpt>
      <trkpt lat="46.6419" lon="5.71733">
        <ele>600.4</ele>
        <time>2022-09-06T05:00:30Z</time>
      </trkpt>
      <trkpt lat="46.64195" lon="5.71731">
        <ele>600.4</ele>
        <time>2022-09-06T05:00:31Z</time>
      </trkpt>
      <trkpt lat="46.642" lon="5.71728">
        <ele>600.6</ele>
        <time>2022-09-06T05:00:32Z</time>
      </trkpt>
      <trkpt lat="46.64205" lon="5.71725">
        <ele>600.6</ele>
        <time>2022-09-06T05:00:33Z</time>
      </trkpt>
      <trkpt lat="46.6421" lon="5.71722">
        <ele>601</ele>
        <time>2022-09-06T05:00:34Z</time>
      </trkpt>
      <trkpt lat="46.64215" lon="5.71718">
        <ele>601</ele>
        <time>2022-09-06T05:00:35Z</time>
      </trkpt>
      <trkpt lat="46.64219" lon="5.71714">
        <ele>601.4</ele>
        <time>2022-09-06T05:00:36Z</time>
      </trkpt>
      <trkpt lat="46.64224" lon="5.71711">
        <ele>601.4</ele>
        <time>2022-09-06T05:00:37Z</time>
      </trkpt>
      <trkpt lat="46.64229" lon="5.71707">
        <ele>601.6</ele>
        <time>2022-09-06T05:00:38Z</time>
      </trkpt>
      <trkpt lat="46.64234" lon="5.71703">
        <ele>601.6</ele>
        <time>2022-09-06T05:00:39Z</time>
      </trkpt>
      <trkpt lat="46.64234" lon="5.71703">
        <ele>602</ele>
        <time>2022-09-06T05:00:40Z</time>
      </trkpt>
      <trkpt lat="46.64238" lon="5.717">
        <ele>602.2</ele>
        <time>2022-09-06T05:00:41Z</time>
      </trkpt>
      <trkpt lat="46.64242" lon="5.71696">
        <ele>602.4</ele>
        <time>2022-09-06T05:00:42Z</time>
      </trkpt>
      <trkpt lat="46.64246" lon="5.71693">
        <ele>602.6</ele>
        <time>2022-09-06T05:00:43Z</time>
      </trkpt>
      <trkpt lat="46.64249" lon="5.71689">
        <ele>602.8</ele>
        <time>2022-09-06T05:00:44Z</time>
      </trkpt>
      <trkpt lat="46.64252" lon="5.71686">
        <ele>602.8</ele>
        <time>2022-09-06T05:00:45Z</time>
      </trkpt>
      <trkpt lat="46.64255" lon="5.71683">
        <ele>603.2</ele>
        <time>2022-09-06T05:00:46Z</time>
      </trkpt>
      <trkpt lat="46.64257" lon="5.71679">
        <ele>603.4</ele>
        <time>2022-09-06T05:00:47Z</time>
      </trkpt>
      <trkpt lat="46.6426" lon="5.71676">
        <ele>603.4</ele>
        <time>2022-09-06T05:00:48Z</time>
      </trkpt>
      <trkpt lat="46.64264" lon="5.71672">
        <ele>603.8</ele>
        <time>2022-09-06T05:00:49Z</time>
      </trkpt>
      <trkpt lat="46.64268" lon="5.71668">
        <ele>603.8</ele>
        <time>2022-09-06T05:00:50Z</time>
      </trkpt>
      <trkpt lat="46.64275" lon="5.71659">
        <ele>603.8</ele>
        <time>2022-09-06T05:00:51Z</time>
      </trkpt>
      <trkpt lat="46.64279" lon="5.71654">
        <ele>603.8</ele>
        <time>2022-09-06T05:00:52Z</time>
      </trkpt>
      <trkpt lat="46.64283" lon="5.71648">
        <ele>604</ele>
        <time>2022-09-06T05:00:53Z</time>
      </trkpt>
      <trkpt lat="46.64287" lon="5.71643">
        <ele>604</ele>
        <time>2022-09-06T05:00:54Z</time>
      </trkpt>
      <trkpt lat="46.64292" lon="5.71637">
        <ele>604</ele>
        <time>2022-09-06T05:00:55Z</time>
      </trkpt>
      <trkpt lat="46.64296" lon="5.71631">
        <ele>603.6</ele>
        <time>2022-09-06T05:00:56Z</time>
      </trkpt>
      <trkpt lat="46.64301" lon="5.71625">
        <ele>603.6</ele>
        <time>2022-09-06T05:00:57Z</time>
      </trkpt>
      <trkpt lat="46.64306" lon="5.71619">
        <ele>603.4</ele>
        <time>2022-09-06T05:00:58Z</time>
      </trkpt>
      <trkpt lat="46.6431" lon="5.71611">
        <ele>603</ele>
        <time>2022-09-06T05:00:59Z</time>
      </trkpt>
      <trkpt lat="46.64313" lon="5.71601">
        <ele>602.8</ele>
        <time>2022-09-06T05:01:00Z</time>
      </trkpt>
      <trkpt lat="46.64316" lon="5.71591">
        <ele>602.4</ele>
        <time>2022-09-06T05:01:01Z</time>
      </trkpt>
      <trkpt lat="46.64318" lon="5.7158">
        <ele>602</ele>
        <time>2022-09-06T05:01:02Z</time>
      </trkpt>
      <trkpt lat="46.6432" lon="5.71568">
        <ele>601.8</ele>
        <time>2022-09-06T05:01:03Z</time>
      </trkpt>
      <trkpt lat="46.64321" lon="5.71556">
        <ele>601.4</ele>
        <time>2022-09-06T05:01:04Z</time>
      </trkpt>
      <trkpt lat="46.64323" lon="5.71544">
        <ele>601.2</ele>
        <time>2022-09-06T05:01:05Z</time>
      </trkpt>
      <trkpt lat="46.64323" lon="5.71533">
        <ele>601</ele>
        <time>2022-09-06T05:01:06Z</time>
      </trkpt>
      <trkpt lat="46.64324" lon="5.7152">
        <ele>600.6</ele>
        <time>2022-09-06T05:01:07Z</time>
      </trkpt>
      <trkpt lat="46.64324" lon="5.71507">
        <ele>600.4</ele>
        <time>2022-09-06T05:01:08Z</time>
      </trkpt>
      <trkpt lat="46.64325" lon="5.71494">
        <ele>600.4</ele>
        <time>2022-09-06T05:01:09Z</time>
      </trkpt>
      <trkpt lat="46.64327" lon="5.71481">
        <ele>600</ele>
        <time>2022-09-06T05:01:10Z</time>
      </trkpt>
      <trkpt lat="46.64331" lon="5.71469">
        <ele>599.8</ele>
        <time>2022-09-06T05:01:11Z</time>
      </trkpt>
      <trkpt lat="46.64335" lon="5.71458">
        <ele>599.6</ele>
        <time>2022-09-06T05:01:12Z</time>
      </trkpt>
      <trkpt lat="46.64339" lon="5.71447">
        <ele>599.2</ele>
        <time>2022-09-06T05:01:13Z</time>
      </trkpt>
      <trkpt lat="46.64344" lon="5.71435">
        <ele>599</ele>
        <time>2022-09-06T05:01:14Z</time>
      </trkpt>
      <trkpt lat="46.64349" lon="5.71424">
        <ele>598.6</ele>
        <time>2022-09-06T05:01:15Z</time>
      </trkpt>
      <trkpt lat="46.64354" lon="5.71412">
        <ele>598.2</ele>
        <time>2022-09-06T05:01:16Z</time>
      </trkpt>
      <trkpt lat="46.64359" lon="5.71399">
        <ele>598</ele>
        <time>2022-09-06T05:01:17Z</time>
      </trkpt>
      <trkpt lat="46.64363" lon="5.71387">
        <ele>597.6</ele>
        <time>2022-09-06T05:01:18Z</time>
      </trkpt>
      <trkpt lat="46.64366" lon="5.71374">
        <ele>597.2</ele>
        <time>2022-09-06T05:01:19Z</time>
      </trkpt>
      <trkpt lat="46.6437" lon="5.71362">
        <ele>597</ele>
        <time>2022-09-06T05:01:20Z</time>
      </trkpt>
      <trkpt lat="46.64373" lon="5.71349">
        <ele>596.6</ele>
        <time>2022-09-06T05:01:21Z</time>
      </trkpt>
      <trkpt lat="46.64377" lon="5.71337">
        <ele>596.4</ele>
        <time>2022-09-06T05:01:22Z</time>
      </trkpt>
      <trkpt lat="46.6438" lon="5.71325">
        <ele>596</ele>
        <time>2022-09-06T05:01:23Z</time>
      </trkpt>
      <trkpt lat="46.64383" lon="5.71313">
        <ele>595.8</ele>
        <time>2022-09-06T05:01:24Z</time>
      </trkpt>
      <trkpt lat="46.64385" lon="5.713">
        <ele>595.8</ele>
        <time>2022-09-06T05:01:25Z</time>
      </trkpt>
      <trkpt lat="46.64388" lon="5.71288">
        <ele>595.4</ele>
        <time>2022-09-06T05:01:26Z</time>
      </trkpt>
      <trkpt lat="46.6439" lon="5.71275">
        <ele>595.2</ele>
        <time>2022-09-06T05:01:27Z</time>
      </trkpt>
      <trkpt lat="46.64394" lon="5.71254">
        <ele>595</ele>
        <time>2022-09-06T05:01:28Z</time>
      </trkpt>
      <trkpt lat="46.64395" lon="5.71247">
        <ele>594.8</ele>
        <time>2022-09-06T05:01:29Z</time>
      </trkpt>
      <trkpt lat="46.64397" lon="5.71233">
        <ele>594.4</ele>
        <time>2022-09-06T05:01:30Z</time>
      </trkpt>
      <trkpt lat="46.64398" lon="5.7122">
        <ele>594.2</ele>
        <time>2022-09-06T05:01:31Z</time>
      </trkpt>
      <trkpt lat="46.644" lon="5.71206">
        <ele>594</ele>
        <time>2022-09-06T05:01:32Z</time>
      </trkpt>
      <trkpt lat="46.64402" lon="5.71192">
        <ele>593.6</ele>
        <time>2022-09-06T05:01:33Z</time>
      </trkpt>
      <trkpt lat="46.64404" lon="5.71179">
        <ele>593.4</ele>
        <time>2022-09-06T05:01:34Z</time>
      </trkpt>
      <trkpt lat="46.64405" lon="5.71165">
        <ele>593.2</ele>
        <time>2022-09-06T05:01:35Z</time>
      </trkpt>
      <trkpt lat="46.64407" lon="5.71151">
        <ele>593.2</ele>
        <time>2022-09-06T05:01:36Z</time>
      </trkpt>
      <trkpt lat="46.64409" lon="5.71138">
        <ele>592.8</ele>
        <time>2022-09-06T05:01:37Z</time>
      </trkpt>
      <trkpt lat="46.64411" lon="5.71125">
        <ele>592.8</ele>
        <time>2022-09-06T05:01:39Z</time>
      </trkpt>
      <trkpt lat="46.64413" lon="5.71112">
        <ele>592.4</ele>
        <time>2022-09-06T05:01:40Z</time>
      </trkpt>
      <trkpt lat="46.64416" lon="5.711">
        <ele>592.2</ele>
        <time>2022-09-06T05:01:41Z</time>
      </trkpt>
      <trkpt lat="46.6442" lon="5.71089">
        <ele>591.8</ele>
        <time>2022-09-06T05:01:42Z</time>
      </trkpt>
      <trkpt lat="46.64426" lon="5.71078">
        <ele>591.6</ele>
        <time>2022-09-06T05:01:43Z</time>
      </trkpt>
      <trkpt lat="46.64433" lon="5.7107">
        <ele>591.2</ele>
        <time>2022-09-06T05:01:44Z</time>
      </trkpt>
      <trkpt lat="46.6444" lon="5.71064">
        <ele>591</ele>
        <time>2022-09-06T05:01:45Z</time>
      </trkpt>
      <trkpt lat="46.64448" lon="5.71059">
        <ele>591</ele>
        <time>2022-09-06T05:01:46Z</time>
      </trkpt>
      <trkpt lat="46.64456" lon="5.71056">
        <ele>590.8</ele>
        <time>2022-09-06T05:01:47Z</time>
      </trkpt>
      <trkpt lat="46.64464" lon="5.71055">
        <ele>590.8</ele>
        <time>2022-09-06T05:01:48Z</time>
      </trkpt>
      <trkpt lat="46.64472" lon="5.71055">
        <ele>590.4</ele>
        <time>2022-09-06T05:01:49Z</time>
      </trkpt>
      <trkpt lat="46.6448" lon="5.71056">
        <ele>590.4</ele>
        <time>2022-09-06T05:01:50Z</time>
      </trkpt>
      <trkpt lat="46.64488" lon="5.71058">
        <ele>590.2</ele>
        <time>2022-09-06T05:01:51Z</time>
      </trkpt>
      <trkpt lat="46.64496" lon="5.71061">
        <ele>590.2</ele>
        <time>2022-09-06T05:01:52Z</time>
      </trkpt>
      <trkpt lat="46.64503" lon="5.71064">
        <ele>589.8</ele>
        <time>2022-09-06T05:01:53Z</time>
      </trkpt>
      <trkpt lat="46.6451" lon="5.71067">
        <ele>589.8</ele>
        <time>2022-09-06T05:01:54Z</time>
      </trkpt>
      <trkpt lat="46.64518" lon="5.7107">
        <ele>589.8</ele>
        <time>2022-09-06T05:01:55Z</time>
      </trkpt>
      <trkpt lat="46.64525" lon="5.71073">
        <ele>589.8</ele>
        <time>2022-09-06T05:01:56Z</time>
      </trkpt>
      <trkpt lat="46.64532" lon="5.71076">
        <ele>589.6</ele>
        <time>2022-09-06T05:01:57Z</time>
      </trkpt>
      <trkpt lat="46.64539" lon="5.71079">
        <ele>589.6</ele>
        <time>2022-09-06T05:01:58Z</time>
      </trkpt>
      <trkpt lat="46.64547" lon="5.71082">
        <ele>589.6</ele>
        <time>2022-09-06T05:01:59Z</time>
      </trkpt>
      <trkpt lat="46.64554" lon="5.71085">
        <ele>589.6</ele>
        <time>2022-09-06T05:02:00Z</time>
      </trkpt>
      <trkpt lat="46.64561" lon="5.71088">
        <ele>589.6</ele>
        <time>2022-09-06T05:02:01Z</time>
      </trkpt>
      <trkpt lat="46.64568" lon="5.71091">
        <ele>589.6</ele>
        <time>2022-09-06T05:02:02Z</time>
      </trkpt>
      <trkpt lat="46.64575" lon="5.71093">
        <ele>589.4</ele>
        <time>2022-09-06T05:02:03Z</time>
      </trkpt>
      <trkpt lat="46.64582" lon="5.71096">
        <ele>589.4</ele>
        <time>2022-09-06T05:02:04Z</time>
      </trkpt>
      <trkpt lat="46.64589" lon="5.711">
        <ele>589.4</ele>
        <time>2022-09-06T05:02:05Z</time>
      </trkpt>
      <trkpt lat="46.64595" lon="5.71103">
        <ele>589</ele>
        <time>2022-09-06T05:02:06Z</time>
      </trkpt>
      <trkpt lat="46.64602" lon="5.71106">
        <ele>589</ele>
        <time>2022-09-06T05:02:07Z</time>
      </trkpt>
      <trkpt lat="46.64609" lon="5.71109">
        <ele>589</ele>
        <time>2022-09-06T05:02:08Z</time>
      </trkpt>
      <trkpt lat="46.64616" lon="5.71112">
        <ele>588.8</ele>
        <time>2022-09-06T05:02:09Z</time>
      </trkpt>
      <trkpt lat="46.64622" lon="5.71115">
        <ele>588.8</ele>
        <time>2022-09-06T05:02:10Z</time>
      </trkpt>
      <trkpt lat="46.64629" lon="5.71118">
        <ele>588.4</ele>
        <time>2022-09-06T05:02:11Z</time>
      </trkpt>
      <trkpt lat="46.64636" lon="5.71121">
        <ele>588.4</ele>
        <time>2022-09-06T05:02:12Z</time>
      </trkpt>
      <trkpt lat="46.64642" lon="5.71123">
        <ele>588.2</ele>
        <time>2022-09-06T05:02:13Z</time>
      </trkpt>
      <trkpt lat="46.64656" lon="5.71129">
        <ele>588.2</ele>
        <time>2022-09-06T05:02:14Z</time>
      </trkpt>
      <trkpt lat="46.64663" lon="5.71132">
        <ele>588</ele>
        <time>2022-09-06T05:02:15Z</time>
      </trkpt>
      <trkpt lat="46.6467" lon="5.71135">
        <ele>588</ele>
        <time>2022-09-06T05:02:16Z</time>
      </trkpt>
      <trkpt lat="46.64676" lon="5.71138">
        <ele>587.6</ele>
        <time>2022-09-06T05:02:17Z</time>
      </trkpt>
      <trkpt lat="46.64683" lon="5.71141">
        <ele>587.6</ele>
        <time>2022-09-06T05:02:18Z</time>
      </trkpt>
      <trkpt lat="46.64689" lon="5.71144">
        <ele>587.2</ele>
        <time>2022-09-06T05:02:19Z</time>
      </trkpt>
      <trkpt lat="46.64696" lon="5.71147">
        <ele>587.2</ele>
        <time>2022-09-06T05:02:20Z</time>
      </trkpt>
      <trkpt lat="46.64702" lon="5.7115">
        <ele>587</ele>
        <time>2022-09-06T05:02:21Z</time>
      </trkpt>
      <trkpt lat="46.64709" lon="5.71153">
        <ele>587</ele>
        <time>2022-09-06T05:02:22Z</time>
      </trkpt>
      <trkpt lat="46.64715" lon="5.71156">
        <ele>587</ele>
        <time>2022-09-06T05:02:23Z</time>
      </trkpt>
      <trkpt lat="46.64721" lon="5.71158">
        <ele>587</ele>
        <time>2022-09-06T05:02:24Z</time>
      </trkpt>
      <trkpt lat="46.64727" lon="5.71161">
        <ele>586.8</ele>
        <time>2022-09-06T05:02:25Z</time>
      </trkpt>
      <trkpt lat="46.64734" lon="5.71163">
        <ele>586.8</ele>
        <time>2022-09-06T05:02:26Z</time>
      </trkpt>
      <trkpt lat="46.6474" lon="5.71166">
        <ele>586.8</ele>
        <time>2022-09-06T05:02:27Z</time>
      </trkpt>
      <trkpt lat="46.64746" lon="5.71169">
        <ele>586.4</ele>
        <time>2022-09-06T05:02:28Z</time>
      </trkpt>
      <trkpt lat="46.64752" lon="5.71172">
        <ele>586.2</ele>
        <time>2022-09-06T05:02:29Z</time>
      </trkpt>
      <trkpt lat="46.64759" lon="5.71175">
        <ele>586.2</ele>
        <time>2022-09-06T05:02:30Z</time>
      </trkpt>
      <trkpt lat="46.64765" lon="5.71179">
        <ele>586</ele>
        <time>2022-09-06T05:02:31Z</time>
      </trkpt>
      <trkpt lat="46.64772" lon="5.71183">
        <ele>585.8</ele>
        <time>2022-09-06T05:02:32Z</time>
      </trkpt>
      <trkpt lat="46.64779" lon="5.71188">
        <ele>585.4</ele>
        <time>2022-09-06T05:02:33Z</time>
      </trkpt>
      <trkpt lat="46.64785" lon="5.71194">
        <ele>585</ele>
        <time>2022-09-06T05:02:34Z</time>
      </trkpt>
      <trkpt lat="46.64792" lon="5.71201">
        <ele>584.8</ele>
        <time>2022-09-06T05:02:35Z</time>
      </trkpt>
      <trkpt lat="46.64798" lon="5.71208">
        <ele>584.4</ele>
        <time>2022-09-06T05:02:36Z</time>
      </trkpt>
      <trkpt lat="46.64804" lon="5.71216">
        <ele>584</ele>
        <time>2022-09-06T05:02:37Z</time>
      </trkpt>
      <trkpt lat="46.64811" lon="5.71224">
        <ele>583.6</ele>
        <time>2022-09-06T05:02:38Z</time>
      </trkpt>
      <trkpt lat="46.64817" lon="5.71233">
        <ele>583.2</ele>
        <time>2022-09-06T05:02:39Z</time>
      </trkpt>
      <trkpt lat="46.64823" lon="5.71242">
        <ele>582.8</ele>
        <time>2022-09-06T05:02:40Z</time>
      </trkpt>
      <trkpt lat="46.6483" lon="5.71251">
        <ele>582.4</ele>
        <time>2022-09-06T05:02:41Z</time>
      </trkpt>
      <trkpt lat="46.64837" lon="5.71261">
        <ele>582</ele>
        <time>2022-09-06T05:02:42Z</time>
      </trkpt>
      <trkpt lat="46.64844" lon="5.71271">
        <ele>581.6</ele>
        <time>2022-09-06T05:02:43Z</time>
      </trkpt>
      <trkpt lat="46.64852" lon="5.7128">
        <ele>581</ele>
        <time>2022-09-06T05:02:44Z</time>
      </trkpt>
      <trkpt lat="46.64859" lon="5.7129">
        <ele>580.6</ele>
        <time>2022-09-06T05:02:45Z</time>
      </trkpt>
      <trkpt lat="46.64866" lon="5.71301">
        <ele>580</ele>
        <time>2022-09-06T05:02:46Z</time>
      </trkpt>
      <trkpt lat="46.64873" lon="5.71311">
        <ele>579.6</ele>
        <time>2022-09-06T05:02:47Z</time>
      </trkpt>
      <trkpt lat="46.6488" lon="5.71322">
        <ele>579</ele>
        <time>2022-09-06T05:02:48Z</time>
      </trkpt>
      <trkpt lat="46.64888" lon="5.71333">
        <ele>578.4</ele>
        <time>2022-09-06T05:02:49Z</time>
      </trkpt>
      <trkpt lat="46.64896" lon="5.71343">
        <ele>577.8</ele>
        <time>2022-09-06T05:02:50Z</time>
      </trkpt>
      <trkpt lat="46.64904" lon="5.71353">
        <ele>577.4</ele>
        <time>2022-09-06T05:02:51Z</time>
      </trkpt>
      <trkpt lat="46.64911" lon="5.71364">
        <ele>577</ele>
        <time>2022-09-06T05:02:52Z</time>
      </trkpt>
      <trkpt lat="46.6492" lon="5.71375">
        <ele>576.4</ele>
        <time>2022-09-06T05:02:53Z</time>
      </trkpt>
      <trkpt lat="46.64928" lon="5.71386">
        <ele>576</ele>
        <time>2022-09-06T05:02:54Z</time>
      </trkpt>
      <trkpt lat="46.64936" lon="5.71396">
        <ele>575.6</ele>
        <time>2022-09-06T05:02:55Z</time>
      </trkpt>
      <trkpt lat="46.64944" lon="5.71407">
        <ele>575.2</ele>
        <time>2022-09-06T05:02:56Z</time>
      </trkpt>
      <trkpt lat="46.64952" lon="5.71417">
        <ele>574.8</ele>
        <time>2022-09-06T05:02:57Z</time>
      </trkpt>
      <trkpt lat="46.64961" lon="5.71429">
        <ele>574.6</ele>
        <time>2022-09-06T05:02:58Z</time>
      </trkpt>
      <trkpt lat="46.64968" lon="5.7144">
        <ele>574</ele>
        <time>2022-09-06T05:02:59Z</time>
      </trkpt>
      <trkpt lat="46.64976" lon="5.7145">
        <ele>573.6</ele>
        <time>2022-09-06T05:03:00Z</time>
      </trkpt>
      <trkpt lat="46.64984" lon="5.71461">
        <ele>573</ele>
        <time>2022-09-06T05:03:01Z</time>
      </trkpt>
      <trkpt lat="46.64992" lon="5.71472">
        <ele>572.6</ele>
        <time>2022-09-06T05:03:02Z</time>
      </trkpt>
      <trkpt lat="46.65" lon="5.71483">
        <ele>572.2</ele>
        <time>2022-09-06T05:03:03Z</time>
      </trkpt>
      <trkpt lat="46.65007" lon="5.71493">
        <ele>571.6</ele>
        <time>2022-09-06T05:03:04Z</time>
      </trkpt>
      <trkpt lat="46.65014" lon="5.71504">
        <ele>571.2</ele>
        <time>2022-09-06T05:03:05Z</time>
      </trkpt>
      <trkpt lat="46.65022" lon="5.71515">
        <ele>570.8</ele>
        <time>2022-09-06T05:03:06Z</time>
      </trkpt>
      <trkpt lat="46.6503" lon="5.71525">
        <ele>570.4</ele>
        <time>2022-09-06T05:03:07Z</time>
      </trkpt>
      <trkpt lat="46.65038" lon="5.71535">
        <ele>570</ele>
        <time>2022-09-06T05:03:08Z</time>
      </trkpt>
      <trkpt lat="46.65045" lon="5.71545">
        <ele>569.6</ele>
        <time>2022-09-06T05:03:09Z</time>
      </trkpt>
      <trkpt lat="46.65052" lon="5.71556">
        <ele>569.2</ele>
        <time>2022-09-06T05:03:10Z</time>
      </trkpt>
      <trkpt lat="46.65059" lon="5.71567">
        <ele>568.8</ele>
        <time>2022-09-06T05:03:11Z</time>
      </trkpt>
      <trkpt lat="46.65065" lon="5.71578">
        <ele>568.4</ele>
        <time>2022-09-06T05:03:12Z</time>
      </trkpt>
      <trkpt lat="46.6507" lon="5.7159">
        <ele>568</ele>
        <time>2022-09-06T05:03:13Z</time>
      </trkpt>
      <trkpt lat="46.65076" lon="5.71602">
        <ele>567.6</ele>
        <time>2022-09-06T05:03:14Z</time>
      </trkpt>
      <trkpt lat="46.65082" lon="5.71614">
        <ele>567.2</ele>
        <time>2022-09-06T05:03:15Z</time>
      </trkpt>
      <trkpt lat="46.65088" lon="5.71626">
        <ele>566.6</ele>
        <time>2022-09-06T05:03:16Z</time>
      </trkpt>
      <trkpt lat="46.65092" lon="5.71638">
        <ele>566.4</ele>
        <time>2022-09-06T05:03:17Z</time>
      </trkpt>
      <trkpt lat="46.65097" lon="5.7165">
        <ele>566.2</ele>
        <time>2022-09-06T05:03:18Z</time>
      </trkpt>
      <trkpt lat="46.651" lon="5.71663">
        <ele>565.8</ele>
        <time>2022-09-06T05:03:19Z</time>
      </trkpt>
      <trkpt lat="46.65102" lon="5.71677">
        <ele>565.4</ele>
        <time>2022-09-06T05:03:20Z</time>
      </trkpt>
      <trkpt lat="46.65104" lon="5.71691">
        <ele>565</ele>
        <time>2022-09-06T05:03:21Z</time>
      </trkpt>
      <trkpt lat="46.65105" lon="5.71706">
        <ele>564.6</ele>
        <time>2022-09-06T05:03:22Z</time>
      </trkpt>
      <trkpt lat="46.65106" lon="5.71721">
        <ele>564.2</ele>
        <time>2022-09-06T05:03:23Z</time>
      </trkpt>
      <trkpt lat="46.65106" lon="5.71736">
        <ele>563.4</ele>
        <time>2022-09-06T05:03:24Z</time>
      </trkpt>
      <trkpt lat="46.65107" lon="5.71752">
        <ele>562.8</ele>
        <time>2022-09-06T05:03:25Z</time>
      </trkpt>
      <trkpt lat="46.65109" lon="5.71767">
        <ele>562</ele>
        <time>2022-09-06T05:03:26Z</time>
      </trkpt>
      <trkpt lat="46.65111" lon="5.71784">
        <ele>561.2</ele>
        <time>2022-09-06T05:03:27Z</time>
      </trkpt>
      <trkpt lat="46.65114" lon="5.71802">
        <ele>560.2</ele>
        <time>2022-09-06T05:03:28Z</time>
      </trkpt>
      <trkpt lat="46.65118" lon="5.71819">
        <ele>559.4</ele>
        <time>2022-09-06T05:03:29Z</time>
      </trkpt>
      <trkpt lat="46.65122" lon="5.71835">
        <ele>558.6</ele>
        <time>2022-09-06T05:03:30Z</time>
      </trkpt>
      <trkpt lat="46.65128" lon="5.71851">
        <ele>557.8</ele>
        <time>2022-09-06T05:03:31Z</time>
      </trkpt>
      <trkpt lat="46.65134" lon="5.71865">
        <ele>557.2</ele>
        <time>2022-09-06T05:03:32Z</time>
      </trkpt>
      <trkpt lat="46.65141" lon="5.71879">
        <ele>556.6</ele>
        <time>2022-09-06T05:03:33Z</time>
      </trkpt>
      <trkpt lat="46.65149" lon="5.71891">
        <ele>556.2</ele>
        <time>2022-09-06T05:03:34Z</time>
      </trkpt>
      <trkpt lat="46.65156" lon="5.71904">
        <ele>555.8</ele>
        <time>2022-09-06T05:03:35Z</time>
      </trkpt>
      <trkpt lat="46.65164" lon="5.71915">
        <ele>555.6</ele>
        <time>2022-09-06T05:03:36Z</time>
      </trkpt>
      <trkpt lat="46.6517" lon="5.71927">
        <ele>555.4</ele>
        <time>2022-09-06T05:03:37Z</time>
      </trkpt>
      <trkpt lat="46.65176" lon="5.7194">
        <ele>555</ele>
        <time>2022-09-06T05:03:38Z</time>
      </trkpt>
      <trkpt lat="46.6518" lon="5.71953">
        <ele>554.8</ele>
        <time>2022-09-06T05:03:39Z</time>
      </trkpt>
      <trkpt lat="46.65183" lon="5.71967">
        <ele>554.8</ele>
        <time>2022-09-06T05:03:40Z</time>
      </trkpt>
      <trkpt lat="46.65186" lon="5.71981">
        <ele>554.8</ele>
        <time>2022-09-06T05:03:41Z</time>
      </trkpt>
      <trkpt lat="46.6519" lon="5.71994">
        <ele>554.8</ele>
        <time>2022-09-06T05:03:42Z</time>
      </trkpt>
      <trkpt lat="46.65194" lon="5.72007">
        <ele>554.8</ele>
        <time>2022-09-06T05:03:43Z</time>
      </trkpt>
      <trkpt lat="46.65199" lon="5.72019">
        <ele>554.8</ele>
        <time>2022-09-06T05:03:44Z</time>
      </trkpt>
      <trkpt lat="46.65204" lon="5.72031">
        <ele>554.8</ele>
        <time>2022-09-06T05:03:45Z</time>
      </trkpt>
      <trkpt lat="46.65209" lon="5.72041">
        <ele>554.8</ele>
        <time>2022-09-06T05:03:46Z</time>
      </trkpt>
      <trkpt lat="46.65213" lon="5.72049">
        <ele>555.2</ele>
        <time>2022-09-06T05:03:47Z</time>
      </trkpt>
      <trkpt lat="46.65218" lon="5.72058">
        <ele>555.4</ele>
        <time>2022-09-06T05:03:48Z</time>
      </trkpt>
      <trkpt lat="46.65222" lon="5.72066">
        <ele>555.8</ele>
        <time>2022-09-06T05:03:49Z</time>
      </trkpt>
      <trkpt lat="46.65226" lon="5.72073">
        <ele>556</ele>
        <time>2022-09-06T05:03:50Z</time>
      </trkpt>
      <trkpt lat="46.65231" lon="5.7208">
        <ele>556.6</ele>
        <time>2022-09-06T05:03:51Z</time>
      </trkpt>
      <trkpt lat="46.65235" lon="5.72087">
        <ele>557</ele>
        <time>2022-09-06T05:03:52Z</time>
      </trkpt>
      <trkpt lat="46.6524" lon="5.72094">
        <ele>557.4</ele>
        <time>2022-09-06T05:03:53Z</time>
      </trkpt>
      <trkpt lat="46.65244" lon="5.721">
        <ele>557.6</ele>
        <time>2022-09-06T05:03:54Z</time>
      </trkpt>
      <trkpt lat="46.65248" lon="5.72106">
        <ele>557.6</ele>
        <time>2022-09-06T05:03:55Z</time>
      </trkpt>
      <trkpt lat="46.65253" lon="5.72112">
        <ele>558</ele>
        <time>2022-09-06T05:03:56Z</time>
      </trkpt>
      <trkpt lat="46.65258" lon="5.72118">
        <ele>558</ele>
        <time>2022-09-06T05:03:57Z</time>
      </trkpt>
      <trkpt lat="46.65264" lon="5.72124">
        <ele>558</ele>
        <time>2022-09-06T05:03:58Z</time>
      </trkpt>
      <trkpt lat="46.6527" lon="5.72129">
        <ele>558</ele>
        <time>2022-09-06T05:03:59Z</time>
      </trkpt>
      <trkpt lat="46.65275" lon="5.72135">
        <ele>558</ele>
        <time>2022-09-06T05:04:00Z</time>
      </trkpt>
      <trkpt lat="46.65281" lon="5.72141">
        <ele>558</ele>
        <time>2022-09-06T05:04:01Z</time>
      </trkpt>
      <trkpt lat="46.65287" lon="5.72147">
        <ele>557.8</ele>
        <time>2022-09-06T05:04:02Z</time>
      </trkpt>
      <trkpt lat="46.65293" lon="5.72153">
        <ele>557.8</ele>
        <time>2022-09-06T05:04:03Z</time>
      </trkpt>
      <trkpt lat="46.65299" lon="5.72159">
        <ele>557.6</ele>
        <time>2022-09-06T05:04:04Z</time>
      </trkpt>
      <trkpt lat="46.65305" lon="5.72166">
        <ele>557.6</ele>
        <time>2022-09-06T05:04:05Z</time>
      </trkpt>
      <trkpt lat="46.65311" lon="5.72172">
        <ele>557.2</ele>
        <time>2022-09-06T05:04:06Z</time>
      </trkpt>
      <trkpt lat="46.65317" lon="5.72179">
        <ele>557.2</ele>
        <time>2022-09-06T05:04:07Z</time>
      </trkpt>
      <trkpt lat="46.65323" lon="5.72185">
        <ele>557.2</ele>
        <time>2022-09-06T05:04:08Z</time>
      </trkpt>
      <trkpt lat="46.65328" lon="5.72192">
        <ele>557</ele>
        <time>2022-09-06T05:04:09Z</time>
      </trkpt>
      <trkpt lat="46.65334" lon="5.72198">
        <ele>557</ele>
        <time>2022-09-06T05:04:10Z</time>
      </trkpt>
      <trkpt lat="46.6534" lon="5.72205">
        <ele>557</ele>
        <time>2022-09-06T05:04:11Z</time>
      </trkpt>
      <trkpt lat="46.65346" lon="5.72211">
        <ele>556.8</ele>
        <time>2022-09-06T05:04:12Z</time>
      </trkpt>
      <trkpt lat="46.65351" lon="5.72217">
        <ele>556.8</ele>
        <time>2022-09-06T05:04:13Z</time>
      </trkpt>
      <trkpt lat="46.65357" lon="5.72223">
        <ele>556.8</ele>
        <time>2022-09-06T05:04:14Z</time>
      </trkpt>
      <trkpt lat="46.65363" lon="5.72228">
        <ele>556.8</ele>
        <time>2022-09-06T05:04:15Z</time>
      </trkpt>
      <trkpt lat="46.65369" lon="5.72234">
        <ele>556.8</ele>
        <time>2022-09-06T05:04:16Z</time>
      </trkpt>
      <trkpt lat="46.65374" lon="5.7224">
        <ele>556.8</ele>
        <time>2022-09-06T05:04:17Z</time>
      </trkpt>
      <trkpt lat="46.6538" lon="5.72246">
        <ele>556.8</ele>
        <time>2022-09-06T05:04:18Z</time>
      </trkpt>
      <trkpt lat="46.65386" lon="5.72252">
        <ele>556.8</ele>
        <time>2022-09-06T05:04:19Z</time>
      </trkpt>
      <trkpt lat="46.65392" lon="5.72258">
        <ele>556.6</ele>
        <time>2022-09-06T05:04:20Z</time>
      </trkpt>
      <trkpt lat="46.65398" lon="5.72263">
        <ele>556.6</ele>
        <time>2022-09-06T05:04:21Z</time>
      </trkpt>
      <trkpt lat="46.65404" lon="5.72269">
        <ele>556.6</ele>
        <time>2022-09-06T05:04:22Z</time>
      </trkpt>
      <trkpt lat="46.6541" lon="5.72274">
        <ele>556.2</ele>
        <time>2022-09-06T05:04:23Z</time>
      </trkpt>
      <trkpt lat="46.65416" lon="5.7228">
        <ele>556.2</ele>
        <time>2022-09-06T05:04:24Z</time>
      </trkpt>
      <trkpt lat="46.65423" lon="5.72285">
        <ele>556.2</ele>
        <time>2022-09-06T05:04:25Z</time>
      </trkpt>
      <trkpt lat="46.65429" lon="5.7229">
        <ele>556.2</ele>
        <time>2022-09-06T05:04:26Z</time>
      </trkpt>
      <trkpt lat="46.65435" lon="5.72296">
        <ele>556.2</ele>
        <time>2022-09-06T05:04:27Z</time>
      </trkpt>
      <trkpt lat="46.6544" lon="5.72301">
        <ele>556.2</ele>
        <time>2022-09-06T05:04:28Z</time>
      </trkpt>
      <trkpt lat="46.65446" lon="5.72307">
        <ele>556.2</ele>
        <time>2022-09-06T05:04:29Z</time>
      </trkpt>
      <trkpt lat="46.65452" lon="5.72312">
        <ele>556.2</ele>
        <time>2022-09-06T05:04:30Z</time>
      </trkpt>
      <trkpt lat="46.65457" lon="5.72317">
        <ele>556.2</ele>
        <time>2022-09-06T05:04:31Z</time>
      </trkpt>
      <trkpt lat="46.65463" lon="5.72322">
        <ele>556.2</ele>
        <time>2022-09-06T05:04:32Z</time>
      </trkpt>
      <trkpt lat="46.65469" lon="5.72328">
        <ele>556.2</ele>
        <time>2022-09-06T05:04:33Z</time>
      </trkpt>
      <trkpt lat="46.65474" lon="5.72334">
        <ele>556.2</ele>
        <time>2022-09-06T05:04:34Z</time>
      </trkpt>
      <trkpt lat="46.6548" lon="5.7234">
        <ele>556.2</ele>
        <time>2022-09-06T05:04:35Z</time>
      </trkpt>
      <trkpt lat="46.65485" lon="5.72345">
        <ele>556.2</ele>
        <time>2022-09-06T05:04:36Z</time>
      </trkpt>
      <trkpt lat="46.6549" lon="5.7235">
        <ele>556.2</ele>
        <time>2022-09-06T05:04:37Z</time>
      </trkpt>
      <trkpt lat="46.65495" lon="5.72356">
        <ele>556.2</ele>
        <time>2022-09-06T05:04:38Z</time>
      </trkpt>
      <trkpt lat="46.655" lon="5.72361">
        <ele>556.6</ele>
        <time>2022-09-06T05:04:39Z</time>
      </trkpt>
      <trkpt lat="46.65504" lon="5.72366">
        <ele>556.6</ele>
        <time>2022-09-06T05:04:40Z</time>
      </trkpt>
      <trkpt lat="46.65509" lon="5.7237">
        <ele>556.8</ele>
        <time>2022-09-06T05:04:41Z</time>
      </trkpt>
      <trkpt lat="46.65513" lon="5.72375">
        <ele>556.8</ele>
        <time>2022-09-06T05:04:42Z</time>
      </trkpt>
      <trkpt lat="46.65517" lon="5.72378">
        <ele>557.2</ele>
        <time>2022-09-06T05:04:43Z</time>
      </trkpt>
      <trkpt lat="46.65521" lon="5.72382">
        <ele>557.4</ele>
        <time>2022-09-06T05:04:44Z</time>
      </trkpt>
      <trkpt lat="46.65525" lon="5.72386">
        <ele>557.6</ele>
        <time>2022-09-06T05:04:45Z</time>
      </trkpt>
      <trkpt lat="46.65529" lon="5.72389">
        <ele>558</ele>
        <time>2022-09-06T05:04:46Z</time>
      </trkpt>
      <trkpt lat="46.65533" lon="5.72393">
        <ele>558</ele>
        <time>2022-09-06T05:04:47Z</time>
      </trkpt>
      <trkpt lat="46.65536" lon="5.72396">
        <ele>558.4</ele>
        <time>2022-09-06T05:04:48Z</time>
      </trkpt>
      <trkpt lat="46.6554" lon="5.72399">
        <ele>558.6</ele>
        <time>2022-09-06T05:04:49Z</time>
      </trkpt>
      <trkpt lat="46.65544" lon="5.72402">
        <ele>558.8</ele>
        <time>2022-09-06T05:04:50Z</time>
      </trkpt>
      <trkpt lat="46.65548" lon="5.72405">
        <ele>559</ele>
        <time>2022-09-06T05:04:51Z</time>
      </trkpt>
      <trkpt lat="46.65551" lon="5.72408">
        <ele>559.4</ele>
        <time>2022-09-06T05:04:52Z</time>
      </trkpt>
      <trkpt lat="46.65555" lon="5.72411">
        <ele>559.6</ele>
        <time>2022-09-06T05:04:53Z</time>
      </trkpt>
      <trkpt lat="46.65559" lon="5.72413">
        <ele>559.8</ele>
        <time>2022-09-06T05:04:54Z</time>
      </trkpt>
      <trkpt lat="46.65562" lon="5.72416">
        <ele>560</ele>
        <time>2022-09-06T05:04:55Z</time>
      </trkpt>
      <trkpt lat="46.65566" lon="5.72418">
        <ele>560</ele>
        <time>2022-09-06T05:04:56Z</time>
      </trkpt>
      <trkpt lat="46.65569" lon="5.7242">
        <ele>560.4</ele>
        <time>2022-09-06T05:04:57Z</time>
      </trkpt>
      <trkpt lat="46.65573" lon="5.72423">
        <ele>560.4</ele>
        <time>2022-09-06T05:04:58Z</time>
      </trkpt>
      <trkpt lat="46.65576" lon="5.72426">
        <ele>560.8</ele>
        <time>2022-09-06T05:04:59Z</time>
      </trkpt>
      <trkpt lat="46.6558" lon="5.72428">
        <ele>561</ele>
        <time>2022-09-06T05:05:00Z</time>
      </trkpt>
      <trkpt lat="46.65583" lon="5.7243">
        <ele>561.2</ele>
        <time>2022-09-06T05:05:01Z</time>
      </trkpt>
      <trkpt lat="46.65586" lon="5.72433">
        <ele>561.4</ele>
        <time>2022-09-06T05:05:02Z</time>
      </trkpt>
      <trkpt lat="46.6559" lon="5.72436">
        <ele>561.4</ele>
        <time>2022-09-06T05:05:03Z</time>
      </trkpt>
      <trkpt lat="46.65593" lon="5.7244">
        <ele>561.8</ele>
        <time>2022-09-06T05:05:04Z</time>
      </trkpt>
      <trkpt lat="46.65596" lon="5.72444">
        <ele>561.8</ele>
        <time>2022-09-06T05:05:05Z</time>
      </trkpt>
      <trkpt lat="46.656" lon="5.72447">
        <ele>562.2</ele>
        <time>2022-09-06T05:05:06Z</time>
      </trkpt>
      <trkpt lat="46.65603" lon="5.7245">
        <ele>562.4</ele>
        <time>2022-09-06T05:05:07Z</time>
      </trkpt>
      <trkpt lat="46.65607" lon="5.72453">
        <ele>562.6</ele>
        <time>2022-09-06T05:05:08Z</time>
      </trkpt>
      <trkpt lat="46.6561" lon="5.72457">
        <ele>562.6</ele>
        <time>2022-09-06T05:05:09Z</time>
      </trkpt>
      <trkpt lat="46.65613" lon="5.72461">
        <ele>563</ele>
        <time>2022-09-06T05:05:10Z</time>
      </trkpt>
      <trkpt lat="46.65617" lon="5.72465">
        <ele>563</ele>
        <time>2022-09-06T05:05:11Z</time>
      </trkpt>
      <trkpt lat="46.65621" lon="5.72469">
        <ele>563</ele>
        <time>2022-09-06T05:05:12Z</time>
      </trkpt>
      <trkpt lat="46.65625" lon="5.72473">
        <ele>563.2</ele>
        <time>2022-09-06T05:05:13Z</time>
      </trkpt>
      <trkpt lat="46.65628" lon="5.72477">
        <ele>563.2</ele>
        <time>2022-09-06T05:05:14Z</time>
      </trkpt>
      <trkpt lat="46.65631" lon="5.72481">
        <ele>563.2</ele>
        <time>2022-09-06T05:05:15Z</time>
      </trkpt>
      <trkpt lat="46.65635" lon="5.72486">
        <ele>563.6</ele>
        <time>2022-09-06T05:05:16Z</time>
      </trkpt>
      <trkpt lat="46.65638" lon="5.7249">
        <ele>563.6</ele>
        <time>2022-09-06T05:05:17Z</time>
      </trkpt>
      <trkpt lat="46.65641" lon="5.72495">
        <ele>564</ele>
        <time>2022-09-06T05:05:18Z</time>
      </trkpt>
      <trkpt lat="46.65644" lon="5.72499">
        <ele>564</ele>
        <time>2022-09-06T05:05:19Z</time>
      </trkpt>
      <trkpt lat="46.65647" lon="5.72503">
        <ele>564.2</ele>
        <time>2022-09-06T05:05:20Z</time>
      </trkpt>
      <trkpt lat="46.6565" lon="5.72507">
        <ele>564.2</ele>
        <time>2022-09-06T05:05:21Z</time>
      </trkpt>
      <trkpt lat="46.65653" lon="5.72511">
        <ele>564.4</ele>
        <time>2022-09-06T05:05:22Z</time>
      </trkpt>
      <trkpt lat="46.65656" lon="5.72515">
        <ele>564.4</ele>
        <time>2022-09-06T05:05:23Z</time>
      </trkpt>
      <trkpt lat="46.65659" lon="5.72519">
        <ele>564.8</ele>
        <time>2022-09-06T05:05:24Z</time>
      </trkpt>
      <trkpt lat="46.65662" lon="5.72524">
        <ele>564.8</ele>
        <time>2022-09-06T05:05:25Z</time>
      </trkpt>
      <trkpt lat="46.65665" lon="5.72528">
        <ele>565</ele>
        <time>2022-09-06T05:05:26Z</time>
      </trkpt>
      <trkpt lat="46.65668" lon="5.72533">
        <ele>565</ele>
        <time>2022-09-06T05:05:27Z</time>
      </trkpt>
      <trkpt lat="46.65671" lon="5.72537">
        <ele>565</ele>
        <time>2022-09-06T05:05:28Z</time>
      </trkpt>
      <trkpt lat="46.65673" lon="5.72542">
        <ele>565.2</ele>
        <time>2022-09-06T05:05:29Z</time>
      </trkpt>
      <trkpt lat="46.65676" lon="5.72547">
        <ele>565.2</ele>
        <time>2022-09-06T05:05:30Z</time>
      </trkpt>
      <trkpt lat="46.65679" lon="5.72552">
        <ele>565.6</ele>
        <time>2022-09-06T05:05:31Z</time>
      </trkpt>
      <trkpt lat="46.65682" lon="5.72559">
        <ele>565.6</ele>
        <time>2022-09-06T05:05:32Z</time>
      </trkpt>
      <trkpt lat="46.65684" lon="5.72561">
        <ele>565.6</ele>
        <time>2022-09-06T05:05:33Z</time>
      </trkpt>
      <trkpt lat="46.65686" lon="5.72566">
        <ele>565.8</ele>
        <time>2022-09-06T05:05:34Z</time>
      </trkpt>
      <trkpt lat="46.65688" lon="5.72571">
        <ele>565.8</ele>
        <time>2022-09-06T05:05:35Z</time>
      </trkpt>
      <trkpt lat="46.6569" lon="5.72576">
        <ele>566.2</ele>
        <time>2022-09-06T05:05:36Z</time>
      </trkpt>
      <trkpt lat="46.65692" lon="5.7258">
        <ele>566.2</ele>
        <time>2022-09-06T05:05:37Z</time>
      </trkpt>
      <trkpt lat="46.65693" lon="5.72585">
        <ele>566.2</ele>
        <time>2022-09-06T05:05:38Z</time>
      </trkpt>
      <trkpt lat="46.65695" lon="5.72589">
        <ele>566.6</ele>
        <time>2022-09-06T05:05:39Z</time>
      </trkpt>
      <trkpt lat="46.65696" lon="5.72593">
        <ele>566.6</ele>
        <time>2022-09-06T05:05:40Z</time>
      </trkpt>
      <trkpt lat="46.65698" lon="5.72598">
        <ele>566.8</ele>
        <time>2022-09-06T05:05:41Z</time>
      </trkpt>
      <trkpt lat="46.65699" lon="5.72603">
        <ele>566.8</ele>
        <time>2022-09-06T05:05:42Z</time>
      </trkpt>
      <trkpt lat="46.657" lon="5.72608">
        <ele>567.2</ele>
        <time>2022-09-06T05:05:43Z</time>
      </trkpt>
      <trkpt lat="46.65702" lon="5.72613">
        <ele>567.2</ele>
        <time>2022-09-06T05:05:44Z</time>
      </trkpt>
      <trkpt lat="46.65703" lon="5.72619">
        <ele>567.6</ele>
        <time>2022-09-06T05:05:45Z</time>
      </trkpt>
      <trkpt lat="46.65705" lon="5.72624">
        <ele>567.6</ele>
        <time>2022-09-06T05:05:46Z</time>
      </trkpt>
      <trkpt lat="46.65706" lon="5.72629">
        <ele>568</ele>
        <time>2022-09-06T05:05:47Z</time>
      </trkpt>
      <trkpt lat="46.65707" lon="5.72634">
        <ele>568</ele>
        <time>2022-09-06T05:05:48Z</time>
      </trkpt>
      <trkpt lat="46.65708" lon="5.72639">
        <ele>568.4</ele>
        <time>2022-09-06T05:05:49Z</time>
      </trkpt>
      <trkpt lat="46.6571" lon="5.72644">
        <ele>568.8</ele>
        <time>2022-09-06T05:05:50Z</time>
      </trkpt>
      <trkpt lat="46.65711" lon="5.72649">
        <ele>569</ele>
        <time>2022-09-06T05:05:51Z</time>
      </trkpt>
      <trkpt lat="46.65712" lon="5.72654">
        <ele>569.2</ele>
        <time>2022-09-06T05:05:52Z</time>
      </trkpt>
      <trkpt lat="46.65713" lon="5.72659">
        <ele>569.4</ele>
        <time>2022-09-06T05:05:53Z</time>
      </trkpt>
      <trkpt lat="46.65713" lon="5.72664">
        <ele>569.4</ele>
        <time>2022-09-06T05:05:54Z</time>
      </trkpt>
      <trkpt lat="46.65714" lon="5.72668">
        <ele>569.8</ele>
        <time>2022-09-06T05:05:55Z</time>
      </trkpt>
      <trkpt lat="46.65715" lon="5.72673">
        <ele>570.2</ele>
        <time>2022-09-06T05:05:56Z</time>
      </trkpt>
      <trkpt lat="46.65715" lon="5.72678">
        <ele>570.4</ele>
        <time>2022-09-06T05:05:57Z</time>
      </trkpt>
      <trkpt lat="46.65715" lon="5.72683">
        <ele>570.4</ele>
        <time>2022-09-06T05:05:58Z</time>
      </trkpt>
      <trkpt lat="46.65715" lon="5.72688">
        <ele>570.8</ele>
        <time>2022-09-06T05:05:59Z</time>
      </trkpt>
      <trkpt lat="46.65714" lon="5.72694">
        <ele>570.8</ele>
        <time>2022-09-06T05:06:00Z</time>
      </trkpt>
      <trkpt lat="46.65714" lon="5.72699">
        <ele>571.2</ele>
        <time>2022-09-06T05:06:01Z</time>
      </trkpt>
      <trkpt lat="46.65714" lon="5.72705">
        <ele>571.4</ele>
        <time>2022-09-06T05:06:02Z</time>
      </trkpt>
      <trkpt lat="46.65714" lon="5.7271">
        <ele>571.8</ele>
        <time>2022-09-06T05:06:03Z</time>
      </trkpt>
      <trkpt lat="46.65714" lon="5.72716">
        <ele>572</ele>
        <time>2022-09-06T05:06:04Z</time>
      </trkpt>
      <trkpt lat="46.65715" lon="5.72721">
        <ele>572.2</ele>
        <time>2022-09-06T05:06:05Z</time>
      </trkpt>
      <trkpt lat="46.65716" lon="5.72726">
        <ele>572.6</ele>
        <time>2022-09-06T05:06:06Z</time>
      </trkpt>
      <trkpt lat="46.65717" lon="5.72731">
        <ele>572.8</ele>
        <time>2022-09-06T05:06:07Z</time>
      </trkpt>
      <trkpt lat="46.65718" lon="5.72736">
        <ele>573</ele>
        <time>2022-09-06T05:06:08Z</time>
      </trkpt>
      <trkpt lat="46.65719" lon="5.7274">
        <ele>573</ele>
        <time>2022-09-06T05:06:09Z</time>
      </trkpt>
      <trkpt lat="46.6572" lon="5.72745">
        <ele>573.4</ele>
        <time>2022-09-06T05:06:10Z</time>
      </trkpt>
      <trkpt lat="46.65721" lon="5.72749">
        <ele>573.6</ele>
        <time>2022-09-06T05:06:11Z</time>
      </trkpt>
      <trkpt lat="46.65721" lon="5.72753">
        <ele>573.8</ele>
        <time>2022-09-06T05:06:12Z</time>
      </trkpt>
      <trkpt lat="46.65722" lon="5.72758">
        <ele>573.8</ele>
        <time>2022-09-06T05:06:13Z</time>
      </trkpt>
      <trkpt lat="46.65723" lon="5.72763">
        <ele>574.2</ele>
        <time>2022-09-06T05:06:14Z</time>
      </trkpt>
      <trkpt lat="46.65724" lon="5.72767">
        <ele>574.4</ele>
        <time>2022-09-06T05:06:15Z</time>
      </trkpt>
      <trkpt lat="46.65725" lon="5.72771">
        <ele>574.4</ele>
        <time>2022-09-06T05:06:16Z</time>
      </trkpt>
      <trkpt lat="46.65726" lon="5.72775">
        <ele>574.8</ele>
        <time>2022-09-06T05:06:17Z</time>
      </trkpt>
      <trkpt lat="46.65727" lon="5.7278">
        <ele>574.8</ele>
        <time>2022-09-06T05:06:18Z</time>
      </trkpt>
      <trkpt lat="46.65728" lon="5.72785">
        <ele>575.2</ele>
        <time>2022-09-06T05:06:19Z</time>
      </trkpt>
      <trkpt lat="46.65728" lon="5.7279">
        <ele>575.4</ele>
        <time>2022-09-06T05:06:20Z</time>
      </trkpt>
      <trkpt lat="46.65729" lon="5.72794">
        <ele>575.8</ele>
        <time>2022-09-06T05:06:21Z</time>
      </trkpt>
      <trkpt lat="46.65731" lon="5.72799">
        <ele>575.8</ele>
        <time>2022-09-06T05:06:22Z</time>
      </trkpt>
      <trkpt lat="46.65732" lon="5.72803">
        <ele>576.2</ele>
        <time>2022-09-06T05:06:23Z</time>
      </trkpt>
      <trkpt lat="46.65733" lon="5.72808">
        <ele>576.2</ele>
        <time>2022-09-06T05:06:24Z</time>
      </trkpt>
      <trkpt lat="46.65734" lon="5.72813">
        <ele>576.6</ele>
        <time>2022-09-06T05:06:25Z</time>
      </trkpt>
      <trkpt lat="46.65735" lon="5.72817">
        <ele>576.8</ele>
        <time>2022-09-06T05:06:26Z</time>
      </trkpt>
      <trkpt lat="46.65736" lon="5.72821">
        <ele>577</ele>
        <time>2022-09-06T05:06:27Z</time>
      </trkpt>
      <trkpt lat="46.65737" lon="5.72826">
        <ele>577</ele>
        <time>2022-09-06T05:06:28Z</time>
      </trkpt>
      <trkpt lat="46.65738" lon="5.7283">
        <ele>577.4</ele>
        <time>2022-09-06T05:06:29Z</time>
      </trkpt>
      <trkpt lat="46.65739" lon="5.72834">
        <ele>577.4</ele>
        <time>2022-09-06T05:06:30Z</time>
      </trkpt>
      <trkpt lat="46.6574" lon="5.72838">
        <ele>577.8</ele>
        <time>2022-09-06T05:06:31Z</time>
      </trkpt>
      <trkpt lat="46.65742" lon="5.72842">
        <ele>578</ele>
        <time>2022-09-06T05:06:32Z</time>
      </trkpt>
      <trkpt lat="46.65745" lon="5.72846">
        <ele>578.4</ele>
        <time>2022-09-06T05:06:33Z</time>
      </trkpt>
      <trkpt lat="46.65746" lon="5.72849">
        <ele>578.4</ele>
        <time>2022-09-06T05:06:34Z</time>
      </trkpt>
      <trkpt lat="46.65748" lon="5.72853">
        <ele>578.8</ele>
        <time>2022-09-06T05:06:35Z</time>
      </trkpt>
      <trkpt lat="46.6575" lon="5.72857">
        <ele>578.8</ele>
        <time>2022-09-06T05:06:36Z</time>
      </trkpt>
      <trkpt lat="46.65752" lon="5.7286">
        <ele>579.2</ele>
        <time>2022-09-06T05:06:37Z</time>
      </trkpt>
      <trkpt lat="46.65754" lon="5.72864">
        <ele>579.4</ele>
        <time>2022-09-06T05:06:38Z</time>
      </trkpt>
      <trkpt lat="46.65756" lon="5.72867">
        <ele>579.4</ele>
        <time>2022-09-06T05:06:39Z</time>
      </trkpt>
      <trkpt lat="46.65758" lon="5.72871">
        <ele>579.8</ele>
        <time>2022-09-06T05:06:40Z</time>
      </trkpt>
      <trkpt lat="46.6576" lon="5.72874">
        <ele>580</ele>
        <time>2022-09-06T05:06:41Z</time>
      </trkpt>
      <trkpt lat="46.65762" lon="5.72875">
        <ele>580</ele>
        <time>2022-09-06T05:06:42Z</time>
      </trkpt>
      <trkpt lat="46.65764" lon="5.72877">
        <ele>580.4</ele>
        <time>2022-09-06T05:06:43Z</time>
      </trkpt>
      <trkpt lat="46.65767" lon="5.72878">
        <ele>580.6</ele>
        <time>2022-09-06T05:06:44Z</time>
      </trkpt>
      <trkpt lat="46.65768" lon="5.72878">
        <ele>581.2</ele>
        <time>2022-09-06T05:06:45Z</time>
      </trkpt>
      <trkpt lat="46.6577" lon="5.72878">
        <ele>581.4</ele>
        <time>2022-09-06T05:06:46Z</time>
      </trkpt>
      <trkpt lat="46.65772" lon="5.72879">
        <ele>581.8</ele>
        <time>2022-09-06T05:06:47Z</time>
      </trkpt>
      <trkpt lat="46.65774" lon="5.72879">
        <ele>582</ele>
        <time>2022-09-06T05:06:48Z</time>
      </trkpt>
      <trkpt lat="46.65775" lon="5.7288">
        <ele>582</ele>
        <time>2022-09-06T05:06:49Z</time>
      </trkpt>
      <trkpt lat="46.65777" lon="5.72879">
        <ele>582.4</ele>
        <time>2022-09-06T05:06:50Z</time>
      </trkpt>
      <trkpt lat="46.65779" lon="5.72876">
        <ele>582.4</ele>
        <time>2022-09-06T05:06:51Z</time>
      </trkpt>
      <trkpt lat="46.65781" lon="5.72873">
        <ele>582.8</ele>
        <time>2022-09-06T05:06:52Z</time>
      </trkpt>
      <trkpt lat="46.65781" lon="5.72869">
        <ele>582.8</ele>
        <time>2022-09-06T05:06:53Z</time>
      </trkpt>
      <trkpt lat="46.65781" lon="5.72864">
        <ele>583</ele>
        <time>2022-09-06T05:06:54Z</time>
      </trkpt>
      <trkpt lat="46.6578" lon="5.7286">
        <ele>583.2</ele>
        <time>2022-09-06T05:06:55Z</time>
      </trkpt>
      <trkpt lat="46.6578" lon="5.72855">
        <ele>583.2</ele>
        <time>2022-09-06T05:06:56Z</time>
      </trkpt>
      <trkpt lat="46.6578" lon="5.7285">
        <ele>583.6</ele>
        <time>2022-09-06T05:06:57Z</time>
      </trkpt>
      <trkpt lat="46.65779" lon="5.72845">
        <ele>583.8</ele>
        <time>2022-09-06T05:06:58Z</time>
      </trkpt>
      <trkpt lat="46.65778" lon="5.7284">
        <ele>583.8</ele>
        <time>2022-09-06T05:06:59Z</time>
      </trkpt>
      <trkpt lat="46.65778" lon="5.72835">
        <ele>584</ele>
        <time>2022-09-06T05:07:00Z</time>
      </trkpt>
      <trkpt lat="46.65777" lon="5.7283">
        <ele>584</ele>
        <time>2022-09-06T05:07:01Z</time>
      </trkpt>
      <trkpt lat="46.65776" lon="5.72825">
        <ele>584.4</ele>
        <time>2022-09-06T05:07:02Z</time>
      </trkpt>
      <trkpt lat="46.65775" lon="5.7282">
        <ele>584.4</ele>
        <time>2022-09-06T05:07:03Z</time>
      </trkpt>
      <trkpt lat="46.65775" lon="5.72815">
        <ele>584.6</ele>
        <time>2022-09-06T05:07:04Z</time>
      </trkpt>
      <trkpt lat="46.65774" lon="5.7281">
        <ele>584.6</ele>
        <time>2022-09-06T05:07:05Z</time>
      </trkpt>
      <trkpt lat="46.65774" lon="5.72805">
        <ele>585</ele>
        <time>2022-09-06T05:07:06Z</time>
      </trkpt>
      <trkpt lat="46.65774" lon="5.72799">
        <ele>585</ele>
        <time>2022-09-06T05:07:07Z</time>
      </trkpt>
      <trkpt lat="46.65774" lon="5.72794">
        <ele>585.2</ele>
        <time>2022-09-06T05:07:08Z</time>
      </trkpt>
      <trkpt lat="46.65773" lon="5.72789">
        <ele>585.2</ele>
        <time>2022-09-06T05:07:09Z</time>
      </trkpt>
      <trkpt lat="46.65773" lon="5.72784">
        <ele>585.6</ele>
        <time>2022-09-06T05:07:10Z</time>
      </trkpt>
      <trkpt lat="46.65773" lon="5.72779">
        <ele>585.6</ele>
        <time>2022-09-06T05:07:12Z</time>
      </trkpt>
      <trkpt lat="46.65773" lon="5.72773">
        <ele>585.8</ele>
        <time>2022-09-06T05:07:13Z</time>
      </trkpt>
      <trkpt lat="46.65773" lon="5.72768">
        <ele>585.8</ele>
        <time>2022-09-06T05:07:14Z</time>
      </trkpt>
      <trkpt lat="46.65773" lon="5.72763">
        <ele>586</ele>
        <time>2022-09-06T05:07:15Z</time>
      </trkpt>
      <trkpt lat="46.65772" lon="5.72757">
        <ele>586</ele>
        <time>2022-09-06T05:07:16Z</time>
      </trkpt>
      <trkpt lat="46.65772" lon="5.72752">
        <ele>586.4</ele>
        <time>2022-09-06T05:07:17Z</time>
      </trkpt>
      <trkpt lat="46.65771" lon="5.72746">
        <ele>586.4</ele>
        <time>2022-09-06T05:07:18Z</time>
      </trkpt>
      <trkpt lat="46.65771" lon="5.7274">
        <ele>586.6</ele>
        <time>2022-09-06T05:07:19Z</time>
      </trkpt>
      <trkpt lat="46.65771" lon="5.72734">
        <ele>586.6</ele>
        <time>2022-09-06T05:07:20Z</time>
      </trkpt>
      <trkpt lat="46.65771" lon="5.72728">
        <ele>586.8</ele>
        <time>2022-09-06T05:07:21Z</time>
      </trkpt>
      <trkpt lat="46.65771" lon="5.72722">
        <ele>586.8</ele>
        <time>2022-09-06T05:07:22Z</time>
      </trkpt>
      <trkpt lat="46.65771" lon="5.72716">
        <ele>587.2</ele>
        <time>2022-09-06T05:07:23Z</time>
      </trkpt>
      <trkpt lat="46.6577" lon="5.7271">
        <ele>587.2</ele>
        <time>2022-09-06T05:07:24Z</time>
      </trkpt>
      <trkpt lat="46.6577" lon="5.72704">
        <ele>587.2</ele>
        <time>2022-09-06T05:07:25Z</time>
      </trkpt>
      <trkpt lat="46.65771" lon="5.72698">
        <ele>587.4</ele>
        <time>2022-09-06T05:07:26Z</time>
      </trkpt>
      <trkpt lat="46.65771" lon="5.72692">
        <ele>587.4</ele>
        <time>2022-09-06T05:07:27Z</time>
      </trkpt>
      <trkpt lat="46.65771" lon="5.72686">
        <ele>587.8</ele>
        <time>2022-09-06T05:07:28Z</time>
      </trkpt>
      <trkpt lat="46.65772" lon="5.7268">
        <ele>587.8</ele>
        <time>2022-09-06T05:07:29Z</time>
      </trkpt>
      <trkpt lat="46.65774" lon="5.72675">
        <ele>587.8</ele>
        <time>2022-09-06T05:07:30Z</time>
      </trkpt>
      <trkpt lat="46.65776" lon="5.72671">
        <ele>588.2</ele>
        <time>2022-09-06T05:07:31Z</time>
      </trkpt>
      <trkpt lat="46.65779" lon="5.72667">
        <ele>588.2</ele>
        <time>2022-09-06T05:07:32Z</time>
      </trkpt>
      <trkpt lat="46.65783" lon="5.72666">
        <ele>588.4</ele>
        <time>2022-09-06T05:07:33Z</time>
      </trkpt>
      <trkpt lat="46.65787" lon="5.72666">
        <ele>588.6</ele>
        <time>2022-09-06T05:07:34Z</time>
      </trkpt>
      <trkpt lat="46.6579" lon="5.72667">
        <ele>588.8</ele>
        <time>2022-09-06T05:07:35Z</time>
      </trkpt>
      <trkpt lat="46.65794" lon="5.7267">
        <ele>588.8</ele>
        <time>2022-09-06T05:07:36Z</time>
      </trkpt>
      <trkpt lat="46.65797" lon="5.72674">
        <ele>589.2</ele>
        <time>2022-09-06T05:07:37Z</time>
      </trkpt>
      <trkpt lat="46.65799" lon="5.72678">
        <ele>589.4</ele>
        <time>2022-09-06T05:07:38Z</time>
      </trkpt>
      <trkpt lat="46.658" lon="5.72683">
        <ele>589.6</ele>
        <time>2022-09-06T05:07:39Z</time>
      </trkpt>
      <trkpt lat="46.65802" lon="5.72688">
        <ele>589.6</ele>
        <time>2022-09-06T05:07:40Z</time>
      </trkpt>
      <trkpt lat="46.65802" lon="5.72693">
        <ele>590</ele>
        <time>2022-09-06T05:07:41Z</time>
      </trkpt>
      <trkpt lat="46.65803" lon="5.72698">
        <ele>590.2</ele>
        <time>2022-09-06T05:07:42Z</time>
      </trkpt>
      <trkpt lat="46.65804" lon="5.72703">
        <ele>590.4</ele>
        <time>2022-09-06T05:07:43Z</time>
      </trkpt>
      <trkpt lat="46.65804" lon="5.72708">
        <ele>590.6</ele>
        <time>2022-09-06T05:07:44Z</time>
      </trkpt>
      <trkpt lat="46.65805" lon="5.72713">
        <ele>591</ele>
        <time>2022-09-06T05:07:45Z</time>
      </trkpt>
      <trkpt lat="46.65805" lon="5.72718">
        <ele>591</ele>
        <time>2022-09-06T05:07:46Z</time>
      </trkpt>
      <trkpt lat="46.65806" lon="5.72723">
        <ele>591.2</ele>
        <time>2022-09-06T05:07:47Z</time>
      </trkpt>
      <trkpt lat="46.65806" lon="5.72728">
        <ele>591.2</ele>
        <time>2022-09-06T05:07:48Z</time>
      </trkpt>
      <trkpt lat="46.65807" lon="5.72732">
        <ele>591.6</ele>
        <time>2022-09-06T05:07:49Z</time>
      </trkpt>
      <trkpt lat="46.65808" lon="5.72737">
        <ele>591.8</ele>
        <time>2022-09-06T05:07:50Z</time>
      </trkpt>
      <trkpt lat="46.65809" lon="5.72742">
        <ele>591.8</ele>
        <time>2022-09-06T05:07:51Z</time>
      </trkpt>
      <trkpt lat="46.6581" lon="5.72746">
        <ele>592.2</ele>
        <time>2022-09-06T05:07:52Z</time>
      </trkpt>
      <trkpt lat="46.65811" lon="5.72751">
        <ele>592.2</ele>
        <time>2022-09-06T05:07:53Z</time>
      </trkpt>
      <trkpt lat="46.65813" lon="5.72755">
        <ele>592.6</ele>
        <time>2022-09-06T05:07:54Z</time>
      </trkpt>
      <trkpt lat="46.65815" lon="5.72759">
        <ele>592.6</ele>
        <time>2022-09-06T05:07:55Z</time>
      </trkpt>
      <trkpt lat="46.65817" lon="5.72763">
        <ele>592.6</ele>
        <time>2022-09-06T05:07:56Z</time>
      </trkpt>
      <trkpt lat="46.65819" lon="5.72767">
        <ele>593</ele>
        <time>2022-09-06T05:07:57Z</time>
      </trkpt>
      <trkpt lat="46.65821" lon="5.72771">
        <ele>593</ele>
        <time>2022-09-06T05:07:58Z</time>
      </trkpt>
      <trkpt lat="46.65823" lon="5.72775">
        <ele>593.2</ele>
        <time>2022-09-06T05:07:59Z</time>
      </trkpt>
      <trkpt lat="46.65826" lon="5.72779">
        <ele>593.4</ele>
        <time>2022-09-06T05:08:00Z</time>
      </trkpt>
      <trkpt lat="46.65828" lon="5.72782">
        <ele>593.6</ele>
        <time>2022-09-06T05:08:01Z</time>
      </trkpt>
      <trkpt lat="46.65831" lon="5.72786">
        <ele>593.6</ele>
        <time>2022-09-06T05:08:02Z</time>
      </trkpt>
      <trkpt lat="46.65833" lon="5.7279">
        <ele>594</ele>
        <time>2022-09-06T05:08:03Z</time>
      </trkpt>
      <trkpt lat="46.65835" lon="5.72794">
        <ele>594</ele>
        <time>2022-09-06T05:08:04Z</time>
      </trkpt>
      <trkpt lat="46.65837" lon="5.72798">
        <ele>594.4</ele>
        <time>2022-09-06T05:08:05Z</time>
      </trkpt>
      <trkpt lat="46.65839" lon="5.72801">
        <ele>594.4</ele>
        <time>2022-09-06T05:08:06Z</time>
      </trkpt>
      <trkpt lat="46.65841" lon="5.72805">
        <ele>594.8</ele>
        <time>2022-09-06T05:08:07Z</time>
      </trkpt>
      <trkpt lat="46.65844" lon="5.72809">
        <ele>595</ele>
        <time>2022-09-06T05:08:08Z</time>
      </trkpt>
      <trkpt lat="46.65846" lon="5.72813">
        <ele>595.2</ele>
        <time>2022-09-06T05:08:09Z</time>
      </trkpt>
      <trkpt lat="46.65847" lon="5.72818">
        <ele>595.2</ele>
        <time>2022-09-06T05:08:10Z</time>
      </trkpt>
      <trkpt lat="46.65848" lon="5.72822">
        <ele>595.6</ele>
        <time>2022-09-06T05:08:11Z</time>
      </trkpt>
      <trkpt lat="46.6585" lon="5.72827">
        <ele>595.6</ele>
        <time>2022-09-06T05:08:12Z</time>
      </trkpt>
      <trkpt lat="46.65851" lon="5.72831">
        <ele>596</ele>
        <time>2022-09-06T05:08:13Z</time>
      </trkpt>
      <trkpt lat="46.65852" lon="5.72836">
        <ele>596</ele>
        <time>2022-09-06T05:08:14Z</time>
      </trkpt>
      <trkpt lat="46.65853" lon="5.72842">
        <ele>596.2</ele>
        <time>2022-09-06T05:08:15Z</time>
      </trkpt>
      <trkpt lat="46.65855" lon="5.72847">
        <ele>596.2</ele>
        <time>2022-09-06T05:08:16Z</time>
      </trkpt>
      <trkpt lat="46.65856" lon="5.72853">
        <ele>596.2</ele>
        <time>2022-09-06T05:08:17Z</time>
      </trkpt>
      <trkpt lat="46.65857" lon="5.72859">
        <ele>596.4</ele>
        <time>2022-09-06T05:08:18Z</time>
      </trkpt>
      <trkpt lat="46.65858" lon="5.72865">
        <ele>596.4</ele>
        <time>2022-09-06T05:08:19Z</time>
      </trkpt>
      <trkpt lat="46.65859" lon="5.72871">
        <ele>596.4</ele>
        <time>2022-09-06T05:08:20Z</time>
      </trkpt>
      <trkpt lat="46.65861" lon="5.72877">
        <ele>596.4</ele>
        <time>2022-09-06T05:08:21Z</time>
      </trkpt>
      <trkpt lat="46.65862" lon="5.72883">
        <ele>596.6</ele>
        <time>2022-09-06T05:08:22Z</time>
      </trkpt>
      <trkpt lat="46.65863" lon="5.7289">
        <ele>596.6</ele>
        <time>2022-09-06T05:08:23Z</time>
      </trkpt>
      <trkpt lat="46.65865" lon="5.72896">
        <ele>596.6</ele>
        <time>2022-09-06T05:08:24Z</time>
      </trkpt>
      <trkpt lat="46.65867" lon="5.72903">
        <ele>596.6</ele>
        <time>2022-09-06T05:08:25Z</time>
      </trkpt>
      <trkpt lat="46.65868" lon="5.72909">
        <ele>596.8</ele>
        <time>2022-09-06T05:08:26Z</time>
      </trkpt>
      <trkpt lat="46.65871" lon="5.72922">
        <ele>596.8</ele>
        <time>2022-09-06T05:08:27Z</time>
      </trkpt>
      <trkpt lat="46.65872" lon="5.72929">
        <ele>596.8</ele>
        <time>2022-09-06T05:08:28Z</time>
      </trkpt>
      <trkpt lat="46.65874" lon="5.72936">
        <ele>596.8</ele>
        <time>2022-09-06T05:08:29Z</time>
      </trkpt>
      <trkpt lat="46.65876" lon="5.72942">
        <ele>596.8</ele>
        <time>2022-09-06T05:08:30Z</time>
      </trkpt>
      <trkpt lat="46.65877" lon="5.72949">
        <ele>597</ele>
        <time>2022-09-06T05:08:31Z</time>
      </trkpt>
      <trkpt lat="46.65879" lon="5.72956">
        <ele>597</ele>
        <time>2022-09-06T05:08:32Z</time>
      </trkpt>
      <trkpt lat="46.6588" lon="5.72962">
        <ele>597</ele>
        <time>2022-09-06T05:08:33Z</time>
      </trkpt>
      <trkpt lat="46.65882" lon="5.72969">
        <ele>597</ele>
        <time>2022-09-06T05:08:34Z</time>
      </trkpt>
      <trkpt lat="46.65884" lon="5.72975">
        <ele>597.4</ele>
        <time>2022-09-06T05:08:35Z</time>
      </trkpt>
      <trkpt lat="46.65886" lon="5.72981">
        <ele>597.4</ele>
        <time>2022-09-06T05:08:36Z</time>
      </trkpt>
      <trkpt lat="46.65888" lon="5.72987">
        <ele>597.6</ele>
        <time>2022-09-06T05:08:37Z</time>
      </trkpt>
      <trkpt lat="46.6589" lon="5.72993">
        <ele>597.6</ele>
        <time>2022-09-06T05:08:38Z</time>
      </trkpt>
      <trkpt lat="46.65893" lon="5.72999">
        <ele>597.6</ele>
        <time>2022-09-06T05:08:39Z</time>
      </trkpt>
      <trkpt lat="46.65895" lon="5.73006">
        <ele>597.6</ele>
        <time>2022-09-06T05:08:40Z</time>
      </trkpt>
      <trkpt lat="46.65897" lon="5.73012">
        <ele>597.6</ele>
        <time>2022-09-06T05:08:41Z</time>
      </trkpt>
      <trkpt lat="46.659" lon="5.73019">
        <ele>597.6</ele>
        <time>2022-09-06T05:08:42Z</time>
      </trkpt>
      <trkpt lat="46.65902" lon="5.73025">
        <ele>597.8</ele>
        <time>2022-09-06T05:08:43Z</time>
      </trkpt>
      <trkpt lat="46.65906" lon="5.73031">
        <ele>597.8</ele>
        <time>2022-09-06T05:08:44Z</time>
      </trkpt>
      <trkpt lat="46.65909" lon="5.73036">
        <ele>597.8</ele>
        <time>2022-09-06T05:08:45Z</time>
      </trkpt>
      <trkpt lat="46.65913" lon="5.73041">
        <ele>597.8</ele>
        <time>2022-09-06T05:08:46Z</time>
      </trkpt>
      <trkpt lat="46.65917" lon="5.73046">
        <ele>597.8</ele>
        <time>2022-09-06T05:08:48Z</time>
      </trkpt>
      <trkpt lat="46.65922" lon="5.7305">
        <ele>597.8</ele>
        <time>2022-09-06T05:08:49Z</time>
      </trkpt>
      <trkpt lat="46.65927" lon="5.73052">
        <ele>597.8</ele>
        <time>2022-09-06T05:08:50Z</time>
      </trkpt>
      <trkpt lat="46.65931" lon="5.73055">
        <ele>597.8</ele>
        <time>2022-09-06T05:08:51Z</time>
      </trkpt>
      <trkpt lat="46.65937" lon="5.73056">
        <ele>597.8</ele>
        <time>2022-09-06T05:08:52Z</time>
      </trkpt>
      <trkpt lat="46.65942" lon="5.73056">
        <ele>598.2</ele>
        <time>2022-09-06T05:08:53Z</time>
      </trkpt>
      <trkpt lat="46.65947" lon="5.73055">
        <ele>598.2</ele>
        <time>2022-09-06T05:08:54Z</time>
      </trkpt>
      <trkpt lat="46.65952" lon="5.73054">
        <ele>598.4</ele>
        <time>2022-09-06T05:08:55Z</time>
      </trkpt>
      <trkpt lat="46.65957" lon="5.73053">
        <ele>598.4</ele>
        <time>2022-09-06T05:08:56Z</time>
      </trkpt>
      <trkpt lat="46.65961" lon="5.73051">
        <ele>598.6</ele>
        <time>2022-09-06T05:08:57Z</time>
      </trkpt>
      <trkpt lat="46.65966" lon="5.73049">
        <ele>598.6</ele>
        <time>2022-09-06T05:08:58Z</time>
      </trkpt>
      <trkpt lat="46.65969" lon="5.73046">
        <ele>598.8</ele>
        <time>2022-09-06T05:08:59Z</time>
      </trkpt>
      <trkpt lat="46.65973" lon="5.73042">
        <ele>598.8</ele>
        <time>2022-09-06T05:09:00Z</time>
      </trkpt>
      <trkpt lat="46.65976" lon="5.73038">
        <ele>599.2</ele>
        <time>2022-09-06T05:09:01Z</time>
      </trkpt>
      <trkpt lat="46.65979" lon="5.73033">
        <ele>599.2</ele>
        <time>2022-09-06T05:09:02Z</time>
      </trkpt>
      <trkpt lat="46.65982" lon="5.7303">
        <ele>599.6</ele>
        <time>2022-09-06T05:09:03Z</time>
      </trkpt>
      <trkpt lat="46.65984" lon="5.73026">
        <ele>599.6</ele>
        <time>2022-09-06T05:09:04Z</time>
      </trkpt>
      <trkpt lat="46.65987" lon="5.73021">
        <ele>600</ele>
        <time>2022-09-06T05:09:05Z</time>
      </trkpt>
      <trkpt lat="46.6599" lon="5.73017">
        <ele>600</ele>
        <time>2022-09-06T05:09:06Z</time>
      </trkpt>
      <trkpt lat="46.65993" lon="5.73013">
        <ele>600.2</ele>
        <time>2022-09-06T05:09:07Z</time>
      </trkpt>
      <trkpt lat="46.65995" lon="5.73008">
        <ele>600.2</ele>
        <time>2022-09-06T05:09:08Z</time>
      </trkpt>
      <trkpt lat="46.65998" lon="5.73004">
        <ele>600.4</ele>
        <time>2022-09-06T05:09:09Z</time>
      </trkpt>
      <trkpt lat="46.66001" lon="5.73">
        <ele>600.4</ele>
        <time>2022-09-06T05:09:10Z</time>
      </trkpt>
      <trkpt lat="46.66003" lon="5.72996">
        <ele>600.8</ele>
        <time>2022-09-06T05:09:11Z</time>
      </trkpt>
      <trkpt lat="46.66006" lon="5.72992">
        <ele>600.8</ele>
        <time>2022-09-06T05:09:12Z</time>
      </trkpt>
      <trkpt lat="46.6601" lon="5.72989">
        <ele>601.2</ele>
        <time>2022-09-06T05:09:13Z</time>
      </trkpt>
      <trkpt lat="46.66013" lon="5.72985">
        <ele>601.2</ele>
        <time>2022-09-06T05:09:14Z</time>
      </trkpt>
      <trkpt lat="46.66016" lon="5.72982">
        <ele>601.4</ele>
        <time>2022-09-06T05:09:15Z</time>
      </trkpt>
      <trkpt lat="46.66019" lon="5.72979">
        <ele>601.4</ele>
        <time>2022-09-06T05:09:16Z</time>
      </trkpt>
      <trkpt lat="46.66023" lon="5.72975">
        <ele>601.6</ele>
        <time>2022-09-06T05:09:17Z</time>
      </trkpt>
      <trkpt lat="46.66026" lon="5.72972">
        <ele>601.6</ele>
        <time>2022-09-06T05:09:18Z</time>
      </trkpt>
      <trkpt lat="46.6603" lon="5.72968">
        <ele>601.8</ele>
        <time>2022-09-06T05:09:19Z</time>
      </trkpt>
      <trkpt lat="46.66033" lon="5.72964">
        <ele>601.8</ele>
        <time>2022-09-06T05:09:20Z</time>
      </trkpt>
      <trkpt lat="46.66036" lon="5.7296">
        <ele>601.8</ele>
        <time>2022-09-06T05:09:21Z</time>
      </trkpt>
      <trkpt lat="46.66039" lon="5.72956">
        <ele>601.8</ele>
        <time>2022-09-06T05:09:22Z</time>
      </trkpt>
      <trkpt lat="46.66043" lon="5.72952">
        <ele>602.2</ele>
        <time>2022-09-06T05:09:23Z</time>
      </trkpt>
      <trkpt lat="46.66046" lon="5.72948">
        <ele>602.2</ele>
        <time>2022-09-06T05:09:24Z</time>
      </trkpt>
      <trkpt lat="46.66049" lon="5.72944">
        <ele>602.4</ele>
        <time>2022-09-06T05:09:25Z</time>
      </trkpt>
      <trkpt lat="46.66052" lon="5.7294">
        <ele>602.6</ele>
        <time>2022-09-06T05:09:26Z</time>
      </trkpt>
      <trkpt lat="46.66054" lon="5.72936">
        <ele>602.8</ele>
        <time>2022-09-06T05:09:27Z</time>
      </trkpt>
      <trkpt lat="46.66057" lon="5.72932">
        <ele>602.8</ele>
        <time>2022-09-06T05:09:28Z</time>
      </trkpt>
      <trkpt lat="46.6606" lon="5.72928">
        <ele>603.2</ele>
        <time>2022-09-06T05:09:29Z</time>
      </trkpt>
      <trkpt lat="46.66063" lon="5.72924">
        <ele>603.4</ele>
        <time>2022-09-06T05:09:30Z</time>
      </trkpt>
      <trkpt lat="46.66066" lon="5.72919">
        <ele>603.8</ele>
        <time>2022-09-06T05:09:31Z</time>
      </trkpt>
      <trkpt lat="46.66068" lon="5.72915">
        <ele>604</ele>
        <time>2022-09-06T05:09:32Z</time>
      </trkpt>
      <trkpt lat="46.66071" lon="5.72911">
        <ele>604.2</ele>
        <time>2022-09-06T05:09:33Z</time>
      </trkpt>
      <trkpt lat="46.66073" lon="5.72907">
        <ele>604.6</ele>
        <time>2022-09-06T05:09:34Z</time>
      </trkpt>
      <trkpt lat="46.66076" lon="5.72903">
        <ele>604.8</ele>
        <time>2022-09-06T05:09:35Z</time>
      </trkpt>
      <trkpt lat="46.66079" lon="5.72899">
        <ele>605</ele>
        <time>2022-09-06T05:09:36Z</time>
      </trkpt>
      <trkpt lat="46.66082" lon="5.72895">
        <ele>605</ele>
        <time>2022-09-06T05:09:37Z</time>
      </trkpt>
      <trkpt lat="46.66085" lon="5.72892">
        <ele>605.6</ele>
        <time>2022-09-06T05:09:38Z</time>
      </trkpt>
      <trkpt lat="46.66088" lon="5.72888">
        <ele>605.8</ele>
        <time>2022-09-06T05:09:39Z</time>
      </trkpt>
      <trkpt lat="46.66091" lon="5.72886">
        <ele>605.8</ele>
        <time>2022-09-06T05:09:40Z</time>
      </trkpt>
      <trkpt lat="46.66094" lon="5.72883">
        <ele>606.2</ele>
        <time>2022-09-06T05:09:41Z</time>
      </trkpt>
      <trkpt lat="46.66097" lon="5.7288">
        <ele>606.4</ele>
        <time>2022-09-06T05:09:42Z</time>
      </trkpt>
      <trkpt lat="46.66101" lon="5.72878">
        <ele>606.4</ele>
        <time>2022-09-06T05:09:43Z</time>
      </trkpt>
      <trkpt lat="46.66104" lon="5.72875">
        <ele>606.8</ele>
        <time>2022-09-06T05:09:44Z</time>
      </trkpt>
      <trkpt lat="46.66108" lon="5.72873">
        <ele>607</ele>
        <time>2022-09-06T05:09:45Z</time>
      </trkpt>
      <trkpt lat="46.66111" lon="5.72871">
        <ele>607.2</ele>
        <time>2022-09-06T05:09:46Z</time>
      </trkpt>
      <trkpt lat="46.66114" lon="5.72869">
        <ele>607.4</ele>
        <time>2022-09-06T05:09:47Z</time>
      </trkpt>
      <trkpt lat="46.66118" lon="5.72867">
        <ele>607.4</ele>
        <time>2022-09-06T05:09:48Z</time>
      </trkpt>
      <trkpt lat="46.66125" lon="5.72864">
        <ele>607.8</ele>
        <time>2022-09-06T05:09:49Z</time>
      </trkpt>
      <trkpt lat="46.66129" lon="5.72863">
        <ele>608</ele>
        <time>2022-09-06T05:09:50Z</time>
      </trkpt>
      <trkpt lat="46.66132" lon="5.72861">
        <ele>608</ele>
        <time>2022-09-06T05:09:51Z</time>
      </trkpt>
      <trkpt lat="46.66136" lon="5.7286">
        <ele>608.4</ele>
        <time>2022-09-06T05:09:52Z</time>
      </trkpt>
      <trkpt lat="46.6614" lon="5.72858">
        <ele>608.4</ele>
        <time>2022-09-06T05:09:53Z</time>
      </trkpt>
      <trkpt lat="46.66143" lon="5.72856">
        <ele>608.6</ele>
        <time>2022-09-06T05:09:54Z</time>
      </trkpt>
      <trkpt lat="46.66147" lon="5.72854">
        <ele>608.8</ele>
        <time>2022-09-06T05:09:55Z</time>
      </trkpt>
      <trkpt lat="46.66151" lon="5.72852">
        <ele>608.8</ele>
        <time>2022-09-06T05:09:56Z</time>
      </trkpt>
      <trkpt lat="46.66154" lon="5.7285">
        <ele>609.2</ele>
        <time>2022-09-06T05:09:57Z</time>
      </trkpt>
      <trkpt lat="46.66158" lon="5.72848">
        <ele>609.4</ele>
        <time>2022-09-06T05:09:58Z</time>
      </trkpt>
      <trkpt lat="46.66161" lon="5.72846">
        <ele>609.6</ele>
        <time>2022-09-06T05:09:59Z</time>
      </trkpt>
      <trkpt lat="46.66165" lon="5.72843">
        <ele>609.8</ele>
        <time>2022-09-06T05:10:00Z</time>
      </trkpt>
      <trkpt lat="46.66169" lon="5.72842">
        <ele>609.8</ele>
        <time>2022-09-06T05:10:01Z</time>
      </trkpt>
      <trkpt lat="46.66173" lon="5.7284">
        <ele>610.2</ele>
        <time>2022-09-06T05:10:02Z</time>
      </trkpt>
      <trkpt lat="46.66177" lon="5.72839">
        <ele>610.2</ele>
        <time>2022-09-06T05:10:03Z</time>
      </trkpt>
      <trkpt lat="46.6618" lon="5.72837">
        <ele>610.6</ele>
        <time>2022-09-06T05:10:04Z</time>
      </trkpt>
      <trkpt lat="46.66184" lon="5.72835">
        <ele>610.8</ele>
        <time>2022-09-06T05:10:05Z</time>
      </trkpt>
      <trkpt lat="46.66187" lon="5.72833">
        <ele>611</ele>
        <time>2022-09-06T05:10:06Z</time>
      </trkpt>
      <trkpt lat="46.66191" lon="5.72831">
        <ele>611.2</ele>
        <time>2022-09-06T05:10:07Z</time>
      </trkpt>
      <trkpt lat="46.66194" lon="5.72829">
        <ele>611.2</ele>
        <time>2022-09-06T05:10:08Z</time>
      </trkpt>
      <trkpt lat="46.66198" lon="5.72827">
        <ele>611.6</ele>
        <time>2022-09-06T05:10:09Z</time>
      </trkpt>
      <trkpt lat="46.66201" lon="5.72826">
        <ele>611.8</ele>
        <time>2022-09-06T05:10:10Z</time>
      </trkpt>
      <trkpt lat="46.66205" lon="5.72824">
        <ele>612</ele>
        <time>2022-09-06T05:10:11Z</time>
      </trkpt>
      <trkpt lat="46.66208" lon="5.72822">
        <ele>612.4</ele>
        <time>2022-09-06T05:10:12Z</time>
      </trkpt>
      <trkpt lat="46.66212" lon="5.7282">
        <ele>612.6</ele>
        <time>2022-09-06T05:10:13Z</time>
      </trkpt>
      <trkpt lat="46.66215" lon="5.72818">
        <ele>612.8</ele>
        <time>2022-09-06T05:10:14Z</time>
      </trkpt>
      <trkpt lat="46.66219" lon="5.72816">
        <ele>613</ele>
        <time>2022-09-06T05:10:15Z</time>
      </trkpt>
      <trkpt lat="46.66222" lon="5.72814">
        <ele>613</ele>
        <time>2022-09-06T05:10:16Z</time>
      </trkpt>
      <trkpt lat="46.66225" lon="5.72812">
        <ele>613.4</ele>
        <time>2022-09-06T05:10:17Z</time>
      </trkpt>
      <trkpt lat="46.66229" lon="5.72809">
        <ele>613.4</ele>
        <time>2022-09-06T05:10:18Z</time>
      </trkpt>
      <trkpt lat="46.66232" lon="5.72807">
        <ele>613.6</ele>
        <time>2022-09-06T05:10:19Z</time>
      </trkpt>
      <trkpt lat="46.66235" lon="5.72804">
        <ele>613.6</ele>
        <time>2022-09-06T05:10:20Z</time>
      </trkpt>
      <trkpt lat="46.66238" lon="5.72802">
        <ele>614</ele>
        <time>2022-09-06T05:10:21Z</time>
      </trkpt>
      <trkpt lat="46.66241" lon="5.72799">
        <ele>614.4</ele>
        <time>2022-09-06T05:10:22Z</time>
      </trkpt>
      <trkpt lat="46.66245" lon="5.72796">
        <ele>614.4</ele>
        <time>2022-09-06T05:10:23Z</time>
      </trkpt>
      <trkpt lat="46.66248" lon="5.72793">
        <ele>614.8</ele>
        <time>2022-09-06T05:10:24Z</time>
      </trkpt>
      <trkpt lat="46.66252" lon="5.7279">
        <ele>615.2</ele>
        <time>2022-09-06T05:10:25Z</time>
      </trkpt>
      <trkpt lat="46.66255" lon="5.72787">
        <ele>615.4</ele>
        <time>2022-09-06T05:10:26Z</time>
      </trkpt>
      <trkpt lat="46.66259" lon="5.72783">
        <ele>615.8</ele>
        <time>2022-09-06T05:10:27Z</time>
      </trkpt>
      <trkpt lat="46.66262" lon="5.7278">
        <ele>616</ele>
        <time>2022-09-06T05:10:28Z</time>
      </trkpt>
      <trkpt lat="46.66266" lon="5.72776">
        <ele>616</ele>
        <time>2022-09-06T05:10:29Z</time>
      </trkpt>
      <trkpt lat="46.66269" lon="5.72773">
        <ele>616.4</ele>
        <time>2022-09-06T05:10:30Z</time>
      </trkpt>
      <trkpt lat="46.66272" lon="5.72769">
        <ele>616.6</ele>
        <time>2022-09-06T05:10:31Z</time>
      </trkpt>
      <trkpt lat="46.66275" lon="5.72764">
        <ele>616.6</ele>
        <time>2022-09-06T05:10:32Z</time>
      </trkpt>
      <trkpt lat="46.66278" lon="5.7276">
        <ele>617</ele>
        <time>2022-09-06T05:10:33Z</time>
      </trkpt>
      <trkpt lat="46.66281" lon="5.72755">
        <ele>617.2</ele>
        <time>2022-09-06T05:10:34Z</time>
      </trkpt>
      <trkpt lat="46.66284" lon="5.7275">
        <ele>617.2</ele>
        <time>2022-09-06T05:10:35Z</time>
      </trkpt>
      <trkpt lat="46.66286" lon="5.72745">
        <ele>617.6</ele>
        <time>2022-09-06T05:10:36Z</time>
      </trkpt>
      <trkpt lat="46.66288" lon="5.72739">
        <ele>617.6</ele>
        <time>2022-09-06T05:10:37Z</time>
      </trkpt>
      <trkpt lat="46.6629" lon="5.72734">
        <ele>618</ele>
        <time>2022-09-06T05:10:38Z</time>
      </trkpt>
      <trkpt lat="46.66292" lon="5.72728">
        <ele>618</ele>
        <time>2022-09-06T05:10:39Z</time>
      </trkpt>
      <trkpt lat="46.66294" lon="5.72723">
        <ele>618.4</ele>
        <time>2022-09-06T05:10:40Z</time>
      </trkpt>
      <trkpt lat="46.66296" lon="5.72717">
        <ele>618.6</ele>
        <time>2022-09-06T05:10:41Z</time>
      </trkpt>
      <trkpt lat="46.66298" lon="5.72712">
        <ele>618.6</ele>
        <time>2022-09-06T05:10:42Z</time>
      </trkpt>
      <trkpt lat="46.66299" lon="5.72707">
        <ele>619</ele>
        <time>2022-09-06T05:10:43Z</time>
      </trkpt>
      <trkpt lat="46.66301" lon="5.72702">
        <ele>619.2</ele>
        <time>2022-09-06T05:10:44Z</time>
      </trkpt>
      <trkpt lat="46.66303" lon="5.72696">
        <ele>619.4</ele>
        <time>2022-09-06T05:10:45Z</time>
      </trkpt>
      <trkpt lat="46.66305" lon="5.72691">
        <ele>619.4</ele>
        <time>2022-09-06T05:10:46Z</time>
      </trkpt>
      <trkpt lat="46.66307" lon="5.72686">
        <ele>619.8</ele>
        <time>2022-09-06T05:10:47Z</time>
      </trkpt>
      <trkpt lat="46.66309" lon="5.72681">
        <ele>619.8</ele>
        <time>2022-09-06T05:10:48Z</time>
      </trkpt>
      <trkpt lat="46.6631" lon="5.72675">
        <ele>620.2</ele>
        <time>2022-09-06T05:10:49Z</time>
      </trkpt>
      <trkpt lat="46.66312" lon="5.7267">
        <ele>620.2</ele>
        <time>2022-09-06T05:10:50Z</time>
      </trkpt>
      <trkpt lat="46.66314" lon="5.72665">
        <ele>620.6</ele>
        <time>2022-09-06T05:10:51Z</time>
      </trkpt>
      <trkpt lat="46.66316" lon="5.7266">
        <ele>620.6</ele>
        <time>2022-09-06T05:10:52Z</time>
      </trkpt>
      <trkpt lat="46.66317" lon="5.72656">
        <ele>620.8</ele>
        <time>2022-09-06T05:10:53Z</time>
      </trkpt>
      <trkpt lat="46.66319" lon="5.72651">
        <ele>621.2</ele>
        <time>2022-09-06T05:10:54Z</time>
      </trkpt>
      <trkpt lat="46.66321" lon="5.72646">
        <ele>621.4</ele>
        <time>2022-09-06T05:10:55Z</time>
      </trkpt>
      <trkpt lat="46.66322" lon="5.72642">
        <ele>621.6</ele>
        <time>2022-09-06T05:10:56Z</time>
      </trkpt>
      <trkpt lat="46.66323" lon="5.72637">
        <ele>621.8</ele>
        <time>2022-09-06T05:10:57Z</time>
      </trkpt>
      <trkpt lat="46.66324" lon="5.72631">
        <ele>622.2</ele>
        <time>2022-09-06T05:10:58Z</time>
      </trkpt>
      <trkpt lat="46.66325" lon="5.72626">
        <ele>622.2</ele>
        <time>2022-09-06T05:10:59Z</time>
      </trkpt>
      <trkpt lat="46.66326" lon="5.7262">
        <ele>622.4</ele>
        <time>2022-09-06T05:11:00Z</time>
      </trkpt>
      <trkpt lat="46.66326" lon="5.72615">
        <ele>622.8</ele>
        <time>2022-09-06T05:11:01Z</time>
      </trkpt>
      <trkpt lat="46.66326" lon="5.72609">
        <ele>623</ele>
        <time>2022-09-06T05:11:02Z</time>
      </trkpt>
      <trkpt lat="46.66326" lon="5.72604">
        <ele>623.2</ele>
        <time>2022-09-06T05:11:03Z</time>
      </trkpt>
      <trkpt lat="46.66326" lon="5.72599">
        <ele>623.4</ele>
        <time>2022-09-06T05:11:04Z</time>
      </trkpt>
      <trkpt lat="46.66327" lon="5.72593">
        <ele>623.6</ele>
        <time>2022-09-06T05:11:05Z</time>
      </trkpt>
      <trkpt lat="46.66327" lon="5.72588">
        <ele>623.6</ele>
        <time>2022-09-06T05:11:06Z</time>
      </trkpt>
      <trkpt lat="46.66327" lon="5.72583">
        <ele>624</ele>
        <time>2022-09-06T05:11:07Z</time>
      </trkpt>
      <trkpt lat="46.66326" lon="5.72577">
        <ele>624.4</ele>
        <time>2022-09-06T05:11:08Z</time>
      </trkpt>
      <trkpt lat="46.66325" lon="5.72572">
        <ele>624.4</ele>
        <time>2022-09-06T05:11:09Z</time>
      </trkpt>
      <trkpt lat="46.66324" lon="5.72567">
        <ele>624.6</ele>
        <time>2022-09-06T05:11:10Z</time>
      </trkpt>
      <trkpt lat="46.66324" lon="5.72562">
        <ele>624.6</ele>
        <time>2022-09-06T05:11:11Z</time>
      </trkpt>
      <trkpt lat="46.66323" lon="5.72557">
        <ele>625.2</ele>
        <time>2022-09-06T05:11:12Z</time>
      </trkpt>
      <trkpt lat="46.66322" lon="5.72552">
        <ele>625.4</ele>
        <time>2022-09-06T05:11:13Z</time>
      </trkpt>
      <trkpt lat="46.66321" lon="5.72548">
        <ele>625.4</ele>
        <time>2022-09-06T05:11:14Z</time>
      </trkpt>
      <trkpt lat="46.6632" lon="5.72543">
        <ele>625.8</ele>
        <time>2022-09-06T05:11:15Z</time>
      </trkpt>
      <trkpt lat="46.66319" lon="5.72539">
        <ele>625.8</ele>
        <time>2022-09-06T05:11:16Z</time>
      </trkpt>
      <trkpt lat="46.66317" lon="5.72534">
        <ele>626.2</ele>
        <time>2022-09-06T05:11:17Z</time>
      </trkpt>
      <trkpt lat="46.66316" lon="5.7253">
        <ele>626.6</ele>
        <time>2022-09-06T05:11:18Z</time>
      </trkpt>
      <trkpt lat="46.66315" lon="5.72525">
        <ele>626.6</ele>
        <time>2022-09-06T05:11:19Z</time>
      </trkpt>
      <trkpt lat="46.66313" lon="5.72521">
        <ele>627</ele>
        <time>2022-09-06T05:11:20Z</time>
      </trkpt>
      <trkpt lat="46.66312" lon="5.72517">
        <ele>627</ele>
        <time>2022-09-06T05:11:21Z</time>
      </trkpt>
      <trkpt lat="46.6631" lon="5.72513">
        <ele>627.2</ele>
        <time>2022-09-06T05:11:22Z</time>
      </trkpt>
      <trkpt lat="46.66309" lon="5.72508">
        <ele>627.6</ele>
        <time>2022-09-06T05:11:23Z</time>
      </trkpt>
      <trkpt lat="46.66306" lon="5.725">
        <ele>627.6</ele>
        <time>2022-09-06T05:11:24Z</time>
      </trkpt>
      <trkpt lat="46.66304" lon="5.72495">
        <ele>628</ele>
        <time>2022-09-06T05:11:25Z</time>
      </trkpt>
      <trkpt lat="46.66302" lon="5.72491">
        <ele>628</ele>
        <time>2022-09-06T05:11:26Z</time>
      </trkpt>
      <trkpt lat="46.66301" lon="5.72487">
        <ele>628.4</ele>
        <time>2022-09-06T05:11:27Z</time>
      </trkpt>
      <trkpt lat="46.66299" lon="5.72483">
        <ele>628.6</ele>
        <time>2022-09-06T05:11:28Z</time>
      </trkpt>
      <trkpt lat="46.66297" lon="5.72479">
        <ele>628.6</ele>
        <time>2022-09-06T05:11:29Z</time>
      </trkpt>
      <trkpt lat="46.66295" lon="5.72475">
        <ele>628.8</ele>
        <time>2022-09-06T05:11:30Z</time>
      </trkpt>
      <trkpt lat="46.66293" lon="5.7247">
        <ele>629</ele>
        <time>2022-09-06T05:11:31Z</time>
      </trkpt>
      <trkpt lat="46.66291" lon="5.72466">
        <ele>629</ele>
        <time>2022-09-06T05:11:32Z</time>
      </trkpt>
      <trkpt lat="46.66288" lon="5.72462">
        <ele>629.4</ele>
        <time>2022-09-06T05:11:33Z</time>
      </trkpt>
      <trkpt lat="46.66286" lon="5.72458">
        <ele>629.4</ele>
        <time>2022-09-06T05:11:34Z</time>
      </trkpt>
      <trkpt lat="46.66284" lon="5.72454">
        <ele>629.8</ele>
        <time>2022-09-06T05:11:35Z</time>
      </trkpt>
      <trkpt lat="46.66282" lon="5.7245">
        <ele>630</ele>
        <time>2022-09-06T05:11:36Z</time>
      </trkpt>
      <trkpt lat="46.6628" lon="5.72447">
        <ele>630.4</ele>
        <time>2022-09-06T05:11:37Z</time>
      </trkpt>
      <trkpt lat="46.66278" lon="5.72443">
        <ele>630.6</ele>
        <time>2022-09-06T05:11:38Z</time>
      </trkpt>
      <trkpt lat="46.66276" lon="5.7244">
        <ele>630.6</ele>
        <time>2022-09-06T05:11:39Z</time>
      </trkpt>
      <trkpt lat="46.66274" lon="5.72436">
        <ele>630.8</ele>
        <time>2022-09-06T05:11:40Z</time>
      </trkpt>
      <trkpt lat="46.66272" lon="5.72433">
        <ele>631.2</ele>
        <time>2022-09-06T05:11:41Z</time>
      </trkpt>
      <trkpt lat="46.6627" lon="5.7243">
        <ele>631.2</ele>
        <time>2022-09-06T05:11:42Z</time>
      </trkpt>
      <trkpt lat="46.66267" lon="5.72427">
        <ele>631.4</ele>
        <time>2022-09-06T05:11:43Z</time>
      </trkpt>
      <trkpt lat="46.66265" lon="5.72424">
        <ele>631.4</ele>
        <time>2022-09-06T05:11:44Z</time>
      </trkpt>
      <trkpt lat="46.66263" lon="5.72421">
        <ele>631.8</ele>
        <time>2022-09-06T05:11:45Z</time>
      </trkpt>
      <trkpt lat="46.6626" lon="5.72418">
        <ele>631.8</ele>
        <time>2022-09-06T05:11:46Z</time>
      </trkpt>
      <trkpt lat="46.66258" lon="5.72415">
        <ele>632</ele>
        <time>2022-09-06T05:11:47Z</time>
      </trkpt>
      <trkpt lat="46.66255" lon="5.72412">
        <ele>632</ele>
        <time>2022-09-06T05:11:48Z</time>
      </trkpt>
      <trkpt lat="46.66253" lon="5.72409">
        <ele>632.4</ele>
        <time>2022-09-06T05:11:49Z</time>
      </trkpt>
      <trkpt lat="46.66251" lon="5.72406">
        <ele>632.6</ele>
        <time>2022-09-06T05:11:50Z</time>
      </trkpt>
      <trkpt lat="46.66249" lon="5.72403">
        <ele>632.6</ele>
        <time>2022-09-06T05:11:51Z</time>
      </trkpt>
      <trkpt lat="46.66247" lon="5.72401">
        <ele>633</ele>
        <time>2022-09-06T05:11:52Z</time>
      </trkpt>
      <trkpt lat="46.66244" lon="5.72398">
        <ele>633.2</ele>
        <time>2022-09-06T05:11:53Z</time>
      </trkpt>
      <trkpt lat="46.66242" lon="5.72395">
        <ele>633.2</ele>
        <time>2022-09-06T05:11:54Z</time>
      </trkpt>
      <trkpt lat="46.66241" lon="5.72392">
        <ele>633.6</ele>
        <time>2022-09-06T05:11:55Z</time>
      </trkpt>
      <trkpt lat="46.66239" lon="5.72389">
        <ele>633.6</ele>
        <time>2022-09-06T05:11:56Z</time>
      </trkpt>
      <trkpt lat="46.66236" lon="5.72386">
        <ele>633.8</ele>
        <time>2022-09-06T05:11:57Z</time>
      </trkpt>
      <trkpt lat="46.66234" lon="5.72383">
        <ele>633.8</ele>
        <time>2022-09-06T05:11:58Z</time>
      </trkpt>
      <trkpt lat="46.66232" lon="5.7238">
        <ele>634.2</ele>
        <time>2022-09-06T05:11:59Z</time>
      </trkpt>
      <trkpt lat="46.6623" lon="5.72377">
        <ele>634.2</ele>
        <time>2022-09-06T05:12:00Z</time>
      </trkpt>
      <trkpt lat="46.66227" lon="5.72374">
        <ele>634.6</ele>
        <time>2022-09-06T05:12:01Z</time>
      </trkpt>
      <trkpt lat="46.66225" lon="5.72371">
        <ele>634.8</ele>
        <time>2022-09-06T05:12:02Z</time>
      </trkpt>
      <trkpt lat="46.66222" lon="5.72368">
        <ele>635.2</ele>
        <time>2022-09-06T05:12:03Z</time>
      </trkpt>
      <trkpt lat="46.6622" lon="5.72365">
        <ele>635.4</ele>
        <time>2022-09-06T05:12:04Z</time>
      </trkpt>
      <trkpt lat="46.66217" lon="5.72361">
        <ele>635.6</ele>
        <time>2022-09-06T05:12:05Z</time>
      </trkpt>
      <trkpt lat="46.66215" lon="5.72357">
        <ele>635.8</ele>
        <time>2022-09-06T05:12:06Z</time>
      </trkpt>
      <trkpt lat="46.66212" lon="5.72354">
        <ele>636</ele>
        <time>2022-09-06T05:12:07Z</time>
      </trkpt>
      <trkpt lat="46.6621" lon="5.7235">
        <ele>636</ele>
        <time>2022-09-06T05:12:08Z</time>
      </trkpt>
      <trkpt lat="46.66208" lon="5.72347">
        <ele>636.4</ele>
        <time>2022-09-06T05:12:09Z</time>
      </trkpt>
      <trkpt lat="46.66205" lon="5.72343">
        <ele>636.4</ele>
        <time>2022-09-06T05:12:10Z</time>
      </trkpt>
      <trkpt lat="46.66202" lon="5.7234">
        <ele>636.8</ele>
        <time>2022-09-06T05:12:11Z</time>
      </trkpt>
      <trkpt lat="46.662" lon="5.72336">
        <ele>636.8</ele>
        <time>2022-09-06T05:12:12Z</time>
      </trkpt>
      <trkpt lat="46.66197" lon="5.72332">
        <ele>637.2</ele>
        <time>2022-09-06T05:12:13Z</time>
      </trkpt>
      <trkpt lat="46.66195" lon="5.72328">
        <ele>637.2</ele>
        <time>2022-09-06T05:12:14Z</time>
      </trkpt>
      <trkpt lat="46.66192" lon="5.72324">
        <ele>637.4</ele>
        <time>2022-09-06T05:12:15Z</time>
      </trkpt>
      <trkpt lat="46.66189" lon="5.7232">
        <ele>637.8</ele>
        <time>2022-09-06T05:12:16Z</time>
      </trkpt>
      <trkpt lat="46.66186" lon="5.72317">
        <ele>637.8</ele>
        <time>2022-09-06T05:12:17Z</time>
      </trkpt>
      <trkpt lat="46.66182" lon="5.72313">
        <ele>638</ele>
        <time>2022-09-06T05:12:18Z</time>
      </trkpt>
      <trkpt lat="46.66179" lon="5.72308">
        <ele>638</ele>
        <time>2022-09-06T05:12:19Z</time>
      </trkpt>
      <trkpt lat="46.66176" lon="5.72304">
        <ele>638.4</ele>
        <time>2022-09-06T05:12:20Z</time>
      </trkpt>
      <trkpt lat="46.66172" lon="5.723">
        <ele>638.8</ele>
        <time>2022-09-06T05:12:21Z</time>
      </trkpt>
      <trkpt lat="46.66169" lon="5.72297">
        <ele>639</ele>
        <time>2022-09-06T05:12:22Z</time>
      </trkpt>
      <trkpt lat="46.66166" lon="5.72293">
        <ele>639.2</ele>
        <time>2022-09-06T05:12:23Z</time>
      </trkpt>
      <trkpt lat="46.66162" lon="5.7229">
        <ele>639.4</ele>
        <time>2022-09-06T05:12:24Z</time>
      </trkpt>
      <trkpt lat="46.66158" lon="5.72288">
        <ele>639.6</ele>
        <time>2022-09-06T05:12:25Z</time>
      </trkpt>
      <trkpt lat="46.66154" lon="5.72286">
        <ele>639.8</ele>
        <time>2022-09-06T05:12:26Z</time>
      </trkpt>
      <trkpt lat="46.66151" lon="5.72284">
        <ele>640</ele>
        <time>2022-09-06T05:12:27Z</time>
      </trkpt>
      <trkpt lat="46.66147" lon="5.72282">
        <ele>640.4</ele>
        <time>2022-09-06T05:12:28Z</time>
      </trkpt>
      <trkpt lat="46.66143" lon="5.72281">
        <ele>640.6</ele>
        <time>2022-09-06T05:12:29Z</time>
      </trkpt>
      <trkpt lat="46.66139" lon="5.7228">
        <ele>640.8</ele>
        <time>2022-09-06T05:12:30Z</time>
      </trkpt>
      <trkpt lat="46.66135" lon="5.72279">
        <ele>640.8</ele>
        <time>2022-09-06T05:12:31Z</time>
      </trkpt>
      <trkpt lat="46.66131" lon="5.72278">
        <ele>641.2</ele>
        <time>2022-09-06T05:12:32Z</time>
      </trkpt>
      <trkpt lat="46.66128" lon="5.72278">
        <ele>641.4</ele>
        <time>2022-09-06T05:12:33Z</time>
      </trkpt>
      <trkpt lat="46.66124" lon="5.72278">
        <ele>641.4</ele>
        <time>2022-09-06T05:12:34Z</time>
      </trkpt>
      <trkpt lat="46.6612" lon="5.72277">
        <ele>641.8</ele>
        <time>2022-09-06T05:12:35Z</time>
      </trkpt>
      <trkpt lat="46.66116" lon="5.72277">
        <ele>641.8</ele>
        <time>2022-09-06T05:12:36Z</time>
      </trkpt>
      <trkpt lat="46.66112" lon="5.72276">
        <ele>642.2</ele>
        <time>2022-09-06T05:12:37Z</time>
      </trkpt>
      <trkpt lat="46.66108" lon="5.72275">
        <ele>642.4</ele>
        <time>2022-09-06T05:12:38Z</time>
      </trkpt>
      <trkpt lat="46.66104" lon="5.72273">
        <ele>642.6</ele>
        <time>2022-09-06T05:12:39Z</time>
      </trkpt>
      <trkpt lat="46.661" lon="5.72272">
        <ele>643</ele>
        <time>2022-09-06T05:12:40Z</time>
      </trkpt>
      <trkpt lat="46.66096" lon="5.72271">
        <ele>643.2</ele>
        <time>2022-09-06T05:12:41Z</time>
      </trkpt>
      <trkpt lat="46.66093" lon="5.72268">
        <ele>643.4</ele>
        <time>2022-09-06T05:12:42Z</time>
      </trkpt>
      <trkpt lat="46.66089" lon="5.72265">
        <ele>643.6</ele>
        <time>2022-09-06T05:12:43Z</time>
      </trkpt>
      <trkpt lat="46.66086" lon="5.72261">
        <ele>643.6</ele>
        <time>2022-09-06T05:12:44Z</time>
      </trkpt>
      <trkpt lat="46.66082" lon="5.72258">
        <ele>644</ele>
        <time>2022-09-06T05:12:45Z</time>
      </trkpt>
      <trkpt lat="46.66079" lon="5.72254">
        <ele>644</ele>
        <time>2022-09-06T05:12:46Z</time>
      </trkpt>
      <trkpt lat="46.66077" lon="5.7225">
        <ele>644.4</ele>
        <time>2022-09-06T05:12:47Z</time>
      </trkpt>
      <trkpt lat="46.66074" lon="5.72246">
        <ele>644.6</ele>
        <time>2022-09-06T05:12:48Z</time>
      </trkpt>
      <trkpt lat="46.66072" lon="5.72242">
        <ele>645</ele>
        <time>2022-09-06T05:12:49Z</time>
      </trkpt>
      <trkpt lat="46.66069" lon="5.72238">
        <ele>645.2</ele>
        <time>2022-09-06T05:12:50Z</time>
      </trkpt>
      <trkpt lat="46.66067" lon="5.72234">
        <ele>645.4</ele>
        <time>2022-09-06T05:12:51Z</time>
      </trkpt>
      <trkpt lat="46.66064" lon="5.7223">
        <ele>645.4</ele>
        <time>2022-09-06T05:12:52Z</time>
      </trkpt>
      <trkpt lat="46.66062" lon="5.72227">
        <ele>645.6</ele>
        <time>2022-09-06T05:12:53Z</time>
      </trkpt>
      <trkpt lat="46.6606" lon="5.72222">
        <ele>645.6</ele>
        <time>2022-09-06T05:12:54Z</time>
      </trkpt>
      <trkpt lat="46.66058" lon="5.72218">
        <ele>646</ele>
        <time>2022-09-06T05:12:55Z</time>
      </trkpt>
      <trkpt lat="46.66055" lon="5.72215">
        <ele>646</ele>
        <time>2022-09-06T05:12:56Z</time>
      </trkpt>
      <trkpt lat="46.66052" lon="5.72211">
        <ele>646.4</ele>
        <time>2022-09-06T05:12:57Z</time>
      </trkpt>
      <trkpt lat="46.6605" lon="5.72208">
        <ele>646.4</ele>
        <time>2022-09-06T05:12:58Z</time>
      </trkpt>
      <trkpt lat="46.66047" lon="5.72204">
        <ele>646.8</ele>
        <time>2022-09-06T05:12:59Z</time>
      </trkpt>
      <trkpt lat="46.66044" lon="5.722">
        <ele>646.8</ele>
        <time>2022-09-06T05:13:00Z</time>
      </trkpt>
      <trkpt lat="46.66041" lon="5.72197">
        <ele>647</ele>
        <time>2022-09-06T05:13:01Z</time>
      </trkpt>
      <trkpt lat="46.66039" lon="5.72193">
        <ele>647</ele>
        <time>2022-09-06T05:13:02Z</time>
      </trkpt>
      <trkpt lat="46.66036" lon="5.7219">
        <ele>647.4</ele>
        <time>2022-09-06T05:13:03Z</time>
      </trkpt>
      <trkpt lat="46.66033" lon="5.72186">
        <ele>647.4</ele>
        <time>2022-09-06T05:13:04Z</time>
      </trkpt>
      <trkpt lat="46.66031" lon="5.72183">
        <ele>647.6</ele>
        <time>2022-09-06T05:13:05Z</time>
      </trkpt>
      <trkpt lat="46.66028" lon="5.72179">
        <ele>647.6</ele>
        <time>2022-09-06T05:13:06Z</time>
      </trkpt>
      <trkpt lat="46.66025" lon="5.72175">
        <ele>648</ele>
        <time>2022-09-06T05:13:07Z</time>
      </trkpt>
      <trkpt lat="46.66022" lon="5.72171">
        <ele>648</ele>
        <time>2022-09-06T05:13:08Z</time>
      </trkpt>
      <trkpt lat="46.6602" lon="5.72167">
        <ele>648.2</ele>
        <time>2022-09-06T05:13:09Z</time>
      </trkpt>
      <trkpt lat="46.66017" lon="5.72164">
        <ele>648.2</ele>
        <time>2022-09-06T05:13:10Z</time>
      </trkpt>
      <trkpt lat="46.66015" lon="5.7216">
        <ele>648.6</ele>
        <time>2022-09-06T05:13:11Z</time>
      </trkpt>
      <trkpt lat="46.66012" lon="5.72155">
        <ele>648.6</ele>
        <time>2022-09-06T05:13:12Z</time>
      </trkpt>
      <trkpt lat="46.6601" lon="5.72151">
        <ele>649</ele>
        <time>2022-09-06T05:13:13Z</time>
      </trkpt>
      <trkpt lat="46.66008" lon="5.72147">
        <ele>649</ele>
        <time>2022-09-06T05:13:14Z</time>
      </trkpt>
      <trkpt lat="46.66006" lon="5.72142">
        <ele>649.4</ele>
        <time>2022-09-06T05:13:15Z</time>
      </trkpt>
      <trkpt lat="46.66004" lon="5.72137">
        <ele>649.4</ele>
        <time>2022-09-06T05:13:16Z</time>
      </trkpt>
      <trkpt lat="46.66003" lon="5.72132">
        <ele>649.8</ele>
        <time>2022-09-06T05:13:17Z</time>
      </trkpt>
      <trkpt lat="46.66002" lon="5.72127">
        <ele>649.8</ele>
        <time>2022-09-06T05:13:18Z</time>
      </trkpt>
      <trkpt lat="46.66001" lon="5.72122">
        <ele>650</ele>
        <time>2022-09-06T05:13:19Z</time>
      </trkpt>
      <trkpt lat="46.66" lon="5.72116">
        <ele>650</ele>
        <time>2022-09-06T05:13:20Z</time>
      </trkpt>
      <trkpt lat="46.66" lon="5.72111">
        <ele>650.4</ele>
        <time>2022-09-06T05:13:21Z</time>
      </trkpt>
      <trkpt lat="46.66" lon="5.72106">
        <ele>650.4</ele>
        <time>2022-09-06T05:13:22Z</time>
      </trkpt>
      <trkpt lat="46.66001" lon="5.72101">
        <ele>650.6</ele>
        <time>2022-09-06T05:13:23Z</time>
      </trkpt>
      <trkpt lat="46.66002" lon="5.72095">
        <ele>650.8</ele>
        <time>2022-09-06T05:13:24Z</time>
      </trkpt>
      <trkpt lat="46.66003" lon="5.7209">
        <ele>651.2</ele>
        <time>2022-09-06T05:13:25Z</time>
      </trkpt>
      <trkpt lat="46.66004" lon="5.72085">
        <ele>651.4</ele>
        <time>2022-09-06T05:13:26Z</time>
      </trkpt>
      <trkpt lat="46.66006" lon="5.7208">
        <ele>651.4</ele>
        <time>2022-09-06T05:13:27Z</time>
      </trkpt>
      <trkpt lat="46.66009" lon="5.72075">
        <ele>651.6</ele>
        <time>2022-09-06T05:13:28Z</time>
      </trkpt>
      <trkpt lat="46.66011" lon="5.72071">
        <ele>651.6</ele>
        <time>2022-09-06T05:13:29Z</time>
      </trkpt>
      <trkpt lat="46.66013" lon="5.72066">
        <ele>652</ele>
        <time>2022-09-06T05:13:30Z</time>
      </trkpt>
      <trkpt lat="46.66015" lon="5.72061">
        <ele>652</ele>
        <time>2022-09-06T05:13:31Z</time>
      </trkpt>
      <trkpt lat="46.66016" lon="5.72057">
        <ele>652.4</ele>
        <time>2022-09-06T05:13:32Z</time>
      </trkpt>
      <trkpt lat="46.66018" lon="5.72053">
        <ele>652.6</ele>
        <time>2022-09-06T05:13:33Z</time>
      </trkpt>
      <trkpt lat="46.6602" lon="5.72048">
        <ele>652.8</ele>
        <time>2022-09-06T05:13:34Z</time>
      </trkpt>
      <trkpt lat="46.66022" lon="5.72044">
        <ele>653</ele>
        <time>2022-09-06T05:13:35Z</time>
      </trkpt>
      <trkpt lat="46.66024" lon="5.72039">
        <ele>653.2</ele>
        <time>2022-09-06T05:13:36Z</time>
      </trkpt>
      <trkpt lat="46.66026" lon="5.72034">
        <ele>653.6</ele>
        <time>2022-09-06T05:13:37Z</time>
      </trkpt>
      <trkpt lat="46.66027" lon="5.7203">
        <ele>653.8</ele>
        <time>2022-09-06T05:13:38Z</time>
      </trkpt>
      <trkpt lat="46.66029" lon="5.72026">
        <ele>653.8</ele>
        <time>2022-09-06T05:13:39Z</time>
      </trkpt>
      <trkpt lat="46.66031" lon="5.72021">
        <ele>654.2</ele>
        <time>2022-09-06T05:13:40Z</time>
      </trkpt>
      <trkpt lat="46.66032" lon="5.72017">
        <ele>654.2</ele>
        <time>2022-09-06T05:13:41Z</time>
      </trkpt>
      <trkpt lat="46.66034" lon="5.72012">
        <ele>654.2</ele>
        <time>2022-09-06T05:13:42Z</time>
      </trkpt>
      <trkpt lat="46.66035" lon="5.72008">
        <ele>654.4</ele>
        <time>2022-09-06T05:13:43Z</time>
      </trkpt>
      <trkpt lat="46.66037" lon="5.72003">
        <ele>654.4</ele>
        <time>2022-09-06T05:13:44Z</time>
      </trkpt>
      <trkpt lat="46.66039" lon="5.71999">
        <ele>654.8</ele>
        <time>2022-09-06T05:13:45Z</time>
      </trkpt>
      <trkpt lat="46.6604" lon="5.71994">
        <ele>654.8</ele>
        <time>2022-09-06T05:13:46Z</time>
      </trkpt>
      <trkpt lat="46.66042" lon="5.71989">
        <ele>655</ele>
        <time>2022-09-06T05:13:47Z</time>
      </trkpt>
      <trkpt lat="46.66044" lon="5.71984">
        <ele>655</ele>
        <time>2022-09-06T05:13:48Z</time>
      </trkpt>
      <trkpt lat="46.66045" lon="5.71979">
        <ele>655.2</ele>
        <time>2022-09-06T05:13:49Z</time>
      </trkpt>
      <trkpt lat="46.66047" lon="5.71974">
        <ele>655.2</ele>
        <time>2022-09-06T05:13:50Z</time>
      </trkpt>
      <trkpt lat="46.66048" lon="5.71969">
        <ele>655.6</ele>
        <time>2022-09-06T05:13:51Z</time>
      </trkpt>
      <trkpt lat="46.6605" lon="5.71963">
        <ele>655.8</ele>
        <time>2022-09-06T05:13:52Z</time>
      </trkpt>
      <trkpt lat="46.66051" lon="5.71958">
        <ele>655.8</ele>
        <time>2022-09-06T05:13:53Z</time>
      </trkpt>
      <trkpt lat="46.66052" lon="5.71953">
        <ele>656.2</ele>
        <time>2022-09-06T05:13:54Z</time>
      </trkpt>
      <trkpt lat="46.66054" lon="5.71948">
        <ele>656.2</ele>
        <time>2022-09-06T05:13:55Z</time>
      </trkpt>
      <trkpt lat="46.66056" lon="5.71943">
        <ele>656.6</ele>
        <time>2022-09-06T05:13:56Z</time>
      </trkpt>
      <trkpt lat="46.66057" lon="5.71938">
        <ele>656.8</ele>
        <time>2022-09-06T05:13:57Z</time>
      </trkpt>
      <trkpt lat="46.66059" lon="5.71933">
        <ele>657.2</ele>
        <time>2022-09-06T05:13:58Z</time>
      </trkpt>
      <trkpt lat="46.66061" lon="5.71928">
        <ele>657.2</ele>
        <time>2022-09-06T05:13:59Z</time>
      </trkpt>
      <trkpt lat="46.66062" lon="5.71924">
        <ele>657.4</ele>
        <time>2022-09-06T05:14:00Z</time>
      </trkpt>
      <trkpt lat="46.66064" lon="5.71919">
        <ele>657.4</ele>
        <time>2022-09-06T05:14:01Z</time>
      </trkpt>
      <trkpt lat="46.66065" lon="5.71914">
        <ele>657.8</ele>
        <time>2022-09-06T05:14:02Z</time>
      </trkpt>
      <trkpt lat="46.66067" lon="5.71909">
        <ele>657.8</ele>
        <time>2022-09-06T05:14:03Z</time>
      </trkpt>
      <trkpt lat="46.66068" lon="5.71904">
        <ele>658.2</ele>
        <time>2022-09-06T05:14:04Z</time>
      </trkpt>
      <trkpt lat="46.6607" lon="5.719">
        <ele>658.4</ele>
        <time>2022-09-06T05:14:05Z</time>
      </trkpt>
      <trkpt lat="46.66071" lon="5.71895">
        <ele>658.4</ele>
        <time>2022-09-06T05:14:06Z</time>
      </trkpt>
      <trkpt lat="46.66073" lon="5.71891">
        <ele>658.8</ele>
        <time>2022-09-06T05:14:07Z</time>
      </trkpt>
      <trkpt lat="46.66073" lon="5.71891">
        <ele>658.8</ele>
        <time>2022-09-06T05:14:08Z</time>
      </trkpt>
      <trkpt lat="46.66075" lon="5.71886">
        <ele>659</ele>
        <time>2022-09-06T05:14:09Z</time>
      </trkpt>
      <trkpt lat="46.66076" lon="5.71882">
        <ele>659</ele>
        <time>2022-09-06T05:14:10Z</time>
      </trkpt>
      <trkpt lat="46.66078" lon="5.71877">
        <ele>659.4</ele>
        <time>2022-09-06T05:14:11Z</time>
      </trkpt>
      <trkpt lat="46.6608" lon="5.71872">
        <ele>659.6</ele>
        <time>2022-09-06T05:14:12Z</time>
      </trkpt>
      <trkpt lat="46.66082" lon="5.71867">
        <ele>659.6</ele>
        <time>2022-09-06T05:14:13Z</time>
      </trkpt>
      <trkpt lat="46.66084" lon="5.71861">
        <ele>659.8</ele>
        <time>2022-09-06T05:14:14Z</time>
      </trkpt>
      <trkpt lat="46.66086" lon="5.71856">
        <ele>660</ele>
        <time>2022-09-06T05:14:15Z</time>
      </trkpt>
      <trkpt lat="46.66088" lon="5.7185">
        <ele>660</ele>
        <time>2022-09-06T05:14:16Z</time>
      </trkpt>
      <trkpt lat="46.6609" lon="5.71844">
        <ele>660</ele>
        <time>2022-09-06T05:14:17Z</time>
      </trkpt>
      <trkpt lat="46.66092" lon="5.71838">
        <ele>660</ele>
        <time>2022-09-06T05:14:18Z</time>
      </trkpt>
      <trkpt lat="46.66093" lon="5.71832">
        <ele>660</ele>
        <time>2022-09-06T05:14:19Z</time>
      </trkpt>
      <trkpt lat="46.66095" lon="5.71825">
        <ele>660</ele>
        <time>2022-09-06T05:14:20Z</time>
      </trkpt>
      <trkpt lat="46.66097" lon="5.71818">
        <ele>659.8</ele>
        <time>2022-09-06T05:14:21Z</time>
      </trkpt>
      <trkpt lat="46.66099" lon="5.7181">
        <ele>659.8</ele>
        <time>2022-09-06T05:14:22Z</time>
      </trkpt>
      <trkpt lat="46.66101" lon="5.71802">
        <ele>659.4</ele>
        <time>2022-09-06T05:14:23Z</time>
      </trkpt>
      <trkpt lat="46.66103" lon="5.71793">
        <ele>659.2</ele>
        <time>2022-09-06T05:14:24Z</time>
      </trkpt>
      <trkpt lat="46.66105" lon="5.71784">
        <ele>658.8</ele>
        <time>2022-09-06T05:14:25Z</time>
      </trkpt>
      <trkpt lat="46.66109" lon="5.71776">
        <ele>658.6</ele>
        <time>2022-09-06T05:14:26Z</time>
      </trkpt>
      <trkpt lat="46.66114" lon="5.71769">
        <ele>658.4</ele>
        <time>2022-09-06T05:14:27Z</time>
      </trkpt>
      <trkpt lat="46.6612" lon="5.71765">
        <ele>658</ele>
        <time>2022-09-06T05:14:28Z</time>
      </trkpt>
      <trkpt lat="46.66126" lon="5.71763">
        <ele>658</ele>
        <time>2022-09-06T05:14:29Z</time>
      </trkpt>
      <trkpt lat="46.66133" lon="5.71763">
        <ele>658</ele>
        <time>2022-09-06T05:14:30Z</time>
      </trkpt>
      <trkpt lat="46.66139" lon="5.71764">
        <ele>658</ele>
        <time>2022-09-06T05:14:31Z</time>
      </trkpt>
      <trkpt lat="46.66145" lon="5.71766">
        <ele>658</ele>
        <time>2022-09-06T05:14:32Z</time>
      </trkpt>
      <trkpt lat="46.6615" lon="5.7177">
        <ele>658</ele>
        <time>2022-09-06T05:14:33Z</time>
      </trkpt>
      <trkpt lat="46.66155" lon="5.71774">
        <ele>658</ele>
        <time>2022-09-06T05:14:34Z</time>
      </trkpt>
      <trkpt lat="46.66161" lon="5.71777">
        <ele>658</ele>
        <time>2022-09-06T05:14:35Z</time>
      </trkpt>
      <trkpt lat="46.66166" lon="5.71781">
        <ele>658</ele>
        <time>2022-09-06T05:14:36Z</time>
      </trkpt>
      <trkpt lat="46.66171" lon="5.71785">
        <ele>658.4</ele>
        <time>2022-09-06T05:14:37Z</time>
      </trkpt>
      <trkpt lat="46.66176" lon="5.71789">
        <ele>658.4</ele>
        <time>2022-09-06T05:14:38Z</time>
      </trkpt>
      <trkpt lat="46.66181" lon="5.71793">
        <ele>658.4</ele>
        <time>2022-09-06T05:14:39Z</time>
      </trkpt>
      <trkpt lat="46.66186" lon="5.71797">
        <ele>658.4</ele>
        <time>2022-09-06T05:14:40Z</time>
      </trkpt>
      <trkpt lat="46.66192" lon="5.71801">
        <ele>658.4</ele>
        <time>2022-09-06T05:14:41Z</time>
      </trkpt>
      <trkpt lat="46.66197" lon="5.71805">
        <ele>658.4</ele>
        <time>2022-09-06T05:14:42Z</time>
      </trkpt>
      <trkpt lat="46.66202" lon="5.71809">
        <ele>658.4</ele>
        <time>2022-09-06T05:14:43Z</time>
      </trkpt>
      <trkpt lat="46.66207" lon="5.71813">
        <ele>658.4</ele>
        <time>2022-09-06T05:14:44Z</time>
      </trkpt>
      <trkpt lat="46.66213" lon="5.71817">
        <ele>658.4</ele>
        <time>2022-09-06T05:14:45Z</time>
      </trkpt>
      <trkpt lat="46.66218" lon="5.71821">
        <ele>658.6</ele>
        <time>2022-09-06T05:14:46Z</time>
      </trkpt>
      <trkpt lat="46.66223" lon="5.71825">
        <ele>658.6</ele>
        <time>2022-09-06T05:14:47Z</time>
      </trkpt>
      <trkpt lat="46.66228" lon="5.71829">
        <ele>658.6</ele>
        <time>2022-09-06T05:14:48Z</time>
      </trkpt>
      <trkpt lat="46.66233" lon="5.71834">
        <ele>658.6</ele>
        <time>2022-09-06T05:14:49Z</time>
      </trkpt>
      <trkpt lat="46.66238" lon="5.71838">
        <ele>658.6</ele>
        <time>2022-09-06T05:14:50Z</time>
      </trkpt>
      <trkpt lat="46.66243" lon="5.71843">
        <ele>658.6</ele>
        <time>2022-09-06T05:14:51Z</time>
      </trkpt>
      <trkpt lat="46.66249" lon="5.71847">
        <ele>658.6</ele>
        <time>2022-09-06T05:14:52Z</time>
      </trkpt>
      <trkpt lat="46.66254" lon="5.71851">
        <ele>658.6</ele>
        <time>2022-09-06T05:14:53Z</time>
      </trkpt>
      <trkpt lat="46.66259" lon="5.71855">
        <ele>658.6</ele>
        <time>2022-09-06T05:14:54Z</time>
      </trkpt>
      <trkpt lat="46.66264" lon="5.7186">
        <ele>658.6</ele>
        <time>2022-09-06T05:14:55Z</time>
      </trkpt>
      <trkpt lat="46.6627" lon="5.71864">
        <ele>658.6</ele>
        <time>2022-09-06T05:14:56Z</time>
      </trkpt>
      <trkpt lat="46.66275" lon="5.71868">
        <ele>658.6</ele>
        <time>2022-09-06T05:14:57Z</time>
      </trkpt>
      <trkpt lat="46.6628" lon="5.71873">
        <ele>658.8</ele>
        <time>2022-09-06T05:14:58Z</time>
      </trkpt>
      <trkpt lat="46.66286" lon="5.71877">
        <ele>658.8</ele>
        <time>2022-09-06T05:14:59Z</time>
      </trkpt>
      <trkpt lat="46.66291" lon="5.71882">
        <ele>658.8</ele>
        <time>2022-09-06T05:15:00Z</time>
      </trkpt>
      <trkpt lat="46.66296" lon="5.71886">
        <ele>658.8</ele>
        <time>2022-09-06T05:15:01Z</time>
      </trkpt>
      <trkpt lat="46.66301" lon="5.7189">
        <ele>658.8</ele>
        <time>2022-09-06T05:15:02Z</time>
      </trkpt>
      <trkpt lat="46.66307" lon="5.71894">
        <ele>658.8</ele>
        <time>2022-09-06T05:15:03Z</time>
      </trkpt>
      <trkpt lat="46.66311" lon="5.71899">
        <ele>658.8</ele>
        <time>2022-09-06T05:15:04Z</time>
      </trkpt>
      <trkpt lat="46.66316" lon="5.71903">
        <ele>658.8</ele>
        <time>2022-09-06T05:15:05Z</time>
      </trkpt>
      <trkpt lat="46.66321" lon="5.71908">
        <ele>658.8</ele>
        <time>2022-09-06T05:15:06Z</time>
      </trkpt>
      <trkpt lat="46.66326" lon="5.71912">
        <ele>658.8</ele>
        <time>2022-09-06T05:15:07Z</time>
      </trkpt>
      <trkpt lat="46.6633" lon="5.71917">
        <ele>658.8</ele>
        <time>2022-09-06T05:15:08Z</time>
      </trkpt>
      <trkpt lat="46.66335" lon="5.71922">
        <ele>658.8</ele>
        <time>2022-09-06T05:15:09Z</time>
      </trkpt>
      <trkpt lat="46.6634" lon="5.71928">
        <ele>659</ele>
        <time>2022-09-06T05:15:10Z</time>
      </trkpt>
      <trkpt lat="46.66344" lon="5.71934">
        <ele>659</ele>
        <time>2022-09-06T05:15:11Z</time>
      </trkpt>
      <trkpt lat="46.66348" lon="5.7194">
        <ele>659</ele>
        <time>2022-09-06T05:15:12Z</time>
      </trkpt>
      <trkpt lat="46.66351" lon="5.71946">
        <ele>659</ele>
        <time>2022-09-06T05:15:13Z</time>
      </trkpt>
      <trkpt lat="46.66355" lon="5.71953">
        <ele>659</ele>
        <time>2022-09-06T05:15:14Z</time>
      </trkpt>
      <trkpt lat="46.66359" lon="5.71959">
        <ele>659</ele>
        <time>2022-09-06T05:15:15Z</time>
      </trkpt>
      <trkpt lat="46.66363" lon="5.71965">
        <ele>659</ele>
        <time>2022-09-06T05:15:16Z</time>
      </trkpt>
      <trkpt lat="46.66367" lon="5.71971">
        <ele>659</ele>
        <time>2022-09-06T05:15:17Z</time>
      </trkpt>
      <trkpt lat="46.66372" lon="5.71977">
        <ele>659</ele>
        <time>2022-09-06T05:15:18Z</time>
      </trkpt>
      <trkpt lat="46.66377" lon="5.71982">
        <ele>659</ele>
        <time>2022-09-06T05:15:19Z</time>
      </trkpt>
      <trkpt lat="46.66382" lon="5.71987">
        <ele>659.4</ele>
        <time>2022-09-06T05:15:20Z</time>
      </trkpt>
      <trkpt lat="46.66387" lon="5.71991">
        <ele>659.4</ele>
        <time>2022-09-06T05:15:21Z</time>
      </trkpt>
      <trkpt lat="46.66393" lon="5.71995">
        <ele>659.4</ele>
        <time>2022-09-06T05:15:22Z</time>
      </trkpt>
      <trkpt lat="46.66398" lon="5.71998">
        <ele>659.4</ele>
        <time>2022-09-06T05:15:23Z</time>
      </trkpt>
      <trkpt lat="46.66404" lon="5.72001">
        <ele>659.4</ele>
        <time>2022-09-06T05:15:24Z</time>
      </trkpt>
      <trkpt lat="46.66413" lon="5.72005">
        <ele>659.6</ele>
        <time>2022-09-06T05:15:25Z</time>
      </trkpt>
      <trkpt lat="46.66416" lon="5.72006">
        <ele>659.6</ele>
        <time>2022-09-06T05:15:26Z</time>
      </trkpt>
      <trkpt lat="46.66422" lon="5.72008">
        <ele>659.6</ele>
        <time>2022-09-06T05:15:27Z</time>
      </trkpt>
      <trkpt lat="46.66428" lon="5.7201">
        <ele>659.6</ele>
        <time>2022-09-06T05:15:28Z</time>
      </trkpt>
      <trkpt lat="46.66434" lon="5.72012">
        <ele>659.6</ele>
        <time>2022-09-06T05:15:29Z</time>
      </trkpt>
      <trkpt lat="46.6644" lon="5.72015">
        <ele>659.6</ele>
        <time>2022-09-06T05:15:30Z</time>
      </trkpt>
      <trkpt lat="46.66446" lon="5.72018">
        <ele>659.6</ele>
        <time>2022-09-06T05:15:31Z</time>
      </trkpt>
      <trkpt lat="46.66452" lon="5.7202">
        <ele>659.6</ele>
        <time>2022-09-06T05:15:32Z</time>
      </trkpt>
      <trkpt lat="46.66458" lon="5.72023">
        <ele>659.6</ele>
        <time>2022-09-06T05:15:33Z</time>
      </trkpt>
      <trkpt lat="46.66464" lon="5.72024">
        <ele>659.6</ele>
        <time>2022-09-06T05:15:34Z</time>
      </trkpt>
      <trkpt lat="46.66471" lon="5.72026">
        <ele>659.4</ele>
        <time>2022-09-06T05:15:35Z</time>
      </trkpt>
      <trkpt lat="46.66477" lon="5.72027">
        <ele>659.4</ele>
        <time>2022-09-06T05:15:36Z</time>
      </trkpt>
      <trkpt lat="46.66483" lon="5.72029">
        <ele>659.4</ele>
        <time>2022-09-06T05:15:37Z</time>
      </trkpt>
      <trkpt lat="46.66489" lon="5.7203">
        <ele>659.4</ele>
        <time>2022-09-06T05:15:38Z</time>
      </trkpt>
      <trkpt lat="46.66501" lon="5.72032">
        <ele>659.4</ele>
        <time>2022-09-06T05:15:39Z</time>
      </trkpt>
      <trkpt lat="46.66506" lon="5.72033">
        <ele>659.4</ele>
        <time>2022-09-06T05:15:40Z</time>
      </trkpt>
      <trkpt lat="46.66512" lon="5.72034">
        <ele>659.6</ele>
        <time>2022-09-06T05:15:41Z</time>
      </trkpt>
      <trkpt lat="46.66518" lon="5.72035">
        <ele>659.6</ele>
        <time>2022-09-06T05:15:42Z</time>
      </trkpt>
      <trkpt lat="46.66524" lon="5.72036">
        <ele>659.6</ele>
        <time>2022-09-06T05:15:43Z</time>
      </trkpt>
      <trkpt lat="46.66529" lon="5.72037">
        <ele>659.6</ele>
        <time>2022-09-06T05:15:44Z</time>
      </trkpt>
      <trkpt lat="46.66535" lon="5.72038">
        <ele>659.6</ele>
        <time>2022-09-06T05:15:45Z</time>
      </trkpt>
      <trkpt lat="46.66541" lon="5.72038">
        <ele>659.6</ele>
        <time>2022-09-06T05:15:46Z</time>
      </trkpt>
      <trkpt lat="46.66547" lon="5.72039">
        <ele>659.6</ele>
        <time>2022-09-06T05:15:47Z</time>
      </trkpt>
      <trkpt lat="46.66553" lon="5.7204">
        <ele>659.6</ele>
        <time>2022-09-06T05:15:48Z</time>
      </trkpt>
      <trkpt lat="46.66558" lon="5.72041">
        <ele>659.8</ele>
        <time>2022-09-06T05:15:49Z</time>
      </trkpt>
      <trkpt lat="46.66564" lon="5.72041">
        <ele>659.8</ele>
        <time>2022-09-06T05:15:50Z</time>
      </trkpt>
      <trkpt lat="46.66569" lon="5.72041">
        <ele>659.8</ele>
        <time>2022-09-06T05:15:51Z</time>
      </trkpt>
      <trkpt lat="46.66575" lon="5.72042">
        <ele>660.2</ele>
        <time>2022-09-06T05:15:52Z</time>
      </trkpt>
      <trkpt lat="46.6658" lon="5.72042">
        <ele>660.2</ele>
        <time>2022-09-06T05:15:53Z</time>
      </trkpt>
      <trkpt lat="46.66586" lon="5.72043">
        <ele>660.2</ele>
        <time>2022-09-06T05:15:54Z</time>
      </trkpt>
      <trkpt lat="46.66592" lon="5.72044">
        <ele>660.2</ele>
        <time>2022-09-06T05:15:55Z</time>
      </trkpt>
      <trkpt lat="46.66598" lon="5.72044">
        <ele>660.2</ele>
        <time>2022-09-06T05:15:56Z</time>
      </trkpt>
      <trkpt lat="46.66604" lon="5.72043">
        <ele>660.2</ele>
        <time>2022-09-06T05:15:57Z</time>
      </trkpt>
      <trkpt lat="46.6661" lon="5.72044">
        <ele>660.2</ele>
        <time>2022-09-06T05:15:58Z</time>
      </trkpt>
      <trkpt lat="46.66617" lon="5.72046">
        <ele>660.2</ele>
        <time>2022-09-06T05:15:59Z</time>
      </trkpt>
      <trkpt lat="46.66624" lon="5.72048">
        <ele>660.2</ele>
        <time>2022-09-06T05:16:00Z</time>
      </trkpt>
      <trkpt lat="46.66631" lon="5.7205">
        <ele>660.2</ele>
        <time>2022-09-06T05:16:01Z</time>
      </trkpt>
      <trkpt lat="46.66638" lon="5.72052">
        <ele>660.2</ele>
        <time>2022-09-06T05:16:02Z</time>
      </trkpt>
      <trkpt lat="46.66644" lon="5.72053">
        <ele>660.2</ele>
        <time>2022-09-06T05:16:03Z</time>
      </trkpt>
      <trkpt lat="46.6665" lon="5.72055">
        <ele>660.2</ele>
        <time>2022-09-06T05:16:04Z</time>
      </trkpt>
      <trkpt lat="46.66656" lon="5.72057">
        <ele>660.2</ele>
        <time>2022-09-06T05:16:05Z</time>
      </trkpt>
      <trkpt lat="46.66662" lon="5.72058">
        <ele>660.2</ele>
        <time>2022-09-06T05:16:06Z</time>
      </trkpt>
      <trkpt lat="46.66667" lon="5.72059">
        <ele>660.2</ele>
        <time>2022-09-06T05:16:07Z</time>
      </trkpt>
      <trkpt lat="46.66673" lon="5.7206">
        <ele>660.4</ele>
        <time>2022-09-06T05:16:08Z</time>
      </trkpt>
      <trkpt lat="46.66679" lon="5.72062">
        <ele>660.4</ele>
        <time>2022-09-06T05:16:09Z</time>
      </trkpt>
      <trkpt lat="46.66684" lon="5.72064">
        <ele>660.4</ele>
        <time>2022-09-06T05:16:10Z</time>
      </trkpt>
      <trkpt lat="46.66691" lon="5.72067">
        <ele>660.4</ele>
        <time>2022-09-06T05:16:11Z</time>
      </trkpt>
      <trkpt lat="46.66697" lon="5.7207">
        <ele>660.4</ele>
        <time>2022-09-06T05:16:12Z</time>
      </trkpt>
      <trkpt lat="46.66704" lon="5.72073">
        <ele>660.4</ele>
        <time>2022-09-06T05:16:13Z</time>
      </trkpt>
      <trkpt lat="46.6671" lon="5.72077">
        <ele>660.6</ele>
        <time>2022-09-06T05:16:14Z</time>
      </trkpt>
      <trkpt lat="46.66716" lon="5.72082">
        <ele>660.6</ele>
        <time>2022-09-06T05:16:15Z</time>
      </trkpt>
      <trkpt lat="46.66721" lon="5.72088">
        <ele>660.6</ele>
        <time>2022-09-06T05:16:16Z</time>
      </trkpt>
      <trkpt lat="46.66726" lon="5.72095">
        <ele>660.6</ele>
        <time>2022-09-06T05:16:17Z</time>
      </trkpt>
      <trkpt lat="46.66731" lon="5.72102">
        <ele>660.6</ele>
        <time>2022-09-06T05:16:18Z</time>
      </trkpt>
      <trkpt lat="46.66735" lon="5.72109">
        <ele>660.6</ele>
        <time>2022-09-06T05:16:19Z</time>
      </trkpt>
      <trkpt lat="46.6674" lon="5.72115">
        <ele>660.6</ele>
        <time>2022-09-06T05:16:20Z</time>
      </trkpt>
      <trkpt lat="46.66745" lon="5.72122">
        <ele>660.6</ele>
        <time>2022-09-06T05:16:21Z</time>
      </trkpt>
      <trkpt lat="46.6675" lon="5.72127">
        <ele>660.6</ele>
        <time>2022-09-06T05:16:22Z</time>
      </trkpt>
      <trkpt lat="46.66757" lon="5.72131">
        <ele>660.6</ele>
        <time>2022-09-06T05:16:23Z</time>
      </trkpt>
      <trkpt lat="46.66763" lon="5.72134">
        <ele>660.6</ele>
        <time>2022-09-06T05:16:24Z</time>
      </trkpt>
      <trkpt lat="46.66768" lon="5.72136">
        <ele>660.6</ele>
        <time>2022-09-06T05:16:25Z</time>
      </trkpt>
      <trkpt lat="46.66774" lon="5.72138">
        <ele>660.6</ele>
        <time>2022-09-06T05:16:26Z</time>
      </trkpt>
      <trkpt lat="46.66781" lon="5.72139">
        <ele>660.6</ele>
        <time>2022-09-06T05:16:27Z</time>
      </trkpt>
      <trkpt lat="46.66787" lon="5.72139">
        <ele>660.6</ele>
        <time>2022-09-06T05:16:28Z</time>
      </trkpt>
      <trkpt lat="46.66793" lon="5.72139">
        <ele>660.6</ele>
        <time>2022-09-06T05:16:29Z</time>
      </trkpt>
      <trkpt lat="46.66799" lon="5.7214">
        <ele>660.8</ele>
        <time>2022-09-06T05:16:30Z</time>
      </trkpt>
      <trkpt lat="46.66805" lon="5.72141">
        <ele>660.8</ele>
        <time>2022-09-06T05:16:31Z</time>
      </trkpt>
      <trkpt lat="46.66812" lon="5.72142">
        <ele>660.8</ele>
        <time>2022-09-06T05:16:32Z</time>
      </trkpt>
      <trkpt lat="46.66818" lon="5.72142">
        <ele>660.8</ele>
        <time>2022-09-06T05:16:33Z</time>
      </trkpt>
      <trkpt lat="46.66824" lon="5.72143">
        <ele>660.8</ele>
        <time>2022-09-06T05:16:34Z</time>
      </trkpt>
      <trkpt lat="46.6683" lon="5.72144">
        <ele>660.8</ele>
        <time>2022-09-06T05:16:35Z</time>
      </trkpt>
      <trkpt lat="46.66836" lon="5.72145">
        <ele>661</ele>
        <time>2022-09-06T05:16:36Z</time>
      </trkpt>
      <trkpt lat="46.66843" lon="5.72145">
        <ele>661</ele>
        <time>2022-09-06T05:16:37Z</time>
      </trkpt>
      <trkpt lat="46.66848" lon="5.72147">
        <ele>661</ele>
        <time>2022-09-06T05:16:38Z</time>
      </trkpt>
      <trkpt lat="46.66854" lon="5.72147">
        <ele>661</ele>
        <time>2022-09-06T05:16:39Z</time>
      </trkpt>
      <trkpt lat="46.6686" lon="5.72148">
        <ele>661</ele>
        <time>2022-09-06T05:16:40Z</time>
      </trkpt>
      <trkpt lat="46.66866" lon="5.72147">
        <ele>661</ele>
        <time>2022-09-06T05:16:41Z</time>
      </trkpt>
      <trkpt lat="46.66872" lon="5.72147">
        <ele>661</ele>
        <time>2022-09-06T05:16:42Z</time>
      </trkpt>
      <trkpt lat="46.66878" lon="5.72148">
        <ele>661</ele>
        <time>2022-09-06T05:16:43Z</time>
      </trkpt>
      <trkpt lat="46.66884" lon="5.72148">
        <ele>661</ele>
        <time>2022-09-06T05:16:44Z</time>
      </trkpt>
      <trkpt lat="46.6689" lon="5.72148">
        <ele>661</ele>
        <time>2022-09-06T05:16:45Z</time>
      </trkpt>
      <trkpt lat="46.66896" lon="5.72148">
        <ele>661</ele>
        <time>2022-09-06T05:16:46Z</time>
      </trkpt>
      <trkpt lat="46.66902" lon="5.72149">
        <ele>661</ele>
        <time>2022-09-06T05:16:47Z</time>
      </trkpt>
      <trkpt lat="46.66907" lon="5.72148">
        <ele>661</ele>
        <time>2022-09-06T05:16:48Z</time>
      </trkpt>
      <trkpt lat="46.66913" lon="5.72148">
        <ele>661.2</ele>
        <time>2022-09-06T05:16:49Z</time>
      </trkpt>
      <trkpt lat="46.66919" lon="5.72147">
        <ele>661.2</ele>
        <time>2022-09-06T05:16:50Z</time>
      </trkpt>
      <trkpt lat="46.66925" lon="5.72146">
        <ele>661.2</ele>
        <time>2022-09-06T05:16:51Z</time>
      </trkpt>
      <trkpt lat="46.66931" lon="5.72145">
        <ele>661.2</ele>
        <time>2022-09-06T05:16:52Z</time>
      </trkpt>
      <trkpt lat="46.66937" lon="5.72144">
        <ele>661.2</ele>
        <time>2022-09-06T05:16:53Z</time>
      </trkpt>
      <trkpt lat="46.66943" lon="5.72142">
        <ele>661.2</ele>
        <time>2022-09-06T05:16:54Z</time>
      </trkpt>
      <trkpt lat="46.66949" lon="5.72141">
        <ele>661.2</ele>
        <time>2022-09-06T05:16:55Z</time>
      </trkpt>
      <trkpt lat="46.66955" lon="5.7214">
        <ele>661.2</ele>
        <time>2022-09-06T05:16:56Z</time>
      </trkpt>
      <trkpt lat="46.66961" lon="5.72138">
        <ele>661.2</ele>
        <time>2022-09-06T05:16:57Z</time>
      </trkpt>
      <trkpt lat="46.66967" lon="5.72137">
        <ele>661.2</ele>
        <time>2022-09-06T05:16:58Z</time>
      </trkpt>
      <trkpt lat="46.66973" lon="5.72136">
        <ele>661.2</ele>
        <time>2022-09-06T05:16:59Z</time>
      </trkpt>
      <trkpt lat="46.66979" lon="5.72135">
        <ele>661.2</ele>
        <time>2022-09-06T05:17:00Z</time>
      </trkpt>
      <trkpt lat="46.66985" lon="5.72134">
        <ele>661.2</ele>
        <time>2022-09-06T05:17:01Z</time>
      </trkpt>
      <trkpt lat="46.66992" lon="5.72134">
        <ele>661.4</ele>
        <time>2022-09-06T05:17:02Z</time>
      </trkpt>
      <trkpt lat="46.66998" lon="5.72135">
        <ele>661.4</ele>
        <time>2022-09-06T05:17:03Z</time>
      </trkpt>
      <trkpt lat="46.67003" lon="5.72135">
        <ele>661.4</ele>
        <time>2022-09-06T05:17:04Z</time>
      </trkpt>
      <trkpt lat="46.67009" lon="5.72136">
        <ele>661.4</ele>
        <time>2022-09-06T05:17:05Z</time>
      </trkpt>
      <trkpt lat="46.67015" lon="5.72136">
        <ele>661.4</ele>
        <time>2022-09-06T05:17:06Z</time>
      </trkpt>
      <trkpt lat="46.6702" lon="5.72137">
        <ele>661.4</ele>
        <time>2022-09-06T05:17:07Z</time>
      </trkpt>
      <trkpt lat="46.67025" lon="5.72138">
        <ele>661.4</ele>
        <time>2022-09-06T05:17:08Z</time>
      </trkpt>
      <trkpt lat="46.67031" lon="5.72137">
        <ele>661.4</ele>
        <time>2022-09-06T05:17:09Z</time>
      </trkpt>
      <trkpt lat="46.67037" lon="5.72137">
        <ele>661.4</ele>
        <time>2022-09-06T05:17:10Z</time>
      </trkpt>
      <trkpt lat="46.67043" lon="5.72136">
        <ele>661.4</ele>
        <time>2022-09-06T05:17:11Z</time>
      </trkpt>
      <trkpt lat="46.67049" lon="5.72136">
        <ele>661.4</ele>
        <time>2022-09-06T05:17:12Z</time>
      </trkpt>
      <trkpt lat="46.67054" lon="5.72136">
        <ele>661.4</ele>
        <time>2022-09-06T05:17:13Z</time>
      </trkpt>
      <trkpt lat="46.6706" lon="5.72135">
        <ele>661.4</ele>
        <time>2022-09-06T05:17:14Z</time>
      </trkpt>
      <trkpt lat="46.67065" lon="5.72135">
        <ele>661.4</ele>
        <time>2022-09-06T05:17:15Z</time>
      </trkpt>
      <trkpt lat="46.6707" lon="5.72135">
        <ele>661.4</ele>
        <time>2022-09-06T05:17:16Z</time>
      </trkpt>
      <trkpt lat="46.67076" lon="5.72135">
        <ele>661.4</ele>
        <time>2022-09-06T05:17:17Z</time>
      </trkpt>
      <trkpt lat="46.67081" lon="5.72135">
        <ele>661.4</ele>
        <time>2022-09-06T05:17:18Z</time>
      </trkpt>
      <trkpt lat="46.67087" lon="5.72136">
        <ele>661.4</ele>
        <time>2022-09-06T05:17:19Z</time>
      </trkpt>
      <trkpt lat="46.67093" lon="5.72136">
        <ele>661.4</ele>
        <time>2022-09-06T05:17:20Z</time>
      </trkpt>
      <trkpt lat="46.67099" lon="5.72136">
        <ele>661.4</ele>
        <time>2022-09-06T05:17:21Z</time>
      </trkpt>
      <trkpt lat="46.67105" lon="5.72137">
        <ele>661.4</ele>
        <time>2022-09-06T05:17:22Z</time>
      </trkpt>
      <trkpt lat="46.6711" lon="5.72138">
        <ele>661.4</ele>
        <time>2022-09-06T05:17:23Z</time>
      </trkpt>
      <trkpt lat="46.67116" lon="5.72138">
        <ele>661.4</ele>
        <time>2022-09-06T05:17:24Z</time>
      </trkpt>
      <trkpt lat="46.67122" lon="5.72138">
        <ele>661.4</ele>
        <time>2022-09-06T05:17:25Z</time>
      </trkpt>
      <trkpt lat="46.67128" lon="5.72138">
        <ele>661.8</ele>
        <time>2022-09-06T05:17:26Z</time>
      </trkpt>
      <trkpt lat="46.67133" lon="5.72138">
        <ele>661.8</ele>
        <time>2022-09-06T05:17:27Z</time>
      </trkpt>
      <trkpt lat="46.67138" lon="5.72139">
        <ele>661.8</ele>
        <time>2022-09-06T05:17:28Z</time>
      </trkpt>
      <trkpt lat="46.67144" lon="5.72138">
        <ele>661.8</ele>
        <time>2022-09-06T05:17:29Z</time>
      </trkpt>
      <trkpt lat="46.6715" lon="5.72139">
        <ele>661.8</ele>
        <time>2022-09-06T05:17:30Z</time>
      </trkpt>
      <trkpt lat="46.67156" lon="5.72139">
        <ele>662</ele>
        <time>2022-09-06T05:17:31Z</time>
      </trkpt>
      <trkpt lat="46.67162" lon="5.72139">
        <ele>662</ele>
        <time>2022-09-06T05:17:32Z</time>
      </trkpt>
      <trkpt lat="46.67169" lon="5.72141">
        <ele>662</ele>
        <time>2022-09-06T05:17:33Z</time>
      </trkpt>
      <trkpt lat="46.67175" lon="5.72141">
        <ele>662</ele>
        <time>2022-09-06T05:17:34Z</time>
      </trkpt>
      <trkpt lat="46.67181" lon="5.72141">
        <ele>662</ele>
        <time>2022-09-06T05:17:35Z</time>
      </trkpt>
      <trkpt lat="46.67187" lon="5.72141">
        <ele>662</ele>
        <time>2022-09-06T05:17:36Z</time>
      </trkpt>
      <trkpt lat="46.67194" lon="5.72141">
        <ele>662</ele>
        <time>2022-09-06T05:17:37Z</time>
      </trkpt>
      <trkpt lat="46.672" lon="5.72141">
        <ele>662</ele>
        <time>2022-09-06T05:17:38Z</time>
      </trkpt>
      <trkpt lat="46.67206" lon="5.7214">
        <ele>662.2</ele>
        <time>2022-09-06T05:17:39Z</time>
      </trkpt>
      <trkpt lat="46.67212" lon="5.7214">
        <ele>662.2</ele>
        <time>2022-09-06T05:17:40Z</time>
      </trkpt>
      <trkpt lat="46.67219" lon="5.72139">
        <ele>662.2</ele>
        <time>2022-09-06T05:17:41Z</time>
      </trkpt>
      <trkpt lat="46.67225" lon="5.72139">
        <ele>662.2</ele>
        <time>2022-09-06T05:17:42Z</time>
      </trkpt>
      <trkpt lat="46.67231" lon="5.72138">
        <ele>662.2</ele>
        <time>2022-09-06T05:17:43Z</time>
      </trkpt>
      <trkpt lat="46.67237" lon="5.72138">
        <ele>662.2</ele>
        <time>2022-09-06T05:17:44Z</time>
      </trkpt>
      <trkpt lat="46.67243" lon="5.72137">
        <ele>662.2</ele>
        <time>2022-09-06T05:17:45Z</time>
      </trkpt>
      <trkpt lat="46.67249" lon="5.72136">
        <ele>662.2</ele>
        <time>2022-09-06T05:17:46Z</time>
      </trkpt>
      <trkpt lat="46.67249" lon="5.72136">
        <ele>662.2</ele>
        <time>2022-09-06T05:17:47Z</time>
      </trkpt>
      <trkpt lat="46.67256" lon="5.72135">
        <ele>662.2</ele>
        <time>2022-09-06T05:17:48Z</time>
      </trkpt>
      <trkpt lat="46.67262" lon="5.72134">
        <ele>662.2</ele>
        <time>2022-09-06T05:17:49Z</time>
      </trkpt>
      <trkpt lat="46.67268" lon="5.72133">
        <ele>662.2</ele>
        <time>2022-09-06T05:17:50Z</time>
      </trkpt>
      <trkpt lat="46.67275" lon="5.72132">
        <ele>662.2</ele>
        <time>2022-09-06T05:17:51Z</time>
      </trkpt>
      <trkpt lat="46.67281" lon="5.72131">
        <ele>662.2</ele>
        <time>2022-09-06T05:17:52Z</time>
      </trkpt>
      <trkpt lat="46.67288" lon="5.72129">
        <ele>662.2</ele>
        <time>2022-09-06T05:17:53Z</time>
      </trkpt>
      <trkpt lat="46.67294" lon="5.72128">
        <ele>662.2</ele>
        <time>2022-09-06T05:17:54Z</time>
      </trkpt>
      <trkpt lat="46.67301" lon="5.72127">
        <ele>662.2</ele>
        <time>2022-09-06T05:17:55Z</time>
      </trkpt>
      <trkpt lat="46.67307" lon="5.72126">
        <ele>662.4</ele>
        <time>2022-09-06T05:17:56Z</time>
      </trkpt>
      <trkpt lat="46.67313" lon="5.72125">
        <ele>662.4</ele>
        <time>2022-09-06T05:17:57Z</time>
      </trkpt>
      <trkpt lat="46.6732" lon="5.72124">
        <ele>662.4</ele>
        <time>2022-09-06T05:17:58Z</time>
      </trkpt>
      <trkpt lat="46.67326" lon="5.72123">
        <ele>662.4</ele>
        <time>2022-09-06T05:17:59Z</time>
      </trkpt>
      <trkpt lat="46.67333" lon="5.72122">
        <ele>662.4</ele>
        <time>2022-09-06T05:18:00Z</time>
      </trkpt>
      <trkpt lat="46.67339" lon="5.72121">
        <ele>662.4</ele>
        <time>2022-09-06T05:18:01Z</time>
      </trkpt>
      <trkpt lat="46.67345" lon="5.7212">
        <ele>662.4</ele>
        <time>2022-09-06T05:18:02Z</time>
      </trkpt>
      <trkpt lat="46.67351" lon="5.72118">
        <ele>662.4</ele>
        <time>2022-09-06T05:18:03Z</time>
      </trkpt>
      <trkpt lat="46.67357" lon="5.72117">
        <ele>662.4</ele>
        <time>2022-09-06T05:18:04Z</time>
      </trkpt>
      <trkpt lat="46.67363" lon="5.72116">
        <ele>662.4</ele>
        <time>2022-09-06T05:18:05Z</time>
      </trkpt>
      <trkpt lat="46.67369" lon="5.72116">
        <ele>662.6</ele>
        <time>2022-09-06T05:18:06Z</time>
      </trkpt>
      <trkpt lat="46.67376" lon="5.72115">
        <ele>662.6</ele>
        <time>2022-09-06T05:18:07Z</time>
      </trkpt>
      <trkpt lat="46.67382" lon="5.72115">
        <ele>662.6</ele>
        <time>2022-09-06T05:18:08Z</time>
      </trkpt>
      <trkpt lat="46.67388" lon="5.72114">
        <ele>662.6</ele>
        <time>2022-09-06T05:18:09Z</time>
      </trkpt>
      <trkpt lat="46.67393" lon="5.72113">
        <ele>662.6</ele>
        <time>2022-09-06T05:18:10Z</time>
      </trkpt>
      <trkpt lat="46.674" lon="5.72112">
        <ele>662.6</ele>
        <time>2022-09-06T05:18:11Z</time>
      </trkpt>
      <trkpt lat="46.67406" lon="5.72111">
        <ele>662.6</ele>
        <time>2022-09-06T05:18:12Z</time>
      </trkpt>
      <trkpt lat="46.67412" lon="5.7211">
        <ele>662.6</ele>
        <time>2022-09-06T05:18:13Z</time>
      </trkpt>
      <trkpt lat="46.67418" lon="5.7211">
        <ele>662.8</ele>
        <time>2022-09-06T05:18:14Z</time>
      </trkpt>
      <trkpt lat="46.67424" lon="5.7211">
        <ele>662.8</ele>
        <time>2022-09-06T05:18:15Z</time>
      </trkpt>
      <trkpt lat="46.6743" lon="5.72109">
        <ele>662.8</ele>
        <time>2022-09-06T05:18:16Z</time>
      </trkpt>
      <trkpt lat="46.67435" lon="5.72109">
        <ele>662.8</ele>
        <time>2022-09-06T05:18:17Z</time>
      </trkpt>
      <trkpt lat="46.67441" lon="5.72109">
        <ele>662.8</ele>
        <time>2022-09-06T05:18:18Z</time>
      </trkpt>
      <trkpt lat="46.67446" lon="5.72109">
        <ele>662.8</ele>
        <time>2022-09-06T05:18:19Z</time>
      </trkpt>
      <trkpt lat="46.67451" lon="5.72109">
        <ele>662.8</ele>
        <time>2022-09-06T05:18:20Z</time>
      </trkpt>
      <trkpt lat="46.67456" lon="5.72108">
        <ele>662.8</ele>
        <time>2022-09-06T05:18:21Z</time>
      </trkpt>
      <trkpt lat="46.67462" lon="5.72108">
        <ele>662.8</ele>
        <time>2022-09-06T05:18:22Z</time>
      </trkpt>
      <trkpt lat="46.67468" lon="5.72108">
        <ele>663.2</ele>
        <time>2022-09-06T05:18:23Z</time>
      </trkpt>
      <trkpt lat="46.67473" lon="5.72109">
        <ele>663.2</ele>
        <time>2022-09-06T05:18:24Z</time>
      </trkpt>
      <trkpt lat="46.67479" lon="5.7211">
        <ele>663.2</ele>
        <time>2022-09-06T05:18:25Z</time>
      </trkpt>
      <trkpt lat="46.67484" lon="5.72111">
        <ele>663.2</ele>
        <time>2022-09-06T05:18:26Z</time>
      </trkpt>
      <trkpt lat="46.6749" lon="5.72111">
        <ele>663.2</ele>
        <time>2022-09-06T05:18:27Z</time>
      </trkpt>
      <trkpt lat="46.67495" lon="5.72112">
        <ele>663.2</ele>
        <time>2022-09-06T05:18:28Z</time>
      </trkpt>
      <trkpt lat="46.675" lon="5.72112">
        <ele>663.2</ele>
        <time>2022-09-06T05:18:29Z</time>
      </trkpt>
      <trkpt lat="46.67506" lon="5.72112">
        <ele>663.4</ele>
        <time>2022-09-06T05:18:30Z</time>
      </trkpt>
      <trkpt lat="46.67512" lon="5.72113">
        <ele>663.4</ele>
        <time>2022-09-06T05:18:31Z</time>
      </trkpt>
      <trkpt lat="46.67518" lon="5.72114">
        <ele>663.4</ele>
        <time>2022-09-06T05:18:32Z</time>
      </trkpt>
      <trkpt lat="46.67523" lon="5.72114">
        <ele>663.4</ele>
        <time>2022-09-06T05:18:33Z</time>
      </trkpt>
      <trkpt lat="46.67529" lon="5.72114">
        <ele>663.4</ele>
        <time>2022-09-06T05:18:34Z</time>
      </trkpt>
      <trkpt lat="46.67535" lon="5.72115">
        <ele>663.4</ele>
        <time>2022-09-06T05:18:35Z</time>
      </trkpt>
      <trkpt lat="46.67541" lon="5.72116">
        <ele>663.4</ele>
        <time>2022-09-06T05:18:36Z</time>
      </trkpt>
      <trkpt lat="46.67547" lon="5.72119">
        <ele>663.4</ele>
        <time>2022-09-06T05:18:37Z</time>
      </trkpt>
      <trkpt lat="46.67552" lon="5.7212">
        <ele>663.4</ele>
        <time>2022-09-06T05:18:38Z</time>
      </trkpt>
      <trkpt lat="46.67558" lon="5.72122">
        <ele>663.4</ele>
        <time>2022-09-06T05:18:39Z</time>
      </trkpt>
      <trkpt lat="46.67564" lon="5.72122">
        <ele>663.4</ele>
        <time>2022-09-06T05:18:40Z</time>
      </trkpt>
      <trkpt lat="46.67569" lon="5.72123">
        <ele>663.6</ele>
        <time>2022-09-06T05:18:41Z</time>
      </trkpt>
      <trkpt lat="46.67575" lon="5.72123">
        <ele>663.6</ele>
        <time>2022-09-06T05:18:42Z</time>
      </trkpt>
      <trkpt lat="46.67581" lon="5.72124">
        <ele>663.6</ele>
        <time>2022-09-06T05:18:43Z</time>
      </trkpt>
      <trkpt lat="46.67587" lon="5.72125">
        <ele>663.6</ele>
        <time>2022-09-06T05:18:44Z</time>
      </trkpt>
      <trkpt lat="46.67593" lon="5.72125">
        <ele>663.6</ele>
        <time>2022-09-06T05:18:45Z</time>
      </trkpt>
      <trkpt lat="46.67599" lon="5.72126">
        <ele>663.8</ele>
        <time>2022-09-06T05:18:46Z</time>
      </trkpt>
      <trkpt lat="46.67604" lon="5.72126">
        <ele>663.8</ele>
        <time>2022-09-06T05:18:47Z</time>
      </trkpt>
      <trkpt lat="46.6761" lon="5.72126">
        <ele>663.8</ele>
        <time>2022-09-06T05:18:48Z</time>
      </trkpt>
      <trkpt lat="46.67615" lon="5.72127">
        <ele>663.8</ele>
        <time>2022-09-06T05:18:49Z</time>
      </trkpt>
      <trkpt lat="46.67621" lon="5.72129">
        <ele>663.8</ele>
        <time>2022-09-06T05:18:50Z</time>
      </trkpt>
      <trkpt lat="46.67627" lon="5.7213">
        <ele>663.8</ele>
        <time>2022-09-06T05:18:51Z</time>
      </trkpt>
      <trkpt lat="46.67632" lon="5.72132">
        <ele>663.8</ele>
        <time>2022-09-06T05:18:52Z</time>
      </trkpt>
      <trkpt lat="46.67638" lon="5.72133">
        <ele>664</ele>
        <time>2022-09-06T05:18:53Z</time>
      </trkpt>
      <trkpt lat="46.67644" lon="5.72136">
        <ele>664</ele>
        <time>2022-09-06T05:18:54Z</time>
      </trkpt>
      <trkpt lat="46.6765" lon="5.72138">
        <ele>664</ele>
        <time>2022-09-06T05:18:55Z</time>
      </trkpt>
      <trkpt lat="46.67655" lon="5.7214">
        <ele>664</ele>
        <time>2022-09-06T05:18:56Z</time>
      </trkpt>
      <trkpt lat="46.6766" lon="5.72142">
        <ele>664</ele>
        <time>2022-09-06T05:18:57Z</time>
      </trkpt>
      <trkpt lat="46.67666" lon="5.72144">
        <ele>664</ele>
        <time>2022-09-06T05:18:58Z</time>
      </trkpt>
      <trkpt lat="46.67672" lon="5.72147">
        <ele>664</ele>
        <time>2022-09-06T05:18:59Z</time>
      </trkpt>
      <trkpt lat="46.67677" lon="5.7215">
        <ele>664</ele>
        <time>2022-09-06T05:19:00Z</time>
      </trkpt>
      <trkpt lat="46.67682" lon="5.72154">
        <ele>664</ele>
        <time>2022-09-06T05:19:01Z</time>
      </trkpt>
      <trkpt lat="46.67688" lon="5.72157">
        <ele>664</ele>
        <time>2022-09-06T05:19:02Z</time>
      </trkpt>
      <trkpt lat="46.67694" lon="5.72161">
        <ele>664</ele>
        <time>2022-09-06T05:19:03Z</time>
      </trkpt>
      <trkpt lat="46.67699" lon="5.72164">
        <ele>664</ele>
        <time>2022-09-06T05:19:04Z</time>
      </trkpt>
      <trkpt lat="46.67705" lon="5.72167">
        <ele>664</ele>
        <time>2022-09-06T05:19:05Z</time>
      </trkpt>
      <trkpt lat="46.6771" lon="5.7217">
        <ele>664</ele>
        <time>2022-09-06T05:19:06Z</time>
      </trkpt>
      <trkpt lat="46.67716" lon="5.72173">
        <ele>664</ele>
        <time>2022-09-06T05:19:07Z</time>
      </trkpt>
      <trkpt lat="46.67721" lon="5.72177">
        <ele>664</ele>
        <time>2022-09-06T05:19:08Z</time>
      </trkpt>
      <trkpt lat="46.67727" lon="5.7218">
        <ele>664</ele>
        <time>2022-09-06T05:19:09Z</time>
      </trkpt>
      <trkpt lat="46.67733" lon="5.72184">
        <ele>664</ele>
        <time>2022-09-06T05:19:10Z</time>
      </trkpt>
      <trkpt lat="46.67738" lon="5.72187">
        <ele>664</ele>
        <time>2022-09-06T05:19:11Z</time>
      </trkpt>
      <trkpt lat="46.67743" lon="5.72191">
        <ele>664</ele>
        <time>2022-09-06T05:19:12Z</time>
      </trkpt>
      <trkpt lat="46.67748" lon="5.72194">
        <ele>664</ele>
        <time>2022-09-06T05:19:13Z</time>
      </trkpt>
      <trkpt lat="46.67754" lon="5.72198">
        <ele>664</ele>
        <time>2022-09-06T05:19:14Z</time>
      </trkpt>
      <trkpt lat="46.67759" lon="5.72203">
        <ele>664</ele>
        <time>2022-09-06T05:19:15Z</time>
      </trkpt>
      <trkpt lat="46.67765" lon="5.72207">
        <ele>664</ele>
        <time>2022-09-06T05:19:16Z</time>
      </trkpt>
      <trkpt lat="46.6777" lon="5.72211">
        <ele>664</ele>
        <time>2022-09-06T05:19:17Z</time>
      </trkpt>
      <trkpt lat="46.67776" lon="5.72215">
        <ele>664</ele>
        <time>2022-09-06T05:19:18Z</time>
      </trkpt>
      <trkpt lat="46.67782" lon="5.72219">
        <ele>664</ele>
        <time>2022-09-06T05:19:19Z</time>
      </trkpt>
      <trkpt lat="46.67787" lon="5.72224">
        <ele>664</ele>
        <time>2022-09-06T05:19:20Z</time>
      </trkpt>
      <trkpt lat="46.67792" lon="5.72228">
        <ele>664</ele>
        <time>2022-09-06T05:19:21Z</time>
      </trkpt>
      <trkpt lat="46.67796" lon="5.72232">
        <ele>664</ele>
        <time>2022-09-06T05:19:22Z</time>
      </trkpt>
      <trkpt lat="46.67798" lon="5.72235">
        <ele>664</ele>
        <time>2022-09-06T05:19:23Z</time>
      </trkpt>
      <trkpt lat="46.678" lon="5.72236">
        <ele>664</ele>
        <time>2022-09-06T05:19:24Z</time>
      </trkpt>
      <trkpt lat="46.678" lon="5.72237">
        <ele>664</ele>
        <time>2022-09-06T05:19:25Z</time>
      </trkpt>
      <trkpt lat="46.67801" lon="5.72237">
        <ele>664</ele>
        <time>2022-09-06T05:19:26Z</time>
      </trkpt>
      <trkpt lat="46.67807" lon="5.72239">
        <ele>664</ele>
        <time>2022-09-06T05:20:05Z</time>
      </trkpt>
      <trkpt lat="46.67809" lon="5.7224">
        <ele>664</ele>
        <time>2022-09-06T05:20:06Z</time>
      </trkpt>
      <trkpt lat="46.67812" lon="5.72242">
        <ele>664</ele>
        <time>2022-09-06T05:20:07Z</time>
      </trkpt>
      <trkpt lat="46.67814" lon="5.72244">
        <ele>664</ele>
        <time>2022-09-06T05:20:08Z</time>
      </trkpt>
      <trkpt lat="46.67817" lon="5.72246">
        <ele>664</ele>
        <time>2022-09-06T05:20:09Z</time>
      </trkpt>
      <trkpt lat="46.6782" lon="5.72248">
        <ele>664</ele>
        <time>2022-09-06T05:20:10Z</time>
      </trkpt>
      <trkpt lat="46.67823" lon="5.72251">
        <ele>664</ele>
        <time>2022-09-06T05:20:11Z</time>
      </trkpt>
      <trkpt lat="46.67826" lon="5.72254">
        <ele>664</ele>
        <time>2022-09-06T05:20:12Z</time>
      </trkpt>
      <trkpt lat="46.6783" lon="5.72257">
        <ele>664.2</ele>
        <time>2022-09-06T05:20:13Z</time>
      </trkpt>
      <trkpt lat="46.67833" lon="5.72259">
        <ele>664.2</ele>
        <time>2022-09-06T05:20:14Z</time>
      </trkpt>
      <trkpt lat="46.67837" lon="5.72262">
        <ele>664.2</ele>
        <time>2022-09-06T05:20:15Z</time>
      </trkpt>
      <trkpt lat="46.67841" lon="5.72265">
        <ele>664.2</ele>
        <time>2022-09-06T05:20:16Z</time>
      </trkpt>
      <trkpt lat="46.67845" lon="5.72268">
        <ele>664.6</ele>
        <time>2022-09-06T05:20:17Z</time>
      </trkpt>
      <trkpt lat="46.67849" lon="5.72271">
        <ele>664.6</ele>
        <time>2022-09-06T05:20:18Z</time>
      </trkpt>
      <trkpt lat="46.67853" lon="5.72274">
        <ele>664.6</ele>
        <time>2022-09-06T05:20:19Z</time>
      </trkpt>
      <trkpt lat="46.67857" lon="5.72276">
        <ele>664.6</ele>
        <time>2022-09-06T05:20:20Z</time>
      </trkpt>
      <trkpt lat="46.67861" lon="5.7228">
        <ele>664.6</ele>
        <time>2022-09-06T05:20:21Z</time>
      </trkpt>
      <trkpt lat="46.67866" lon="5.72283">
        <ele>664.6</ele>
        <time>2022-09-06T05:20:22Z</time>
      </trkpt>
      <trkpt lat="46.6787" lon="5.72286">
        <ele>664.6</ele>
        <time>2022-09-06T05:20:23Z</time>
      </trkpt>
      <trkpt lat="46.67874" lon="5.72289">
        <ele>664.6</ele>
        <time>2022-09-06T05:20:24Z</time>
      </trkpt>
      <trkpt lat="46.67879" lon="5.72292">
        <ele>664.6</ele>
        <time>2022-09-06T05:20:25Z</time>
      </trkpt>
      <trkpt lat="46.67884" lon="5.72296">
        <ele>664.6</ele>
        <time>2022-09-06T05:20:26Z</time>
      </trkpt>
      <trkpt lat="46.67888" lon="5.72299">
        <ele>664.8</ele>
        <time>2022-09-06T05:20:27Z</time>
      </trkpt>
      <trkpt lat="46.67893" lon="5.72303">
        <ele>664.8</ele>
        <time>2022-09-06T05:20:28Z</time>
      </trkpt>
      <trkpt lat="46.67897" lon="5.72307">
        <ele>664.8</ele>
        <time>2022-09-06T05:20:29Z</time>
      </trkpt>
      <trkpt lat="46.67902" lon="5.7231">
        <ele>664.8</ele>
        <time>2022-09-06T05:20:30Z</time>
      </trkpt>
      <trkpt lat="46.67906" lon="5.72314">
        <ele>664.8</ele>
        <time>2022-09-06T05:20:31Z</time>
      </trkpt>
      <trkpt lat="46.67911" lon="5.72317">
        <ele>665</ele>
        <time>2022-09-06T05:20:32Z</time>
      </trkpt>
      <trkpt lat="46.67916" lon="5.72321">
        <ele>665</ele>
        <time>2022-09-06T05:20:33Z</time>
      </trkpt>
      <trkpt lat="46.67921" lon="5.72324">
        <ele>665</ele>
        <time>2022-09-06T05:20:34Z</time>
      </trkpt>
      <trkpt lat="46.67925" lon="5.72328">
        <ele>665</ele>
        <time>2022-09-06T05:20:35Z</time>
      </trkpt>
      <trkpt lat="46.6793" lon="5.72331">
        <ele>665</ele>
        <time>2022-09-06T05:20:36Z</time>
      </trkpt>
      <trkpt lat="46.67935" lon="5.72334">
        <ele>665</ele>
        <time>2022-09-06T05:20:37Z</time>
      </trkpt>
      <trkpt lat="46.6794" lon="5.72338">
        <ele>665.2</ele>
        <time>2022-09-06T05:20:38Z</time>
      </trkpt>
      <trkpt lat="46.67945" lon="5.72342">
        <ele>665.2</ele>
        <time>2022-09-06T05:20:39Z</time>
      </trkpt>
      <trkpt lat="46.6795" lon="5.72346">
        <ele>665.2</ele>
        <time>2022-09-06T05:20:40Z</time>
      </trkpt>
      <trkpt lat="46.67954" lon="5.7235">
        <ele>665.2</ele>
        <time>2022-09-06T05:20:41Z</time>
      </trkpt>
      <trkpt lat="46.67958" lon="5.72353">
        <ele>665.2</ele>
        <time>2022-09-06T05:20:42Z</time>
      </trkpt>
      <trkpt lat="46.67962" lon="5.72356">
        <ele>665.2</ele>
        <time>2022-09-06T05:20:43Z</time>
      </trkpt>
      <trkpt lat="46.67966" lon="5.72359">
        <ele>665.2</ele>
        <time>2022-09-06T05:20:44Z</time>
      </trkpt>
      <trkpt lat="46.67971" lon="5.72361">
        <ele>665.2</ele>
        <time>2022-09-06T05:20:45Z</time>
      </trkpt>
      <trkpt lat="46.67975" lon="5.72364">
        <ele>665.2</ele>
        <time>2022-09-06T05:20:46Z</time>
      </trkpt>
      <trkpt lat="46.6798" lon="5.72366">
        <ele>665</ele>
        <time>2022-09-06T05:20:47Z</time>
      </trkpt>
      <trkpt lat="46.67985" lon="5.72369">
        <ele>665</ele>
        <time>2022-09-06T05:20:48Z</time>
      </trkpt>
      <trkpt lat="46.67989" lon="5.72371">
        <ele>665</ele>
        <time>2022-09-06T05:20:49Z</time>
      </trkpt>
      <trkpt lat="46.67993" lon="5.72373">
        <ele>665</ele>
        <time>2022-09-06T05:20:50Z</time>
      </trkpt>
      <trkpt lat="46.67997" lon="5.72374">
        <ele>665</ele>
        <time>2022-09-06T05:20:51Z</time>
      </trkpt>
      <trkpt lat="46.68001" lon="5.72376">
        <ele>665</ele>
        <time>2022-09-06T05:20:52Z</time>
      </trkpt>
      <trkpt lat="46.68005" lon="5.72378">
        <ele>665</ele>
        <time>2022-09-06T05:20:53Z</time>
      </trkpt>
      <trkpt lat="46.68008" lon="5.7238">
        <ele>665</ele>
        <time>2022-09-06T05:20:54Z</time>
      </trkpt>
      <trkpt lat="46.68012" lon="5.72381">
        <ele>665</ele>
        <time>2022-09-06T05:20:55Z</time>
      </trkpt>
      <trkpt lat="46.68015" lon="5.72382">
        <ele>665</ele>
        <time>2022-09-06T05:20:56Z</time>
      </trkpt>
      <trkpt lat="46.68019" lon="5.72384">
        <ele>665</ele>
        <time>2022-09-06T05:20:57Z</time>
      </trkpt>
      <trkpt lat="46.68023" lon="5.72387">
        <ele>665</ele>
        <time>2022-09-06T05:20:58Z</time>
      </trkpt>
      <trkpt lat="46.68027" lon="5.72389">
        <ele>665</ele>
        <time>2022-09-06T05:20:59Z</time>
      </trkpt>
      <trkpt lat="46.68031" lon="5.72391">
        <ele>665</ele>
        <time>2022-09-06T05:21:00Z</time>
      </trkpt>
      <trkpt lat="46.68035" lon="5.72393">
        <ele>665</ele>
        <time>2022-09-06T05:21:01Z</time>
      </trkpt>
      <trkpt lat="46.68038" lon="5.72394">
        <ele>665</ele>
        <time>2022-09-06T05:21:02Z</time>
      </trkpt>
      <trkpt lat="46.68042" lon="5.72395">
        <ele>665</ele>
        <time>2022-09-06T05:21:03Z</time>
      </trkpt>
      <trkpt lat="46.68045" lon="5.72396">
        <ele>665.2</ele>
        <time>2022-09-06T05:21:04Z</time>
      </trkpt>
      <trkpt lat="46.68048" lon="5.72397">
        <ele>665.2</ele>
        <time>2022-09-06T05:21:05Z</time>
      </trkpt>
      <trkpt lat="46.68052" lon="5.72399">
        <ele>665.2</ele>
        <time>2022-09-06T05:21:06Z</time>
      </trkpt>
      <trkpt lat="46.68056" lon="5.72401">
        <ele>665.2</ele>
        <time>2022-09-06T05:21:07Z</time>
      </trkpt>
      <trkpt lat="46.6806" lon="5.72402">
        <ele>665.2</ele>
        <time>2022-09-06T05:21:08Z</time>
      </trkpt>
      <trkpt lat="46.68064" lon="5.72403">
        <ele>665.2</ele>
        <time>2022-09-06T05:21:09Z</time>
      </trkpt>
      <trkpt lat="46.68069" lon="5.72405">
        <ele>665.4</ele>
        <time>2022-09-06T05:21:10Z</time>
      </trkpt>
      <trkpt lat="46.68073" lon="5.72406">
        <ele>665.4</ele>
        <time>2022-09-06T05:21:11Z</time>
      </trkpt>
      <trkpt lat="46.68078" lon="5.72408">
        <ele>665.4</ele>
        <time>2022-09-06T05:21:12Z</time>
      </trkpt>
      <trkpt lat="46.68082" lon="5.72409">
        <ele>665.4</ele>
        <time>2022-09-06T05:21:13Z</time>
      </trkpt>
      <trkpt lat="46.68087" lon="5.7241">
        <ele>665.4</ele>
        <time>2022-09-06T05:21:14Z</time>
      </trkpt>
      <trkpt lat="46.68091" lon="5.72411">
        <ele>665.4</ele>
        <time>2022-09-06T05:21:15Z</time>
      </trkpt>
      <trkpt lat="46.68095" lon="5.72412">
        <ele>665.4</ele>
        <time>2022-09-06T05:21:16Z</time>
      </trkpt>
      <trkpt lat="46.68099" lon="5.72413">
        <ele>665.4</ele>
        <time>2022-09-06T05:21:17Z</time>
      </trkpt>
      <trkpt lat="46.68103" lon="5.72413">
        <ele>665.4</ele>
        <time>2022-09-06T05:21:18Z</time>
      </trkpt>
      <trkpt lat="46.68107" lon="5.72414">
        <ele>665.4</ele>
        <time>2022-09-06T05:21:19Z</time>
      </trkpt>
      <trkpt lat="46.68111" lon="5.72414">
        <ele>665.4</ele>
        <time>2022-09-06T05:21:20Z</time>
      </trkpt>
      <trkpt lat="46.68115" lon="5.72414">
        <ele>665.4</ele>
        <time>2022-09-06T05:21:21Z</time>
      </trkpt>
      <trkpt lat="46.6812" lon="5.72414">
        <ele>665.4</ele>
        <time>2022-09-06T05:21:22Z</time>
      </trkpt>
      <trkpt lat="46.68125" lon="5.72413">
        <ele>665.4</ele>
        <time>2022-09-06T05:21:23Z</time>
      </trkpt>
      <trkpt lat="46.6813" lon="5.72413">
        <ele>665.6</ele>
        <time>2022-09-06T05:21:24Z</time>
      </trkpt>
      <trkpt lat="46.68134" lon="5.72412">
        <ele>665.6</ele>
        <time>2022-09-06T05:21:25Z</time>
      </trkpt>
      <trkpt lat="46.68138" lon="5.72412">
        <ele>665.6</ele>
        <time>2022-09-06T05:21:26Z</time>
      </trkpt>
      <trkpt lat="46.68142" lon="5.72411">
        <ele>665.6</ele>
        <time>2022-09-06T05:21:27Z</time>
      </trkpt>
      <trkpt lat="46.68147" lon="5.72411">
        <ele>665.6</ele>
        <time>2022-09-06T05:21:28Z</time>
      </trkpt>
      <trkpt lat="46.68151" lon="5.7241">
        <ele>665.6</ele>
        <time>2022-09-06T05:21:29Z</time>
      </trkpt>
      <trkpt lat="46.68156" lon="5.72408">
        <ele>665.6</ele>
        <time>2022-09-06T05:21:30Z</time>
      </trkpt>
      <trkpt lat="46.68161" lon="5.72407">
        <ele>665.6</ele>
        <time>2022-09-06T05:21:31Z</time>
      </trkpt>
      <trkpt lat="46.68166" lon="5.72406">
        <ele>665.6</ele>
        <time>2022-09-06T05:21:32Z</time>
      </trkpt>
      <trkpt lat="46.6817" lon="5.72404">
        <ele>665.6</ele>
        <time>2022-09-06T05:21:33Z</time>
      </trkpt>
      <trkpt lat="46.68175" lon="5.72402">
        <ele>665.6</ele>
        <time>2022-09-06T05:21:34Z</time>
      </trkpt>
      <trkpt lat="46.68179" lon="5.72401">
        <ele>665.6</ele>
        <time>2022-09-06T05:21:35Z</time>
      </trkpt>
      <trkpt lat="46.68184" lon="5.724">
        <ele>665.6</ele>
        <time>2022-09-06T05:21:36Z</time>
      </trkpt>
      <trkpt lat="46.68189" lon="5.72398">
        <ele>665.6</ele>
        <time>2022-09-06T05:21:37Z</time>
      </trkpt>
      <trkpt lat="46.68194" lon="5.72396">
        <ele>665.6</ele>
        <time>2022-09-06T05:21:38Z</time>
      </trkpt>
      <trkpt lat="46.682" lon="5.72394">
        <ele>665.6</ele>
        <time>2022-09-06T05:21:39Z</time>
      </trkpt>
      <trkpt lat="46.68205" lon="5.72391">
        <ele>665.6</ele>
        <time>2022-09-06T05:21:40Z</time>
      </trkpt>
      <trkpt lat="46.68211" lon="5.72389">
        <ele>665.6</ele>
        <time>2022-09-06T05:21:41Z</time>
      </trkpt>
      <trkpt lat="46.68216" lon="5.72387">
        <ele>665.6</ele>
        <time>2022-09-06T05:21:42Z</time>
      </trkpt>
      <trkpt lat="46.68221" lon="5.72385">
        <ele>665.6</ele>
        <time>2022-09-06T05:21:43Z</time>
      </trkpt>
      <trkpt lat="46.68227" lon="5.72383">
        <ele>665.6</ele>
        <time>2022-09-06T05:21:44Z</time>
      </trkpt>
      <trkpt lat="46.68233" lon="5.72381">
        <ele>665.6</ele>
        <time>2022-09-06T05:21:45Z</time>
      </trkpt>
      <trkpt lat="46.68238" lon="5.7238">
        <ele>665.6</ele>
        <time>2022-09-06T05:21:46Z</time>
      </trkpt>
      <trkpt lat="46.68243" lon="5.72378">
        <ele>665.6</ele>
        <time>2022-09-06T05:21:47Z</time>
      </trkpt>
      <trkpt lat="46.68248" lon="5.72376">
        <ele>665.6</ele>
        <time>2022-09-06T05:21:48Z</time>
      </trkpt>
      <trkpt lat="46.68254" lon="5.72375">
        <ele>665.6</ele>
        <time>2022-09-06T05:21:49Z</time>
      </trkpt>
      <trkpt lat="46.6826" lon="5.72373">
        <ele>665.6</ele>
        <time>2022-09-06T05:21:50Z</time>
      </trkpt>
      <trkpt lat="46.68265" lon="5.72371">
        <ele>665.6</ele>
        <time>2022-09-06T05:21:51Z</time>
      </trkpt>
      <trkpt lat="46.6827" lon="5.72369">
        <ele>665.6</ele>
        <time>2022-09-06T05:21:52Z</time>
      </trkpt>
      <trkpt lat="46.68276" lon="5.72368">
        <ele>665.6</ele>
        <time>2022-09-06T05:21:53Z</time>
      </trkpt>
      <trkpt lat="46.68281" lon="5.72366">
        <ele>665.6</ele>
        <time>2022-09-06T05:21:54Z</time>
      </trkpt>
      <trkpt lat="46.68287" lon="5.72364">
        <ele>665.6</ele>
        <time>2022-09-06T05:21:55Z</time>
      </trkpt>
      <trkpt lat="46.68293" lon="5.72363">
        <ele>666</ele>
        <time>2022-09-06T05:21:56Z</time>
      </trkpt>
      <trkpt lat="46.68299" lon="5.72362">
        <ele>666</ele>
        <time>2022-09-06T05:21:57Z</time>
      </trkpt>
      <trkpt lat="46.68304" lon="5.72361">
        <ele>666</ele>
        <time>2022-09-06T05:21:58Z</time>
      </trkpt>
      <trkpt lat="46.6831" lon="5.72359">
        <ele>666</ele>
        <time>2022-09-06T05:21:59Z</time>
      </trkpt>
      <trkpt lat="46.68316" lon="5.72358">
        <ele>666</ele>
        <time>2022-09-06T05:22:00Z</time>
      </trkpt>
      <trkpt lat="46.68322" lon="5.72357">
        <ele>666</ele>
        <time>2022-09-06T05:22:01Z</time>
      </trkpt>
      <trkpt lat="46.68328" lon="5.72356">
        <ele>666</ele>
        <time>2022-09-06T05:22:02Z</time>
      </trkpt>
      <trkpt lat="46.68334" lon="5.72356">
        <ele>666.4</ele>
        <time>2022-09-06T05:22:03Z</time>
      </trkpt>
      <trkpt lat="46.6834" lon="5.72355">
        <ele>666.4</ele>
        <time>2022-09-06T05:22:04Z</time>
      </trkpt>
      <trkpt lat="46.68346" lon="5.72355">
        <ele>666.4</ele>
        <time>2022-09-06T05:22:05Z</time>
      </trkpt>
      <trkpt lat="46.68351" lon="5.72354">
        <ele>666.4</ele>
        <time>2022-09-06T05:22:06Z</time>
      </trkpt>
      <trkpt lat="46.68357" lon="5.72354">
        <ele>666.4</ele>
        <time>2022-09-06T05:22:07Z</time>
      </trkpt>
      <trkpt lat="46.68363" lon="5.72354">
        <ele>666.4</ele>
        <time>2022-09-06T05:22:08Z</time>
      </trkpt>
      <trkpt lat="46.68369" lon="5.72354">
        <ele>666.4</ele>
        <time>2022-09-06T05:22:09Z</time>
      </trkpt>
      <trkpt lat="46.68374" lon="5.72355">
        <ele>666.4</ele>
        <time>2022-09-06T05:22:10Z</time>
      </trkpt>
      <trkpt lat="46.6838" lon="5.72356">
        <ele>666.4</ele>
        <time>2022-09-06T05:22:11Z</time>
      </trkpt>
      <trkpt lat="46.68386" lon="5.72357">
        <ele>666.4</ele>
        <time>2022-09-06T05:22:12Z</time>
      </trkpt>
      <trkpt lat="46.68392" lon="5.72359">
        <ele>666.4</ele>
        <time>2022-09-06T05:22:13Z</time>
      </trkpt>
      <trkpt lat="46.68398" lon="5.72361">
        <ele>666.4</ele>
        <time>2022-09-06T05:22:14Z</time>
      </trkpt>
      <trkpt lat="46.68404" lon="5.72363">
        <ele>666.4</ele>
        <time>2022-09-06T05:22:15Z</time>
      </trkpt>
      <trkpt lat="46.6841" lon="5.72366">
        <ele>666.6</ele>
        <time>2022-09-06T05:22:16Z</time>
      </trkpt>
      <trkpt lat="46.68416" lon="5.72369">
        <ele>666.6</ele>
        <time>2022-09-06T05:22:17Z</time>
      </trkpt>
      <trkpt lat="46.68423" lon="5.72373">
        <ele>666.6</ele>
        <time>2022-09-06T05:22:18Z</time>
      </trkpt>
      <trkpt lat="46.68429" lon="5.72378">
        <ele>666.6</ele>
        <time>2022-09-06T05:22:19Z</time>
      </trkpt>
      <trkpt lat="46.68435" lon="5.72382">
        <ele>666.6</ele>
        <time>2022-09-06T05:22:20Z</time>
      </trkpt>
      <trkpt lat="46.6844" lon="5.72386">
        <ele>666.6</ele>
        <time>2022-09-06T05:22:21Z</time>
      </trkpt>
      <trkpt lat="46.68446" lon="5.72391">
        <ele>666.6</ele>
        <time>2022-09-06T05:22:22Z</time>
      </trkpt>
      <trkpt lat="46.68451" lon="5.72395">
        <ele>666.8</ele>
        <time>2022-09-06T05:22:23Z</time>
      </trkpt>
      <trkpt lat="46.68456" lon="5.724">
        <ele>666.8</ele>
        <time>2022-09-06T05:22:24Z</time>
      </trkpt>
      <trkpt lat="46.68462" lon="5.72405">
        <ele>666.8</ele>
        <time>2022-09-06T05:22:25Z</time>
      </trkpt>
      <trkpt lat="46.68467" lon="5.72409">
        <ele>666.8</ele>
        <time>2022-09-06T05:22:26Z</time>
      </trkpt>
      <trkpt lat="46.68472" lon="5.72413">
        <ele>666.8</ele>
        <time>2022-09-06T05:22:27Z</time>
      </trkpt>
      <trkpt lat="46.68478" lon="5.72418">
        <ele>666.8</ele>
        <time>2022-09-06T05:22:28Z</time>
      </trkpt>
      <trkpt lat="46.68483" lon="5.72422">
        <ele>666.8</ele>
        <time>2022-09-06T05:22:29Z</time>
      </trkpt>
      <trkpt lat="46.68489" lon="5.72426">
        <ele>666.8</ele>
        <time>2022-09-06T05:22:30Z</time>
      </trkpt>
      <trkpt lat="46.68495" lon="5.7243">
        <ele>666.8</ele>
        <time>2022-09-06T05:22:31Z</time>
      </trkpt>
      <trkpt lat="46.685" lon="5.72434">
        <ele>666.8</ele>
        <time>2022-09-06T05:22:32Z</time>
      </trkpt>
      <trkpt lat="46.68506" lon="5.72437">
        <ele>666.8</ele>
        <time>2022-09-06T05:22:33Z</time>
      </trkpt>
      <trkpt lat="46.68512" lon="5.72441">
        <ele>666.8</ele>
        <time>2022-09-06T05:22:34Z</time>
      </trkpt>
      <trkpt lat="46.68517" lon="5.72444">
        <ele>666.8</ele>
        <time>2022-09-06T05:22:35Z</time>
      </trkpt>
      <trkpt lat="46.68523" lon="5.72448">
        <ele>666.8</ele>
        <time>2022-09-06T05:22:36Z</time>
      </trkpt>
      <trkpt lat="46.68523" lon="5.72448">
        <ele>666.8</ele>
        <time>2022-09-06T05:22:37Z</time>
      </trkpt>
      <trkpt lat="46.68529" lon="5.72452">
        <ele>666.8</ele>
        <time>2022-09-06T05:22:38Z</time>
      </trkpt>
      <trkpt lat="46.68535" lon="5.72455">
        <ele>666.8</ele>
        <time>2022-09-06T05:22:39Z</time>
      </trkpt>
      <trkpt lat="46.6854" lon="5.72458">
        <ele>666.8</ele>
        <time>2022-09-06T05:22:40Z</time>
      </trkpt>
      <trkpt lat="46.68546" lon="5.72461">
        <ele>666.8</ele>
        <time>2022-09-06T05:22:41Z</time>
      </trkpt>
      <trkpt lat="46.68552" lon="5.72464">
        <ele>667</ele>
        <time>2022-09-06T05:22:42Z</time>
      </trkpt>
      <trkpt lat="46.68558" lon="5.72467">
        <ele>667</ele>
        <time>2022-09-06T05:22:43Z</time>
      </trkpt>
      <trkpt lat="46.68563" lon="5.72469">
        <ele>667</ele>
        <time>2022-09-06T05:22:44Z</time>
      </trkpt>
      <trkpt lat="46.68569" lon="5.72473">
        <ele>667</ele>
        <time>2022-09-06T05:22:45Z</time>
      </trkpt>
      <trkpt lat="46.68574" lon="5.72475">
        <ele>667</ele>
        <time>2022-09-06T05:22:46Z</time>
      </trkpt>
      <trkpt lat="46.6858" lon="5.72478">
        <ele>667</ele>
        <time>2022-09-06T05:22:47Z</time>
      </trkpt>
      <trkpt lat="46.68585" lon="5.72481">
        <ele>667</ele>
        <time>2022-09-06T05:22:48Z</time>
      </trkpt>
      <trkpt lat="46.6859" lon="5.72484">
        <ele>667.2</ele>
        <time>2022-09-06T05:22:49Z</time>
      </trkpt>
      <trkpt lat="46.68596" lon="5.72488">
        <ele>667.2</ele>
        <time>2022-09-06T05:22:50Z</time>
      </trkpt>
      <trkpt lat="46.68601" lon="5.72491">
        <ele>667.2</ele>
        <time>2022-09-06T05:22:51Z</time>
      </trkpt>
      <trkpt lat="46.68607" lon="5.72494">
        <ele>667.2</ele>
        <time>2022-09-06T05:22:52Z</time>
      </trkpt>
      <trkpt lat="46.68612" lon="5.72497">
        <ele>667.2</ele>
        <time>2022-09-06T05:22:53Z</time>
      </trkpt>
      <trkpt lat="46.68617" lon="5.725">
        <ele>667.2</ele>
        <time>2022-09-06T05:22:54Z</time>
      </trkpt>
      <trkpt lat="46.68623" lon="5.72503">
        <ele>667.2</ele>
        <time>2022-09-06T05:22:55Z</time>
      </trkpt>
      <trkpt lat="46.68628" lon="5.72506">
        <ele>667.2</ele>
        <time>2022-09-06T05:22:56Z</time>
      </trkpt>
      <trkpt lat="46.68634" lon="5.72509">
        <ele>667.2</ele>
        <time>2022-09-06T05:22:57Z</time>
      </trkpt>
      <trkpt lat="46.68639" lon="5.72513">
        <ele>667.4</ele>
        <time>2022-09-06T05:22:58Z</time>
      </trkpt>
      <trkpt lat="46.68645" lon="5.72516">
        <ele>667.4</ele>
        <time>2022-09-06T05:22:59Z</time>
      </trkpt>
      <trkpt lat="46.68651" lon="5.7252">
        <ele>667.4</ele>
        <time>2022-09-06T05:23:00Z</time>
      </trkpt>
      <trkpt lat="46.68656" lon="5.72523">
        <ele>667.4</ele>
        <time>2022-09-06T05:23:01Z</time>
      </trkpt>
      <trkpt lat="46.68662" lon="5.72526">
        <ele>667.4</ele>
        <time>2022-09-06T05:23:02Z</time>
      </trkpt>
      <trkpt lat="46.68667" lon="5.7253">
        <ele>667.4</ele>
        <time>2022-09-06T05:23:03Z</time>
      </trkpt>
      <trkpt lat="46.68673" lon="5.72533">
        <ele>667.4</ele>
        <time>2022-09-06T05:23:04Z</time>
      </trkpt>
      <trkpt lat="46.68678" lon="5.72536">
        <ele>667.4</ele>
        <time>2022-09-06T05:23:05Z</time>
      </trkpt>
      <trkpt lat="46.68684" lon="5.72538">
        <ele>667.4</ele>
        <time>2022-09-06T05:23:06Z</time>
      </trkpt>
      <trkpt lat="46.68689" lon="5.72541">
        <ele>667.4</ele>
        <time>2022-09-06T05:23:07Z</time>
      </trkpt>
      <trkpt lat="46.68695" lon="5.72544">
        <ele>667.4</ele>
        <time>2022-09-06T05:23:08Z</time>
      </trkpt>
      <trkpt lat="46.687" lon="5.72548">
        <ele>667.4</ele>
        <time>2022-09-06T05:23:09Z</time>
      </trkpt>
      <trkpt lat="46.68706" lon="5.7255">
        <ele>667.4</ele>
        <time>2022-09-06T05:23:10Z</time>
      </trkpt>
      <trkpt lat="46.68711" lon="5.72553">
        <ele>667.6</ele>
        <time>2022-09-06T05:23:11Z</time>
      </trkpt>
      <trkpt lat="46.68716" lon="5.72556">
        <ele>667.6</ele>
        <time>2022-09-06T05:23:12Z</time>
      </trkpt>
      <trkpt lat="46.68721" lon="5.7256">
        <ele>667.6</ele>
        <time>2022-09-06T05:23:13Z</time>
      </trkpt>
      <trkpt lat="46.68726" lon="5.72563">
        <ele>667.6</ele>
        <time>2022-09-06T05:23:14Z</time>
      </trkpt>
      <trkpt lat="46.68732" lon="5.72567">
        <ele>667.6</ele>
        <time>2022-09-06T05:23:15Z</time>
      </trkpt>
      <trkpt lat="46.68737" lon="5.7257">
        <ele>667.6</ele>
        <time>2022-09-06T05:23:16Z</time>
      </trkpt>
      <trkpt lat="46.68742" lon="5.72573">
        <ele>667.6</ele>
        <time>2022-09-06T05:23:17Z</time>
      </trkpt>
      <trkpt lat="46.68748" lon="5.72576">
        <ele>667.6</ele>
        <time>2022-09-06T05:23:18Z</time>
      </trkpt>
      <trkpt lat="46.68753" lon="5.72579">
        <ele>667.6</ele>
        <time>2022-09-06T05:23:19Z</time>
      </trkpt>
      <trkpt lat="46.68758" lon="5.72581">
        <ele>668</ele>
        <time>2022-09-06T05:23:20Z</time>
      </trkpt>
      <trkpt lat="46.68763" lon="5.72584">
        <ele>668</ele>
        <time>2022-09-06T05:23:21Z</time>
      </trkpt>
      <trkpt lat="46.68768" lon="5.72588">
        <ele>668.2</ele>
        <time>2022-09-06T05:23:22Z</time>
      </trkpt>
      <trkpt lat="46.68773" lon="5.72592">
        <ele>668.2</ele>
        <time>2022-09-06T05:23:23Z</time>
      </trkpt>
      <trkpt lat="46.68778" lon="5.72595">
        <ele>668.2</ele>
        <time>2022-09-06T05:23:24Z</time>
      </trkpt>
      <trkpt lat="46.68784" lon="5.72599">
        <ele>668.2</ele>
        <time>2022-09-06T05:23:25Z</time>
      </trkpt>
      <trkpt lat="46.68789" lon="5.72603">
        <ele>668.2</ele>
        <time>2022-09-06T05:23:26Z</time>
      </trkpt>
      <trkpt lat="46.68795" lon="5.72606">
        <ele>668.2</ele>
        <time>2022-09-06T05:23:27Z</time>
      </trkpt>
      <trkpt lat="46.688" lon="5.72611">
        <ele>668.2</ele>
        <time>2022-09-06T05:23:28Z</time>
      </trkpt>
      <trkpt lat="46.68805" lon="5.72615">
        <ele>668.4</ele>
        <time>2022-09-06T05:23:29Z</time>
      </trkpt>
      <trkpt lat="46.68811" lon="5.72619">
        <ele>668.4</ele>
        <time>2022-09-06T05:23:30Z</time>
      </trkpt>
      <trkpt lat="46.68816" lon="5.72623">
        <ele>668.4</ele>
        <time>2022-09-06T05:23:31Z</time>
      </trkpt>
      <trkpt lat="46.68821" lon="5.72626">
        <ele>668.4</ele>
        <time>2022-09-06T05:23:32Z</time>
      </trkpt>
      <trkpt lat="46.68825" lon="5.72631">
        <ele>668.4</ele>
        <time>2022-09-06T05:23:33Z</time>
      </trkpt>
      <trkpt lat="46.6883" lon="5.72636">
        <ele>668.4</ele>
        <time>2022-09-06T05:23:34Z</time>
      </trkpt>
      <trkpt lat="46.68835" lon="5.72641">
        <ele>668.4</ele>
        <time>2022-09-06T05:23:35Z</time>
      </trkpt>
      <trkpt lat="46.6884" lon="5.72645">
        <ele>668.4</ele>
        <time>2022-09-06T05:23:36Z</time>
      </trkpt>
      <trkpt lat="46.68846" lon="5.72649">
        <ele>668.6</ele>
        <time>2022-09-06T05:23:37Z</time>
      </trkpt>
      <trkpt lat="46.68851" lon="5.72653">
        <ele>668.6</ele>
        <time>2022-09-06T05:23:38Z</time>
      </trkpt>
      <trkpt lat="46.68856" lon="5.72658">
        <ele>668.6</ele>
        <time>2022-09-06T05:23:39Z</time>
      </trkpt>
      <trkpt lat="46.68861" lon="5.72662">
        <ele>668.6</ele>
        <time>2022-09-06T05:23:40Z</time>
      </trkpt>
      <trkpt lat="46.68866" lon="5.72667">
        <ele>668.6</ele>
        <time>2022-09-06T05:23:41Z</time>
      </trkpt>
      <trkpt lat="46.68871" lon="5.72672">
        <ele>668.6</ele>
        <time>2022-09-06T05:23:42Z</time>
      </trkpt>
      <trkpt lat="46.68877" lon="5.72676">
        <ele>668.6</ele>
        <time>2022-09-06T05:23:43Z</time>
      </trkpt>
      <trkpt lat="46.68882" lon="5.7268">
        <ele>668.6</ele>
        <time>2022-09-06T05:23:44Z</time>
      </trkpt>
      <trkpt lat="46.68887" lon="5.72684">
        <ele>668.6</ele>
        <time>2022-09-06T05:23:45Z</time>
      </trkpt>
      <trkpt lat="46.68893" lon="5.72689">
        <ele>668.6</ele>
        <time>2022-09-06T05:23:46Z</time>
      </trkpt>
      <trkpt lat="46.68898" lon="5.72694">
        <ele>668.8</ele>
        <time>2022-09-06T05:23:47Z</time>
      </trkpt>
      <trkpt lat="46.68903" lon="5.72698">
        <ele>668.8</ele>
        <time>2022-09-06T05:23:48Z</time>
      </trkpt>
      <trkpt lat="46.68908" lon="5.72702">
        <ele>668.8</ele>
        <time>2022-09-06T05:23:49Z</time>
      </trkpt>
      <trkpt lat="46.68913" lon="5.72706">
        <ele>669.2</ele>
        <time>2022-09-06T05:23:50Z</time>
      </trkpt>
      <trkpt lat="46.68918" lon="5.7271">
        <ele>669.2</ele>
        <time>2022-09-06T05:23:51Z</time>
      </trkpt>
      <trkpt lat="46.68923" lon="5.72714">
        <ele>669.2</ele>
        <time>2022-09-06T05:23:52Z</time>
      </trkpt>
      <trkpt lat="46.68928" lon="5.72718">
        <ele>669.2</ele>
        <time>2022-09-06T05:23:53Z</time>
      </trkpt>
      <trkpt lat="46.68933" lon="5.72722">
        <ele>669.4</ele>
        <time>2022-09-06T05:23:54Z</time>
      </trkpt>
      <trkpt lat="46.68938" lon="5.72726">
        <ele>669.4</ele>
        <time>2022-09-06T05:23:55Z</time>
      </trkpt>
      <trkpt lat="46.68942" lon="5.7273">
        <ele>669.4</ele>
        <time>2022-09-06T05:23:56Z</time>
      </trkpt>
      <trkpt lat="46.68947" lon="5.72734">
        <ele>669.4</ele>
        <time>2022-09-06T05:23:57Z</time>
      </trkpt>
      <trkpt lat="46.68952" lon="5.72738">
        <ele>669.4</ele>
        <time>2022-09-06T05:23:58Z</time>
      </trkpt>
      <trkpt lat="46.68957" lon="5.72742">
        <ele>669.6</ele>
        <time>2022-09-06T05:23:59Z</time>
      </trkpt>
      <trkpt lat="46.68962" lon="5.72746">
        <ele>669.6</ele>
        <time>2022-09-06T05:24:00Z</time>
      </trkpt>
      <trkpt lat="46.68967" lon="5.72751">
        <ele>669.6</ele>
        <time>2022-09-06T05:24:01Z</time>
      </trkpt>
      <trkpt lat="46.68972" lon="5.72755">
        <ele>669.6</ele>
        <time>2022-09-06T05:24:02Z</time>
      </trkpt>
      <trkpt lat="46.68976" lon="5.7276">
        <ele>669.6</ele>
        <time>2022-09-06T05:24:03Z</time>
      </trkpt>
      <trkpt lat="46.68981" lon="5.72764">
        <ele>669.6</ele>
        <time>2022-09-06T05:24:04Z</time>
      </trkpt>
      <trkpt lat="46.68986" lon="5.72769">
        <ele>669.6</ele>
        <time>2022-09-06T05:24:05Z</time>
      </trkpt>
      <trkpt lat="46.68992" lon="5.72773">
        <ele>669.6</ele>
        <time>2022-09-06T05:24:06Z</time>
      </trkpt>
      <trkpt lat="46.68996" lon="5.72778">
        <ele>669.8</ele>
        <time>2022-09-06T05:24:07Z</time>
      </trkpt>
      <trkpt lat="46.69001" lon="5.72782">
        <ele>669.8</ele>
        <time>2022-09-06T05:24:08Z</time>
      </trkpt>
      <trkpt lat="46.69006" lon="5.72786">
        <ele>670</ele>
        <time>2022-09-06T05:24:09Z</time>
      </trkpt>
      <trkpt lat="46.69011" lon="5.72789">
        <ele>670</ele>
        <time>2022-09-06T05:24:10Z</time>
      </trkpt>
      <trkpt lat="46.69016" lon="5.72793">
        <ele>670</ele>
        <time>2022-09-06T05:24:11Z</time>
      </trkpt>
      <trkpt lat="46.69021" lon="5.72797">
        <ele>670.2</ele>
        <time>2022-09-06T05:24:12Z</time>
      </trkpt>
      <trkpt lat="46.69026" lon="5.728">
        <ele>670.2</ele>
        <time>2022-09-06T05:24:13Z</time>
      </trkpt>
      <trkpt lat="46.69031" lon="5.72803">
        <ele>670.2</ele>
        <time>2022-09-06T05:24:14Z</time>
      </trkpt>
      <trkpt lat="46.69036" lon="5.72805">
        <ele>670.6</ele>
        <time>2022-09-06T05:24:15Z</time>
      </trkpt>
      <trkpt lat="46.69041" lon="5.72807">
        <ele>670.6</ele>
        <time>2022-09-06T05:24:16Z</time>
      </trkpt>
      <trkpt lat="46.69046" lon="5.72809">
        <ele>670.8</ele>
        <time>2022-09-06T05:24:17Z</time>
      </trkpt>
      <trkpt lat="46.69052" lon="5.7281">
        <ele>670.8</ele>
        <time>2022-09-06T05:24:18Z</time>
      </trkpt>
      <trkpt lat="46.69057" lon="5.72811">
        <ele>671</ele>
        <time>2022-09-06T05:24:19Z</time>
      </trkpt>
      <trkpt lat="46.69063" lon="5.72812">
        <ele>671</ele>
        <time>2022-09-06T05:24:20Z</time>
      </trkpt>
      <trkpt lat="46.69068" lon="5.72813">
        <ele>671</ele>
        <time>2022-09-06T05:24:21Z</time>
      </trkpt>
      <trkpt lat="46.69074" lon="5.72814">
        <ele>671</ele>
        <time>2022-09-06T05:24:22Z</time>
      </trkpt>
      <trkpt lat="46.6908" lon="5.72814">
        <ele>671</ele>
        <time>2022-09-06T05:24:23Z</time>
      </trkpt>
      <trkpt lat="46.69085" lon="5.72815">
        <ele>671</ele>
        <time>2022-09-06T05:24:24Z</time>
      </trkpt>
      <trkpt lat="46.6909" lon="5.72815">
        <ele>671</ele>
        <time>2022-09-06T05:24:25Z</time>
      </trkpt>
      <trkpt lat="46.69096" lon="5.72815">
        <ele>671</ele>
        <time>2022-09-06T05:24:26Z</time>
      </trkpt>
      <trkpt lat="46.69102" lon="5.72814">
        <ele>671</ele>
        <time>2022-09-06T05:24:27Z</time>
      </trkpt>
      <trkpt lat="46.69108" lon="5.72814">
        <ele>671</ele>
        <time>2022-09-06T05:24:28Z</time>
      </trkpt>
      <trkpt lat="46.69113" lon="5.72813">
        <ele>670.8</ele>
        <time>2022-09-06T05:24:29Z</time>
      </trkpt>
      <trkpt lat="46.6912" lon="5.72811">
        <ele>670.8</ele>
        <time>2022-09-06T05:24:30Z</time>
      </trkpt>
      <trkpt lat="46.69126" lon="5.7281">
        <ele>670.4</ele>
        <time>2022-09-06T05:24:31Z</time>
      </trkpt>
      <trkpt lat="46.69133" lon="5.72808">
        <ele>670.2</ele>
        <time>2022-09-06T05:24:32Z</time>
      </trkpt>
      <trkpt lat="46.6914" lon="5.72807">
        <ele>669.8</ele>
        <time>2022-09-06T05:24:33Z</time>
      </trkpt>
      <trkpt lat="46.69148" lon="5.72806">
        <ele>669.4</ele>
        <time>2022-09-06T05:24:34Z</time>
      </trkpt>
      <trkpt lat="46.69157" lon="5.72805">
        <ele>669</ele>
        <time>2022-09-06T05:24:35Z</time>
      </trkpt>
      <trkpt lat="46.69166" lon="5.72802">
        <ele>668.6</ele>
        <time>2022-09-06T05:24:36Z</time>
      </trkpt>
      <trkpt lat="46.69175" lon="5.728">
        <ele>668.2</ele>
        <time>2022-09-06T05:24:37Z</time>
      </trkpt>
      <trkpt lat="46.69186" lon="5.72795">
        <ele>667.8</ele>
        <time>2022-09-06T05:24:38Z</time>
      </trkpt>
      <trkpt lat="46.69197" lon="5.72791">
        <ele>667.4</ele>
        <time>2022-09-06T05:24:39Z</time>
      </trkpt>
      <trkpt lat="46.69207" lon="5.72788">
        <ele>667</ele>
        <time>2022-09-06T05:24:40Z</time>
      </trkpt>
      <trkpt lat="46.69218" lon="5.72786">
        <ele>666.6</ele>
        <time>2022-09-06T05:24:41Z</time>
      </trkpt>
      <trkpt lat="46.69229" lon="5.72784">
        <ele>666.4</ele>
        <time>2022-09-06T05:24:42Z</time>
      </trkpt>
      <trkpt lat="46.69239" lon="5.72781">
        <ele>666</ele>
        <time>2022-09-06T05:24:43Z</time>
      </trkpt>
      <trkpt lat="46.69249" lon="5.72776">
        <ele>665.8</ele>
        <time>2022-09-06T05:24:44Z</time>
      </trkpt>
      <trkpt lat="46.69258" lon="5.72774">
        <ele>665.8</ele>
        <time>2022-09-06T05:24:45Z</time>
      </trkpt>
      <trkpt lat="46.69266" lon="5.72772">
        <ele>665.6</ele>
        <time>2022-09-06T05:24:46Z</time>
      </trkpt>
      <trkpt lat="46.69275" lon="5.72769">
        <ele>665.4</ele>
        <time>2022-09-06T05:24:47Z</time>
      </trkpt>
      <trkpt lat="46.69284" lon="5.72766">
        <ele>665.4</ele>
        <time>2022-09-06T05:24:48Z</time>
      </trkpt>
      <trkpt lat="46.69292" lon="5.72763">
        <ele>665</ele>
        <time>2022-09-06T05:24:49Z</time>
      </trkpt>
      <trkpt lat="46.69302" lon="5.72761">
        <ele>665</ele>
        <time>2022-09-06T05:24:50Z</time>
      </trkpt>
      <trkpt lat="46.6931" lon="5.72759">
        <ele>665</ele>
        <time>2022-09-06T05:24:51Z</time>
      </trkpt>
      <trkpt lat="46.69319" lon="5.72757">
        <ele>664.8</ele>
        <time>2022-09-06T05:24:52Z</time>
      </trkpt>
      <trkpt lat="46.69327" lon="5.72755">
        <ele>664.8</ele>
        <time>2022-09-06T05:24:53Z</time>
      </trkpt>
      <trkpt lat="46.69335" lon="5.72753">
        <ele>664.8</ele>
        <time>2022-09-06T05:24:54Z</time>
      </trkpt>
      <trkpt lat="46.69343" lon="5.7275">
        <ele>664.8</ele>
        <time>2022-09-06T05:24:55Z</time>
      </trkpt>
      <trkpt lat="46.69351" lon="5.72748">
        <ele>664.8</ele>
        <time>2022-09-06T05:24:56Z</time>
      </trkpt>
      <trkpt lat="46.69359" lon="5.72747">
        <ele>664.8</ele>
        <time>2022-09-06T05:24:57Z</time>
      </trkpt>
      <trkpt lat="46.69367" lon="5.72745">
        <ele>664.8</ele>
        <time>2022-09-06T05:24:58Z</time>
      </trkpt>
      <trkpt lat="46.69374" lon="5.72743">
        <ele>664.8</ele>
        <time>2022-09-06T05:24:59Z</time>
      </trkpt>
      <trkpt lat="46.69382" lon="5.72741">
        <ele>664.8</ele>
        <time>2022-09-06T05:25:00Z</time>
      </trkpt>
      <trkpt lat="46.69389" lon="5.7274">
        <ele>665</ele>
        <time>2022-09-06T05:25:01Z</time>
      </trkpt>
      <trkpt lat="46.69396" lon="5.72738">
        <ele>665</ele>
        <time>2022-09-06T05:25:02Z</time>
      </trkpt>
      <trkpt lat="46.69403" lon="5.72736">
        <ele>665</ele>
        <time>2022-09-06T05:25:03Z</time>
      </trkpt>
      <trkpt lat="46.6941" lon="5.72734">
        <ele>665</ele>
        <time>2022-09-06T05:25:04Z</time>
      </trkpt>
      <trkpt lat="46.69417" lon="5.72732">
        <ele>665.2</ele>
        <time>2022-09-06T05:25:05Z</time>
      </trkpt>
      <trkpt lat="46.69424" lon="5.72731">
        <ele>665.2</ele>
        <time>2022-09-06T05:25:06Z</time>
      </trkpt>
      <trkpt lat="46.6943" lon="5.72729">
        <ele>665.4</ele>
        <time>2022-09-06T05:25:07Z</time>
      </trkpt>
      <trkpt lat="46.69437" lon="5.72728">
        <ele>665.4</ele>
        <time>2022-09-06T05:25:08Z</time>
      </trkpt>
      <trkpt lat="46.69443" lon="5.72728">
        <ele>665.4</ele>
        <time>2022-09-06T05:25:09Z</time>
      </trkpt>
      <trkpt lat="46.6945" lon="5.72727">
        <ele>665.6</ele>
        <time>2022-09-06T05:25:10Z</time>
      </trkpt>
      <trkpt lat="46.69456" lon="5.72725">
        <ele>665.6</ele>
        <time>2022-09-06T05:25:11Z</time>
      </trkpt>
      <trkpt lat="46.69463" lon="5.72723">
        <ele>666</ele>
        <time>2022-09-06T05:25:12Z</time>
      </trkpt>
      <trkpt lat="46.69469" lon="5.72722">
        <ele>666</ele>
        <time>2022-09-06T05:25:13Z</time>
      </trkpt>
      <trkpt lat="46.69476" lon="5.7272">
        <ele>666.2</ele>
        <time>2022-09-06T05:25:14Z</time>
      </trkpt>
      <trkpt lat="46.69482" lon="5.72718">
        <ele>666.2</ele>
        <time>2022-09-06T05:25:15Z</time>
      </trkpt>
      <trkpt lat="46.69488" lon="5.72716">
        <ele>666.2</ele>
        <time>2022-09-06T05:25:16Z</time>
      </trkpt>
      <trkpt lat="46.69495" lon="5.72715">
        <ele>666.2</ele>
        <time>2022-09-06T05:25:17Z</time>
      </trkpt>
      <trkpt lat="46.69501" lon="5.72713">
        <ele>666.2</ele>
        <time>2022-09-06T05:25:18Z</time>
      </trkpt>
      <trkpt lat="46.69507" lon="5.72711">
        <ele>666.4</ele>
        <time>2022-09-06T05:25:19Z</time>
      </trkpt>
      <trkpt lat="46.69513" lon="5.7271">
        <ele>666.4</ele>
        <time>2022-09-06T05:25:20Z</time>
      </trkpt>
      <trkpt lat="46.69519" lon="5.72708">
        <ele>666.4</ele>
        <time>2022-09-06T05:25:21Z</time>
      </trkpt>
      <trkpt lat="46.69524" lon="5.72706">
        <ele>666.6</ele>
        <time>2022-09-06T05:25:22Z</time>
      </trkpt>
      <trkpt lat="46.6953" lon="5.72705">
        <ele>666.6</ele>
        <time>2022-09-06T05:25:23Z</time>
      </trkpt>
      <trkpt lat="46.69536" lon="5.72703">
        <ele>666.6</ele>
        <time>2022-09-06T05:25:24Z</time>
      </trkpt>
      <trkpt lat="46.69542" lon="5.72702">
        <ele>666.6</ele>
        <time>2022-09-06T05:25:25Z</time>
      </trkpt>
      <trkpt lat="46.69548" lon="5.727">
        <ele>666.6</ele>
        <time>2022-09-06T05:25:26Z</time>
      </trkpt>
      <trkpt lat="46.69553" lon="5.72699">
        <ele>666.6</ele>
        <time>2022-09-06T05:25:27Z</time>
      </trkpt>
      <trkpt lat="46.69559" lon="5.72697">
        <ele>666.6</ele>
        <time>2022-09-06T05:25:28Z</time>
      </trkpt>
      <trkpt lat="46.69565" lon="5.72696">
        <ele>666.6</ele>
        <time>2022-09-06T05:25:29Z</time>
      </trkpt>
      <trkpt lat="46.69571" lon="5.72694">
        <ele>666.6</ele>
        <time>2022-09-06T05:25:30Z</time>
      </trkpt>
      <trkpt lat="46.69577" lon="5.72692">
        <ele>666.6</ele>
        <time>2022-09-06T05:25:31Z</time>
      </trkpt>
      <trkpt lat="46.69583" lon="5.72691">
        <ele>666.2</ele>
        <time>2022-09-06T05:25:32Z</time>
      </trkpt>
      <trkpt lat="46.6959" lon="5.72689">
        <ele>666.2</ele>
        <time>2022-09-06T05:25:33Z</time>
      </trkpt>
      <trkpt lat="46.69596" lon="5.72687">
        <ele>666</ele>
        <time>2022-09-06T05:25:34Z</time>
      </trkpt>
      <trkpt lat="46.69603" lon="5.72686">
        <ele>665.6</ele>
        <time>2022-09-06T05:25:35Z</time>
      </trkpt>
      <trkpt lat="46.6961" lon="5.72684">
        <ele>665.4</ele>
        <time>2022-09-06T05:25:36Z</time>
      </trkpt>
      <trkpt lat="46.69617" lon="5.72683">
        <ele>665</ele>
        <time>2022-09-06T05:25:37Z</time>
      </trkpt>
      <trkpt lat="46.69624" lon="5.72681">
        <ele>664.8</ele>
        <time>2022-09-06T05:25:38Z</time>
      </trkpt>
      <trkpt lat="46.6963" lon="5.72681">
        <ele>664.4</ele>
        <time>2022-09-06T05:25:39Z</time>
      </trkpt>
      <trkpt lat="46.69636" lon="5.72681">
        <ele>664.2</ele>
        <time>2022-09-06T05:25:40Z</time>
      </trkpt>
      <trkpt lat="46.69641" lon="5.72682">
        <ele>664</ele>
        <time>2022-09-06T05:25:41Z</time>
      </trkpt>
      <trkpt lat="46.69646" lon="5.72683">
        <ele>663.8</ele>
        <time>2022-09-06T05:25:42Z</time>
      </trkpt>
      <trkpt lat="46.6965" lon="5.72685">
        <ele>663.4</ele>
        <time>2022-09-06T05:25:43Z</time>
      </trkpt>
      <trkpt lat="46.69653" lon="5.72685">
        <ele>663.4</ele>
        <time>2022-09-06T05:25:44Z</time>
      </trkpt>
      <trkpt lat="46.69657" lon="5.72686">
        <ele>663.2</ele>
        <time>2022-09-06T05:25:45Z</time>
      </trkpt>
      <trkpt lat="46.69659" lon="5.72686">
        <ele>663.2</ele>
        <time>2022-09-06T05:25:46Z</time>
      </trkpt>
      <trkpt lat="46.69661" lon="5.72687">
        <ele>663.2</ele>
        <time>2022-09-06T05:25:47Z</time>
      </trkpt>
      <trkpt lat="46.69662" lon="5.72686">
        <ele>663</ele>
        <time>2022-09-06T05:25:48Z</time>
      </trkpt>
      <trkpt lat="46.69662" lon="5.72686">
        <ele>663</ele>
        <time>2022-09-06T05:25:49Z</time>
      </trkpt>
      <trkpt lat="46.69668" lon="5.72685">
        <ele>663</ele>
        <time>2022-09-06T05:25:54Z</time>
      </trkpt>
      <trkpt lat="46.69671" lon="5.72683">
        <ele>663</ele>
        <time>2022-09-06T05:25:55Z</time>
      </trkpt>
      <trkpt lat="46.69675" lon="5.72682">
        <ele>663</ele>
        <time>2022-09-06T05:25:56Z</time>
      </trkpt>
      <trkpt lat="46.69679" lon="5.72682">
        <ele>663</ele>
        <time>2022-09-06T05:25:57Z</time>
      </trkpt>
      <trkpt lat="46.69683" lon="5.72684">
        <ele>663</ele>
        <time>2022-09-06T05:25:58Z</time>
      </trkpt>
      <trkpt lat="46.69688" lon="5.72686">
        <ele>663</ele>
        <time>2022-09-06T05:25:59Z</time>
      </trkpt>
      <trkpt lat="46.69692" lon="5.7269">
        <ele>663</ele>
        <time>2022-09-06T05:26:00Z</time>
      </trkpt>
      <trkpt lat="46.69696" lon="5.72694">
        <ele>663</ele>
        <time>2022-09-06T05:26:01Z</time>
      </trkpt>
      <trkpt lat="46.697" lon="5.72699">
        <ele>663</ele>
        <time>2022-09-06T05:26:02Z</time>
      </trkpt>
      <trkpt lat="46.69704" lon="5.72704">
        <ele>663</ele>
        <time>2022-09-06T05:26:03Z</time>
      </trkpt>
      <trkpt lat="46.69708" lon="5.72709">
        <ele>663</ele>
        <time>2022-09-06T05:26:04Z</time>
      </trkpt>
      <trkpt lat="46.69712" lon="5.72715">
        <ele>663</ele>
        <time>2022-09-06T05:26:05Z</time>
      </trkpt>
      <trkpt lat="46.69716" lon="5.72721">
        <ele>663</ele>
        <time>2022-09-06T05:26:06Z</time>
      </trkpt>
      <trkpt lat="46.6972" lon="5.72727">
        <ele>663</ele>
        <time>2022-09-06T05:26:07Z</time>
      </trkpt>
      <trkpt lat="46.69724" lon="5.72734">
        <ele>663</ele>
        <time>2022-09-06T05:26:08Z</time>
      </trkpt>
      <trkpt lat="46.69727" lon="5.7274">
        <ele>663</ele>
        <time>2022-09-06T05:26:09Z</time>
      </trkpt>
      <trkpt lat="46.6973" lon="5.72746">
        <ele>663.2</ele>
        <time>2022-09-06T05:26:10Z</time>
      </trkpt>
      <trkpt lat="46.69732" lon="5.72752">
        <ele>663.4</ele>
        <time>2022-09-06T05:26:11Z</time>
      </trkpt>
      <trkpt lat="46.69734" lon="5.72759">
        <ele>663.6</ele>
        <time>2022-09-06T05:26:12Z</time>
      </trkpt>
      <trkpt lat="46.69736" lon="5.72766">
        <ele>663.6</ele>
        <time>2022-09-06T05:26:13Z</time>
      </trkpt>
      <trkpt lat="46.69738" lon="5.72772">
        <ele>664</ele>
        <time>2022-09-06T05:26:14Z</time>
      </trkpt>
      <trkpt lat="46.6974" lon="5.72778">
        <ele>664</ele>
        <time>2022-09-06T05:26:15Z</time>
      </trkpt>
      <trkpt lat="46.69743" lon="5.72784">
        <ele>664.2</ele>
        <time>2022-09-06T05:26:16Z</time>
      </trkpt>
      <trkpt lat="46.69747" lon="5.72789">
        <ele>664.2</ele>
        <time>2022-09-06T05:26:17Z</time>
      </trkpt>
      <trkpt lat="46.69751" lon="5.72793">
        <ele>664.6</ele>
        <time>2022-09-06T05:26:18Z</time>
      </trkpt>
      <trkpt lat="46.69755" lon="5.72796">
        <ele>664.8</ele>
        <time>2022-09-06T05:26:19Z</time>
      </trkpt>
      <trkpt lat="46.69759" lon="5.72798">
        <ele>665</ele>
        <time>2022-09-06T05:26:20Z</time>
      </trkpt>
      <trkpt lat="46.69763" lon="5.72799">
        <ele>665.4</ele>
        <time>2022-09-06T05:26:21Z</time>
      </trkpt>
      <trkpt lat="46.69768" lon="5.72801">
        <ele>665.6</ele>
        <time>2022-09-06T05:26:22Z</time>
      </trkpt>
      <trkpt lat="46.69773" lon="5.72802">
        <ele>665.8</ele>
        <time>2022-09-06T05:26:23Z</time>
      </trkpt>
      <trkpt lat="46.69777" lon="5.72803">
        <ele>666.2</ele>
        <time>2022-09-06T05:26:24Z</time>
      </trkpt>
      <trkpt lat="46.69782" lon="5.72805">
        <ele>666.4</ele>
        <time>2022-09-06T05:26:25Z</time>
      </trkpt>
      <trkpt lat="46.69786" lon="5.72807">
        <ele>666.8</ele>
        <time>2022-09-06T05:26:26Z</time>
      </trkpt>
      <trkpt lat="46.69791" lon="5.72809">
        <ele>666.8</ele>
        <time>2022-09-06T05:26:27Z</time>
      </trkpt>
      <trkpt lat="46.69795" lon="5.72811">
        <ele>667</ele>
        <time>2022-09-06T05:26:28Z</time>
      </trkpt>
      <trkpt lat="46.698" lon="5.72813">
        <ele>667</ele>
        <time>2022-09-06T05:26:29Z</time>
      </trkpt>
      <trkpt lat="46.69805" lon="5.72815">
        <ele>667.4</ele>
        <time>2022-09-06T05:26:30Z</time>
      </trkpt>
      <trkpt lat="46.69809" lon="5.72817">
        <ele>667.4</ele>
        <time>2022-09-06T05:26:31Z</time>
      </trkpt>
      <trkpt lat="46.69814" lon="5.72819">
        <ele>667.4</ele>
        <time>2022-09-06T05:26:32Z</time>
      </trkpt>
      <trkpt lat="46.6982" lon="5.72821">
        <ele>667.6</ele>
        <time>2022-09-06T05:26:33Z</time>
      </trkpt>
      <trkpt lat="46.69825" lon="5.72823">
        <ele>667.6</ele>
        <time>2022-09-06T05:26:34Z</time>
      </trkpt>
      <trkpt lat="46.69831" lon="5.72825">
        <ele>667.6</ele>
        <time>2022-09-06T05:26:35Z</time>
      </trkpt>
      <trkpt lat="46.69837" lon="5.72826">
        <ele>667.6</ele>
        <time>2022-09-06T05:26:36Z</time>
      </trkpt>
      <trkpt lat="46.69843" lon="5.72828">
        <ele>667.6</ele>
        <time>2022-09-06T05:26:37Z</time>
      </trkpt>
      <trkpt lat="46.69849" lon="5.7283">
        <ele>667.4</ele>
        <time>2022-09-06T05:26:38Z</time>
      </trkpt>
      <trkpt lat="46.69856" lon="5.72831">
        <ele>667.4</ele>
        <time>2022-09-06T05:26:39Z</time>
      </trkpt>
      <trkpt lat="46.69863" lon="5.72833">
        <ele>667.2</ele>
        <time>2022-09-06T05:26:40Z</time>
      </trkpt>
      <trkpt lat="46.69869" lon="5.72835">
        <ele>667.2</ele>
        <time>2022-09-06T05:26:41Z</time>
      </trkpt>
      <trkpt lat="46.69876" lon="5.72837">
        <ele>666.8</ele>
        <time>2022-09-06T05:26:42Z</time>
      </trkpt>
      <trkpt lat="46.69883" lon="5.72839">
        <ele>666.8</ele>
        <time>2022-09-06T05:26:43Z</time>
      </trkpt>
      <trkpt lat="46.69889" lon="5.72841">
        <ele>666.8</ele>
        <time>2022-09-06T05:26:44Z</time>
      </trkpt>
      <trkpt lat="46.69895" lon="5.72843">
        <ele>666.8</ele>
        <time>2022-09-06T05:26:45Z</time>
      </trkpt>
      <trkpt lat="46.69901" lon="5.72846">
        <ele>666.8</ele>
        <time>2022-09-06T05:26:46Z</time>
      </trkpt>
      <trkpt lat="46.69907" lon="5.7285">
        <ele>666.8</ele>
        <time>2022-09-06T05:26:47Z</time>
      </trkpt>
      <trkpt lat="46.69912" lon="5.72854">
        <ele>666.8</ele>
        <time>2022-09-06T05:26:48Z</time>
      </trkpt>
      <trkpt lat="46.69916" lon="5.72859">
        <ele>666.8</ele>
        <time>2022-09-06T05:26:49Z</time>
      </trkpt>
      <trkpt lat="46.69921" lon="5.72864">
        <ele>666.8</ele>
        <time>2022-09-06T05:26:50Z</time>
      </trkpt>
      <trkpt lat="46.69926" lon="5.7287">
        <ele>666.8</ele>
        <time>2022-09-06T05:26:51Z</time>
      </trkpt>
      <trkpt lat="46.6993" lon="5.72876">
        <ele>666.8</ele>
        <time>2022-09-06T05:26:52Z</time>
      </trkpt>
      <trkpt lat="46.69935" lon="5.72882">
        <ele>666.8</ele>
        <time>2022-09-06T05:26:53Z</time>
      </trkpt>
      <trkpt lat="46.6994" lon="5.72888">
        <ele>666.6</ele>
        <time>2022-09-06T05:26:54Z</time>
      </trkpt>
      <trkpt lat="46.69945" lon="5.72894">
        <ele>666.6</ele>
        <time>2022-09-06T05:26:55Z</time>
      </trkpt>
      <trkpt lat="46.6995" lon="5.729">
        <ele>666.6</ele>
        <time>2022-09-06T05:26:56Z</time>
      </trkpt>
      <trkpt lat="46.69954" lon="5.72906">
        <ele>666.6</ele>
        <time>2022-09-06T05:26:57Z</time>
      </trkpt>
      <trkpt lat="46.69958" lon="5.72912">
        <ele>666.6</ele>
        <time>2022-09-06T05:26:58Z</time>
      </trkpt>
      <trkpt lat="46.69962" lon="5.72919">
        <ele>666.6</ele>
        <time>2022-09-06T05:26:59Z</time>
      </trkpt>
      <trkpt lat="46.69966" lon="5.72925">
        <ele>666.6</ele>
        <time>2022-09-06T05:27:00Z</time>
      </trkpt>
      <trkpt lat="46.6997" lon="5.72931">
        <ele>666.6</ele>
        <time>2022-09-06T05:27:01Z</time>
      </trkpt>
      <trkpt lat="46.69975" lon="5.72937">
        <ele>666.8</ele>
        <time>2022-09-06T05:27:02Z</time>
      </trkpt>
      <trkpt lat="46.69979" lon="5.72943">
        <ele>666.8</ele>
        <time>2022-09-06T05:27:03Z</time>
      </trkpt>
      <trkpt lat="46.69983" lon="5.72948">
        <ele>666.8</ele>
        <time>2022-09-06T05:27:04Z</time>
      </trkpt>
      <trkpt lat="46.69986" lon="5.72954">
        <ele>666.8</ele>
        <time>2022-09-06T05:27:05Z</time>
      </trkpt>
      <trkpt lat="46.6999" lon="5.7296">
        <ele>666.8</ele>
        <time>2022-09-06T05:27:06Z</time>
      </trkpt>
      <trkpt lat="46.69994" lon="5.72966">
        <ele>666.8</ele>
        <time>2022-09-06T05:27:07Z</time>
      </trkpt>
      <trkpt lat="46.69999" lon="5.72972">
        <ele>666.8</ele>
        <time>2022-09-06T05:27:08Z</time>
      </trkpt>
      <trkpt lat="46.70004" lon="5.72978">
        <ele>666.8</ele>
        <time>2022-09-06T05:27:09Z</time>
      </trkpt>
      <trkpt lat="46.70009" lon="5.72984">
        <ele>666.8</ele>
        <time>2022-09-06T05:27:10Z</time>
      </trkpt>
      <trkpt lat="46.70014" lon="5.7299">
        <ele>666.8</ele>
        <time>2022-09-06T05:27:11Z</time>
      </trkpt>
      <trkpt lat="46.70019" lon="5.72995">
        <ele>666.8</ele>
        <time>2022-09-06T05:27:12Z</time>
      </trkpt>
      <trkpt lat="46.70024" lon="5.73001">
        <ele>666.6</ele>
        <time>2022-09-06T05:27:13Z</time>
      </trkpt>
      <trkpt lat="46.7003" lon="5.73006">
        <ele>666.6</ele>
        <time>2022-09-06T05:27:14Z</time>
      </trkpt>
      <trkpt lat="46.70035" lon="5.73011">
        <ele>666.6</ele>
        <time>2022-09-06T05:27:15Z</time>
      </trkpt>
      <trkpt lat="46.70041" lon="5.73016">
        <ele>666.6</ele>
        <time>2022-09-06T05:27:16Z</time>
      </trkpt>
      <trkpt lat="46.70046" lon="5.73021">
        <ele>666.4</ele>
        <time>2022-09-06T05:27:17Z</time>
      </trkpt>
      <trkpt lat="46.70052" lon="5.73027">
        <ele>666.4</ele>
        <time>2022-09-06T05:27:18Z</time>
      </trkpt>
      <trkpt lat="46.70057" lon="5.73034">
        <ele>666</ele>
        <time>2022-09-06T05:27:19Z</time>
      </trkpt>
      <trkpt lat="46.70063" lon="5.73041">
        <ele>666</ele>
        <time>2022-09-06T05:27:20Z</time>
      </trkpt>
      <trkpt lat="46.70067" lon="5.73049">
        <ele>666</ele>
        <time>2022-09-06T05:27:21Z</time>
      </trkpt>
      <trkpt lat="46.70072" lon="5.73056">
        <ele>665.8</ele>
        <time>2022-09-06T05:27:22Z</time>
      </trkpt>
      <trkpt lat="46.70077" lon="5.73064">
        <ele>665.8</ele>
        <time>2022-09-06T05:27:23Z</time>
      </trkpt>
      <trkpt lat="46.70082" lon="5.73072">
        <ele>665.8</ele>
        <time>2022-09-06T05:27:24Z</time>
      </trkpt>
      <trkpt lat="46.70086" lon="5.7308">
        <ele>665.8</ele>
        <time>2022-09-06T05:27:25Z</time>
      </trkpt>
      <trkpt lat="46.70091" lon="5.73089">
        <ele>665.8</ele>
        <time>2022-09-06T05:27:26Z</time>
      </trkpt>
      <trkpt lat="46.70095" lon="5.73097">
        <ele>665.6</ele>
        <time>2022-09-06T05:27:27Z</time>
      </trkpt>
      <trkpt lat="46.70099" lon="5.73106">
        <ele>665.6</ele>
        <time>2022-09-06T05:27:28Z</time>
      </trkpt>
      <trkpt lat="46.70103" lon="5.73115">
        <ele>665.6</ele>
        <time>2022-09-06T05:27:29Z</time>
      </trkpt>
      <trkpt lat="46.70105" lon="5.73125">
        <ele>665.4</ele>
        <time>2022-09-06T05:27:30Z</time>
      </trkpt>
      <trkpt lat="46.70106" lon="5.73135">
        <ele>665.4</ele>
        <time>2022-09-06T05:27:31Z</time>
      </trkpt>
      <trkpt lat="46.70107" lon="5.73146">
        <ele>665.4</ele>
        <time>2022-09-06T05:27:32Z</time>
      </trkpt>
      <trkpt lat="46.70108" lon="5.73156">
        <ele>665.4</ele>
        <time>2022-09-06T05:27:33Z</time>
      </trkpt>
      <trkpt lat="46.70111" lon="5.73165">
        <ele>665.4</ele>
        <time>2022-09-06T05:27:34Z</time>
      </trkpt>
      <trkpt lat="46.70114" lon="5.73174">
        <ele>665.6</ele>
        <time>2022-09-06T05:27:35Z</time>
      </trkpt>
      <trkpt lat="46.70118" lon="5.73182">
        <ele>665.6</ele>
        <time>2022-09-06T05:27:36Z</time>
      </trkpt>
      <trkpt lat="46.70122" lon="5.73188">
        <ele>666</ele>
        <time>2022-09-06T05:27:37Z</time>
      </trkpt>
      <trkpt lat="46.70128" lon="5.73194">
        <ele>666</ele>
        <time>2022-09-06T05:27:38Z</time>
      </trkpt>
      <trkpt lat="46.70133" lon="5.73199">
        <ele>666.4</ele>
        <time>2022-09-06T05:27:39Z</time>
      </trkpt>
      <trkpt lat="46.70139" lon="5.73204">
        <ele>666.4</ele>
        <time>2022-09-06T05:27:40Z</time>
      </trkpt>
      <trkpt lat="46.70144" lon="5.73208">
        <ele>666.4</ele>
        <time>2022-09-06T05:27:41Z</time>
      </trkpt>
      <trkpt lat="46.70149" lon="5.73212">
        <ele>666.6</ele>
        <time>2022-09-06T05:27:42Z</time>
      </trkpt>
      <trkpt lat="46.70155" lon="5.73216">
        <ele>666.6</ele>
        <time>2022-09-06T05:27:43Z</time>
      </trkpt>
      <trkpt lat="46.7016" lon="5.73219">
        <ele>667</ele>
        <time>2022-09-06T05:27:44Z</time>
      </trkpt>
      <trkpt lat="46.70165" lon="5.73223">
        <ele>667</ele>
        <time>2022-09-06T05:27:45Z</time>
      </trkpt>
      <trkpt lat="46.70169" lon="5.73226">
        <ele>667.2</ele>
        <time>2022-09-06T05:27:46Z</time>
      </trkpt>
      <trkpt lat="46.70174" lon="5.7323">
        <ele>667.2</ele>
        <time>2022-09-06T05:27:47Z</time>
      </trkpt>
      <trkpt lat="46.70179" lon="5.73233">
        <ele>667.6</ele>
        <time>2022-09-06T05:27:48Z</time>
      </trkpt>
      <trkpt lat="46.70184" lon="5.73236">
        <ele>667.6</ele>
        <time>2022-09-06T05:27:49Z</time>
      </trkpt>
      <trkpt lat="46.70189" lon="5.73239">
        <ele>667.6</ele>
        <time>2022-09-06T05:27:50Z</time>
      </trkpt>
      <trkpt lat="46.70194" lon="5.73243">
        <ele>667.6</ele>
        <time>2022-09-06T05:27:51Z</time>
      </trkpt>
      <trkpt lat="46.70199" lon="5.73246">
        <ele>667.6</ele>
        <time>2022-09-06T05:27:52Z</time>
      </trkpt>
      <trkpt lat="46.70205" lon="5.7325">
        <ele>667.6</ele>
        <time>2022-09-06T05:27:53Z</time>
      </trkpt>
      <trkpt lat="46.7021" lon="5.73254">
        <ele>667.6</ele>
        <time>2022-09-06T05:27:54Z</time>
      </trkpt>
      <trkpt lat="46.70216" lon="5.73259">
        <ele>667.6</ele>
        <time>2022-09-06T05:27:55Z</time>
      </trkpt>
      <trkpt lat="46.70223" lon="5.73263">
        <ele>667.6</ele>
        <time>2022-09-06T05:27:56Z</time>
      </trkpt>
      <trkpt lat="46.70229" lon="5.73268">
        <ele>667.2</ele>
        <time>2022-09-06T05:27:57Z</time>
      </trkpt>
      <trkpt lat="46.70236" lon="5.73273">
        <ele>667.2</ele>
        <time>2022-09-06T05:27:58Z</time>
      </trkpt>
      <trkpt lat="46.70243" lon="5.73278">
        <ele>667</ele>
        <time>2022-09-06T05:27:59Z</time>
      </trkpt>
      <trkpt lat="46.7025" lon="5.73282">
        <ele>666.8</ele>
        <time>2022-09-06T05:28:00Z</time>
      </trkpt>
      <trkpt lat="46.70257" lon="5.73287">
        <ele>666.4</ele>
        <time>2022-09-06T05:28:01Z</time>
      </trkpt>
      <trkpt lat="46.70264" lon="5.7329">
        <ele>666.4</ele>
        <time>2022-09-06T05:28:02Z</time>
      </trkpt>
      <trkpt lat="46.70272" lon="5.73293">
        <ele>666</ele>
        <time>2022-09-06T05:28:03Z</time>
      </trkpt>
      <trkpt lat="46.7028" lon="5.73295">
        <ele>665.8</ele>
        <time>2022-09-06T05:28:04Z</time>
      </trkpt>
      <trkpt lat="46.70288" lon="5.73295">
        <ele>665.6</ele>
        <time>2022-09-06T05:28:05Z</time>
      </trkpt>
      <trkpt lat="46.70297" lon="5.73295">
        <ele>665.2</ele>
        <time>2022-09-06T05:28:06Z</time>
      </trkpt>
      <trkpt lat="46.70306" lon="5.73294">
        <ele>665</ele>
        <time>2022-09-06T05:28:07Z</time>
      </trkpt>
      <trkpt lat="46.70315" lon="5.73294">
        <ele>664.6</ele>
        <time>2022-09-06T05:28:08Z</time>
      </trkpt>
      <trkpt lat="46.70324" lon="5.73295">
        <ele>664.4</ele>
        <time>2022-09-06T05:28:09Z</time>
      </trkpt>
      <trkpt lat="46.70332" lon="5.73296">
        <ele>664.4</ele>
        <time>2022-09-06T05:28:10Z</time>
      </trkpt>
      <trkpt lat="46.70341" lon="5.73298">
        <ele>664</ele>
        <time>2022-09-06T05:28:11Z</time>
      </trkpt>
      <trkpt lat="46.7035" lon="5.73299">
        <ele>664</ele>
        <time>2022-09-06T05:28:12Z</time>
      </trkpt>
      <trkpt lat="46.70358" lon="5.73302">
        <ele>663.8</ele>
        <time>2022-09-06T05:28:13Z</time>
      </trkpt>
      <trkpt lat="46.70366" lon="5.73305">
        <ele>663.8</ele>
        <time>2022-09-06T05:28:14Z</time>
      </trkpt>
      <trkpt lat="46.70374" lon="5.73309">
        <ele>663.6</ele>
        <time>2022-09-06T05:28:15Z</time>
      </trkpt>
      <trkpt lat="46.70382" lon="5.73314">
        <ele>663.6</ele>
        <time>2022-09-06T05:28:16Z</time>
      </trkpt>
      <trkpt lat="46.70389" lon="5.73319">
        <ele>663.6</ele>
        <time>2022-09-06T05:28:17Z</time>
      </trkpt>
      <trkpt lat="46.70396" lon="5.73325">
        <ele>663.6</ele>
        <time>2022-09-06T05:28:18Z</time>
      </trkpt>
      <trkpt lat="46.70403" lon="5.73331">
        <ele>663.6</ele>
        <time>2022-09-06T05:28:19Z</time>
      </trkpt>
      <trkpt lat="46.7041" lon="5.73337">
        <ele>663.2</ele>
        <time>2022-09-06T05:28:20Z</time>
      </trkpt>
      <trkpt lat="46.70417" lon="5.73343">
        <ele>663.2</ele>
        <time>2022-09-06T05:28:21Z</time>
      </trkpt>
      <trkpt lat="46.70424" lon="5.73349">
        <ele>663.2</ele>
        <time>2022-09-06T05:28:22Z</time>
      </trkpt>
      <trkpt lat="46.7043" lon="5.73355">
        <ele>663.2</ele>
        <time>2022-09-06T05:28:23Z</time>
      </trkpt>
      <trkpt lat="46.70437" lon="5.73362">
        <ele>663.2</ele>
        <time>2022-09-06T05:28:24Z</time>
      </trkpt>
      <trkpt lat="46.70443" lon="5.73368">
        <ele>663.2</ele>
        <time>2022-09-06T05:28:25Z</time>
      </trkpt>
      <trkpt lat="46.70449" lon="5.73374">
        <ele>663.2</ele>
        <time>2022-09-06T05:28:26Z</time>
      </trkpt>
      <trkpt lat="46.70449" lon="5.73374">
        <ele>663.2</ele>
        <time>2022-09-06T05:28:27Z</time>
      </trkpt>
      <trkpt lat="46.70455" lon="5.7338">
        <ele>663.2</ele>
        <time>2022-09-06T05:28:28Z</time>
      </trkpt>
      <trkpt lat="46.70461" lon="5.73385">
        <ele>663.2</ele>
        <time>2022-09-06T05:28:29Z</time>
      </trkpt>
      <trkpt lat="46.70467" lon="5.7339">
        <ele>663.2</ele>
        <time>2022-09-06T05:28:30Z</time>
      </trkpt>
      <trkpt lat="46.70473" lon="5.73394">
        <ele>663.4</ele>
        <time>2022-09-06T05:28:31Z</time>
      </trkpt>
      <trkpt lat="46.70479" lon="5.73398">
        <ele>663.4</ele>
        <time>2022-09-06T05:28:32Z</time>
      </trkpt>
      <trkpt lat="46.70485" lon="5.73402">
        <ele>663.4</ele>
        <time>2022-09-06T05:28:33Z</time>
      </trkpt>
      <trkpt lat="46.70491" lon="5.73405">
        <ele>663.4</ele>
        <time>2022-09-06T05:28:34Z</time>
      </trkpt>
      <trkpt lat="46.70498" lon="5.73409">
        <ele>663.4</ele>
        <time>2022-09-06T05:28:35Z</time>
      </trkpt>
      <trkpt lat="46.70505" lon="5.73412">
        <ele>663.4</ele>
        <time>2022-09-06T05:28:36Z</time>
      </trkpt>
      <trkpt lat="46.70512" lon="5.73416">
        <ele>663.2</ele>
        <time>2022-09-06T05:28:37Z</time>
      </trkpt>
      <trkpt lat="46.7052" lon="5.7342">
        <ele>663.2</ele>
        <time>2022-09-06T05:28:38Z</time>
      </trkpt>
      <trkpt lat="46.70527" lon="5.73424">
        <ele>663.2</ele>
        <time>2022-09-06T05:28:39Z</time>
      </trkpt>
      <trkpt lat="46.70535" lon="5.73428">
        <ele>663</ele>
        <time>2022-09-06T05:28:40Z</time>
      </trkpt>
      <trkpt lat="46.70542" lon="5.73432">
        <ele>663</ele>
        <time>2022-09-06T05:28:41Z</time>
      </trkpt>
      <trkpt lat="46.70549" lon="5.73436">
        <ele>663</ele>
        <time>2022-09-06T05:28:42Z</time>
      </trkpt>
      <trkpt lat="46.70556" lon="5.7344">
        <ele>663</ele>
        <time>2022-09-06T05:28:43Z</time>
      </trkpt>
      <trkpt lat="46.70563" lon="5.73445">
        <ele>663</ele>
        <time>2022-09-06T05:28:44Z</time>
      </trkpt>
      <trkpt lat="46.7057" lon="5.7345">
        <ele>663</ele>
        <time>2022-09-06T05:28:45Z</time>
      </trkpt>
      <trkpt lat="46.70576" lon="5.73454">
        <ele>663</ele>
        <time>2022-09-06T05:28:46Z</time>
      </trkpt>
      <trkpt lat="46.70583" lon="5.73459">
        <ele>663</ele>
        <time>2022-09-06T05:28:47Z</time>
      </trkpt>
      <trkpt lat="46.70589" lon="5.73464">
        <ele>663</ele>
        <time>2022-09-06T05:28:48Z</time>
      </trkpt>
      <trkpt lat="46.70596" lon="5.73468">
        <ele>662.8</ele>
        <time>2022-09-06T05:28:49Z</time>
      </trkpt>
      <trkpt lat="46.70602" lon="5.73473">
        <ele>662.8</ele>
        <time>2022-09-06T05:28:50Z</time>
      </trkpt>
      <trkpt lat="46.70609" lon="5.73478">
        <ele>662.8</ele>
        <time>2022-09-06T05:28:51Z</time>
      </trkpt>
      <trkpt lat="46.70616" lon="5.73483">
        <ele>662.8</ele>
        <time>2022-09-06T05:28:52Z</time>
      </trkpt>
      <trkpt lat="46.70623" lon="5.73487">
        <ele>662.8</ele>
        <time>2022-09-06T05:28:53Z</time>
      </trkpt>
      <trkpt lat="46.70629" lon="5.73492">
        <ele>662.8</ele>
        <time>2022-09-06T05:28:54Z</time>
      </trkpt>
      <trkpt lat="46.70636" lon="5.73496">
        <ele>662.4</ele>
        <time>2022-09-06T05:28:55Z</time>
      </trkpt>
      <trkpt lat="46.70643" lon="5.735">
        <ele>662.4</ele>
        <time>2022-09-06T05:28:56Z</time>
      </trkpt>
      <trkpt lat="46.7065" lon="5.73504">
        <ele>662.4</ele>
        <time>2022-09-06T05:28:57Z</time>
      </trkpt>
      <trkpt lat="46.70657" lon="5.73508">
        <ele>662.4</ele>
        <time>2022-09-06T05:28:58Z</time>
      </trkpt>
      <trkpt lat="46.70664" lon="5.73512">
        <ele>662.4</ele>
        <time>2022-09-06T05:28:59Z</time>
      </trkpt>
      <trkpt lat="46.7067" lon="5.73516">
        <ele>662.4</ele>
        <time>2022-09-06T05:29:00Z</time>
      </trkpt>
      <trkpt lat="46.70677" lon="5.7352">
        <ele>662.4</ele>
        <time>2022-09-06T05:29:01Z</time>
      </trkpt>
      <trkpt lat="46.70684" lon="5.73524">
        <ele>662.4</ele>
        <time>2022-09-06T05:29:02Z</time>
      </trkpt>
      <trkpt lat="46.70691" lon="5.73528">
        <ele>662.4</ele>
        <time>2022-09-06T05:29:03Z</time>
      </trkpt>
      <trkpt lat="46.70698" lon="5.73531">
        <ele>662.4</ele>
        <time>2022-09-06T05:29:04Z</time>
      </trkpt>
      <trkpt lat="46.70705" lon="5.73535">
        <ele>662.4</ele>
        <time>2022-09-06T05:29:05Z</time>
      </trkpt>
      <trkpt lat="46.70712" lon="5.73539">
        <ele>662.4</ele>
        <time>2022-09-06T05:29:06Z</time>
      </trkpt>
      <trkpt lat="46.70719" lon="5.73543">
        <ele>662.2</ele>
        <time>2022-09-06T05:29:07Z</time>
      </trkpt>
      <trkpt lat="46.70726" lon="5.73546">
        <ele>662.2</ele>
        <time>2022-09-06T05:29:08Z</time>
      </trkpt>
      <trkpt lat="46.70733" lon="5.7355">
        <ele>662.2</ele>
        <time>2022-09-06T05:29:09Z</time>
      </trkpt>
      <trkpt lat="46.7074" lon="5.73554">
        <ele>662.2</ele>
        <time>2022-09-06T05:29:10Z</time>
      </trkpt>
      <trkpt lat="46.70747" lon="5.73558">
        <ele>662.2</ele>
        <time>2022-09-06T05:29:11Z</time>
      </trkpt>
      <trkpt lat="46.70754" lon="5.73561">
        <ele>662.2</ele>
        <time>2022-09-06T05:29:12Z</time>
      </trkpt>
      <trkpt lat="46.70761" lon="5.73565">
        <ele>662.2</ele>
        <time>2022-09-06T05:29:13Z</time>
      </trkpt>
      <trkpt lat="46.70768" lon="5.73568">
        <ele>662.2</ele>
        <time>2022-09-06T05:29:14Z</time>
      </trkpt>
      <trkpt lat="46.70775" lon="5.73571">
        <ele>662.2</ele>
        <time>2022-09-06T05:29:15Z</time>
      </trkpt>
      <trkpt lat="46.70782" lon="5.73575">
        <ele>662.2</ele>
        <time>2022-09-06T05:29:16Z</time>
      </trkpt>
      <trkpt lat="46.70789" lon="5.73578">
        <ele>662.2</ele>
        <time>2022-09-06T05:29:17Z</time>
      </trkpt>
      <trkpt lat="46.70796" lon="5.73581">
        <ele>662.2</ele>
        <time>2022-09-06T05:29:18Z</time>
      </trkpt>
      <trkpt lat="46.70803" lon="5.73584">
        <ele>662.2</ele>
        <time>2022-09-06T05:29:19Z</time>
      </trkpt>
      <trkpt lat="46.70809" lon="5.73587">
        <ele>662.2</ele>
        <time>2022-09-06T05:29:20Z</time>
      </trkpt>
      <trkpt lat="46.70816" lon="5.7359">
        <ele>662.6</ele>
        <time>2022-09-06T05:29:21Z</time>
      </trkpt>
      <trkpt lat="46.70822" lon="5.73592">
        <ele>662.8</ele>
        <time>2022-09-06T05:29:22Z</time>
      </trkpt>
      <trkpt lat="46.70829" lon="5.73594">
        <ele>663</ele>
        <time>2022-09-06T05:29:23Z</time>
      </trkpt>
      <trkpt lat="46.70835" lon="5.73595">
        <ele>663.2</ele>
        <time>2022-09-06T05:29:24Z</time>
      </trkpt>
      <trkpt lat="46.70841" lon="5.73596">
        <ele>663.6</ele>
        <time>2022-09-06T05:29:25Z</time>
      </trkpt>
      <trkpt lat="46.70847" lon="5.73596">
        <ele>663.8</ele>
        <time>2022-09-06T05:29:26Z</time>
      </trkpt>
      <trkpt lat="46.70853" lon="5.73597">
        <ele>664</ele>
        <time>2022-09-06T05:29:27Z</time>
      </trkpt>
      <trkpt lat="46.70859" lon="5.73597">
        <ele>664.4</ele>
        <time>2022-09-06T05:29:28Z</time>
      </trkpt>
      <trkpt lat="46.70865" lon="5.73597">
        <ele>664.6</ele>
        <time>2022-09-06T05:29:29Z</time>
      </trkpt>
      <trkpt lat="46.7087" lon="5.73597">
        <ele>665</ele>
        <time>2022-09-06T05:29:30Z</time>
      </trkpt>
      <trkpt lat="46.70876" lon="5.73598">
        <ele>665.2</ele>
        <time>2022-09-06T05:29:31Z</time>
      </trkpt>
      <trkpt lat="46.70882" lon="5.73598">
        <ele>665.4</ele>
        <time>2022-09-06T05:29:32Z</time>
      </trkpt>
      <trkpt lat="46.70887" lon="5.73599">
        <ele>665.6</ele>
        <time>2022-09-06T05:29:33Z</time>
      </trkpt>
      <trkpt lat="46.70893" lon="5.73599">
        <ele>665.8</ele>
        <time>2022-09-06T05:29:34Z</time>
      </trkpt>
      <trkpt lat="46.70898" lon="5.736">
        <ele>665.8</ele>
        <time>2022-09-06T05:29:35Z</time>
      </trkpt>
      <trkpt lat="46.70903" lon="5.73601">
        <ele>666.2</ele>
        <time>2022-09-06T05:29:36Z</time>
      </trkpt>
      <trkpt lat="46.70909" lon="5.73601">
        <ele>666.2</ele>
        <time>2022-09-06T05:29:37Z</time>
      </trkpt>
      <trkpt lat="46.70914" lon="5.73602">
        <ele>666.2</ele>
        <time>2022-09-06T05:29:38Z</time>
      </trkpt>
      <trkpt lat="46.7092" lon="5.73603">
        <ele>666.2</ele>
        <time>2022-09-06T05:29:39Z</time>
      </trkpt>
      <trkpt lat="46.70925" lon="5.73603">
        <ele>666.2</ele>
        <time>2022-09-06T05:29:40Z</time>
      </trkpt>
      <trkpt lat="46.70931" lon="5.73604">
        <ele>666.2</ele>
        <time>2022-09-06T05:29:41Z</time>
      </trkpt>
      <trkpt lat="46.70937" lon="5.73605">
        <ele>666.2</ele>
        <time>2022-09-06T05:29:42Z</time>
      </trkpt>
      <trkpt lat="46.70943" lon="5.73606">
        <ele>666.4</ele>
        <time>2022-09-06T05:29:43Z</time>
      </trkpt>
      <trkpt lat="46.7095" lon="5.73608">
        <ele>666.4</ele>
        <time>2022-09-06T05:29:44Z</time>
      </trkpt>
      <trkpt lat="46.70956" lon="5.73608">
        <ele>666.4</ele>
        <time>2022-09-06T05:29:45Z</time>
      </trkpt>
      <trkpt lat="46.70963" lon="5.73609">
        <ele>666.4</ele>
        <time>2022-09-06T05:29:46Z</time>
      </trkpt>
      <trkpt lat="46.70969" lon="5.7361">
        <ele>666.4</ele>
        <time>2022-09-06T05:29:47Z</time>
      </trkpt>
      <trkpt lat="46.70976" lon="5.73612">
        <ele>666.4</ele>
        <time>2022-09-06T05:29:48Z</time>
      </trkpt>
      <trkpt lat="46.70982" lon="5.73613">
        <ele>666.4</ele>
        <time>2022-09-06T05:29:49Z</time>
      </trkpt>
      <trkpt lat="46.70989" lon="5.73615">
        <ele>666.4</ele>
        <time>2022-09-06T05:29:50Z</time>
      </trkpt>
      <trkpt lat="46.70995" lon="5.73616">
        <ele>666.4</ele>
        <time>2022-09-06T05:29:51Z</time>
      </trkpt>
      <trkpt lat="46.71002" lon="5.73618">
        <ele>666.4</ele>
        <time>2022-09-06T05:29:52Z</time>
      </trkpt>
      <trkpt lat="46.71008" lon="5.7362">
        <ele>666.4</ele>
        <time>2022-09-06T05:29:53Z</time>
      </trkpt>
      <trkpt lat="46.71015" lon="5.73623">
        <ele>666.4</ele>
        <time>2022-09-06T05:29:54Z</time>
      </trkpt>
      <trkpt lat="46.71022" lon="5.73625">
        <ele>666.4</ele>
        <time>2022-09-06T05:29:55Z</time>
      </trkpt>
      <trkpt lat="46.71029" lon="5.73628">
        <ele>666.4</ele>
        <time>2022-09-06T05:29:56Z</time>
      </trkpt>
      <trkpt lat="46.71036" lon="5.73631">
        <ele>666.4</ele>
        <time>2022-09-06T05:29:57Z</time>
      </trkpt>
      <trkpt lat="46.71043" lon="5.73634">
        <ele>666.2</ele>
        <time>2022-09-06T05:29:58Z</time>
      </trkpt>
      <trkpt lat="46.71051" lon="5.73637">
        <ele>666.2</ele>
        <time>2022-09-06T05:29:59Z</time>
      </trkpt>
      <trkpt lat="46.71058" lon="5.7364">
        <ele>666.2</ele>
        <time>2022-09-06T05:30:00Z</time>
      </trkpt>
      <trkpt lat="46.71065" lon="5.73644">
        <ele>665.8</ele>
        <time>2022-09-06T05:30:01Z</time>
      </trkpt>
      <trkpt lat="46.71072" lon="5.73647">
        <ele>665.8</ele>
        <time>2022-09-06T05:30:02Z</time>
      </trkpt>
      <trkpt lat="46.7108" lon="5.73651">
        <ele>665.8</ele>
        <time>2022-09-06T05:30:03Z</time>
      </trkpt>
      <trkpt lat="46.71087" lon="5.73654">
        <ele>665.6</ele>
        <time>2022-09-06T05:30:04Z</time>
      </trkpt>
      <trkpt lat="46.71094" lon="5.73658">
        <ele>665.6</ele>
        <time>2022-09-06T05:30:05Z</time>
      </trkpt>
      <trkpt lat="46.71102" lon="5.73661">
        <ele>665.6</ele>
        <time>2022-09-06T05:30:06Z</time>
      </trkpt>
      <trkpt lat="46.71109" lon="5.73665">
        <ele>665.6</ele>
        <time>2022-09-06T05:30:07Z</time>
      </trkpt>
      <trkpt lat="46.71116" lon="5.73669">
        <ele>665.6</ele>
        <time>2022-09-06T05:30:08Z</time>
      </trkpt>
      <trkpt lat="46.71123" lon="5.73673">
        <ele>665.6</ele>
        <time>2022-09-06T05:30:09Z</time>
      </trkpt>
      <trkpt lat="46.71131" lon="5.73677">
        <ele>665.6</ele>
        <time>2022-09-06T05:30:10Z</time>
      </trkpt>
      <trkpt lat="46.71138" lon="5.73681">
        <ele>665.6</ele>
        <time>2022-09-06T05:30:11Z</time>
      </trkpt>
      <trkpt lat="46.71145" lon="5.73685">
        <ele>665.4</ele>
        <time>2022-09-06T05:30:12Z</time>
      </trkpt>
      <trkpt lat="46.71153" lon="5.73689">
        <ele>665.4</ele>
        <time>2022-09-06T05:30:13Z</time>
      </trkpt>
      <trkpt lat="46.7116" lon="5.73693">
        <ele>665.4</ele>
        <time>2022-09-06T05:30:14Z</time>
      </trkpt>
      <trkpt lat="46.71167" lon="5.73697">
        <ele>665.4</ele>
        <time>2022-09-06T05:30:15Z</time>
      </trkpt>
      <trkpt lat="46.71175" lon="5.73701">
        <ele>665.4</ele>
        <time>2022-09-06T05:30:16Z</time>
      </trkpt>
      <trkpt lat="46.71182" lon="5.73705">
        <ele>665.4</ele>
        <time>2022-09-06T05:30:17Z</time>
      </trkpt>
      <trkpt lat="46.71189" lon="5.73709">
        <ele>665.4</ele>
        <time>2022-09-06T05:30:18Z</time>
      </trkpt>
      <trkpt lat="46.71196" lon="5.73713">
        <ele>665.4</ele>
        <time>2022-09-06T05:30:19Z</time>
      </trkpt>
      <trkpt lat="46.71203" lon="5.73717">
        <ele>665.4</ele>
        <time>2022-09-06T05:30:20Z</time>
      </trkpt>
      <trkpt lat="46.7121" lon="5.7372">
        <ele>665.4</ele>
        <time>2022-09-06T05:30:21Z</time>
      </trkpt>
      <trkpt lat="46.71217" lon="5.73724">
        <ele>665.2</ele>
        <time>2022-09-06T05:30:22Z</time>
      </trkpt>
      <trkpt lat="46.71225" lon="5.73727">
        <ele>665.2</ele>
        <time>2022-09-06T05:30:23Z</time>
      </trkpt>
      <trkpt lat="46.71233" lon="5.73731">
        <ele>665.2</ele>
        <time>2022-09-06T05:30:24Z</time>
      </trkpt>
      <trkpt lat="46.7124" lon="5.73735">
        <ele>664.8</ele>
        <time>2022-09-06T05:30:25Z</time>
      </trkpt>
      <trkpt lat="46.71248" lon="5.7374">
        <ele>664.6</ele>
        <time>2022-09-06T05:30:26Z</time>
      </trkpt>
      <trkpt lat="46.71257" lon="5.73744">
        <ele>664.6</ele>
        <time>2022-09-06T05:30:27Z</time>
      </trkpt>
      <trkpt lat="46.71265" lon="5.73749">
        <ele>664</ele>
        <time>2022-09-06T05:30:28Z</time>
      </trkpt>
      <trkpt lat="46.71273" lon="5.73753">
        <ele>663.8</ele>
        <time>2022-09-06T05:30:29Z</time>
      </trkpt>
      <trkpt lat="46.71281" lon="5.73758">
        <ele>663.4</ele>
        <time>2022-09-06T05:30:30Z</time>
      </trkpt>
      <trkpt lat="46.7129" lon="5.73762">
        <ele>663.2</ele>
        <time>2022-09-06T05:30:31Z</time>
      </trkpt>
      <trkpt lat="46.71298" lon="5.73767">
        <ele>662.8</ele>
        <time>2022-09-06T05:30:32Z</time>
      </trkpt>
      <trkpt lat="46.71306" lon="5.73771">
        <ele>662.8</ele>
        <time>2022-09-06T05:30:33Z</time>
      </trkpt>
      <trkpt lat="46.71314" lon="5.73775">
        <ele>662.6</ele>
        <time>2022-09-06T05:30:34Z</time>
      </trkpt>
      <trkpt lat="46.71322" lon="5.73779">
        <ele>662.6</ele>
        <time>2022-09-06T05:30:35Z</time>
      </trkpt>
      <trkpt lat="46.71329" lon="5.73783">
        <ele>662.4</ele>
        <time>2022-09-06T05:30:36Z</time>
      </trkpt>
      <trkpt lat="46.71337" lon="5.73787">
        <ele>662.4</ele>
        <time>2022-09-06T05:30:37Z</time>
      </trkpt>
      <trkpt lat="46.71345" lon="5.73791">
        <ele>662</ele>
        <time>2022-09-06T05:30:38Z</time>
      </trkpt>
      <trkpt lat="46.71353" lon="5.73795">
        <ele>662</ele>
        <time>2022-09-06T05:30:39Z</time>
      </trkpt>
      <trkpt lat="46.71361" lon="5.73799">
        <ele>661.6</ele>
        <time>2022-09-06T05:30:40Z</time>
      </trkpt>
      <trkpt lat="46.71368" lon="5.73803">
        <ele>661.6</ele>
        <time>2022-09-06T05:30:41Z</time>
      </trkpt>
      <trkpt lat="46.71376" lon="5.73807">
        <ele>661.4</ele>
        <time>2022-09-06T05:30:42Z</time>
      </trkpt>
      <trkpt lat="46.71384" lon="5.73811">
        <ele>661.4</ele>
        <time>2022-09-06T05:30:43Z</time>
      </trkpt>
      <trkpt lat="46.71392" lon="5.73815">
        <ele>661.2</ele>
        <time>2022-09-06T05:30:44Z</time>
      </trkpt>
      <trkpt lat="46.714" lon="5.73819">
        <ele>661.2</ele>
        <time>2022-09-06T05:30:45Z</time>
      </trkpt>
      <trkpt lat="46.71408" lon="5.73823">
        <ele>661.2</ele>
        <time>2022-09-06T05:30:46Z</time>
      </trkpt>
      <trkpt lat="46.71416" lon="5.73827">
        <ele>660.8</ele>
        <time>2022-09-06T05:30:47Z</time>
      </trkpt>
      <trkpt lat="46.71424" lon="5.73831">
        <ele>660.8</ele>
        <time>2022-09-06T05:30:48Z</time>
      </trkpt>
      <trkpt lat="46.71431" lon="5.73834">
        <ele>660.4</ele>
        <time>2022-09-06T05:30:49Z</time>
      </trkpt>
      <trkpt lat="46.71439" lon="5.73837">
        <ele>660.4</ele>
        <time>2022-09-06T05:30:50Z</time>
      </trkpt>
      <trkpt lat="46.71447" lon="5.7384">
        <ele>660.2</ele>
        <time>2022-09-06T05:30:51Z</time>
      </trkpt>
      <trkpt lat="46.71455" lon="5.73843">
        <ele>660.2</ele>
        <time>2022-09-06T05:30:52Z</time>
      </trkpt>
      <trkpt lat="46.71463" lon="5.73846">
        <ele>660</ele>
        <time>2022-09-06T05:30:53Z</time>
      </trkpt>
      <trkpt lat="46.71471" lon="5.73849">
        <ele>660</ele>
        <time>2022-09-06T05:30:54Z</time>
      </trkpt>
      <trkpt lat="46.71478" lon="5.73852">
        <ele>659.6</ele>
        <time>2022-09-06T05:30:55Z</time>
      </trkpt>
      <trkpt lat="46.71486" lon="5.73855">
        <ele>659.6</ele>
        <time>2022-09-06T05:30:56Z</time>
      </trkpt>
      <trkpt lat="46.71493" lon="5.73858">
        <ele>659.4</ele>
        <time>2022-09-06T05:30:57Z</time>
      </trkpt>
      <trkpt lat="46.71501" lon="5.73861">
        <ele>659.4</ele>
        <time>2022-09-06T05:30:58Z</time>
      </trkpt>
      <trkpt lat="46.71508" lon="5.73863">
        <ele>659.4</ele>
        <time>2022-09-06T05:30:59Z</time>
      </trkpt>
      <trkpt lat="46.71515" lon="5.73865">
        <ele>659.4</ele>
        <time>2022-09-06T05:31:00Z</time>
      </trkpt>
      <trkpt lat="46.71522" lon="5.73868">
        <ele>659.4</ele>
        <time>2022-09-06T05:31:01Z</time>
      </trkpt>
      <trkpt lat="46.71529" lon="5.73871">
        <ele>659.4</ele>
        <time>2022-09-06T05:31:02Z</time>
      </trkpt>
      <trkpt lat="46.71536" lon="5.73874">
        <ele>659.4</ele>
        <time>2022-09-06T05:31:03Z</time>
      </trkpt>
      <trkpt lat="46.71543" lon="5.73876">
        <ele>659.4</ele>
        <time>2022-09-06T05:31:04Z</time>
      </trkpt>
      <trkpt lat="46.7155" lon="5.73879">
        <ele>659.4</ele>
        <time>2022-09-06T05:31:05Z</time>
      </trkpt>
      <trkpt lat="46.71557" lon="5.73881">
        <ele>659.4</ele>
        <time>2022-09-06T05:31:06Z</time>
      </trkpt>
      <trkpt lat="46.71564" lon="5.73884">
        <ele>659.4</ele>
        <time>2022-09-06T05:31:07Z</time>
      </trkpt>
      <trkpt lat="46.71571" lon="5.73887">
        <ele>659.4</ele>
        <time>2022-09-06T05:31:08Z</time>
      </trkpt>
      <trkpt lat="46.71578" lon="5.7389">
        <ele>659.4</ele>
        <time>2022-09-06T05:31:09Z</time>
      </trkpt>
      <trkpt lat="46.71585" lon="5.73892">
        <ele>659.4</ele>
        <time>2022-09-06T05:31:10Z</time>
      </trkpt>
      <trkpt lat="46.71592" lon="5.73895">
        <ele>659.2</ele>
        <time>2022-09-06T05:31:11Z</time>
      </trkpt>
      <trkpt lat="46.71599" lon="5.73898">
        <ele>659.2</ele>
        <time>2022-09-06T05:31:12Z</time>
      </trkpt>
      <trkpt lat="46.71607" lon="5.739">
        <ele>659</ele>
        <time>2022-09-06T05:31:13Z</time>
      </trkpt>
      <trkpt lat="46.71614" lon="5.73904">
        <ele>659</ele>
        <time>2022-09-06T05:31:14Z</time>
      </trkpt>
      <trkpt lat="46.71622" lon="5.73907">
        <ele>658.8</ele>
        <time>2022-09-06T05:31:15Z</time>
      </trkpt>
      <trkpt lat="46.7163" lon="5.73909">
        <ele>658.8</ele>
        <time>2022-09-06T05:31:16Z</time>
      </trkpt>
      <trkpt lat="46.71638" lon="5.73913">
        <ele>658.4</ele>
        <time>2022-09-06T05:31:17Z</time>
      </trkpt>
      <trkpt lat="46.71646" lon="5.73916">
        <ele>658.4</ele>
        <time>2022-09-06T05:31:18Z</time>
      </trkpt>
      <trkpt lat="46.71654" lon="5.73919">
        <ele>658.2</ele>
        <time>2022-09-06T05:31:19Z</time>
      </trkpt>
      <trkpt lat="46.71662" lon="5.73923">
        <ele>658.2</ele>
        <time>2022-09-06T05:31:20Z</time>
      </trkpt>
      <trkpt lat="46.7167" lon="5.73928">
        <ele>658</ele>
        <time>2022-09-06T05:31:21Z</time>
      </trkpt>
      <trkpt lat="46.71678" lon="5.73932">
        <ele>658</ele>
        <time>2022-09-06T05:31:22Z</time>
      </trkpt>
      <trkpt lat="46.71686" lon="5.73937">
        <ele>658</ele>
        <time>2022-09-06T05:31:23Z</time>
      </trkpt>
      <trkpt lat="46.71694" lon="5.73942">
        <ele>658</ele>
        <time>2022-09-06T05:31:24Z</time>
      </trkpt>
      <trkpt lat="46.71702" lon="5.73946">
        <ele>658</ele>
        <time>2022-09-06T05:31:25Z</time>
      </trkpt>
      <trkpt lat="46.71709" lon="5.73951">
        <ele>658</ele>
        <time>2022-09-06T05:31:26Z</time>
      </trkpt>
      <trkpt lat="46.71717" lon="5.73956">
        <ele>658</ele>
        <time>2022-09-06T05:31:27Z</time>
      </trkpt>
      <trkpt lat="46.71724" lon="5.7396">
        <ele>658</ele>
        <time>2022-09-06T05:31:28Z</time>
      </trkpt>
      <trkpt lat="46.71731" lon="5.73965">
        <ele>658</ele>
        <time>2022-09-06T05:31:29Z</time>
      </trkpt>
      <trkpt lat="46.71738" lon="5.73969">
        <ele>658.2</ele>
        <time>2022-09-06T05:31:30Z</time>
      </trkpt>
      <trkpt lat="46.71745" lon="5.73974">
        <ele>658.2</ele>
        <time>2022-09-06T05:31:31Z</time>
      </trkpt>
      <trkpt lat="46.71752" lon="5.73979">
        <ele>658.2</ele>
        <time>2022-09-06T05:31:32Z</time>
      </trkpt>
      <trkpt lat="46.71759" lon="5.73984">
        <ele>658.2</ele>
        <time>2022-09-06T05:31:33Z</time>
      </trkpt>
      <trkpt lat="46.71767" lon="5.73988">
        <ele>658.2</ele>
        <time>2022-09-06T05:31:34Z</time>
      </trkpt>
      <trkpt lat="46.71774" lon="5.73993">
        <ele>658.2</ele>
        <time>2022-09-06T05:31:35Z</time>
      </trkpt>
      <trkpt lat="46.71781" lon="5.73997">
        <ele>658.2</ele>
        <time>2022-09-06T05:31:36Z</time>
      </trkpt>
      <trkpt lat="46.71788" lon="5.74002">
        <ele>658.2</ele>
        <time>2022-09-06T05:31:37Z</time>
      </trkpt>
      <trkpt lat="46.71795" lon="5.74007">
        <ele>658.2</ele>
        <time>2022-09-06T05:31:38Z</time>
      </trkpt>
      <trkpt lat="46.71802" lon="5.74012">
        <ele>658.2</ele>
        <time>2022-09-06T05:31:39Z</time>
      </trkpt>
      <trkpt lat="46.71808" lon="5.74018">
        <ele>658.2</ele>
        <time>2022-09-06T05:31:40Z</time>
      </trkpt>
      <trkpt lat="46.71814" lon="5.74023">
        <ele>658.4</ele>
        <time>2022-09-06T05:31:41Z</time>
      </trkpt>
      <trkpt lat="46.7182" lon="5.74029">
        <ele>658.4</ele>
        <time>2022-09-06T05:31:42Z</time>
      </trkpt>
      <trkpt lat="46.71825" lon="5.74035">
        <ele>658.8</ele>
        <time>2022-09-06T05:31:43Z</time>
      </trkpt>
      <trkpt lat="46.71831" lon="5.74041">
        <ele>658.8</ele>
        <time>2022-09-06T05:31:44Z</time>
      </trkpt>
      <trkpt lat="46.71836" lon="5.74048">
        <ele>658.8</ele>
        <time>2022-09-06T05:31:45Z</time>
      </trkpt>
      <trkpt lat="46.71842" lon="5.74054">
        <ele>658.8</ele>
        <time>2022-09-06T05:31:46Z</time>
      </trkpt>
      <trkpt lat="46.71847" lon="5.7406">
        <ele>659</ele>
        <time>2022-09-06T05:31:47Z</time>
      </trkpt>
      <trkpt lat="46.71853" lon="5.74067">
        <ele>659</ele>
        <time>2022-09-06T05:31:48Z</time>
      </trkpt>
      <trkpt lat="46.71858" lon="5.74073">
        <ele>659</ele>
        <time>2022-09-06T05:31:49Z</time>
      </trkpt>
      <trkpt lat="46.71864" lon="5.74079">
        <ele>659</ele>
        <time>2022-09-06T05:31:50Z</time>
      </trkpt>
      <trkpt lat="46.7187" lon="5.74085">
        <ele>659</ele>
        <time>2022-09-06T05:31:51Z</time>
      </trkpt>
      <trkpt lat="46.71876" lon="5.7409">
        <ele>659</ele>
        <time>2022-09-06T05:31:52Z</time>
      </trkpt>
      <trkpt lat="46.71882" lon="5.74096">
        <ele>659</ele>
        <time>2022-09-06T05:31:53Z</time>
      </trkpt>
      <trkpt lat="46.71887" lon="5.74102">
        <ele>659</ele>
        <time>2022-09-06T05:31:54Z</time>
      </trkpt>
      <trkpt lat="46.71893" lon="5.74107">
        <ele>659</ele>
        <time>2022-09-06T05:31:55Z</time>
      </trkpt>
      <trkpt lat="46.71899" lon="5.74112">
        <ele>659.2</ele>
        <time>2022-09-06T05:31:56Z</time>
      </trkpt>
      <trkpt lat="46.71905" lon="5.74117">
        <ele>659.2</ele>
        <time>2022-09-06T05:31:57Z</time>
      </trkpt>
      <trkpt lat="46.7191" lon="5.74123">
        <ele>659.2</ele>
        <time>2022-09-06T05:31:58Z</time>
      </trkpt>
      <trkpt lat="46.71916" lon="5.74128">
        <ele>659.2</ele>
        <time>2022-09-06T05:31:59Z</time>
      </trkpt>
      <trkpt lat="46.71922" lon="5.74133">
        <ele>659.2</ele>
        <time>2022-09-06T05:32:00Z</time>
      </trkpt>
      <trkpt lat="46.71928" lon="5.74138">
        <ele>659.2</ele>
        <time>2022-09-06T05:32:01Z</time>
      </trkpt>
      <trkpt lat="46.71934" lon="5.74143">
        <ele>659.2</ele>
        <time>2022-09-06T05:32:02Z</time>
      </trkpt>
      <trkpt lat="46.7194" lon="5.74148">
        <ele>659.2</ele>
        <time>2022-09-06T05:32:03Z</time>
      </trkpt>
      <trkpt lat="46.71946" lon="5.74153">
        <ele>659.2</ele>
        <time>2022-09-06T05:32:04Z</time>
      </trkpt>
      <trkpt lat="46.71951" lon="5.74159">
        <ele>659.2</ele>
        <time>2022-09-06T05:32:05Z</time>
      </trkpt>
      <trkpt lat="46.71957" lon="5.74164">
        <ele>659.4</ele>
        <time>2022-09-06T05:32:06Z</time>
      </trkpt>
      <trkpt lat="46.71963" lon="5.74169">
        <ele>659.4</ele>
        <time>2022-09-06T05:32:07Z</time>
      </trkpt>
      <trkpt lat="46.71968" lon="5.74174">
        <ele>659.6</ele>
        <time>2022-09-06T05:32:08Z</time>
      </trkpt>
      <trkpt lat="46.71973" lon="5.74179">
        <ele>659.6</ele>
        <time>2022-09-06T05:32:09Z</time>
      </trkpt>
      <trkpt lat="46.71978" lon="5.74183">
        <ele>660</ele>
        <time>2022-09-06T05:32:10Z</time>
      </trkpt>
      <trkpt lat="46.71983" lon="5.74188">
        <ele>660</ele>
        <time>2022-09-06T05:32:11Z</time>
      </trkpt>
      <trkpt lat="46.71988" lon="5.74192">
        <ele>660.2</ele>
        <time>2022-09-06T05:32:12Z</time>
      </trkpt>
      <trkpt lat="46.71993" lon="5.74196">
        <ele>660.2</ele>
        <time>2022-09-06T05:32:13Z</time>
      </trkpt>
      <trkpt lat="46.71999" lon="5.742">
        <ele>660.4</ele>
        <time>2022-09-06T05:32:14Z</time>
      </trkpt>
      <trkpt lat="46.72004" lon="5.74204">
        <ele>660.4</ele>
        <time>2022-09-06T05:32:15Z</time>
      </trkpt>
      <trkpt lat="46.72009" lon="5.74208">
        <ele>660.8</ele>
        <time>2022-09-06T05:32:16Z</time>
      </trkpt>
      <trkpt lat="46.72015" lon="5.74213">
        <ele>660.8</ele>
        <time>2022-09-06T05:32:17Z</time>
      </trkpt>
      <trkpt lat="46.7202" lon="5.74217">
        <ele>660.8</ele>
        <time>2022-09-06T05:32:18Z</time>
      </trkpt>
      <trkpt lat="46.72026" lon="5.74222">
        <ele>660.8</ele>
        <time>2022-09-06T05:32:19Z</time>
      </trkpt>
      <trkpt lat="46.72032" lon="5.74227">
        <ele>660.8</ele>
        <time>2022-09-06T05:32:20Z</time>
      </trkpt>
      <trkpt lat="46.72038" lon="5.74231">
        <ele>660.4</ele>
        <time>2022-09-06T05:32:21Z</time>
      </trkpt>
      <trkpt lat="46.72045" lon="5.74236">
        <ele>660.4</ele>
        <time>2022-09-06T05:32:22Z</time>
      </trkpt>
      <trkpt lat="46.72051" lon="5.74241">
        <ele>660.2</ele>
        <time>2022-09-06T05:32:23Z</time>
      </trkpt>
      <trkpt lat="46.72058" lon="5.74247">
        <ele>660</ele>
        <time>2022-09-06T05:32:24Z</time>
      </trkpt>
      <trkpt lat="46.72065" lon="5.74252">
        <ele>660</ele>
        <time>2022-09-06T05:32:25Z</time>
      </trkpt>
      <trkpt lat="46.72071" lon="5.74257">
        <ele>659.8</ele>
        <time>2022-09-06T05:32:26Z</time>
      </trkpt>
      <trkpt lat="46.72078" lon="5.74262">
        <ele>659.8</ele>
        <time>2022-09-06T05:32:27Z</time>
      </trkpt>
      <trkpt lat="46.72085" lon="5.74268">
        <ele>659.6</ele>
        <time>2022-09-06T05:32:28Z</time>
      </trkpt>
      <trkpt lat="46.72092" lon="5.74273">
        <ele>659.6</ele>
        <time>2022-09-06T05:32:29Z</time>
      </trkpt>
      <trkpt lat="46.72099" lon="5.74278">
        <ele>659.6</ele>
        <time>2022-09-06T05:32:30Z</time>
      </trkpt>
      <trkpt lat="46.72105" lon="5.74283">
        <ele>659.6</ele>
        <time>2022-09-06T05:32:31Z</time>
      </trkpt>
      <trkpt lat="46.72112" lon="5.74288">
        <ele>659.6</ele>
        <time>2022-09-06T05:32:32Z</time>
      </trkpt>
      <trkpt lat="46.72118" lon="5.74293">
        <ele>659.6</ele>
        <time>2022-09-06T05:32:33Z</time>
      </trkpt>
      <trkpt lat="46.72124" lon="5.74298">
        <ele>659.6</ele>
        <time>2022-09-06T05:32:34Z</time>
      </trkpt>
      <trkpt lat="46.72131" lon="5.74303">
        <ele>659.6</ele>
        <time>2022-09-06T05:32:35Z</time>
      </trkpt>
      <trkpt lat="46.72137" lon="5.74308">
        <ele>659.6</ele>
        <time>2022-09-06T05:32:36Z</time>
      </trkpt>
      <trkpt lat="46.72143" lon="5.74313">
        <ele>659.6</ele>
        <time>2022-09-06T05:32:37Z</time>
      </trkpt>
      <trkpt lat="46.72149" lon="5.74318">
        <ele>659.6</ele>
        <time>2022-09-06T05:32:38Z</time>
      </trkpt>
      <trkpt lat="46.72156" lon="5.74324">
        <ele>659.6</ele>
        <time>2022-09-06T05:32:39Z</time>
      </trkpt>
      <trkpt lat="46.72162" lon="5.74329">
        <ele>659.6</ele>
        <time>2022-09-06T05:32:40Z</time>
      </trkpt>
      <trkpt lat="46.72168" lon="5.74333">
        <ele>659.6</ele>
        <time>2022-09-06T05:32:41Z</time>
      </trkpt>
      <trkpt lat="46.72174" lon="5.74338">
        <ele>659.6</ele>
        <time>2022-09-06T05:32:42Z</time>
      </trkpt>
      <trkpt lat="46.7218" lon="5.74342">
        <ele>659.6</ele>
        <time>2022-09-06T05:32:43Z</time>
      </trkpt>
      <trkpt lat="46.72187" lon="5.74347">
        <ele>659.6</ele>
        <time>2022-09-06T05:32:44Z</time>
      </trkpt>
      <trkpt lat="46.72193" lon="5.74352">
        <ele>659.6</ele>
        <time>2022-09-06T05:32:45Z</time>
      </trkpt>
      <trkpt lat="46.72199" lon="5.74357">
        <ele>659.6</ele>
        <time>2022-09-06T05:32:46Z</time>
      </trkpt>
      <trkpt lat="46.72205" lon="5.74362">
        <ele>659.6</ele>
        <time>2022-09-06T05:32:47Z</time>
      </trkpt>
      <trkpt lat="46.72211" lon="5.74367">
        <ele>659.6</ele>
        <time>2022-09-06T05:32:48Z</time>
      </trkpt>
      <trkpt lat="46.72217" lon="5.74372">
        <ele>659.6</ele>
        <time>2022-09-06T05:32:49Z</time>
      </trkpt>
      <trkpt lat="46.72224" lon="5.74376">
        <ele>659.6</ele>
        <time>2022-09-06T05:32:50Z</time>
      </trkpt>
      <trkpt lat="46.7223" lon="5.74381">
        <ele>659.6</ele>
        <time>2022-09-06T05:32:51Z</time>
      </trkpt>
      <trkpt lat="46.72236" lon="5.74386">
        <ele>659.6</ele>
        <time>2022-09-06T05:32:52Z</time>
      </trkpt>
      <trkpt lat="46.72242" lon="5.74391">
        <ele>659.6</ele>
        <time>2022-09-06T05:32:53Z</time>
      </trkpt>
      <trkpt lat="46.72248" lon="5.74396">
        <ele>659.6</ele>
        <time>2022-09-06T05:32:54Z</time>
      </trkpt>
      <trkpt lat="46.72254" lon="5.744">
        <ele>659.6</ele>
        <time>2022-09-06T05:32:55Z</time>
      </trkpt>
      <trkpt lat="46.7226" lon="5.74405">
        <ele>659.6</ele>
        <time>2022-09-06T05:32:56Z</time>
      </trkpt>
      <trkpt lat="46.72266" lon="5.74409">
        <ele>659.6</ele>
        <time>2022-09-06T05:32:57Z</time>
      </trkpt>
      <trkpt lat="46.72272" lon="5.74413">
        <ele>659.8</ele>
        <time>2022-09-06T05:32:58Z</time>
      </trkpt>
      <trkpt lat="46.72279" lon="5.74418">
        <ele>659.8</ele>
        <time>2022-09-06T05:32:59Z</time>
      </trkpt>
      <trkpt lat="46.72285" lon="5.74422">
        <ele>659.8</ele>
        <time>2022-09-06T05:33:01Z</time>
      </trkpt>
      <trkpt lat="46.72291" lon="5.74427">
        <ele>659.8</ele>
        <time>2022-09-06T05:33:02Z</time>
      </trkpt>
      <trkpt lat="46.72297" lon="5.74432">
        <ele>659.8</ele>
        <time>2022-09-06T05:33:03Z</time>
      </trkpt>
      <trkpt lat="46.72303" lon="5.74436">
        <ele>659.8</ele>
        <time>2022-09-06T05:33:04Z</time>
      </trkpt>
      <trkpt lat="46.72309" lon="5.7444">
        <ele>659.8</ele>
        <time>2022-09-06T05:33:05Z</time>
      </trkpt>
      <trkpt lat="46.72316" lon="5.74445">
        <ele>659.8</ele>
        <time>2022-09-06T05:33:06Z</time>
      </trkpt>
      <trkpt lat="46.72322" lon="5.74449">
        <ele>659.8</ele>
        <time>2022-09-06T05:33:07Z</time>
      </trkpt>
      <trkpt lat="46.72328" lon="5.74454">
        <ele>659.8</ele>
        <time>2022-09-06T05:33:08Z</time>
      </trkpt>
      <trkpt lat="46.72335" lon="5.74459">
        <ele>659.8</ele>
        <time>2022-09-06T05:33:09Z</time>
      </trkpt>
      <trkpt lat="46.72341" lon="5.74464">
        <ele>659.8</ele>
        <time>2022-09-06T05:33:10Z</time>
      </trkpt>
      <trkpt lat="46.72347" lon="5.74469">
        <ele>659.8</ele>
        <time>2022-09-06T05:33:11Z</time>
      </trkpt>
      <trkpt lat="46.72354" lon="5.74475">
        <ele>659.8</ele>
        <time>2022-09-06T05:33:12Z</time>
      </trkpt>
      <trkpt lat="46.7236" lon="5.7448">
        <ele>659.8</ele>
        <time>2022-09-06T05:33:13Z</time>
      </trkpt>
      <trkpt lat="46.72366" lon="5.74485">
        <ele>659.8</ele>
        <time>2022-09-06T05:33:14Z</time>
      </trkpt>
      <trkpt lat="46.72372" lon="5.7449">
        <ele>659.8</ele>
        <time>2022-09-06T05:33:15Z</time>
      </trkpt>
      <trkpt lat="46.72379" lon="5.74495">
        <ele>659.8</ele>
        <time>2022-09-06T05:33:16Z</time>
      </trkpt>
      <trkpt lat="46.72385" lon="5.745">
        <ele>659.8</ele>
        <time>2022-09-06T05:33:17Z</time>
      </trkpt>
      <trkpt lat="46.72391" lon="5.74505">
        <ele>659.8</ele>
        <time>2022-09-06T05:33:18Z</time>
      </trkpt>
      <trkpt lat="46.72397" lon="5.7451">
        <ele>659.8</ele>
        <time>2022-09-06T05:33:19Z</time>
      </trkpt>
      <trkpt lat="46.72404" lon="5.74515">
        <ele>659.8</ele>
        <time>2022-09-06T05:33:20Z</time>
      </trkpt>
      <trkpt lat="46.7241" lon="5.74521">
        <ele>659.8</ele>
        <time>2022-09-06T05:33:21Z</time>
      </trkpt>
      <trkpt lat="46.72416" lon="5.74526">
        <ele>659.8</ele>
        <time>2022-09-06T05:33:22Z</time>
      </trkpt>
      <trkpt lat="46.72422" lon="5.74531">
        <ele>660</ele>
        <time>2022-09-06T05:33:23Z</time>
      </trkpt>
      <trkpt lat="46.72428" lon="5.74536">
        <ele>660</ele>
        <time>2022-09-06T05:33:24Z</time>
      </trkpt>
      <trkpt lat="46.72434" lon="5.74541">
        <ele>660</ele>
        <time>2022-09-06T05:33:25Z</time>
      </trkpt>
      <trkpt lat="46.7244" lon="5.74546">
        <ele>660</ele>
        <time>2022-09-06T05:33:26Z</time>
      </trkpt>
      <trkpt lat="46.72446" lon="5.74552">
        <ele>660</ele>
        <time>2022-09-06T05:33:27Z</time>
      </trkpt>
      <trkpt lat="46.72452" lon="5.74557">
        <ele>660</ele>
        <time>2022-09-06T05:33:28Z</time>
      </trkpt>
      <trkpt lat="46.72458" lon="5.74562">
        <ele>660</ele>
        <time>2022-09-06T05:33:29Z</time>
      </trkpt>
      <trkpt lat="46.72464" lon="5.74567">
        <ele>660.2</ele>
        <time>2022-09-06T05:33:30Z</time>
      </trkpt>
      <trkpt lat="46.7247" lon="5.74572">
        <ele>660.2</ele>
        <time>2022-09-06T05:33:31Z</time>
      </trkpt>
      <trkpt lat="46.72476" lon="5.74577">
        <ele>660.2</ele>
        <time>2022-09-06T05:33:32Z</time>
      </trkpt>
      <trkpt lat="46.72481" lon="5.74582">
        <ele>660.4</ele>
        <time>2022-09-06T05:33:33Z</time>
      </trkpt>
      <trkpt lat="46.72487" lon="5.74588">
        <ele>660.4</ele>
        <time>2022-09-06T05:33:34Z</time>
      </trkpt>
      <trkpt lat="46.72493" lon="5.74593">
        <ele>660.4</ele>
        <time>2022-09-06T05:33:35Z</time>
      </trkpt>
      <trkpt lat="46.72498" lon="5.74598">
        <ele>660.4</ele>
        <time>2022-09-06T05:33:36Z</time>
      </trkpt>
      <trkpt lat="46.72503" lon="5.74604">
        <ele>660.4</ele>
        <time>2022-09-06T05:33:37Z</time>
      </trkpt>
      <trkpt lat="46.72509" lon="5.7461">
        <ele>660.4</ele>
        <time>2022-09-06T05:33:38Z</time>
      </trkpt>
      <trkpt lat="46.72514" lon="5.74615">
        <ele>660.4</ele>
        <time>2022-09-06T05:33:39Z</time>
      </trkpt>
      <trkpt lat="46.72519" lon="5.74621">
        <ele>660.4</ele>
        <time>2022-09-06T05:33:40Z</time>
      </trkpt>
      <trkpt lat="46.72525" lon="5.74627">
        <ele>660.4</ele>
        <time>2022-09-06T05:33:41Z</time>
      </trkpt>
      <trkpt lat="46.7253" lon="5.74633">
        <ele>660.4</ele>
        <time>2022-09-06T05:33:42Z</time>
      </trkpt>
      <trkpt lat="46.72536" lon="5.74639">
        <ele>660.4</ele>
        <time>2022-09-06T05:33:43Z</time>
      </trkpt>
      <trkpt lat="46.72541" lon="5.74645">
        <ele>660.4</ele>
        <time>2022-09-06T05:33:44Z</time>
      </trkpt>
      <trkpt lat="46.72546" lon="5.74651">
        <ele>660.4</ele>
        <time>2022-09-06T05:33:45Z</time>
      </trkpt>
      <trkpt lat="46.72551" lon="5.74657">
        <ele>660.4</ele>
        <time>2022-09-06T05:33:46Z</time>
      </trkpt>
      <trkpt lat="46.72557" lon="5.74664">
        <ele>660.4</ele>
        <time>2022-09-06T05:33:47Z</time>
      </trkpt>
      <trkpt lat="46.72562" lon="5.7467">
        <ele>660.4</ele>
        <time>2022-09-06T05:33:48Z</time>
      </trkpt>
      <trkpt lat="46.72567" lon="5.74676">
        <ele>660.4</ele>
        <time>2022-09-06T05:33:49Z</time>
      </trkpt>
      <trkpt lat="46.72572" lon="5.74682">
        <ele>660.4</ele>
        <time>2022-09-06T05:33:50Z</time>
      </trkpt>
      <trkpt lat="46.72576" lon="5.74688">
        <ele>660.4</ele>
        <time>2022-09-06T05:33:51Z</time>
      </trkpt>
      <trkpt lat="46.72582" lon="5.74694">
        <ele>660.8</ele>
        <time>2022-09-06T05:33:52Z</time>
      </trkpt>
      <trkpt lat="46.72587" lon="5.747">
        <ele>660.8</ele>
        <time>2022-09-06T05:33:53Z</time>
      </trkpt>
      <trkpt lat="46.72592" lon="5.74706">
        <ele>661</ele>
        <time>2022-09-06T05:33:54Z</time>
      </trkpt>
      <trkpt lat="46.72597" lon="5.74712">
        <ele>661</ele>
        <time>2022-09-06T05:33:55Z</time>
      </trkpt>
      <trkpt lat="46.72602" lon="5.74718">
        <ele>661</ele>
        <time>2022-09-06T05:33:56Z</time>
      </trkpt>
      <trkpt lat="46.72607" lon="5.74724">
        <ele>661.2</ele>
        <time>2022-09-06T05:33:57Z</time>
      </trkpt>
      <trkpt lat="46.72612" lon="5.7473">
        <ele>661.2</ele>
        <time>2022-09-06T05:33:58Z</time>
      </trkpt>
      <trkpt lat="46.72617" lon="5.74735">
        <ele>661.2</ele>
        <time>2022-09-06T05:33:59Z</time>
      </trkpt>
      <trkpt lat="46.72622" lon="5.74741">
        <ele>661.6</ele>
        <time>2022-09-06T05:34:00Z</time>
      </trkpt>
      <trkpt lat="46.72627" lon="5.74747">
        <ele>661.6</ele>
        <time>2022-09-06T05:34:01Z</time>
      </trkpt>
      <trkpt lat="46.72633" lon="5.74753">
        <ele>661.6</ele>
        <time>2022-09-06T05:34:02Z</time>
      </trkpt>
      <trkpt lat="46.72638" lon="5.74758">
        <ele>661.6</ele>
        <time>2022-09-06T05:34:03Z</time>
      </trkpt>
      <trkpt lat="46.72643" lon="5.74764">
        <ele>661.6</ele>
        <time>2022-09-06T05:34:04Z</time>
      </trkpt>
      <trkpt lat="46.72649" lon="5.74769">
        <ele>661.6</ele>
        <time>2022-09-06T05:34:05Z</time>
      </trkpt>
      <trkpt lat="46.72655" lon="5.74774">
        <ele>661.6</ele>
        <time>2022-09-06T05:34:06Z</time>
      </trkpt>
      <trkpt lat="46.72661" lon="5.74779">
        <ele>661.6</ele>
        <time>2022-09-06T05:34:07Z</time>
      </trkpt>
      <trkpt lat="46.72667" lon="5.74782">
        <ele>661.6</ele>
        <time>2022-09-06T05:34:08Z</time>
      </trkpt>
      <trkpt lat="46.72673" lon="5.74786">
        <ele>661.6</ele>
        <time>2022-09-06T05:34:09Z</time>
      </trkpt>
      <trkpt lat="46.72679" lon="5.74789">
        <ele>661.8</ele>
        <time>2022-09-06T05:34:10Z</time>
      </trkpt>
      <trkpt lat="46.72689" lon="5.74799">
        <ele>661.8</ele>
        <time>2022-09-06T05:34:11Z</time>
      </trkpt>
      <trkpt lat="46.72694" lon="5.74805">
        <ele>661.8</ele>
        <time>2022-09-06T05:34:12Z</time>
      </trkpt>
      <trkpt lat="46.72698" lon="5.74811">
        <ele>662</ele>
        <time>2022-09-06T05:34:13Z</time>
      </trkpt>
      <trkpt lat="46.72701" lon="5.74818">
        <ele>662</ele>
        <time>2022-09-06T05:34:14Z</time>
      </trkpt>
      <trkpt lat="46.72704" lon="5.74826">
        <ele>662</ele>
        <time>2022-09-06T05:34:15Z</time>
      </trkpt>
      <trkpt lat="46.72707" lon="5.74835">
        <ele>662</ele>
        <time>2022-09-06T05:34:16Z</time>
      </trkpt>
      <trkpt lat="46.7271" lon="5.74843">
        <ele>662.4</ele>
        <time>2022-09-06T05:34:17Z</time>
      </trkpt>
      <trkpt lat="46.72712" lon="5.74852">
        <ele>662.4</ele>
        <time>2022-09-06T05:34:18Z</time>
      </trkpt>
      <trkpt lat="46.72715" lon="5.74861">
        <ele>662.4</ele>
        <time>2022-09-06T05:34:19Z</time>
      </trkpt>
      <trkpt lat="46.72718" lon="5.74869">
        <ele>662.4</ele>
        <time>2022-09-06T05:34:20Z</time>
      </trkpt>
      <trkpt lat="46.72721" lon="5.74878">
        <ele>662.4</ele>
        <time>2022-09-06T05:34:21Z</time>
      </trkpt>
      <trkpt lat="46.72725" lon="5.74886">
        <ele>662.2</ele>
        <time>2022-09-06T05:34:22Z</time>
      </trkpt>
      <trkpt lat="46.7273" lon="5.74894">
        <ele>662.2</ele>
        <time>2022-09-06T05:34:23Z</time>
      </trkpt>
      <trkpt lat="46.72734" lon="5.74901">
        <ele>662.2</ele>
        <time>2022-09-06T05:34:24Z</time>
      </trkpt>
      <trkpt lat="46.72739" lon="5.74908">
        <ele>662.2</ele>
        <time>2022-09-06T05:34:25Z</time>
      </trkpt>
      <trkpt lat="46.72749" lon="5.74921">
        <ele>662.2</ele>
        <time>2022-09-06T05:34:26Z</time>
      </trkpt>
      <trkpt lat="46.72754" lon="5.74928">
        <ele>662.2</ele>
        <time>2022-09-06T05:34:27Z</time>
      </trkpt>
      <trkpt lat="46.72759" lon="5.74934">
        <ele>662.4</ele>
        <time>2022-09-06T05:34:28Z</time>
      </trkpt>
      <trkpt lat="46.72763" lon="5.7494">
        <ele>662.4</ele>
        <time>2022-09-06T05:34:29Z</time>
      </trkpt>
      <trkpt lat="46.72768" lon="5.74946">
        <ele>662.6</ele>
        <time>2022-09-06T05:34:30Z</time>
      </trkpt>
      <trkpt lat="46.72773" lon="5.74952">
        <ele>662.6</ele>
        <time>2022-09-06T05:34:31Z</time>
      </trkpt>
      <trkpt lat="46.72778" lon="5.74958">
        <ele>662.8</ele>
        <time>2022-09-06T05:34:32Z</time>
      </trkpt>
      <trkpt lat="46.72782" lon="5.74964">
        <ele>662.8</ele>
        <time>2022-09-06T05:34:33Z</time>
      </trkpt>
      <trkpt lat="46.72787" lon="5.7497">
        <ele>662.8</ele>
        <time>2022-09-06T05:34:34Z</time>
      </trkpt>
      <trkpt lat="46.72791" lon="5.74976">
        <ele>663.2</ele>
        <time>2022-09-06T05:34:35Z</time>
      </trkpt>
      <trkpt lat="46.72793" lon="5.74979">
        <ele>663.2</ele>
        <time>2022-09-06T05:34:36Z</time>
      </trkpt>
      <trkpt lat="46.72796" lon="5.74982">
        <ele>663.2</ele>
        <time>2022-09-06T05:34:37Z</time>
      </trkpt>
      <trkpt lat="46.72801" lon="5.74988">
        <ele>663.2</ele>
        <time>2022-09-06T05:34:38Z</time>
      </trkpt>
      <trkpt lat="46.72806" lon="5.74994">
        <ele>663.2</ele>
        <time>2022-09-06T05:34:39Z</time>
      </trkpt>
      <trkpt lat="46.72811" lon="5.75">
        <ele>663.4</ele>
        <time>2022-09-06T05:34:40Z</time>
      </trkpt>
      <trkpt lat="46.72815" lon="5.75006">
        <ele>663.4</ele>
        <time>2022-09-06T05:34:41Z</time>
      </trkpt>
      <trkpt lat="46.7282" lon="5.75012">
        <ele>663.4</ele>
        <time>2022-09-06T05:34:42Z</time>
      </trkpt>
      <trkpt lat="46.72825" lon="5.75018">
        <ele>663.6</ele>
        <time>2022-09-06T05:34:43Z</time>
      </trkpt>
      <trkpt lat="46.7283" lon="5.75024">
        <ele>663.6</ele>
        <time>2022-09-06T05:34:44Z</time>
      </trkpt>
      <trkpt lat="46.72835" lon="5.7503">
        <ele>663.6</ele>
        <time>2022-09-06T05:34:45Z</time>
      </trkpt>
      <trkpt lat="46.7284" lon="5.75036">
        <ele>663.6</ele>
        <time>2022-09-06T05:34:46Z</time>
      </trkpt>
      <trkpt lat="46.72844" lon="5.75043">
        <ele>663.8</ele>
        <time>2022-09-06T05:34:47Z</time>
      </trkpt>
      <trkpt lat="46.72849" lon="5.7505">
        <ele>664</ele>
        <time>2022-09-06T05:34:48Z</time>
      </trkpt>
      <trkpt lat="46.72853" lon="5.75056">
        <ele>664</ele>
        <time>2022-09-06T05:34:49Z</time>
      </trkpt>
      <trkpt lat="46.72858" lon="5.75063">
        <ele>664.2</ele>
        <time>2022-09-06T05:34:50Z</time>
      </trkpt>
      <trkpt lat="46.72862" lon="5.75069">
        <ele>664.2</ele>
        <time>2022-09-06T05:34:51Z</time>
      </trkpt>
      <trkpt lat="46.72866" lon="5.75075">
        <ele>664.4</ele>
        <time>2022-09-06T05:34:52Z</time>
      </trkpt>
      <trkpt lat="46.72871" lon="5.75082">
        <ele>664.4</ele>
        <time>2022-09-06T05:34:53Z</time>
      </trkpt>
      <trkpt lat="46.72875" lon="5.75088">
        <ele>664.6</ele>
        <time>2022-09-06T05:34:54Z</time>
      </trkpt>
      <trkpt lat="46.72879" lon="5.75094">
        <ele>664.6</ele>
        <time>2022-09-06T05:34:55Z</time>
      </trkpt>
      <trkpt lat="46.72884" lon="5.75101">
        <ele>664.6</ele>
        <time>2022-09-06T05:34:56Z</time>
      </trkpt>
      <trkpt lat="46.72888" lon="5.75108">
        <ele>665</ele>
        <time>2022-09-06T05:34:57Z</time>
      </trkpt>
      <trkpt lat="46.72892" lon="5.75114">
        <ele>665</ele>
        <time>2022-09-06T05:34:58Z</time>
      </trkpt>
      <trkpt lat="46.72896" lon="5.7512">
        <ele>665.4</ele>
        <time>2022-09-06T05:34:59Z</time>
      </trkpt>
      <trkpt lat="46.729" lon="5.75125">
        <ele>665.4</ele>
        <time>2022-09-06T05:35:00Z</time>
      </trkpt>
      <trkpt lat="46.72904" lon="5.75131">
        <ele>665.4</ele>
        <time>2022-09-06T05:35:01Z</time>
      </trkpt>
      <trkpt lat="46.72907" lon="5.75137">
        <ele>665.6</ele>
        <time>2022-09-06T05:35:02Z</time>
      </trkpt>
      <trkpt lat="46.72911" lon="5.75143">
        <ele>665.6</ele>
        <time>2022-09-06T05:35:03Z</time>
      </trkpt>
      <trkpt lat="46.72915" lon="5.75148">
        <ele>666</ele>
        <time>2022-09-06T05:35:04Z</time>
      </trkpt>
      <trkpt lat="46.7292" lon="5.75153">
        <ele>666.2</ele>
        <time>2022-09-06T05:35:05Z</time>
      </trkpt>
      <trkpt lat="46.72924" lon="5.75158">
        <ele>666.6</ele>
        <time>2022-09-06T05:35:06Z</time>
      </trkpt>
      <trkpt lat="46.72928" lon="5.75163">
        <ele>666.8</ele>
        <time>2022-09-06T05:35:07Z</time>
      </trkpt>
      <trkpt lat="46.72932" lon="5.75169">
        <ele>666.8</ele>
        <time>2022-09-06T05:35:08Z</time>
      </trkpt>
      <trkpt lat="46.72936" lon="5.75174">
        <ele>667.2</ele>
        <time>2022-09-06T05:35:09Z</time>
      </trkpt>
      <trkpt lat="46.7294" lon="5.75179">
        <ele>667.2</ele>
        <time>2022-09-06T05:35:10Z</time>
      </trkpt>
      <trkpt lat="46.72944" lon="5.75185">
        <ele>667.4</ele>
        <time>2022-09-06T05:35:11Z</time>
      </trkpt>
      <trkpt lat="46.72949" lon="5.7519">
        <ele>667.4</ele>
        <time>2022-09-06T05:35:12Z</time>
      </trkpt>
      <trkpt lat="46.72952" lon="5.75196">
        <ele>667.4</ele>
        <time>2022-09-06T05:35:13Z</time>
      </trkpt>
      <trkpt lat="46.72956" lon="5.75203">
        <ele>667.4</ele>
        <time>2022-09-06T05:35:14Z</time>
      </trkpt>
      <trkpt lat="46.72959" lon="5.7521">
        <ele>667.4</ele>
        <time>2022-09-06T05:35:15Z</time>
      </trkpt>
      <trkpt lat="46.72963" lon="5.75217">
        <ele>667.6</ele>
        <time>2022-09-06T05:35:16Z</time>
      </trkpt>
      <trkpt lat="46.72966" lon="5.75225">
        <ele>667.6</ele>
        <time>2022-09-06T05:35:17Z</time>
      </trkpt>
      <trkpt lat="46.72968" lon="5.75233">
        <ele>667.6</ele>
        <time>2022-09-06T05:35:18Z</time>
      </trkpt>
      <trkpt lat="46.72971" lon="5.75241">
        <ele>667.6</ele>
        <time>2022-09-06T05:35:19Z</time>
      </trkpt>
      <trkpt lat="46.72974" lon="5.75249">
        <ele>667.4</ele>
        <time>2022-09-06T05:35:20Z</time>
      </trkpt>
      <trkpt lat="46.72978" lon="5.75257">
        <ele>667.4</ele>
        <time>2022-09-06T05:35:21Z</time>
      </trkpt>
      <trkpt lat="46.72981" lon="5.75265">
        <ele>667.4</ele>
        <time>2022-09-06T05:35:22Z</time>
      </trkpt>
      <trkpt lat="46.72984" lon="5.75273">
        <ele>667.4</ele>
        <time>2022-09-06T05:35:23Z</time>
      </trkpt>
      <trkpt lat="46.72988" lon="5.75281">
        <ele>667.4</ele>
        <time>2022-09-06T05:35:24Z</time>
      </trkpt>
      <trkpt lat="46.72991" lon="5.7529">
        <ele>667.4</ele>
        <time>2022-09-06T05:35:25Z</time>
      </trkpt>
      <trkpt lat="46.72995" lon="5.75298">
        <ele>667.4</ele>
        <time>2022-09-06T05:35:26Z</time>
      </trkpt>
      <trkpt lat="46.72998" lon="5.75307">
        <ele>667.4</ele>
        <time>2022-09-06T05:35:27Z</time>
      </trkpt>
      <trkpt lat="46.73001" lon="5.75315">
        <ele>667.4</ele>
        <time>2022-09-06T05:35:28Z</time>
      </trkpt>
      <trkpt lat="46.73005" lon="5.75324">
        <ele>667.4</ele>
        <time>2022-09-06T05:35:29Z</time>
      </trkpt>
      <trkpt lat="46.73009" lon="5.75332">
        <ele>667.4</ele>
        <time>2022-09-06T05:35:30Z</time>
      </trkpt>
      <trkpt lat="46.73012" lon="5.75341">
        <ele>667.4</ele>
        <time>2022-09-06T05:35:31Z</time>
      </trkpt>
      <trkpt lat="46.73016" lon="5.75349">
        <ele>667.4</ele>
        <time>2022-09-06T05:35:32Z</time>
      </trkpt>
      <trkpt lat="46.7302" lon="5.75356">
        <ele>667.4</ele>
        <time>2022-09-06T05:35:33Z</time>
      </trkpt>
      <trkpt lat="46.73024" lon="5.75364">
        <ele>667.4</ele>
        <time>2022-09-06T05:35:34Z</time>
      </trkpt>
      <trkpt lat="46.73028" lon="5.75372">
        <ele>667.4</ele>
        <time>2022-09-06T05:35:35Z</time>
      </trkpt>
      <trkpt lat="46.73033" lon="5.7538">
        <ele>667.4</ele>
        <time>2022-09-06T05:35:36Z</time>
      </trkpt>
      <trkpt lat="46.73037" lon="5.75387">
        <ele>667.4</ele>
        <time>2022-09-06T05:35:37Z</time>
      </trkpt>
      <trkpt lat="46.73041" lon="5.75394">
        <ele>667.4</ele>
        <time>2022-09-06T05:35:38Z</time>
      </trkpt>
      <trkpt lat="46.73045" lon="5.75402">
        <ele>667.4</ele>
        <time>2022-09-06T05:35:39Z</time>
      </trkpt>
      <trkpt lat="46.7305" lon="5.75408">
        <ele>667.6</ele>
        <time>2022-09-06T05:35:40Z</time>
      </trkpt>
      <trkpt lat="46.73055" lon="5.75414">
        <ele>667.6</ele>
        <time>2022-09-06T05:35:41Z</time>
      </trkpt>
      <trkpt lat="46.73059" lon="5.7542">
        <ele>667.8</ele>
        <time>2022-09-06T05:35:42Z</time>
      </trkpt>
      <trkpt lat="46.73064" lon="5.75426">
        <ele>667.8</ele>
        <time>2022-09-06T05:35:43Z</time>
      </trkpt>
      <trkpt lat="46.73069" lon="5.7543">
        <ele>668.2</ele>
        <time>2022-09-06T05:35:44Z</time>
      </trkpt>
      <trkpt lat="46.73073" lon="5.75435">
        <ele>668.2</ele>
        <time>2022-09-06T05:35:45Z</time>
      </trkpt>
      <trkpt lat="46.73078" lon="5.7544">
        <ele>668.6</ele>
        <time>2022-09-06T05:35:46Z</time>
      </trkpt>
      <trkpt lat="46.73082" lon="5.75445">
        <ele>668.6</ele>
        <time>2022-09-06T05:35:47Z</time>
      </trkpt>
      <trkpt lat="46.73086" lon="5.75449">
        <ele>669</ele>
        <time>2022-09-06T05:35:48Z</time>
      </trkpt>
      <trkpt lat="46.7309" lon="5.75453">
        <ele>669.2</ele>
        <time>2022-09-06T05:35:49Z</time>
      </trkpt>
      <trkpt lat="46.73094" lon="5.75457">
        <ele>669.4</ele>
        <time>2022-09-06T05:35:50Z</time>
      </trkpt>
      <trkpt lat="46.73098" lon="5.7546">
        <ele>669.6</ele>
        <time>2022-09-06T05:35:51Z</time>
      </trkpt>
      <trkpt lat="46.73102" lon="5.75464">
        <ele>669.8</ele>
        <time>2022-09-06T05:35:52Z</time>
      </trkpt>
      <trkpt lat="46.73106" lon="5.75468">
        <ele>670.2</ele>
        <time>2022-09-06T05:35:53Z</time>
      </trkpt>
      <trkpt lat="46.7311" lon="5.75471">
        <ele>670.4</ele>
        <time>2022-09-06T05:35:54Z</time>
      </trkpt>
      <trkpt lat="46.73114" lon="5.75474">
        <ele>670.6</ele>
        <time>2022-09-06T05:35:55Z</time>
      </trkpt>
      <trkpt lat="46.73118" lon="5.75477">
        <ele>670.8</ele>
        <time>2022-09-06T05:35:56Z</time>
      </trkpt>
      <trkpt lat="46.73122" lon="5.75481">
        <ele>671</ele>
        <time>2022-09-06T05:35:57Z</time>
      </trkpt>
      <trkpt lat="46.73126" lon="5.75484">
        <ele>671.2</ele>
        <time>2022-09-06T05:35:58Z</time>
      </trkpt>
      <trkpt lat="46.7313" lon="5.75488">
        <ele>671.6</ele>
        <time>2022-09-06T05:35:59Z</time>
      </trkpt>
      <trkpt lat="46.73134" lon="5.75491">
        <ele>671.8</ele>
        <time>2022-09-06T05:36:00Z</time>
      </trkpt>
      <trkpt lat="46.73137" lon="5.75494">
        <ele>672</ele>
        <time>2022-09-06T05:36:01Z</time>
      </trkpt>
      <trkpt lat="46.73141" lon="5.75497">
        <ele>672.2</ele>
        <time>2022-09-06T05:36:02Z</time>
      </trkpt>
      <trkpt lat="46.73145" lon="5.755">
        <ele>672.6</ele>
        <time>2022-09-06T05:36:03Z</time>
      </trkpt>
      <trkpt lat="46.73149" lon="5.75504">
        <ele>672.8</ele>
        <time>2022-09-06T05:36:04Z</time>
      </trkpt>
      <trkpt lat="46.73152" lon="5.75507">
        <ele>672.8</ele>
        <time>2022-09-06T05:36:05Z</time>
      </trkpt>
      <trkpt lat="46.73156" lon="5.75511">
        <ele>673.2</ele>
        <time>2022-09-06T05:36:06Z</time>
      </trkpt>
      <trkpt lat="46.73159" lon="5.75514">
        <ele>673.2</ele>
        <time>2022-09-06T05:36:07Z</time>
      </trkpt>
      <trkpt lat="46.73163" lon="5.75518">
        <ele>673.6</ele>
        <time>2022-09-06T05:36:08Z</time>
      </trkpt>
      <trkpt lat="46.73166" lon="5.75521">
        <ele>673.8</ele>
        <time>2022-09-06T05:36:09Z</time>
      </trkpt>
      <trkpt lat="46.7317" lon="5.75524">
        <ele>674</ele>
        <time>2022-09-06T05:36:10Z</time>
      </trkpt>
      <trkpt lat="46.73174" lon="5.75527">
        <ele>674</ele>
        <time>2022-09-06T05:36:11Z</time>
      </trkpt>
      <trkpt lat="46.73178" lon="5.75531">
        <ele>674.2</ele>
        <time>2022-09-06T05:36:12Z</time>
      </trkpt>
      <trkpt lat="46.73182" lon="5.75534">
        <ele>674.2</ele>
        <time>2022-09-06T05:36:13Z</time>
      </trkpt>
      <trkpt lat="46.73186" lon="5.75538">
        <ele>674.6</ele>
        <time>2022-09-06T05:36:14Z</time>
      </trkpt>
      <trkpt lat="46.7319" lon="5.75542">
        <ele>674.6</ele>
        <time>2022-09-06T05:36:15Z</time>
      </trkpt>
      <trkpt lat="46.73194" lon="5.75545">
        <ele>674.8</ele>
        <time>2022-09-06T05:36:16Z</time>
      </trkpt>
      <trkpt lat="46.73198" lon="5.75548">
        <ele>674.8</ele>
        <time>2022-09-06T05:36:17Z</time>
      </trkpt>
      <trkpt lat="46.73202" lon="5.75552">
        <ele>675.2</ele>
        <time>2022-09-06T05:36:18Z</time>
      </trkpt>
      <trkpt lat="46.73206" lon="5.75555">
        <ele>675.2</ele>
        <time>2022-09-06T05:36:19Z</time>
      </trkpt>
      <trkpt lat="46.7321" lon="5.75559">
        <ele>675.4</ele>
        <time>2022-09-06T05:36:20Z</time>
      </trkpt>
      <trkpt lat="46.73214" lon="5.75563">
        <ele>675.4</ele>
        <time>2022-09-06T05:36:21Z</time>
      </trkpt>
      <trkpt lat="46.73217" lon="5.75567">
        <ele>675.8</ele>
        <time>2022-09-06T05:36:22Z</time>
      </trkpt>
      <trkpt lat="46.73221" lon="5.7557">
        <ele>675.8</ele>
        <time>2022-09-06T05:36:23Z</time>
      </trkpt>
      <trkpt lat="46.73225" lon="5.75573">
        <ele>675.8</ele>
        <time>2022-09-06T05:36:24Z</time>
      </trkpt>
      <trkpt lat="46.73228" lon="5.75576">
        <ele>676.2</ele>
        <time>2022-09-06T05:36:25Z</time>
      </trkpt>
      <trkpt lat="46.73232" lon="5.7558">
        <ele>676.2</ele>
        <time>2022-09-06T05:36:26Z</time>
      </trkpt>
      <trkpt lat="46.73236" lon="5.75583">
        <ele>676.4</ele>
        <time>2022-09-06T05:36:27Z</time>
      </trkpt>
      <trkpt lat="46.7324" lon="5.75587">
        <ele>676.4</ele>
        <time>2022-09-06T05:36:28Z</time>
      </trkpt>
      <trkpt lat="46.73244" lon="5.7559">
        <ele>676.4</ele>
        <time>2022-09-06T05:36:29Z</time>
      </trkpt>
      <trkpt lat="46.73248" lon="5.75594">
        <ele>676.4</ele>
        <time>2022-09-06T05:36:30Z</time>
      </trkpt>
      <trkpt lat="46.73253" lon="5.75598">
        <ele>676.6</ele>
        <time>2022-09-06T05:36:31Z</time>
      </trkpt>
      <trkpt lat="46.73257" lon="5.75601">
        <ele>676.6</ele>
        <time>2022-09-06T05:36:32Z</time>
      </trkpt>
      <trkpt lat="46.73261" lon="5.75605">
        <ele>676.6</ele>
        <time>2022-09-06T05:36:33Z</time>
      </trkpt>
      <trkpt lat="46.73266" lon="5.75609">
        <ele>676.6</ele>
        <time>2022-09-06T05:36:34Z</time>
      </trkpt>
      <trkpt lat="46.73271" lon="5.75612">
        <ele>676.6</ele>
        <time>2022-09-06T05:36:35Z</time>
      </trkpt>
      <trkpt lat="46.73276" lon="5.75616">
        <ele>676.6</ele>
        <time>2022-09-06T05:36:36Z</time>
      </trkpt>
      <trkpt lat="46.73281" lon="5.7562">
        <ele>676.6</ele>
        <time>2022-09-06T05:36:37Z</time>
      </trkpt>
      <trkpt lat="46.73286" lon="5.75624">
        <ele>676.6</ele>
        <time>2022-09-06T05:36:38Z</time>
      </trkpt>
      <trkpt lat="46.73292" lon="5.75628">
        <ele>676.6</ele>
        <time>2022-09-06T05:36:39Z</time>
      </trkpt>
      <trkpt lat="46.73297" lon="5.75633">
        <ele>676.6</ele>
        <time>2022-09-06T05:36:40Z</time>
      </trkpt>
      <trkpt lat="46.73303" lon="5.75637">
        <ele>676.6</ele>
        <time>2022-09-06T05:36:41Z</time>
      </trkpt>
      <trkpt lat="46.73308" lon="5.75642">
        <ele>676.6</ele>
        <time>2022-09-06T05:36:42Z</time>
      </trkpt>
      <trkpt lat="46.73314" lon="5.75646">
        <ele>676.6</ele>
        <time>2022-09-06T05:36:43Z</time>
      </trkpt>
      <trkpt lat="46.73319" lon="5.75651">
        <ele>676.6</ele>
        <time>2022-09-06T05:36:44Z</time>
      </trkpt>
      <trkpt lat="46.73324" lon="5.75655">
        <ele>676.6</ele>
        <time>2022-09-06T05:36:45Z</time>
      </trkpt>
      <trkpt lat="46.7333" lon="5.75659">
        <ele>676.6</ele>
        <time>2022-09-06T05:36:46Z</time>
      </trkpt>
      <trkpt lat="46.73335" lon="5.75664">
        <ele>676.4</ele>
        <time>2022-09-06T05:36:47Z</time>
      </trkpt>
      <trkpt lat="46.73341" lon="5.75668">
        <ele>676.4</ele>
        <time>2022-09-06T05:36:48Z</time>
      </trkpt>
      <trkpt lat="46.73347" lon="5.75672">
        <ele>676.4</ele>
        <time>2022-09-06T05:36:49Z</time>
      </trkpt>
      <trkpt lat="46.73352" lon="5.75677">
        <ele>676.4</ele>
        <time>2022-09-06T05:36:50Z</time>
      </trkpt>
      <trkpt lat="46.73358" lon="5.75681">
        <ele>676.4</ele>
        <time>2022-09-06T05:36:51Z</time>
      </trkpt>
      <trkpt lat="46.73364" lon="5.75686">
        <ele>676.4</ele>
        <time>2022-09-06T05:36:52Z</time>
      </trkpt>
      <trkpt lat="46.7337" lon="5.75691">
        <ele>676.4</ele>
        <time>2022-09-06T05:36:53Z</time>
      </trkpt>
      <trkpt lat="46.73376" lon="5.75696">
        <ele>676.4</ele>
        <time>2022-09-06T05:36:54Z</time>
      </trkpt>
      <trkpt lat="46.73381" lon="5.757">
        <ele>676.4</ele>
        <time>2022-09-06T05:36:55Z</time>
      </trkpt>
      <trkpt lat="46.73387" lon="5.75703">
        <ele>676.8</ele>
        <time>2022-09-06T05:36:56Z</time>
      </trkpt>
      <trkpt lat="46.73392" lon="5.75707">
        <ele>677</ele>
        <time>2022-09-06T05:36:57Z</time>
      </trkpt>
      <trkpt lat="46.73397" lon="5.75711">
        <ele>677.2</ele>
        <time>2022-09-06T05:36:58Z</time>
      </trkpt>
      <trkpt lat="46.73402" lon="5.75714">
        <ele>677.4</ele>
        <time>2022-09-06T05:36:59Z</time>
      </trkpt>
      <trkpt lat="46.73407" lon="5.75718">
        <ele>677.6</ele>
        <time>2022-09-06T05:37:00Z</time>
      </trkpt>
      <trkpt lat="46.73411" lon="5.75722">
        <ele>677.6</ele>
        <time>2022-09-06T05:37:01Z</time>
      </trkpt>
      <trkpt lat="46.73416" lon="5.75726">
        <ele>678</ele>
        <time>2022-09-06T05:37:02Z</time>
      </trkpt>
      <trkpt lat="46.73421" lon="5.7573">
        <ele>678</ele>
        <time>2022-09-06T05:37:03Z</time>
      </trkpt>
      <trkpt lat="46.73425" lon="5.75735">
        <ele>678.4</ele>
        <time>2022-09-06T05:37:04Z</time>
      </trkpt>
      <trkpt lat="46.7343" lon="5.75739">
        <ele>678.4</ele>
        <time>2022-09-06T05:37:05Z</time>
      </trkpt>
      <trkpt lat="46.73435" lon="5.75744">
        <ele>678.6</ele>
        <time>2022-09-06T05:37:06Z</time>
      </trkpt>
      <trkpt lat="46.7344" lon="5.75749">
        <ele>678.6</ele>
        <time>2022-09-06T05:37:07Z</time>
      </trkpt>
      <trkpt lat="46.73444" lon="5.75754">
        <ele>678.8</ele>
        <time>2022-09-06T05:37:08Z</time>
      </trkpt>
      <trkpt lat="46.73449" lon="5.75759">
        <ele>678.8</ele>
        <time>2022-09-06T05:37:09Z</time>
      </trkpt>
      <trkpt lat="46.73453" lon="5.75764">
        <ele>679</ele>
        <time>2022-09-06T05:37:10Z</time>
      </trkpt>
      <trkpt lat="46.73457" lon="5.7577">
        <ele>679</ele>
        <time>2022-09-06T05:37:11Z</time>
      </trkpt>
      <trkpt lat="46.73461" lon="5.75775">
        <ele>679</ele>
        <time>2022-09-06T05:37:12Z</time>
      </trkpt>
      <trkpt lat="46.73465" lon="5.7578">
        <ele>679.4</ele>
        <time>2022-09-06T05:37:13Z</time>
      </trkpt>
      <trkpt lat="46.73469" lon="5.75785">
        <ele>679.6</ele>
        <time>2022-09-06T05:37:14Z</time>
      </trkpt>
      <trkpt lat="46.73473" lon="5.7579">
        <ele>679.8</ele>
        <time>2022-09-06T05:37:15Z</time>
      </trkpt>
      <trkpt lat="46.73477" lon="5.75795">
        <ele>680.2</ele>
        <time>2022-09-06T05:37:16Z</time>
      </trkpt>
      <trkpt lat="46.7348" lon="5.758">
        <ele>680.2</ele>
        <time>2022-09-06T05:37:17Z</time>
      </trkpt>
      <trkpt lat="46.73483" lon="5.75805">
        <ele>680.6</ele>
        <time>2022-09-06T05:37:18Z</time>
      </trkpt>
      <trkpt lat="46.73486" lon="5.7581">
        <ele>680.6</ele>
        <time>2022-09-06T05:37:19Z</time>
      </trkpt>
      <trkpt lat="46.73489" lon="5.75815">
        <ele>681</ele>
        <time>2022-09-06T05:37:20Z</time>
      </trkpt>
      <trkpt lat="46.73492" lon="5.75819">
        <ele>681</ele>
        <time>2022-09-06T05:37:21Z</time>
      </trkpt>
      <trkpt lat="46.73494" lon="5.75824">
        <ele>681.2</ele>
        <time>2022-09-06T05:37:22Z</time>
      </trkpt>
      <trkpt lat="46.73497" lon="5.75829">
        <ele>681.6</ele>
        <time>2022-09-06T05:37:23Z</time>
      </trkpt>
      <trkpt lat="46.73499" lon="5.75834">
        <ele>681.6</ele>
        <time>2022-09-06T05:37:24Z</time>
      </trkpt>
      <trkpt lat="46.73501" lon="5.7584">
        <ele>681.8</ele>
        <time>2022-09-06T05:37:25Z</time>
      </trkpt>
      <trkpt lat="46.73503" lon="5.75845">
        <ele>681.8</ele>
        <time>2022-09-06T05:37:26Z</time>
      </trkpt>
      <trkpt lat="46.73505" lon="5.75851">
        <ele>682.4</ele>
        <time>2022-09-06T05:37:27Z</time>
      </trkpt>
      <trkpt lat="46.73508" lon="5.75857">
        <ele>682.6</ele>
        <time>2022-09-06T05:37:28Z</time>
      </trkpt>
      <trkpt lat="46.7351" lon="5.75863">
        <ele>682.8</ele>
        <time>2022-09-06T05:37:29Z</time>
      </trkpt>
      <trkpt lat="46.73513" lon="5.75868">
        <ele>682.8</ele>
        <time>2022-09-06T05:37:30Z</time>
      </trkpt>
      <trkpt lat="46.73516" lon="5.75874">
        <ele>683.2</ele>
        <time>2022-09-06T05:37:31Z</time>
      </trkpt>
      <trkpt lat="46.73519" lon="5.7588">
        <ele>683.2</ele>
        <time>2022-09-06T05:37:32Z</time>
      </trkpt>
      <trkpt lat="46.73522" lon="5.75886">
        <ele>683.4</ele>
        <time>2022-09-06T05:37:33Z</time>
      </trkpt>
      <trkpt lat="46.73526" lon="5.75892">
        <ele>683.4</ele>
        <time>2022-09-06T05:37:34Z</time>
      </trkpt>
      <trkpt lat="46.73529" lon="5.75898">
        <ele>683.8</ele>
        <time>2022-09-06T05:37:35Z</time>
      </trkpt>
      <trkpt lat="46.73532" lon="5.75904">
        <ele>683.8</ele>
        <time>2022-09-06T05:37:36Z</time>
      </trkpt>
      <trkpt lat="46.73536" lon="5.75909">
        <ele>683.8</ele>
        <time>2022-09-06T05:37:37Z</time>
      </trkpt>
      <trkpt lat="46.73539" lon="5.75916">
        <ele>684</ele>
        <time>2022-09-06T05:37:38Z</time>
      </trkpt>
      <trkpt lat="46.73542" lon="5.75922">
        <ele>684</ele>
        <time>2022-09-06T05:37:39Z</time>
      </trkpt>
      <trkpt lat="46.73545" lon="5.75928">
        <ele>684</ele>
        <time>2022-09-06T05:37:40Z</time>
      </trkpt>
      <trkpt lat="46.73548" lon="5.75934">
        <ele>684.2</ele>
        <time>2022-09-06T05:37:41Z</time>
      </trkpt>
      <trkpt lat="46.7355" lon="5.7594">
        <ele>684.2</ele>
        <time>2022-09-06T05:37:42Z</time>
      </trkpt>
      <trkpt lat="46.73554" lon="5.75945">
        <ele>684.6</ele>
        <time>2022-09-06T05:37:43Z</time>
      </trkpt>
      <trkpt lat="46.73557" lon="5.75951">
        <ele>684.6</ele>
        <time>2022-09-06T05:37:44Z</time>
      </trkpt>
      <trkpt lat="46.7356" lon="5.75957">
        <ele>684.6</ele>
        <time>2022-09-06T05:37:45Z</time>
      </trkpt>
      <trkpt lat="46.73563" lon="5.75963">
        <ele>684.8</ele>
        <time>2022-09-06T05:37:46Z</time>
      </trkpt>
      <trkpt lat="46.73567" lon="5.7597">
        <ele>684.8</ele>
        <time>2022-09-06T05:37:47Z</time>
      </trkpt>
      <trkpt lat="46.7357" lon="5.75976">
        <ele>684.8</ele>
        <time>2022-09-06T05:37:48Z</time>
      </trkpt>
      <trkpt lat="46.73574" lon="5.75982">
        <ele>684.8</ele>
        <time>2022-09-06T05:37:49Z</time>
      </trkpt>
      <trkpt lat="46.73577" lon="5.75988">
        <ele>684.8</ele>
        <time>2022-09-06T05:37:50Z</time>
      </trkpt>
      <trkpt lat="46.7358" lon="5.75995">
        <ele>684.8</ele>
        <time>2022-09-06T05:37:51Z</time>
      </trkpt>
      <trkpt lat="46.73583" lon="5.76001">
        <ele>684.8</ele>
        <time>2022-09-06T05:37:52Z</time>
      </trkpt>
      <trkpt lat="46.73586" lon="5.76009">
        <ele>684.8</ele>
        <time>2022-09-06T05:37:53Z</time>
      </trkpt>
      <trkpt lat="46.73589" lon="5.76016">
        <ele>684.8</ele>
        <time>2022-09-06T05:37:54Z</time>
      </trkpt>
      <trkpt lat="46.73592" lon="5.76024">
        <ele>684.8</ele>
        <time>2022-09-06T05:37:55Z</time>
      </trkpt>
      <trkpt lat="46.73595" lon="5.76031">
        <ele>685</ele>
        <time>2022-09-06T05:37:56Z</time>
      </trkpt>
      <trkpt lat="46.73598" lon="5.76039">
        <ele>685</ele>
        <time>2022-09-06T05:37:57Z</time>
      </trkpt>
      <trkpt lat="46.736" lon="5.76047">
        <ele>685</ele>
        <time>2022-09-06T05:37:58Z</time>
      </trkpt>
      <trkpt lat="46.73603" lon="5.76054">
        <ele>685</ele>
        <time>2022-09-06T05:37:59Z</time>
      </trkpt>
      <trkpt lat="46.73604" lon="5.76062">
        <ele>685.4</ele>
        <time>2022-09-06T05:38:00Z</time>
      </trkpt>
      <trkpt lat="46.73606" lon="5.76069">
        <ele>685.4</ele>
        <time>2022-09-06T05:38:01Z</time>
      </trkpt>
      <trkpt lat="46.73608" lon="5.76077">
        <ele>685.4</ele>
        <time>2022-09-06T05:38:02Z</time>
      </trkpt>
      <trkpt lat="46.7361" lon="5.76085">
        <ele>685.4</ele>
        <time>2022-09-06T05:38:03Z</time>
      </trkpt>
      <trkpt lat="46.73613" lon="5.76093">
        <ele>685.4</ele>
        <time>2022-09-06T05:38:04Z</time>
      </trkpt>
      <trkpt lat="46.73615" lon="5.76101">
        <ele>685.4</ele>
        <time>2022-09-06T05:38:05Z</time>
      </trkpt>
      <trkpt lat="46.73618" lon="5.76109">
        <ele>685.4</ele>
        <time>2022-09-06T05:38:06Z</time>
      </trkpt>
      <trkpt lat="46.7362" lon="5.76117">
        <ele>685.4</ele>
        <time>2022-09-06T05:38:07Z</time>
      </trkpt>
      <trkpt lat="46.73623" lon="5.76125">
        <ele>685.4</ele>
        <time>2022-09-06T05:38:08Z</time>
      </trkpt>
      <trkpt lat="46.73626" lon="5.76134">
        <ele>685.4</ele>
        <time>2022-09-06T05:38:09Z</time>
      </trkpt>
      <trkpt lat="46.73629" lon="5.76142">
        <ele>685.4</ele>
        <time>2022-09-06T05:38:10Z</time>
      </trkpt>
      <trkpt lat="46.73632" lon="5.7615">
        <ele>685.4</ele>
        <time>2022-09-06T05:38:11Z</time>
      </trkpt>
      <trkpt lat="46.73632" lon="5.7615">
        <ele>685.4</ele>
        <time>2022-09-06T05:38:12Z</time>
      </trkpt>
      <trkpt lat="46.73635" lon="5.76158">
        <ele>685.4</ele>
        <time>2022-09-06T05:38:13Z</time>
      </trkpt>
      <trkpt lat="46.73637" lon="5.76167">
        <ele>685.4</ele>
        <time>2022-09-06T05:38:14Z</time>
      </trkpt>
      <trkpt lat="46.73639" lon="5.76176">
        <ele>685</ele>
        <time>2022-09-06T05:38:15Z</time>
      </trkpt>
      <trkpt lat="46.73642" lon="5.76185">
        <ele>685</ele>
        <time>2022-09-06T05:38:16Z</time>
      </trkpt>
      <trkpt lat="46.73645" lon="5.76195">
        <ele>684.6</ele>
        <time>2022-09-06T05:38:17Z</time>
      </trkpt>
      <trkpt lat="46.73648" lon="5.76204">
        <ele>684.6</ele>
        <time>2022-09-06T05:38:18Z</time>
      </trkpt>
      <trkpt lat="46.73651" lon="5.76213">
        <ele>684.6</ele>
        <time>2022-09-06T05:38:19Z</time>
      </trkpt>
      <trkpt lat="46.73654" lon="5.76223">
        <ele>684.4</ele>
        <time>2022-09-06T05:38:20Z</time>
      </trkpt>
      <trkpt lat="46.73657" lon="5.76232">
        <ele>684.4</ele>
        <time>2022-09-06T05:38:21Z</time>
      </trkpt>
      <trkpt lat="46.7366" lon="5.76242">
        <ele>684.4</ele>
        <time>2022-09-06T05:38:22Z</time>
      </trkpt>
      <trkpt lat="46.73663" lon="5.76251">
        <ele>684.4</ele>
        <time>2022-09-06T05:38:23Z</time>
      </trkpt>
      <trkpt lat="46.73666" lon="5.7626">
        <ele>684.4</ele>
        <time>2022-09-06T05:38:24Z</time>
      </trkpt>
      <trkpt lat="46.73669" lon="5.76269">
        <ele>684.4</ele>
        <time>2022-09-06T05:38:25Z</time>
      </trkpt>
      <trkpt lat="46.73671" lon="5.76277">
        <ele>684.4</ele>
        <time>2022-09-06T05:38:26Z</time>
      </trkpt>
      <trkpt lat="46.73675" lon="5.76285">
        <ele>684.4</ele>
        <time>2022-09-06T05:38:27Z</time>
      </trkpt>
      <trkpt lat="46.73678" lon="5.76292">
        <ele>684.8</ele>
        <time>2022-09-06T05:38:28Z</time>
      </trkpt>
      <trkpt lat="46.73682" lon="5.763">
        <ele>684.8</ele>
        <time>2022-09-06T05:38:29Z</time>
      </trkpt>
      <trkpt lat="46.73685" lon="5.76308">
        <ele>684.8</ele>
        <time>2022-09-06T05:38:30Z</time>
      </trkpt>
      <trkpt lat="46.73688" lon="5.76316">
        <ele>684.8</ele>
        <time>2022-09-06T05:38:31Z</time>
      </trkpt>
      <trkpt lat="46.73692" lon="5.76324">
        <ele>684.8</ele>
        <time>2022-09-06T05:38:32Z</time>
      </trkpt>
      <trkpt lat="46.73695" lon="5.76332">
        <ele>685</ele>
        <time>2022-09-06T05:38:33Z</time>
      </trkpt>
      <trkpt lat="46.73698" lon="5.76341">
        <ele>685</ele>
        <time>2022-09-06T05:38:34Z</time>
      </trkpt>
      <trkpt lat="46.73701" lon="5.76349">
        <ele>685</ele>
        <time>2022-09-06T05:38:35Z</time>
      </trkpt>
      <trkpt lat="46.73704" lon="5.76357">
        <ele>685.2</ele>
        <time>2022-09-06T05:38:36Z</time>
      </trkpt>
      <trkpt lat="46.73706" lon="5.76365">
        <ele>685.2</ele>
        <time>2022-09-06T05:38:37Z</time>
      </trkpt>
      <trkpt lat="46.73708" lon="5.76374">
        <ele>685.2</ele>
        <time>2022-09-06T05:38:38Z</time>
      </trkpt>
      <trkpt lat="46.73711" lon="5.76392">
        <ele>685.2</ele>
        <time>2022-09-06T05:38:39Z</time>
      </trkpt>
      <trkpt lat="46.73712" lon="5.76401">
        <ele>685.2</ele>
        <time>2022-09-06T05:38:40Z</time>
      </trkpt>
      <trkpt lat="46.73713" lon="5.76411">
        <ele>685.2</ele>
        <time>2022-09-06T05:38:41Z</time>
      </trkpt>
      <trkpt lat="46.73715" lon="5.76421">
        <ele>685.2</ele>
        <time>2022-09-06T05:38:42Z</time>
      </trkpt>
      <trkpt lat="46.73717" lon="5.76431">
        <ele>685.2</ele>
        <time>2022-09-06T05:38:43Z</time>
      </trkpt>
      <trkpt lat="46.73719" lon="5.76441">
        <ele>685.2</ele>
        <time>2022-09-06T05:38:44Z</time>
      </trkpt>
      <trkpt lat="46.7372" lon="5.7645">
        <ele>685</ele>
        <time>2022-09-06T05:38:45Z</time>
      </trkpt>
      <trkpt lat="46.73722" lon="5.7646">
        <ele>685</ele>
        <time>2022-09-06T05:38:46Z</time>
      </trkpt>
      <trkpt lat="46.73723" lon="5.76469">
        <ele>685</ele>
        <time>2022-09-06T05:38:47Z</time>
      </trkpt>
      <trkpt lat="46.73725" lon="5.76478">
        <ele>685</ele>
        <time>2022-09-06T05:38:48Z</time>
      </trkpt>
      <trkpt lat="46.73726" lon="5.76487">
        <ele>685.2</ele>
        <time>2022-09-06T05:38:49Z</time>
      </trkpt>
      <trkpt lat="46.73728" lon="5.76496">
        <ele>685.2</ele>
        <time>2022-09-06T05:38:50Z</time>
      </trkpt>
      <trkpt lat="46.73729" lon="5.76506">
        <ele>685.4</ele>
        <time>2022-09-06T05:38:51Z</time>
      </trkpt>
      <trkpt lat="46.73731" lon="5.76514">
        <ele>685.4</ele>
        <time>2022-09-06T05:38:52Z</time>
      </trkpt>
      <trkpt lat="46.73732" lon="5.76523">
        <ele>685.4</ele>
        <time>2022-09-06T05:38:53Z</time>
      </trkpt>
      <trkpt lat="46.73733" lon="5.76532">
        <ele>685.4</ele>
        <time>2022-09-06T05:38:54Z</time>
      </trkpt>
      <trkpt lat="46.73735" lon="5.76541">
        <ele>685.8</ele>
        <time>2022-09-06T05:38:55Z</time>
      </trkpt>
      <trkpt lat="46.73736" lon="5.7655">
        <ele>685.8</ele>
        <time>2022-09-06T05:38:56Z</time>
      </trkpt>
      <trkpt lat="46.73737" lon="5.76558">
        <ele>686</ele>
        <time>2022-09-06T05:38:57Z</time>
      </trkpt>
      <trkpt lat="46.73738" lon="5.76566">
        <ele>686</ele>
        <time>2022-09-06T05:38:58Z</time>
      </trkpt>
      <trkpt lat="46.73739" lon="5.76574">
        <ele>686.2</ele>
        <time>2022-09-06T05:38:59Z</time>
      </trkpt>
      <trkpt lat="46.7374" lon="5.76582">
        <ele>686.2</ele>
        <time>2022-09-06T05:39:00Z</time>
      </trkpt>
      <trkpt lat="46.7374" lon="5.76589">
        <ele>686.6</ele>
        <time>2022-09-06T05:39:01Z</time>
      </trkpt>
      <trkpt lat="46.73741" lon="5.76597">
        <ele>686.6</ele>
        <time>2022-09-06T05:39:02Z</time>
      </trkpt>
      <trkpt lat="46.73742" lon="5.76604">
        <ele>686.8</ele>
        <time>2022-09-06T05:39:03Z</time>
      </trkpt>
      <trkpt lat="46.73743" lon="5.76611">
        <ele>686.8</ele>
        <time>2022-09-06T05:39:04Z</time>
      </trkpt>
      <trkpt lat="46.73745" lon="5.76617">
        <ele>686.8</ele>
        <time>2022-09-06T05:39:05Z</time>
      </trkpt>
      <trkpt lat="46.73746" lon="5.76624">
        <ele>687.2</ele>
        <time>2022-09-06T05:39:06Z</time>
      </trkpt>
      <trkpt lat="46.73748" lon="5.76631">
        <ele>687.2</ele>
        <time>2022-09-06T05:39:07Z</time>
      </trkpt>
      <trkpt lat="46.7375" lon="5.76638">
        <ele>687.4</ele>
        <time>2022-09-06T05:39:08Z</time>
      </trkpt>
      <trkpt lat="46.73751" lon="5.76645">
        <ele>687.4</ele>
        <time>2022-09-06T05:39:09Z</time>
      </trkpt>
      <trkpt lat="46.73752" lon="5.76651">
        <ele>687.8</ele>
        <time>2022-09-06T05:39:10Z</time>
      </trkpt>
      <trkpt lat="46.73753" lon="5.76658">
        <ele>688</ele>
        <time>2022-09-06T05:39:11Z</time>
      </trkpt>
      <trkpt lat="46.73755" lon="5.76665">
        <ele>688.4</ele>
        <time>2022-09-06T05:39:12Z</time>
      </trkpt>
      <trkpt lat="46.73757" lon="5.76672">
        <ele>688.6</ele>
        <time>2022-09-06T05:39:13Z</time>
      </trkpt>
      <trkpt lat="46.73758" lon="5.76679">
        <ele>688.8</ele>
        <time>2022-09-06T05:39:14Z</time>
      </trkpt>
      <trkpt lat="46.7376" lon="5.76686">
        <ele>689.2</ele>
        <time>2022-09-06T05:39:15Z</time>
      </trkpt>
      <trkpt lat="46.73762" lon="5.76694">
        <ele>689.4</ele>
        <time>2022-09-06T05:39:16Z</time>
      </trkpt>
      <trkpt lat="46.73764" lon="5.76701">
        <ele>689.6</ele>
        <time>2022-09-06T05:39:17Z</time>
      </trkpt>
      <trkpt lat="46.73765" lon="5.76708">
        <ele>690</ele>
        <time>2022-09-06T05:39:18Z</time>
      </trkpt>
      <trkpt lat="46.73766" lon="5.76715">
        <ele>690.2</ele>
        <time>2022-09-06T05:39:19Z</time>
      </trkpt>
      <trkpt lat="46.73768" lon="5.76723">
        <ele>690.6</ele>
        <time>2022-09-06T05:39:20Z</time>
      </trkpt>
      <trkpt lat="46.73769" lon="5.7673">
        <ele>690.8</ele>
        <time>2022-09-06T05:39:21Z</time>
      </trkpt>
      <trkpt lat="46.73771" lon="5.76737">
        <ele>691</ele>
        <time>2022-09-06T05:39:22Z</time>
      </trkpt>
      <trkpt lat="46.73772" lon="5.76744">
        <ele>691</ele>
        <time>2022-09-06T05:39:23Z</time>
      </trkpt>
      <trkpt lat="46.73773" lon="5.76751">
        <ele>691.4</ele>
        <time>2022-09-06T05:39:24Z</time>
      </trkpt>
      <trkpt lat="46.73775" lon="5.76758">
        <ele>691.4</ele>
        <time>2022-09-06T05:39:25Z</time>
      </trkpt>
      <trkpt lat="46.73777" lon="5.76765">
        <ele>692</ele>
        <time>2022-09-06T05:39:26Z</time>
      </trkpt>
      <trkpt lat="46.73782" lon="5.76772">
        <ele>692.4</ele>
        <time>2022-09-06T05:39:27Z</time>
      </trkpt>
      <trkpt lat="46.73786" lon="5.76779">
        <ele>692.8</ele>
        <time>2022-09-06T05:39:28Z</time>
      </trkpt>
      <trkpt lat="46.73791" lon="5.76785">
        <ele>693</ele>
        <time>2022-09-06T05:39:29Z</time>
      </trkpt>
      <trkpt lat="46.73796" lon="5.7679">
        <ele>693</ele>
        <time>2022-09-06T05:39:30Z</time>
      </trkpt>
      <trkpt lat="46.73801" lon="5.76795">
        <ele>693.6</ele>
        <time>2022-09-06T05:39:31Z</time>
      </trkpt>
      <trkpt lat="46.73807" lon="5.768">
        <ele>693.6</ele>
        <time>2022-09-06T05:39:32Z</time>
      </trkpt>
      <trkpt lat="46.73812" lon="5.76804">
        <ele>693.8</ele>
        <time>2022-09-06T05:39:33Z</time>
      </trkpt>
      <trkpt lat="46.73817" lon="5.76808">
        <ele>693.8</ele>
        <time>2022-09-06T05:39:34Z</time>
      </trkpt>
      <trkpt lat="46.73822" lon="5.76813">
        <ele>694</ele>
        <time>2022-09-06T05:39:35Z</time>
      </trkpt>
      <trkpt lat="46.73827" lon="5.76817">
        <ele>694</ele>
        <time>2022-09-06T05:39:36Z</time>
      </trkpt>
      <trkpt lat="46.73832" lon="5.76822">
        <ele>694</ele>
        <time>2022-09-06T05:39:37Z</time>
      </trkpt>
      <trkpt lat="46.73837" lon="5.76826">
        <ele>694</ele>
        <time>2022-09-06T05:39:38Z</time>
      </trkpt>
      <trkpt lat="46.73842" lon="5.76831">
        <ele>694</ele>
        <time>2022-09-06T05:39:39Z</time>
      </trkpt>
      <trkpt lat="46.73848" lon="5.76835">
        <ele>693.8</ele>
        <time>2022-09-06T05:39:40Z</time>
      </trkpt>
      <trkpt lat="46.73855" lon="5.7684">
        <ele>693.8</ele>
        <time>2022-09-06T05:39:41Z</time>
      </trkpt>
      <trkpt lat="46.73861" lon="5.76845">
        <ele>693.4</ele>
        <time>2022-09-06T05:39:42Z</time>
      </trkpt>
      <trkpt lat="46.73868" lon="5.76851">
        <ele>693.2</ele>
        <time>2022-09-06T05:39:43Z</time>
      </trkpt>
      <trkpt lat="46.73875" lon="5.76857">
        <ele>693</ele>
        <time>2022-09-06T05:39:44Z</time>
      </trkpt>
      <trkpt lat="46.73882" lon="5.76863">
        <ele>692.8</ele>
        <time>2022-09-06T05:39:45Z</time>
      </trkpt>
      <trkpt lat="46.73889" lon="5.76869">
        <ele>692.4</ele>
        <time>2022-09-06T05:39:46Z</time>
      </trkpt>
      <trkpt lat="46.73896" lon="5.76876">
        <ele>692.2</ele>
        <time>2022-09-06T05:39:47Z</time>
      </trkpt>
      <trkpt lat="46.73903" lon="5.76882">
        <ele>692.2</ele>
        <time>2022-09-06T05:39:48Z</time>
      </trkpt>
      <trkpt lat="46.73911" lon="5.76889">
        <ele>691.8</ele>
        <time>2022-09-06T05:39:49Z</time>
      </trkpt>
      <trkpt lat="46.73918" lon="5.76896">
        <ele>691.6</ele>
        <time>2022-09-06T05:39:50Z</time>
      </trkpt>
      <trkpt lat="46.73926" lon="5.76905">
        <ele>691.2</ele>
        <time>2022-09-06T05:39:51Z</time>
      </trkpt>
      <trkpt lat="46.73934" lon="5.76913">
        <ele>691</ele>
        <time>2022-09-06T05:39:52Z</time>
      </trkpt>
      <trkpt lat="46.73942" lon="5.76923">
        <ele>690.6</ele>
        <time>2022-09-06T05:39:53Z</time>
      </trkpt>
      <trkpt lat="46.7395" lon="5.76932">
        <ele>690.4</ele>
        <time>2022-09-06T05:39:54Z</time>
      </trkpt>
      <trkpt lat="46.73957" lon="5.7694">
        <ele>690.2</ele>
        <time>2022-09-06T05:39:55Z</time>
      </trkpt>
      <trkpt lat="46.73964" lon="5.7695">
        <ele>690</ele>
        <time>2022-09-06T05:39:56Z</time>
      </trkpt>
      <trkpt lat="46.73971" lon="5.7696">
        <ele>690</ele>
        <time>2022-09-06T05:39:57Z</time>
      </trkpt>
      <trkpt lat="46.73978" lon="5.76971">
        <ele>689.6</ele>
        <time>2022-09-06T05:39:58Z</time>
      </trkpt>
      <trkpt lat="46.73985" lon="5.7698">
        <ele>689.6</ele>
        <time>2022-09-06T05:39:59Z</time>
      </trkpt>
      <trkpt lat="46.73992" lon="5.7699">
        <ele>689.6</ele>
        <time>2022-09-06T05:40:00Z</time>
      </trkpt>
      <trkpt lat="46.73998" lon="5.76999">
        <ele>689.6</ele>
        <time>2022-09-06T05:40:01Z</time>
      </trkpt>
      <trkpt lat="46.74003" lon="5.77009">
        <ele>689.4</ele>
        <time>2022-09-06T05:40:02Z</time>
      </trkpt>
      <trkpt lat="46.74009" lon="5.77018">
        <ele>689.4</ele>
        <time>2022-09-06T05:40:03Z</time>
      </trkpt>
      <trkpt lat="46.74015" lon="5.77027">
        <ele>689.4</ele>
        <time>2022-09-06T05:40:04Z</time>
      </trkpt>
      <trkpt lat="46.74022" lon="5.77038">
        <ele>689</ele>
        <time>2022-09-06T05:40:05Z</time>
      </trkpt>
      <trkpt lat="46.74028" lon="5.77047">
        <ele>689</ele>
        <time>2022-09-06T05:40:06Z</time>
      </trkpt>
      <trkpt lat="46.74034" lon="5.77056">
        <ele>688.6</ele>
        <time>2022-09-06T05:40:07Z</time>
      </trkpt>
      <trkpt lat="46.7404" lon="5.77065">
        <ele>688.6</ele>
        <time>2022-09-06T05:40:08Z</time>
      </trkpt>
      <trkpt lat="46.74047" lon="5.77074">
        <ele>688.4</ele>
        <time>2022-09-06T05:40:09Z</time>
      </trkpt>
      <trkpt lat="46.74054" lon="5.77083">
        <ele>688.4</ele>
        <time>2022-09-06T05:40:10Z</time>
      </trkpt>
      <trkpt lat="46.7406" lon="5.77092">
        <ele>688.4</ele>
        <time>2022-09-06T05:40:11Z</time>
      </trkpt>
      <trkpt lat="46.74067" lon="5.77101">
        <ele>688.2</ele>
        <time>2022-09-06T05:40:12Z</time>
      </trkpt>
      <trkpt lat="46.74074" lon="5.7711">
        <ele>688.2</ele>
        <time>2022-09-06T05:40:13Z</time>
      </trkpt>
      <trkpt lat="46.74081" lon="5.7712">
        <ele>688.2</ele>
        <time>2022-09-06T05:40:14Z</time>
      </trkpt>
      <trkpt lat="46.74087" lon="5.77128">
        <ele>688</ele>
        <time>2022-09-06T05:40:15Z</time>
      </trkpt>
      <trkpt lat="46.74093" lon="5.77137">
        <ele>688</ele>
        <time>2022-09-06T05:40:16Z</time>
      </trkpt>
      <trkpt lat="46.74098" lon="5.77146">
        <ele>688</ele>
        <time>2022-09-06T05:40:17Z</time>
      </trkpt>
      <trkpt lat="46.74104" lon="5.77154">
        <ele>688</ele>
        <time>2022-09-06T05:40:18Z</time>
      </trkpt>
      <trkpt lat="46.74109" lon="5.77163">
        <ele>688</ele>
        <time>2022-09-06T05:40:19Z</time>
      </trkpt>
      <trkpt lat="46.74115" lon="5.77172">
        <ele>688</ele>
        <time>2022-09-06T05:40:20Z</time>
      </trkpt>
      <trkpt lat="46.7412" lon="5.7718">
        <ele>688</ele>
        <time>2022-09-06T05:40:21Z</time>
      </trkpt>
      <trkpt lat="46.74126" lon="5.77188">
        <ele>688</ele>
        <time>2022-09-06T05:40:22Z</time>
      </trkpt>
      <trkpt lat="46.74131" lon="5.77195">
        <ele>688</ele>
        <time>2022-09-06T05:40:23Z</time>
      </trkpt>
      <trkpt lat="46.74137" lon="5.77202">
        <ele>688</ele>
        <time>2022-09-06T05:40:24Z</time>
      </trkpt>
      <trkpt lat="46.74143" lon="5.77208">
        <ele>688</ele>
        <time>2022-09-06T05:40:25Z</time>
      </trkpt>
      <trkpt lat="46.74149" lon="5.77213">
        <ele>688.2</ele>
        <time>2022-09-06T05:40:26Z</time>
      </trkpt>
      <trkpt lat="46.74156" lon="5.77218">
        <ele>688.2</ele>
        <time>2022-09-06T05:40:27Z</time>
      </trkpt>
      <trkpt lat="46.74162" lon="5.77222">
        <ele>688.2</ele>
        <time>2022-09-06T05:40:28Z</time>
      </trkpt>
      <trkpt lat="46.74169" lon="5.77226">
        <ele>688.2</ele>
        <time>2022-09-06T05:40:29Z</time>
      </trkpt>
      <trkpt lat="46.74175" lon="5.7723">
        <ele>688.2</ele>
        <time>2022-09-06T05:40:30Z</time>
      </trkpt>
      <trkpt lat="46.74182" lon="5.77233">
        <ele>688.2</ele>
        <time>2022-09-06T05:40:31Z</time>
      </trkpt>
      <trkpt lat="46.74188" lon="5.77237">
        <ele>688.2</ele>
        <time>2022-09-06T05:40:32Z</time>
      </trkpt>
      <trkpt lat="46.74195" lon="5.7724">
        <ele>688.2</ele>
        <time>2022-09-06T05:40:33Z</time>
      </trkpt>
      <trkpt lat="46.74201" lon="5.77243">
        <ele>688.4</ele>
        <time>2022-09-06T05:40:34Z</time>
      </trkpt>
      <trkpt lat="46.74208" lon="5.77247">
        <ele>688.4</ele>
        <time>2022-09-06T05:40:35Z</time>
      </trkpt>
      <trkpt lat="46.74214" lon="5.7725">
        <ele>688.4</ele>
        <time>2022-09-06T05:40:36Z</time>
      </trkpt>
      <trkpt lat="46.74221" lon="5.77253">
        <ele>688.8</ele>
        <time>2022-09-06T05:40:37Z</time>
      </trkpt>
      <trkpt lat="46.74227" lon="5.77255">
        <ele>688.8</ele>
        <time>2022-09-06T05:40:38Z</time>
      </trkpt>
      <trkpt lat="46.74234" lon="5.77258">
        <ele>689</ele>
        <time>2022-09-06T05:40:39Z</time>
      </trkpt>
      <trkpt lat="46.7424" lon="5.77262">
        <ele>689</ele>
        <time>2022-09-06T05:40:40Z</time>
      </trkpt>
      <trkpt lat="46.74246" lon="5.77265">
        <ele>689.2</ele>
        <time>2022-09-06T05:40:41Z</time>
      </trkpt>
      <trkpt lat="46.74251" lon="5.77268">
        <ele>689.4</ele>
        <time>2022-09-06T05:40:42Z</time>
      </trkpt>
      <trkpt lat="46.74257" lon="5.77271">
        <ele>689.6</ele>
        <time>2022-09-06T05:40:43Z</time>
      </trkpt>
      <trkpt lat="46.74262" lon="5.77274">
        <ele>689.8</ele>
        <time>2022-09-06T05:40:44Z</time>
      </trkpt>
      <trkpt lat="46.74268" lon="5.77277">
        <ele>689.8</ele>
        <time>2022-09-06T05:40:45Z</time>
      </trkpt>
      <trkpt lat="46.74273" lon="5.7728">
        <ele>690.2</ele>
        <time>2022-09-06T05:40:46Z</time>
      </trkpt>
      <trkpt lat="46.74278" lon="5.77283">
        <ele>690.2</ele>
        <time>2022-09-06T05:40:47Z</time>
      </trkpt>
      <trkpt lat="46.74284" lon="5.77286">
        <ele>690.6</ele>
        <time>2022-09-06T05:40:48Z</time>
      </trkpt>
      <trkpt lat="46.74289" lon="5.77288">
        <ele>690.6</ele>
        <time>2022-09-06T05:40:49Z</time>
      </trkpt>
      <trkpt lat="46.74294" lon="5.7729">
        <ele>691</ele>
        <time>2022-09-06T05:40:50Z</time>
      </trkpt>
      <trkpt lat="46.74299" lon="5.77292">
        <ele>691</ele>
        <time>2022-09-06T05:40:51Z</time>
      </trkpt>
      <trkpt lat="46.74304" lon="5.77294">
        <ele>691.4</ele>
        <time>2022-09-06T05:40:52Z</time>
      </trkpt>
      <trkpt lat="46.74308" lon="5.77295">
        <ele>691.6</ele>
        <time>2022-09-06T05:40:53Z</time>
      </trkpt>
      <trkpt lat="46.74313" lon="5.77297">
        <ele>691.8</ele>
        <time>2022-09-06T05:40:54Z</time>
      </trkpt>
      <trkpt lat="46.74317" lon="5.77298">
        <ele>692</ele>
        <time>2022-09-06T05:40:55Z</time>
      </trkpt>
      <trkpt lat="46.74321" lon="5.773">
        <ele>692.2</ele>
        <time>2022-09-06T05:40:56Z</time>
      </trkpt>
      <trkpt lat="46.74325" lon="5.77301">
        <ele>692.2</ele>
        <time>2022-09-06T05:40:57Z</time>
      </trkpt>
      <trkpt lat="46.74329" lon="5.77303">
        <ele>692.4</ele>
        <time>2022-09-06T05:40:58Z</time>
      </trkpt>
      <trkpt lat="46.74333" lon="5.77306">
        <ele>692.4</ele>
        <time>2022-09-06T05:40:59Z</time>
      </trkpt>
      <trkpt lat="46.74337" lon="5.77308">
        <ele>692.8</ele>
        <time>2022-09-06T05:41:00Z</time>
      </trkpt>
      <trkpt lat="46.74341" lon="5.77311">
        <ele>693</ele>
        <time>2022-09-06T05:41:01Z</time>
      </trkpt>
      <trkpt lat="46.74345" lon="5.77315">
        <ele>693.4</ele>
        <time>2022-09-06T05:41:02Z</time>
      </trkpt>
      <trkpt lat="46.74348" lon="5.77318">
        <ele>693.6</ele>
        <time>2022-09-06T05:41:03Z</time>
      </trkpt>
      <trkpt lat="46.74352" lon="5.77321">
        <ele>693.6</ele>
        <time>2022-09-06T05:41:04Z</time>
      </trkpt>
      <trkpt lat="46.74355" lon="5.77324">
        <ele>694.2</ele>
        <time>2022-09-06T05:41:05Z</time>
      </trkpt>
      <trkpt lat="46.74358" lon="5.77327">
        <ele>694.4</ele>
        <time>2022-09-06T05:41:06Z</time>
      </trkpt>
      <trkpt lat="46.74361" lon="5.77331">
        <ele>694.4</ele>
        <time>2022-09-06T05:41:07Z</time>
      </trkpt>
      <trkpt lat="46.74363" lon="5.77334">
        <ele>694.8</ele>
        <time>2022-09-06T05:41:08Z</time>
      </trkpt>
      <trkpt lat="46.74366" lon="5.77337">
        <ele>695</ele>
        <time>2022-09-06T05:41:09Z</time>
      </trkpt>
      <trkpt lat="46.74369" lon="5.7734">
        <ele>695.4</ele>
        <time>2022-09-06T05:41:10Z</time>
      </trkpt>
      <trkpt lat="46.74371" lon="5.77344">
        <ele>695.6</ele>
        <time>2022-09-06T05:41:11Z</time>
      </trkpt>
      <trkpt lat="46.74374" lon="5.77348">
        <ele>695.8</ele>
        <time>2022-09-06T05:41:12Z</time>
      </trkpt>
      <trkpt lat="46.74377" lon="5.77351">
        <ele>696</ele>
        <time>2022-09-06T05:41:13Z</time>
      </trkpt>
      <trkpt lat="46.7438" lon="5.77354">
        <ele>696.2</ele>
        <time>2022-09-06T05:41:14Z</time>
      </trkpt>
      <trkpt lat="46.74383" lon="5.77357">
        <ele>696.4</ele>
        <time>2022-09-06T05:41:15Z</time>
      </trkpt>
      <trkpt lat="46.74386" lon="5.7736">
        <ele>696.4</ele>
        <time>2022-09-06T05:41:16Z</time>
      </trkpt>
      <trkpt lat="46.74389" lon="5.77363">
        <ele>696.8</ele>
        <time>2022-09-06T05:41:17Z</time>
      </trkpt>
      <trkpt lat="46.74391" lon="5.77366">
        <ele>697</ele>
        <time>2022-09-06T05:41:18Z</time>
      </trkpt>
      <trkpt lat="46.74394" lon="5.77369">
        <ele>697</ele>
        <time>2022-09-06T05:41:19Z</time>
      </trkpt>
      <trkpt lat="46.74397" lon="5.77372">
        <ele>697.4</ele>
        <time>2022-09-06T05:41:20Z</time>
      </trkpt>
      <trkpt lat="46.744" lon="5.77375">
        <ele>697.4</ele>
        <time>2022-09-06T05:41:21Z</time>
      </trkpt>
      <trkpt lat="46.74403" lon="5.77377">
        <ele>697.8</ele>
        <time>2022-09-06T05:41:22Z</time>
      </trkpt>
      <trkpt lat="46.74405" lon="5.77379">
        <ele>697.8</ele>
        <time>2022-09-06T05:41:23Z</time>
      </trkpt>
      <trkpt lat="46.74408" lon="5.7738">
        <ele>698.2</ele>
        <time>2022-09-06T05:41:24Z</time>
      </trkpt>
      <trkpt lat="46.74411" lon="5.77382">
        <ele>698.2</ele>
        <time>2022-09-06T05:41:25Z</time>
      </trkpt>
      <trkpt lat="46.74413" lon="5.77384">
        <ele>698.6</ele>
        <time>2022-09-06T05:41:26Z</time>
      </trkpt>
      <trkpt lat="46.74416" lon="5.77387">
        <ele>698.6</ele>
        <time>2022-09-06T05:41:27Z</time>
      </trkpt>
      <trkpt lat="46.7442" lon="5.7739">
        <ele>699</ele>
        <time>2022-09-06T05:41:28Z</time>
      </trkpt>
      <trkpt lat="46.74424" lon="5.77392">
        <ele>699.2</ele>
        <time>2022-09-06T05:41:29Z</time>
      </trkpt>
      <trkpt lat="46.74428" lon="5.77395">
        <ele>699.4</ele>
        <time>2022-09-06T05:41:30Z</time>
      </trkpt>
      <trkpt lat="46.74432" lon="5.77397">
        <ele>699.6</ele>
        <time>2022-09-06T05:41:31Z</time>
      </trkpt>
      <trkpt lat="46.74436" lon="5.77399">
        <ele>700.2</ele>
        <time>2022-09-06T05:41:32Z</time>
      </trkpt>
      <trkpt lat="46.74439" lon="5.77401">
        <ele>700.4</ele>
        <time>2022-09-06T05:41:33Z</time>
      </trkpt>
      <trkpt lat="46.74443" lon="5.77403">
        <ele>700.6</ele>
        <time>2022-09-06T05:41:34Z</time>
      </trkpt>
      <trkpt lat="46.74446" lon="5.77405">
        <ele>700.8</ele>
        <time>2022-09-06T05:41:35Z</time>
      </trkpt>
      <trkpt lat="46.74449" lon="5.77407">
        <ele>701.2</ele>
        <time>2022-09-06T05:41:36Z</time>
      </trkpt>
      <trkpt lat="46.74453" lon="5.77409">
        <ele>701.4</ele>
        <time>2022-09-06T05:41:37Z</time>
      </trkpt>
      <trkpt lat="46.74456" lon="5.7741">
        <ele>701.6</ele>
        <time>2022-09-06T05:41:38Z</time>
      </trkpt>
      <trkpt lat="46.74459" lon="5.77411">
        <ele>701.8</ele>
        <time>2022-09-06T05:41:39Z</time>
      </trkpt>
      <trkpt lat="46.74462" lon="5.77413">
        <ele>701.8</ele>
        <time>2022-09-06T05:41:40Z</time>
      </trkpt>
      <trkpt lat="46.74466" lon="5.77414">
        <ele>702.2</ele>
        <time>2022-09-06T05:41:41Z</time>
      </trkpt>
      <trkpt lat="46.74469" lon="5.77415">
        <ele>702.2</ele>
        <time>2022-09-06T05:41:42Z</time>
      </trkpt>
      <trkpt lat="46.74472" lon="5.77415">
        <ele>702.6</ele>
        <time>2022-09-06T05:41:43Z</time>
      </trkpt>
      <trkpt lat="46.74475" lon="5.77415">
        <ele>702.8</ele>
        <time>2022-09-06T05:41:44Z</time>
      </trkpt>
      <trkpt lat="46.74478" lon="5.77415">
        <ele>703</ele>
        <time>2022-09-06T05:41:45Z</time>
      </trkpt>
      <trkpt lat="46.74481" lon="5.77415">
        <ele>703</ele>
        <time>2022-09-06T05:41:46Z</time>
      </trkpt>
      <trkpt lat="46.74485" lon="5.77414">
        <ele>703.4</ele>
        <time>2022-09-06T05:41:47Z</time>
      </trkpt>
      <trkpt lat="46.74488" lon="5.77414">
        <ele>703.4</ele>
        <time>2022-09-06T05:41:48Z</time>
      </trkpt>
      <trkpt lat="46.74492" lon="5.77413">
        <ele>703.4</ele>
        <time>2022-09-06T05:41:49Z</time>
      </trkpt>
      <trkpt lat="46.74496" lon="5.77412">
        <ele>703.6</ele>
        <time>2022-09-06T05:41:50Z</time>
      </trkpt>
      <trkpt lat="46.745" lon="5.77411">
        <ele>703.6</ele>
        <time>2022-09-06T05:41:51Z</time>
      </trkpt>
      <trkpt lat="46.74505" lon="5.77409">
        <ele>703.6</ele>
        <time>2022-09-06T05:41:52Z</time>
      </trkpt>
      <trkpt lat="46.74509" lon="5.77408">
        <ele>703.6</ele>
        <time>2022-09-06T05:41:53Z</time>
      </trkpt>
      <trkpt lat="46.74514" lon="5.77407">
        <ele>703.6</ele>
        <time>2022-09-06T05:41:54Z</time>
      </trkpt>
      <trkpt lat="46.74518" lon="5.77405">
        <ele>703.6</ele>
        <time>2022-09-06T05:41:55Z</time>
      </trkpt>
      <trkpt lat="46.74523" lon="5.77403">
        <ele>703.6</ele>
        <time>2022-09-06T05:41:56Z</time>
      </trkpt>
      <trkpt lat="46.74527" lon="5.77402">
        <ele>703.6</ele>
        <time>2022-09-06T05:41:57Z</time>
      </trkpt>
      <trkpt lat="46.74532" lon="5.77401">
        <ele>703.6</ele>
        <time>2022-09-06T05:41:58Z</time>
      </trkpt>
      <trkpt lat="46.74538" lon="5.77399">
        <ele>703.4</ele>
        <time>2022-09-06T05:41:59Z</time>
      </trkpt>
      <trkpt lat="46.74543" lon="5.77398">
        <ele>703.4</ele>
        <time>2022-09-06T05:42:00Z</time>
      </trkpt>
      <trkpt lat="46.7455" lon="5.77398">
        <ele>703</ele>
        <time>2022-09-06T05:42:01Z</time>
      </trkpt>
      <trkpt lat="46.74557" lon="5.77398">
        <ele>703</ele>
        <time>2022-09-06T05:42:02Z</time>
      </trkpt>
      <trkpt lat="46.74563" lon="5.77398">
        <ele>702.8</ele>
        <time>2022-09-06T05:42:03Z</time>
      </trkpt>
      <trkpt lat="46.7457" lon="5.77398">
        <ele>702.4</ele>
        <time>2022-09-06T05:42:04Z</time>
      </trkpt>
      <trkpt lat="46.74578" lon="5.77397">
        <ele>702.2</ele>
        <time>2022-09-06T05:42:05Z</time>
      </trkpt>
      <trkpt lat="46.74585" lon="5.77396">
        <ele>702</ele>
        <time>2022-09-06T05:42:06Z</time>
      </trkpt>
      <trkpt lat="46.74592" lon="5.77395">
        <ele>702</ele>
        <time>2022-09-06T05:42:07Z</time>
      </trkpt>
      <trkpt lat="46.74599" lon="5.77395">
        <ele>701.8</ele>
        <time>2022-09-06T05:42:08Z</time>
      </trkpt>
      <trkpt lat="46.74606" lon="5.77394">
        <ele>701.6</ele>
        <time>2022-09-06T05:42:09Z</time>
      </trkpt>
      <trkpt lat="46.74613" lon="5.77394">
        <ele>701.6</ele>
        <time>2022-09-06T05:42:10Z</time>
      </trkpt>
      <trkpt lat="46.7462" lon="5.77394">
        <ele>701.2</ele>
        <time>2022-09-06T05:42:11Z</time>
      </trkpt>
      <trkpt lat="46.74628" lon="5.77395">
        <ele>700.8</ele>
        <time>2022-09-06T05:42:12Z</time>
      </trkpt>
      <trkpt lat="46.74636" lon="5.77397">
        <ele>700.8</ele>
        <time>2022-09-06T05:42:13Z</time>
      </trkpt>
      <trkpt lat="46.74643" lon="5.77399">
        <ele>700.6</ele>
        <time>2022-09-06T05:42:14Z</time>
      </trkpt>
      <trkpt lat="46.7465" lon="5.77402">
        <ele>700.6</ele>
        <time>2022-09-06T05:42:15Z</time>
      </trkpt>
      <trkpt lat="46.74657" lon="5.77407">
        <ele>700.4</ele>
        <time>2022-09-06T05:42:16Z</time>
      </trkpt>
      <trkpt lat="46.74664" lon="5.77414">
        <ele>700.4</ele>
        <time>2022-09-06T05:42:17Z</time>
      </trkpt>
      <trkpt lat="46.7467" lon="5.77421">
        <ele>700.4</ele>
        <time>2022-09-06T05:42:18Z</time>
      </trkpt>
      <trkpt lat="46.74676" lon="5.77428">
        <ele>700</ele>
        <time>2022-09-06T05:42:19Z</time>
      </trkpt>
      <trkpt lat="46.74685" lon="5.77437">
        <ele>700</ele>
        <time>2022-09-06T05:42:20Z</time>
      </trkpt>
      <trkpt lat="46.74692" lon="5.77445">
        <ele>700</ele>
        <time>2022-09-06T05:42:21Z</time>
      </trkpt>
      <trkpt lat="46.74698" lon="5.77452">
        <ele>700</ele>
        <time>2022-09-06T05:42:22Z</time>
      </trkpt>
      <trkpt lat="46.74705" lon="5.77459">
        <ele>699.8</ele>
        <time>2022-09-06T05:42:23Z</time>
      </trkpt>
      <trkpt lat="46.74711" lon="5.77466">
        <ele>699.8</ele>
        <time>2022-09-06T05:42:24Z</time>
      </trkpt>
      <trkpt lat="46.74717" lon="5.77474">
        <ele>699.8</ele>
        <time>2022-09-06T05:42:25Z</time>
      </trkpt>
      <trkpt lat="46.74722" lon="5.77481">
        <ele>699.8</ele>
        <time>2022-09-06T05:42:26Z</time>
      </trkpt>
      <trkpt lat="46.74728" lon="5.77488">
        <ele>699.6</ele>
        <time>2022-09-06T05:42:27Z</time>
      </trkpt>
      <trkpt lat="46.74733" lon="5.77495">
        <ele>699.6</ele>
        <time>2022-09-06T05:42:28Z</time>
      </trkpt>
      <trkpt lat="46.74738" lon="5.77502">
        <ele>699.6</ele>
        <time>2022-09-06T05:42:29Z</time>
      </trkpt>
      <trkpt lat="46.74743" lon="5.77508">
        <ele>699.6</ele>
        <time>2022-09-06T05:42:30Z</time>
      </trkpt>
      <trkpt lat="46.74748" lon="5.77516">
        <ele>699.6</ele>
        <time>2022-09-06T05:42:31Z</time>
      </trkpt>
      <trkpt lat="46.74753" lon="5.77523">
        <ele>699.6</ele>
        <time>2022-09-06T05:42:32Z</time>
      </trkpt>
      <trkpt lat="46.74758" lon="5.7753">
        <ele>699.6</ele>
        <time>2022-09-06T05:42:33Z</time>
      </trkpt>
      <trkpt lat="46.74762" lon="5.77538">
        <ele>699.6</ele>
        <time>2022-09-06T05:42:34Z</time>
      </trkpt>
      <trkpt lat="46.74767" lon="5.77545">
        <ele>699.6</ele>
        <time>2022-09-06T05:42:35Z</time>
      </trkpt>
      <trkpt lat="46.74771" lon="5.77552">
        <ele>699.6</ele>
        <time>2022-09-06T05:42:36Z</time>
      </trkpt>
      <trkpt lat="46.74775" lon="5.77558">
        <ele>699.6</ele>
        <time>2022-09-06T05:42:37Z</time>
      </trkpt>
      <trkpt lat="46.74779" lon="5.77565">
        <ele>699.6</ele>
        <time>2022-09-06T05:42:38Z</time>
      </trkpt>
      <trkpt lat="46.74783" lon="5.77572">
        <ele>699.6</ele>
        <time>2022-09-06T05:42:39Z</time>
      </trkpt>
      <trkpt lat="46.74788" lon="5.77579">
        <ele>699.6</ele>
        <time>2022-09-06T05:42:40Z</time>
      </trkpt>
      <trkpt lat="46.74792" lon="5.77585">
        <ele>699.6</ele>
        <time>2022-09-06T05:42:41Z</time>
      </trkpt>
      <trkpt lat="46.74797" lon="5.77592">
        <ele>699.6</ele>
        <time>2022-09-06T05:42:42Z</time>
      </trkpt>
      <trkpt lat="46.74801" lon="5.776">
        <ele>699.6</ele>
        <time>2022-09-06T05:42:43Z</time>
      </trkpt>
      <trkpt lat="46.74805" lon="5.77607">
        <ele>699.6</ele>
        <time>2022-09-06T05:42:44Z</time>
      </trkpt>
      <trkpt lat="46.74809" lon="5.77614">
        <ele>699.6</ele>
        <time>2022-09-06T05:42:45Z</time>
      </trkpt>
      <trkpt lat="46.74814" lon="5.77622">
        <ele>699.2</ele>
        <time>2022-09-06T05:42:46Z</time>
      </trkpt>
      <trkpt lat="46.74818" lon="5.7763">
        <ele>699.2</ele>
        <time>2022-09-06T05:42:47Z</time>
      </trkpt>
      <trkpt lat="46.74822" lon="5.77637">
        <ele>699.2</ele>
        <time>2022-09-06T05:42:48Z</time>
      </trkpt>
      <trkpt lat="46.74826" lon="5.77644">
        <ele>699.2</ele>
        <time>2022-09-06T05:42:49Z</time>
      </trkpt>
      <trkpt lat="46.7483" lon="5.77652">
        <ele>699</ele>
        <time>2022-09-06T05:42:50Z</time>
      </trkpt>
      <trkpt lat="46.74834" lon="5.77659">
        <ele>699</ele>
        <time>2022-09-06T05:42:51Z</time>
      </trkpt>
      <trkpt lat="46.74838" lon="5.77666">
        <ele>699</ele>
        <time>2022-09-06T05:42:52Z</time>
      </trkpt>
      <trkpt lat="46.74842" lon="5.77673">
        <ele>698.8</ele>
        <time>2022-09-06T05:42:53Z</time>
      </trkpt>
      <trkpt lat="46.74846" lon="5.77679">
        <ele>698.8</ele>
        <time>2022-09-06T05:42:54Z</time>
      </trkpt>
      <trkpt lat="46.74851" lon="5.77685">
        <ele>698.8</ele>
        <time>2022-09-06T05:42:55Z</time>
      </trkpt>
      <trkpt lat="46.74856" lon="5.77691">
        <ele>698.8</ele>
        <time>2022-09-06T05:42:56Z</time>
      </trkpt>
      <trkpt lat="46.74866" lon="5.77702">
        <ele>698.8</ele>
        <time>2022-09-06T05:42:57Z</time>
      </trkpt>
      <trkpt lat="46.74872" lon="5.77708">
        <ele>698.6</ele>
        <time>2022-09-06T05:42:58Z</time>
      </trkpt>
      <trkpt lat="46.74877" lon="5.77714">
        <ele>698.6</ele>
        <time>2022-09-06T05:42:59Z</time>
      </trkpt>
      <trkpt lat="46.74882" lon="5.7772">
        <ele>698.2</ele>
        <time>2022-09-06T05:43:00Z</time>
      </trkpt>
      <trkpt lat="46.74888" lon="5.77726">
        <ele>698.2</ele>
        <time>2022-09-06T05:43:01Z</time>
      </trkpt>
      <trkpt lat="46.74893" lon="5.77733">
        <ele>697.8</ele>
        <time>2022-09-06T05:43:02Z</time>
      </trkpt>
      <trkpt lat="46.74899" lon="5.7774">
        <ele>697.6</ele>
        <time>2022-09-06T05:43:03Z</time>
      </trkpt>
      <trkpt lat="46.74904" lon="5.77749">
        <ele>697.4</ele>
        <time>2022-09-06T05:43:04Z</time>
      </trkpt>
      <trkpt lat="46.74908" lon="5.77758">
        <ele>697</ele>
        <time>2022-09-06T05:43:05Z</time>
      </trkpt>
      <trkpt lat="46.74912" lon="5.77768">
        <ele>696.6</ele>
        <time>2022-09-06T05:43:06Z</time>
      </trkpt>
      <trkpt lat="46.74916" lon="5.77779">
        <ele>696.2</ele>
        <time>2022-09-06T05:43:07Z</time>
      </trkpt>
      <trkpt lat="46.74919" lon="5.7779">
        <ele>695.8</ele>
        <time>2022-09-06T05:43:08Z</time>
      </trkpt>
      <trkpt lat="46.74922" lon="5.77802">
        <ele>695.4</ele>
        <time>2022-09-06T05:43:09Z</time>
      </trkpt>
      <trkpt lat="46.74924" lon="5.77813">
        <ele>695</ele>
        <time>2022-09-06T05:43:10Z</time>
      </trkpt>
      <trkpt lat="46.74927" lon="5.77825">
        <ele>694.6</ele>
        <time>2022-09-06T05:43:11Z</time>
      </trkpt>
      <trkpt lat="46.7493" lon="5.77836">
        <ele>694</ele>
        <time>2022-09-06T05:43:12Z</time>
      </trkpt>
      <trkpt lat="46.74933" lon="5.77848">
        <ele>693.6</ele>
        <time>2022-09-06T05:43:13Z</time>
      </trkpt>
      <trkpt lat="46.74937" lon="5.7786">
        <ele>693.2</ele>
        <time>2022-09-06T05:43:14Z</time>
      </trkpt>
      <trkpt lat="46.7494" lon="5.77872">
        <ele>692.8</ele>
        <time>2022-09-06T05:43:15Z</time>
      </trkpt>
      <trkpt lat="46.74944" lon="5.77885">
        <ele>692.2</ele>
        <time>2022-09-06T05:43:16Z</time>
      </trkpt>
      <trkpt lat="46.74948" lon="5.77899">
        <ele>691.6</ele>
        <time>2022-09-06T05:43:17Z</time>
      </trkpt>
      <trkpt lat="46.74954" lon="5.77914">
        <ele>691.2</ele>
        <time>2022-09-06T05:43:18Z</time>
      </trkpt>
      <trkpt lat="46.7496" lon="5.77929">
        <ele>690.6</ele>
        <time>2022-09-06T05:43:19Z</time>
      </trkpt>
      <trkpt lat="46.74966" lon="5.77945">
        <ele>690</ele>
        <time>2022-09-06T05:43:20Z</time>
      </trkpt>
      <trkpt lat="46.74972" lon="5.7796">
        <ele>689.4</ele>
        <time>2022-09-06T05:43:21Z</time>
      </trkpt>
      <trkpt lat="46.74978" lon="5.77973">
        <ele>689</ele>
        <time>2022-09-06T05:43:22Z</time>
      </trkpt>
      <trkpt lat="46.74985" lon="5.77987">
        <ele>688.4</ele>
        <time>2022-09-06T05:43:23Z</time>
      </trkpt>
      <trkpt lat="46.74992" lon="5.78">
        <ele>687.8</ele>
        <time>2022-09-06T05:43:24Z</time>
      </trkpt>
      <trkpt lat="46.74999" lon="5.78013">
        <ele>687.2</ele>
        <time>2022-09-06T05:43:25Z</time>
      </trkpt>
      <trkpt lat="46.75005" lon="5.78025">
        <ele>686.6</ele>
        <time>2022-09-06T05:43:26Z</time>
      </trkpt>
      <trkpt lat="46.75012" lon="5.78037">
        <ele>686</ele>
        <time>2022-09-06T05:43:27Z</time>
      </trkpt>
      <trkpt lat="46.75018" lon="5.78048">
        <ele>685.6</ele>
        <time>2022-09-06T05:43:28Z</time>
      </trkpt>
      <trkpt lat="46.75024" lon="5.78059">
        <ele>685.4</ele>
        <time>2022-09-06T05:43:29Z</time>
      </trkpt>
      <trkpt lat="46.75031" lon="5.7807">
        <ele>685</ele>
        <time>2022-09-06T05:43:30Z</time>
      </trkpt>
      <trkpt lat="46.75037" lon="5.7808">
        <ele>684.6</ele>
        <time>2022-09-06T05:43:31Z</time>
      </trkpt>
      <trkpt lat="46.75043" lon="5.7809">
        <ele>684.2</ele>
        <time>2022-09-06T05:43:32Z</time>
      </trkpt>
      <trkpt lat="46.75048" lon="5.781">
        <ele>684</ele>
        <time>2022-09-06T05:43:33Z</time>
      </trkpt>
      <trkpt lat="46.75053" lon="5.78109">
        <ele>683.8</ele>
        <time>2022-09-06T05:43:34Z</time>
      </trkpt>
      <trkpt lat="46.75058" lon="5.78119">
        <ele>683.6</ele>
        <time>2022-09-06T05:43:35Z</time>
      </trkpt>
      <trkpt lat="46.75064" lon="5.78128">
        <ele>683.2</ele>
        <time>2022-09-06T05:43:36Z</time>
      </trkpt>
      <trkpt lat="46.75069" lon="5.78138">
        <ele>683.2</ele>
        <time>2022-09-06T05:43:37Z</time>
      </trkpt>
      <trkpt lat="46.75073" lon="5.78148">
        <ele>682.8</ele>
        <time>2022-09-06T05:43:38Z</time>
      </trkpt>
      <trkpt lat="46.75077" lon="5.78159">
        <ele>682.6</ele>
        <time>2022-09-06T05:43:39Z</time>
      </trkpt>
      <trkpt lat="46.75081" lon="5.7817">
        <ele>682.2</ele>
        <time>2022-09-06T05:43:40Z</time>
      </trkpt>
      <trkpt lat="46.75085" lon="5.78181">
        <ele>682</ele>
        <time>2022-09-06T05:43:41Z</time>
      </trkpt>
      <trkpt lat="46.75088" lon="5.78192">
        <ele>681.8</ele>
        <time>2022-09-06T05:43:42Z</time>
      </trkpt>
      <trkpt lat="46.75091" lon="5.78204">
        <ele>681.8</ele>
        <time>2022-09-06T05:43:43Z</time>
      </trkpt>
      <trkpt lat="46.75094" lon="5.78216">
        <ele>681.4</ele>
        <time>2022-09-06T05:43:44Z</time>
      </trkpt>
      <trkpt lat="46.75097" lon="5.78227">
        <ele>681.2</ele>
        <time>2022-09-06T05:43:45Z</time>
      </trkpt>
      <trkpt lat="46.751" lon="5.78239">
        <ele>681.2</ele>
        <time>2022-09-06T05:43:46Z</time>
      </trkpt>
      <trkpt lat="46.75103" lon="5.7825">
        <ele>680.8</ele>
        <time>2022-09-06T05:43:47Z</time>
      </trkpt>
      <trkpt lat="46.75103" lon="5.7825">
        <ele>680.8</ele>
        <time>2022-09-06T05:43:48Z</time>
      </trkpt>
      <trkpt lat="46.75107" lon="5.78261">
        <ele>680.6</ele>
        <time>2022-09-06T05:43:49Z</time>
      </trkpt>
      <trkpt lat="46.7511" lon="5.78273">
        <ele>680.6</ele>
        <time>2022-09-06T05:43:50Z</time>
      </trkpt>
      <trkpt lat="46.75113" lon="5.78283">
        <ele>680.2</ele>
        <time>2022-09-06T05:43:51Z</time>
      </trkpt>
      <trkpt lat="46.75116" lon="5.78294">
        <ele>680.2</ele>
        <time>2022-09-06T05:43:52Z</time>
      </trkpt>
      <trkpt lat="46.75119" lon="5.78304">
        <ele>680.2</ele>
        <time>2022-09-06T05:43:53Z</time>
      </trkpt>
      <trkpt lat="46.75121" lon="5.78314">
        <ele>680.2</ele>
        <time>2022-09-06T05:43:54Z</time>
      </trkpt>
      <trkpt lat="46.75123" lon="5.78334">
        <ele>680.2</ele>
        <time>2022-09-06T05:43:55Z</time>
      </trkpt>
      <trkpt lat="46.75123" lon="5.78344">
        <ele>680.2</ele>
        <time>2022-09-06T05:43:56Z</time>
      </trkpt>
      <trkpt lat="46.75121" lon="5.78353">
        <ele>680.2</ele>
        <time>2022-09-06T05:43:57Z</time>
      </trkpt>
      <trkpt lat="46.75119" lon="5.78361">
        <ele>680.2</ele>
        <time>2022-09-06T05:43:58Z</time>
      </trkpt>
      <trkpt lat="46.75117" lon="5.78368">
        <ele>680.6</ele>
        <time>2022-09-06T05:43:59Z</time>
      </trkpt>
      <trkpt lat="46.75114" lon="5.78375">
        <ele>680.6</ele>
        <time>2022-09-06T05:44:00Z</time>
      </trkpt>
      <trkpt lat="46.75111" lon="5.78382">
        <ele>680.8</ele>
        <time>2022-09-06T05:44:01Z</time>
      </trkpt>
      <trkpt lat="46.75108" lon="5.78389">
        <ele>680.8</ele>
        <time>2022-09-06T05:44:02Z</time>
      </trkpt>
      <trkpt lat="46.75105" lon="5.78395">
        <ele>681.2</ele>
        <time>2022-09-06T05:44:03Z</time>
      </trkpt>
      <trkpt lat="46.75101" lon="5.78401">
        <ele>681.2</ele>
        <time>2022-09-06T05:44:04Z</time>
      </trkpt>
      <trkpt lat="46.75097" lon="5.78406">
        <ele>681.2</ele>
        <time>2022-09-06T05:44:05Z</time>
      </trkpt>
      <trkpt lat="46.75093" lon="5.7841">
        <ele>681.4</ele>
        <time>2022-09-06T05:44:06Z</time>
      </trkpt>
      <trkpt lat="46.75088" lon="5.78413">
        <ele>681.4</ele>
        <time>2022-09-06T05:44:07Z</time>
      </trkpt>
      <trkpt lat="46.75084" lon="5.78415">
        <ele>681.8</ele>
        <time>2022-09-06T05:44:08Z</time>
      </trkpt>
      <trkpt lat="46.75079" lon="5.78418">
        <ele>681.8</ele>
        <time>2022-09-06T05:44:09Z</time>
      </trkpt>
      <trkpt lat="46.75075" lon="5.78421">
        <ele>682</ele>
        <time>2022-09-06T05:44:10Z</time>
      </trkpt>
      <trkpt lat="46.7507" lon="5.78424">
        <ele>682</ele>
        <time>2022-09-06T05:44:11Z</time>
      </trkpt>
      <trkpt lat="46.75066" lon="5.78427">
        <ele>682</ele>
        <time>2022-09-06T05:44:12Z</time>
      </trkpt>
      <trkpt lat="46.75062" lon="5.7843">
        <ele>682.2</ele>
        <time>2022-09-06T05:44:13Z</time>
      </trkpt>
      <trkpt lat="46.75057" lon="5.78433">
        <ele>682.2</ele>
        <time>2022-09-06T05:44:14Z</time>
      </trkpt>
      <trkpt lat="46.75052" lon="5.78436">
        <ele>682.2</ele>
        <time>2022-09-06T05:44:15Z</time>
      </trkpt>
      <trkpt lat="46.75047" lon="5.78439">
        <ele>682.6</ele>
        <time>2022-09-06T05:44:16Z</time>
      </trkpt>
      <trkpt lat="46.75043" lon="5.78443">
        <ele>682.6</ele>
        <time>2022-09-06T05:44:17Z</time>
      </trkpt>
      <trkpt lat="46.75038" lon="5.78446">
        <ele>682.8</ele>
        <time>2022-09-06T05:44:18Z</time>
      </trkpt>
      <trkpt lat="46.75033" lon="5.78449">
        <ele>682.8</ele>
        <time>2022-09-06T05:44:19Z</time>
      </trkpt>
      <trkpt lat="46.75028" lon="5.78453">
        <ele>682.8</ele>
        <time>2022-09-06T05:44:20Z</time>
      </trkpt>
      <trkpt lat="46.75028" lon="5.78453">
        <ele>682.8</ele>
        <time>2022-09-06T05:44:21Z</time>
      </trkpt>
      <trkpt lat="46.75023" lon="5.78457">
        <ele>683</ele>
        <time>2022-09-06T05:44:22Z</time>
      </trkpt>
      <trkpt lat="46.75016" lon="5.78461">
        <ele>683</ele>
        <time>2022-09-06T05:44:23Z</time>
      </trkpt>
      <trkpt lat="46.75013" lon="5.78462">
        <ele>683</ele>
        <time>2022-09-06T05:44:24Z</time>
      </trkpt>
      <trkpt lat="46.75008" lon="5.78465">
        <ele>683.2</ele>
        <time>2022-09-06T05:44:25Z</time>
      </trkpt>
      <trkpt lat="46.75003" lon="5.78468">
        <ele>683.2</ele>
        <time>2022-09-06T05:44:26Z</time>
      </trkpt>
      <trkpt lat="46.74997" lon="5.78471">
        <ele>683.6</ele>
        <time>2022-09-06T05:44:27Z</time>
      </trkpt>
      <trkpt lat="46.74989" lon="5.78476">
        <ele>683.6</ele>
        <time>2022-09-06T05:44:28Z</time>
      </trkpt>
      <trkpt lat="46.74987" lon="5.78477">
        <ele>683.8</ele>
        <time>2022-09-06T05:44:29Z</time>
      </trkpt>
      <trkpt lat="46.74982" lon="5.78479">
        <ele>683.8</ele>
        <time>2022-09-06T05:44:30Z</time>
      </trkpt>
      <trkpt lat="46.74978" lon="5.78482">
        <ele>684.2</ele>
        <time>2022-09-06T05:44:31Z</time>
      </trkpt>
      <trkpt lat="46.74973" lon="5.78484">
        <ele>684.2</ele>
        <time>2022-09-06T05:44:32Z</time>
      </trkpt>
      <trkpt lat="46.74969" lon="5.78487">
        <ele>684.2</ele>
        <time>2022-09-06T05:44:33Z</time>
      </trkpt>
      <trkpt lat="46.74965" lon="5.7849">
        <ele>684.2</ele>
        <time>2022-09-06T05:44:34Z</time>
      </trkpt>
      <trkpt lat="46.74961" lon="5.78493">
        <ele>684.4</ele>
        <time>2022-09-06T05:44:35Z</time>
      </trkpt>
      <trkpt lat="46.74956" lon="5.78496">
        <ele>684.4</ele>
        <time>2022-09-06T05:44:36Z</time>
      </trkpt>
      <trkpt lat="46.74951" lon="5.785">
        <ele>684.4</ele>
        <time>2022-09-06T05:44:37Z</time>
      </trkpt>
      <trkpt lat="46.74946" lon="5.78504">
        <ele>684.4</ele>
        <time>2022-09-06T05:44:38Z</time>
      </trkpt>
      <trkpt lat="46.7494" lon="5.78509">
        <ele>684.4</ele>
        <time>2022-09-06T05:44:39Z</time>
      </trkpt>
      <trkpt lat="46.74934" lon="5.78514">
        <ele>684</ele>
        <time>2022-09-06T05:44:40Z</time>
      </trkpt>
      <trkpt lat="46.74927" lon="5.78521">
        <ele>683.8</ele>
        <time>2022-09-06T05:44:41Z</time>
      </trkpt>
      <trkpt lat="46.74922" lon="5.78529">
        <ele>683.6</ele>
        <time>2022-09-06T05:44:42Z</time>
      </trkpt>
      <trkpt lat="46.74917" lon="5.78537">
        <ele>683.2</ele>
        <time>2022-09-06T05:44:43Z</time>
      </trkpt>
      <trkpt lat="46.74912" lon="5.78546">
        <ele>683</ele>
        <time>2022-09-06T05:44:44Z</time>
      </trkpt>
      <trkpt lat="46.74907" lon="5.78556">
        <ele>682.6</ele>
        <time>2022-09-06T05:44:45Z</time>
      </trkpt>
      <trkpt lat="46.74902" lon="5.78566">
        <ele>682.2</ele>
        <time>2022-09-06T05:44:46Z</time>
      </trkpt>
      <trkpt lat="46.74896" lon="5.78577">
        <ele>682</ele>
        <time>2022-09-06T05:44:47Z</time>
      </trkpt>
      <trkpt lat="46.7489" lon="5.78588">
        <ele>681.4</ele>
        <time>2022-09-06T05:44:48Z</time>
      </trkpt>
      <trkpt lat="46.74883" lon="5.78598">
        <ele>681</ele>
        <time>2022-09-06T05:44:49Z</time>
      </trkpt>
      <trkpt lat="46.74875" lon="5.78607">
        <ele>680.4</ele>
        <time>2022-09-06T05:44:50Z</time>
      </trkpt>
      <trkpt lat="46.74867" lon="5.78614">
        <ele>679.8</ele>
        <time>2022-09-06T05:44:51Z</time>
      </trkpt>
      <trkpt lat="46.74857" lon="5.7862">
        <ele>679.2</ele>
        <time>2022-09-06T05:44:52Z</time>
      </trkpt>
      <trkpt lat="46.74847" lon="5.78624">
        <ele>678.6</ele>
        <time>2022-09-06T05:44:53Z</time>
      </trkpt>
      <trkpt lat="46.74836" lon="5.78624">
        <ele>678</ele>
        <time>2022-09-06T05:44:54Z</time>
      </trkpt>
      <trkpt lat="46.74825" lon="5.78624">
        <ele>677.4</ele>
        <time>2022-09-06T05:44:55Z</time>
      </trkpt>
      <trkpt lat="46.74814" lon="5.78623">
        <ele>676.8</ele>
        <time>2022-09-06T05:44:56Z</time>
      </trkpt>
      <trkpt lat="46.74803" lon="5.78621">
        <ele>676.2</ele>
        <time>2022-09-06T05:44:57Z</time>
      </trkpt>
      <trkpt lat="46.74792" lon="5.78618">
        <ele>675.6</ele>
        <time>2022-09-06T05:44:58Z</time>
      </trkpt>
      <trkpt lat="46.74782" lon="5.78614">
        <ele>675</ele>
        <time>2022-09-06T05:44:59Z</time>
      </trkpt>
      <trkpt lat="46.74771" lon="5.78609">
        <ele>674.4</ele>
        <time>2022-09-06T05:45:00Z</time>
      </trkpt>
      <trkpt lat="46.7476" lon="5.78604">
        <ele>674</ele>
        <time>2022-09-06T05:45:01Z</time>
      </trkpt>
      <trkpt lat="46.7475" lon="5.78598">
        <ele>673.4</ele>
        <time>2022-09-06T05:45:02Z</time>
      </trkpt>
      <trkpt lat="46.74739" lon="5.78592">
        <ele>672.8</ele>
        <time>2022-09-06T05:45:03Z</time>
      </trkpt>
      <trkpt lat="46.74729" lon="5.78585">
        <ele>672.2</ele>
        <time>2022-09-06T05:45:04Z</time>
      </trkpt>
      <trkpt lat="46.74718" lon="5.78579">
        <ele>671.8</ele>
        <time>2022-09-06T05:45:05Z</time>
      </trkpt>
      <trkpt lat="46.74707" lon="5.78572">
        <ele>671</ele>
        <time>2022-09-06T05:45:06Z</time>
      </trkpt>
      <trkpt lat="46.74695" lon="5.78565">
        <ele>670.4</ele>
        <time>2022-09-06T05:45:07Z</time>
      </trkpt>
      <trkpt lat="46.74684" lon="5.78559">
        <ele>669.8</ele>
        <time>2022-09-06T05:45:08Z</time>
      </trkpt>
      <trkpt lat="46.74672" lon="5.78553">
        <ele>669.2</ele>
        <time>2022-09-06T05:45:09Z</time>
      </trkpt>
      <trkpt lat="46.74661" lon="5.78549">
        <ele>668.6</ele>
        <time>2022-09-06T05:45:10Z</time>
      </trkpt>
      <trkpt lat="46.74649" lon="5.78544">
        <ele>668</ele>
        <time>2022-09-06T05:45:11Z</time>
      </trkpt>
      <trkpt lat="46.74637" lon="5.7854">
        <ele>667.4</ele>
        <time>2022-09-06T05:45:12Z</time>
      </trkpt>
      <trkpt lat="46.74626" lon="5.78537">
        <ele>666.8</ele>
        <time>2022-09-06T05:45:13Z</time>
      </trkpt>
      <trkpt lat="46.74614" lon="5.78532">
        <ele>666.2</ele>
        <time>2022-09-06T05:45:14Z</time>
      </trkpt>
      <trkpt lat="46.74603" lon="5.78528">
        <ele>665.6</ele>
        <time>2022-09-06T05:45:15Z</time>
      </trkpt>
      <trkpt lat="46.74592" lon="5.78524">
        <ele>664.8</ele>
        <time>2022-09-06T05:45:16Z</time>
      </trkpt>
      <trkpt lat="46.74581" lon="5.78519">
        <ele>664.2</ele>
        <time>2022-09-06T05:45:17Z</time>
      </trkpt>
      <trkpt lat="46.74569" lon="5.78514">
        <ele>663.6</ele>
        <time>2022-09-06T05:45:18Z</time>
      </trkpt>
      <trkpt lat="46.74557" lon="5.78508">
        <ele>663</ele>
        <time>2022-09-06T05:45:19Z</time>
      </trkpt>
      <trkpt lat="46.74546" lon="5.78503">
        <ele>662.4</ele>
        <time>2022-09-06T05:45:20Z</time>
      </trkpt>
      <trkpt lat="46.74535" lon="5.78497">
        <ele>661.8</ele>
        <time>2022-09-06T05:45:21Z</time>
      </trkpt>
      <trkpt lat="46.74523" lon="5.78491">
        <ele>661.2</ele>
        <time>2022-09-06T05:45:22Z</time>
      </trkpt>
      <trkpt lat="46.74511" lon="5.78484">
        <ele>660.6</ele>
        <time>2022-09-06T05:45:23Z</time>
      </trkpt>
      <trkpt lat="46.74501" lon="5.78476">
        <ele>660</ele>
        <time>2022-09-06T05:45:24Z</time>
      </trkpt>
      <trkpt lat="46.7449" lon="5.78467">
        <ele>659.2</ele>
        <time>2022-09-06T05:45:25Z</time>
      </trkpt>
      <trkpt lat="46.74481" lon="5.78459">
        <ele>658.6</ele>
        <time>2022-09-06T05:45:26Z</time>
      </trkpt>
      <trkpt lat="46.74473" lon="5.78451">
        <ele>658</ele>
        <time>2022-09-06T05:45:27Z</time>
      </trkpt>
      <trkpt lat="46.74465" lon="5.78443">
        <ele>657.4</ele>
        <time>2022-09-06T05:45:28Z</time>
      </trkpt>
      <trkpt lat="46.74458" lon="5.78439">
        <ele>657</ele>
        <time>2022-09-06T05:45:29Z</time>
      </trkpt>
      <trkpt lat="46.74452" lon="5.78438">
        <ele>656.6</ele>
        <time>2022-09-06T05:45:30Z</time>
      </trkpt>
      <trkpt lat="46.74447" lon="5.78443">
        <ele>656.2</ele>
        <time>2022-09-06T05:45:31Z</time>
      </trkpt>
      <trkpt lat="46.74444" lon="5.7845">
        <ele>656</ele>
        <time>2022-09-06T05:45:32Z</time>
      </trkpt>
      <trkpt lat="46.74444" lon="5.78461">
        <ele>655.6</ele>
        <time>2022-09-06T05:45:33Z</time>
      </trkpt>
      <trkpt lat="46.74447" lon="5.78471">
        <ele>655.4</ele>
        <time>2022-09-06T05:45:34Z</time>
      </trkpt>
      <trkpt lat="46.74451" lon="5.78479">
        <ele>655</ele>
        <time>2022-09-06T05:45:35Z</time>
      </trkpt>
      <trkpt lat="46.74457" lon="5.78485">
        <ele>654.6</ele>
        <time>2022-09-06T05:45:36Z</time>
      </trkpt>
      <trkpt lat="46.74464" lon="5.78491">
        <ele>654.2</ele>
        <time>2022-09-06T05:45:37Z</time>
      </trkpt>
      <trkpt lat="46.74471" lon="5.78498">
        <ele>654</ele>
        <time>2022-09-06T05:45:38Z</time>
      </trkpt>
      <trkpt lat="46.74478" lon="5.78505">
        <ele>653.6</ele>
        <time>2022-09-06T05:45:39Z</time>
      </trkpt>
      <trkpt lat="46.74485" lon="5.78513">
        <ele>653.2</ele>
        <time>2022-09-06T05:45:40Z</time>
      </trkpt>
      <trkpt lat="46.74492" lon="5.78522">
        <ele>653</ele>
        <time>2022-09-06T05:45:41Z</time>
      </trkpt>
      <trkpt lat="46.74501" lon="5.7853">
        <ele>652.6</ele>
        <time>2022-09-06T05:45:42Z</time>
      </trkpt>
      <trkpt lat="46.7451" lon="5.78542">
        <ele>652.2</ele>
        <time>2022-09-06T05:45:43Z</time>
      </trkpt>
      <trkpt lat="46.74518" lon="5.78554">
        <ele>651.8</ele>
        <time>2022-09-06T05:45:44Z</time>
      </trkpt>
      <trkpt lat="46.74527" lon="5.78565">
        <ele>651.2</ele>
        <time>2022-09-06T05:45:45Z</time>
      </trkpt>
      <trkpt lat="46.74537" lon="5.78576">
        <ele>650.8</ele>
        <time>2022-09-06T05:45:46Z</time>
      </trkpt>
      <trkpt lat="46.74546" lon="5.78587">
        <ele>650.2</ele>
        <time>2022-09-06T05:45:47Z</time>
      </trkpt>
      <trkpt lat="46.74556" lon="5.78597">
        <ele>649.8</ele>
        <time>2022-09-06T05:45:48Z</time>
      </trkpt>
      <trkpt lat="46.74564" lon="5.78606">
        <ele>649.2</ele>
        <time>2022-09-06T05:45:49Z</time>
      </trkpt>
      <trkpt lat="46.74574" lon="5.78614">
        <ele>648.6</ele>
        <time>2022-09-06T05:45:50Z</time>
      </trkpt>
      <trkpt lat="46.74585" lon="5.78621">
        <ele>648</ele>
        <time>2022-09-06T05:45:51Z</time>
      </trkpt>
      <trkpt lat="46.74596" lon="5.7863">
        <ele>647.6</ele>
        <time>2022-09-06T05:45:52Z</time>
      </trkpt>
      <trkpt lat="46.74605" lon="5.78643">
        <ele>646.8</ele>
        <time>2022-09-06T05:45:53Z</time>
      </trkpt>
      <trkpt lat="46.74616" lon="5.78657">
        <ele>646.4</ele>
        <time>2022-09-06T05:45:54Z</time>
      </trkpt>
      <trkpt lat="46.74624" lon="5.78673">
        <ele>645.6</ele>
        <time>2022-09-06T05:45:55Z</time>
      </trkpt>
      <trkpt lat="46.74632" lon="5.78688">
        <ele>645</ele>
        <time>2022-09-06T05:45:56Z</time>
      </trkpt>
      <trkpt lat="46.74639" lon="5.78704">
        <ele>644.2</ele>
        <time>2022-09-06T05:45:57Z</time>
      </trkpt>
      <trkpt lat="46.74646" lon="5.7872">
        <ele>643.6</ele>
        <time>2022-09-06T05:45:58Z</time>
      </trkpt>
      <trkpt lat="46.74652" lon="5.78735">
        <ele>643.2</ele>
        <time>2022-09-06T05:45:59Z</time>
      </trkpt>
      <trkpt lat="46.74659" lon="5.78751">
        <ele>642.6</ele>
        <time>2022-09-06T05:46:00Z</time>
      </trkpt>
      <trkpt lat="46.74667" lon="5.78766">
        <ele>642</ele>
        <time>2022-09-06T05:46:01Z</time>
      </trkpt>
      <trkpt lat="46.74677" lon="5.78778">
        <ele>641.4</ele>
        <time>2022-09-06T05:46:02Z</time>
      </trkpt>
      <trkpt lat="46.74686" lon="5.78788">
        <ele>641</ele>
        <time>2022-09-06T05:46:03Z</time>
      </trkpt>
      <trkpt lat="46.74697" lon="5.78796">
        <ele>640.2</ele>
        <time>2022-09-06T05:46:04Z</time>
      </trkpt>
      <trkpt lat="46.74707" lon="5.78804">
        <ele>639.6</ele>
        <time>2022-09-06T05:46:05Z</time>
      </trkpt>
      <trkpt lat="46.74718" lon="5.78812">
        <ele>639</ele>
        <time>2022-09-06T05:46:06Z</time>
      </trkpt>
      <trkpt lat="46.74728" lon="5.78821">
        <ele>638.4</ele>
        <time>2022-09-06T05:46:07Z</time>
      </trkpt>
      <trkpt lat="46.74739" lon="5.78831">
        <ele>638</ele>
        <time>2022-09-06T05:46:08Z</time>
      </trkpt>
      <trkpt lat="46.7475" lon="5.78842">
        <ele>637.4</ele>
        <time>2022-09-06T05:46:09Z</time>
      </trkpt>
      <trkpt lat="46.74761" lon="5.78854">
        <ele>636.6</ele>
        <time>2022-09-06T05:46:10Z</time>
      </trkpt>
      <trkpt lat="46.7477" lon="5.78867">
        <ele>636</ele>
        <time>2022-09-06T05:46:11Z</time>
      </trkpt>
      <trkpt lat="46.74779" lon="5.78882">
        <ele>635.4</ele>
        <time>2022-09-06T05:46:12Z</time>
      </trkpt>
      <trkpt lat="46.74788" lon="5.78897">
        <ele>634.8</ele>
        <time>2022-09-06T05:46:13Z</time>
      </trkpt>
      <trkpt lat="46.74796" lon="5.78911">
        <ele>634.2</ele>
        <time>2022-09-06T05:46:14Z</time>
      </trkpt>
      <trkpt lat="46.74805" lon="5.78924">
        <ele>633.6</ele>
        <time>2022-09-06T05:46:15Z</time>
      </trkpt>
      <trkpt lat="46.74814" lon="5.78938">
        <ele>633</ele>
        <time>2022-09-06T05:46:16Z</time>
      </trkpt>
      <trkpt lat="46.74823" lon="5.7895">
        <ele>632.4</ele>
        <time>2022-09-06T05:46:17Z</time>
      </trkpt>
      <trkpt lat="46.74832" lon="5.78962">
        <ele>631.8</ele>
        <time>2022-09-06T05:46:18Z</time>
      </trkpt>
      <trkpt lat="46.74842" lon="5.78974">
        <ele>631.2</ele>
        <time>2022-09-06T05:46:19Z</time>
      </trkpt>
      <trkpt lat="46.7485" lon="5.78986">
        <ele>630.6</ele>
        <time>2022-09-06T05:46:20Z</time>
      </trkpt>
      <trkpt lat="46.74859" lon="5.78996">
        <ele>630</ele>
        <time>2022-09-06T05:46:21Z</time>
      </trkpt>
      <trkpt lat="46.74868" lon="5.79007">
        <ele>629.4</ele>
        <time>2022-09-06T05:46:22Z</time>
      </trkpt>
      <trkpt lat="46.74878" lon="5.79015">
        <ele>628.8</ele>
        <time>2022-09-06T05:46:23Z</time>
      </trkpt>
      <trkpt lat="46.74888" lon="5.79024">
        <ele>628.2</ele>
        <time>2022-09-06T05:46:24Z</time>
      </trkpt>
      <trkpt lat="46.74898" lon="5.79034">
        <ele>627.8</ele>
        <time>2022-09-06T05:46:25Z</time>
      </trkpt>
      <trkpt lat="46.74908" lon="5.79044">
        <ele>627.2</ele>
        <time>2022-09-06T05:46:26Z</time>
      </trkpt>
      <trkpt lat="46.74917" lon="5.79053">
        <ele>626.6</ele>
        <time>2022-09-06T05:46:27Z</time>
      </trkpt>
      <trkpt lat="46.74926" lon="5.79065">
        <ele>626</ele>
        <time>2022-09-06T05:46:28Z</time>
      </trkpt>
      <trkpt lat="46.74935" lon="5.79075">
        <ele>625.4</ele>
        <time>2022-09-06T05:46:29Z</time>
      </trkpt>
      <trkpt lat="46.74945" lon="5.79084">
        <ele>625</ele>
        <time>2022-09-06T05:46:30Z</time>
      </trkpt>
      <trkpt lat="46.74954" lon="5.79095">
        <ele>624.4</ele>
        <time>2022-09-06T05:46:31Z</time>
      </trkpt>
      <trkpt lat="46.74963" lon="5.79105">
        <ele>623.8</ele>
        <time>2022-09-06T05:46:32Z</time>
      </trkpt>
      <trkpt lat="46.74973" lon="5.79115">
        <ele>623.2</ele>
        <time>2022-09-06T05:46:33Z</time>
      </trkpt>
      <trkpt lat="46.74982" lon="5.79126">
        <ele>622.6</ele>
        <time>2022-09-06T05:46:34Z</time>
      </trkpt>
      <trkpt lat="46.74991" lon="5.79136">
        <ele>622.2</ele>
        <time>2022-09-06T05:46:35Z</time>
      </trkpt>
      <trkpt lat="46.75" lon="5.79147">
        <ele>621.6</ele>
        <time>2022-09-06T05:46:36Z</time>
      </trkpt>
      <trkpt lat="46.75009" lon="5.79157">
        <ele>621.2</ele>
        <time>2022-09-06T05:46:37Z</time>
      </trkpt>
      <trkpt lat="46.75018" lon="5.79167">
        <ele>620.6</ele>
        <time>2022-09-06T05:46:38Z</time>
      </trkpt>
      <trkpt lat="46.75027" lon="5.79177">
        <ele>620.2</ele>
        <time>2022-09-06T05:46:39Z</time>
      </trkpt>
      <trkpt lat="46.75036" lon="5.79187">
        <ele>619.6</ele>
        <time>2022-09-06T05:46:40Z</time>
      </trkpt>
      <trkpt lat="46.75045" lon="5.79196">
        <ele>619</ele>
        <time>2022-09-06T05:46:41Z</time>
      </trkpt>
      <trkpt lat="46.75055" lon="5.79206">
        <ele>618.6</ele>
        <time>2022-09-06T05:46:42Z</time>
      </trkpt>
      <trkpt lat="46.75063" lon="5.79218">
        <ele>618</ele>
        <time>2022-09-06T05:46:43Z</time>
      </trkpt>
      <trkpt lat="46.75072" lon="5.7923">
        <ele>617.4</ele>
        <time>2022-09-06T05:46:44Z</time>
      </trkpt>
      <trkpt lat="46.75081" lon="5.79242">
        <ele>617</ele>
        <time>2022-09-06T05:46:45Z</time>
      </trkpt>
      <trkpt lat="46.7509" lon="5.79254">
        <ele>616.4</ele>
        <time>2022-09-06T05:46:46Z</time>
      </trkpt>
      <trkpt lat="46.75098" lon="5.79266">
        <ele>615.8</ele>
        <time>2022-09-06T05:46:47Z</time>
      </trkpt>
      <trkpt lat="46.75107" lon="5.79277">
        <ele>615.4</ele>
        <time>2022-09-06T05:46:48Z</time>
      </trkpt>
      <trkpt lat="46.75116" lon="5.79288">
        <ele>614.8</ele>
        <time>2022-09-06T05:46:49Z</time>
      </trkpt>
      <trkpt lat="46.75125" lon="5.79299">
        <ele>614.2</ele>
        <time>2022-09-06T05:46:50Z</time>
      </trkpt>
      <trkpt lat="46.75133" lon="5.79311">
        <ele>613.6</ele>
        <time>2022-09-06T05:46:51Z</time>
      </trkpt>
      <trkpt lat="46.75142" lon="5.79323">
        <ele>613</ele>
        <time>2022-09-06T05:46:52Z</time>
      </trkpt>
      <trkpt lat="46.75151" lon="5.79335">
        <ele>612.6</ele>
        <time>2022-09-06T05:46:53Z</time>
      </trkpt>
      <trkpt lat="46.75159" lon="5.79346">
        <ele>612</ele>
        <time>2022-09-06T05:46:54Z</time>
      </trkpt>
      <trkpt lat="46.75168" lon="5.79358">
        <ele>611.4</ele>
        <time>2022-09-06T05:46:55Z</time>
      </trkpt>
      <trkpt lat="46.75175" lon="5.79369">
        <ele>611</ele>
        <time>2022-09-06T05:46:56Z</time>
      </trkpt>
      <trkpt lat="46.75184" lon="5.79381">
        <ele>610.4</ele>
        <time>2022-09-06T05:46:57Z</time>
      </trkpt>
      <trkpt lat="46.75192" lon="5.79393">
        <ele>609.8</ele>
        <time>2022-09-06T05:46:58Z</time>
      </trkpt>
      <trkpt lat="46.752" lon="5.79405">
        <ele>609.4</ele>
        <time>2022-09-06T05:46:59Z</time>
      </trkpt>
      <trkpt lat="46.75208" lon="5.79416">
        <ele>608.8</ele>
        <time>2022-09-06T05:47:00Z</time>
      </trkpt>
      <trkpt lat="46.75217" lon="5.79426">
        <ele>608.2</ele>
        <time>2022-09-06T05:47:01Z</time>
      </trkpt>
      <trkpt lat="46.75225" lon="5.79437">
        <ele>607.8</ele>
        <time>2022-09-06T05:47:02Z</time>
      </trkpt>
      <trkpt lat="46.75235" lon="5.79448">
        <ele>607.2</ele>
        <time>2022-09-06T05:47:03Z</time>
      </trkpt>
      <trkpt lat="46.75235" lon="5.79448">
        <ele>606.6</ele>
        <time>2022-09-06T05:47:04Z</time>
      </trkpt>
      <trkpt lat="46.75244" lon="5.7946">
        <ele>606.2</ele>
        <time>2022-09-06T05:47:05Z</time>
      </trkpt>
      <trkpt lat="46.75253" lon="5.79471">
        <ele>605.6</ele>
        <time>2022-09-06T05:47:06Z</time>
      </trkpt>
      <trkpt lat="46.75261" lon="5.79481">
        <ele>605.2</ele>
        <time>2022-09-06T05:47:07Z</time>
      </trkpt>
      <trkpt lat="46.7527" lon="5.79492">
        <ele>604.6</ele>
        <time>2022-09-06T05:47:08Z</time>
      </trkpt>
      <trkpt lat="46.75279" lon="5.79502">
        <ele>604.2</ele>
        <time>2022-09-06T05:47:09Z</time>
      </trkpt>
      <trkpt lat="46.75287" lon="5.79514">
        <ele>603.6</ele>
        <time>2022-09-06T05:47:10Z</time>
      </trkpt>
      <trkpt lat="46.75294" lon="5.79527">
        <ele>603.2</ele>
        <time>2022-09-06T05:47:11Z</time>
      </trkpt>
      <trkpt lat="46.75299" lon="5.79543">
        <ele>602.8</ele>
        <time>2022-09-06T05:47:12Z</time>
      </trkpt>
      <trkpt lat="46.75303" lon="5.7956">
        <ele>602.2</ele>
        <time>2022-09-06T05:47:13Z</time>
      </trkpt>
      <trkpt lat="46.75303" lon="5.79577">
        <ele>601.8</ele>
        <time>2022-09-06T05:47:14Z</time>
      </trkpt>
      <trkpt lat="46.75302" lon="5.79593">
        <ele>601.4</ele>
        <time>2022-09-06T05:47:15Z</time>
      </trkpt>
      <trkpt lat="46.75301" lon="5.79608">
        <ele>601</ele>
        <time>2022-09-06T05:47:16Z</time>
      </trkpt>
      <trkpt lat="46.75302" lon="5.79622">
        <ele>600.6</ele>
        <time>2022-09-06T05:47:17Z</time>
      </trkpt>
      <trkpt lat="46.75303" lon="5.79636">
        <ele>600.2</ele>
        <time>2022-09-06T05:47:18Z</time>
      </trkpt>
      <trkpt lat="46.75308" lon="5.79649">
        <ele>599.8</ele>
        <time>2022-09-06T05:47:19Z</time>
      </trkpt>
      <trkpt lat="46.75313" lon="5.79658">
        <ele>599.4</ele>
        <time>2022-09-06T05:47:20Z</time>
      </trkpt>
      <trkpt lat="46.7532" lon="5.79668">
        <ele>598.8</ele>
        <time>2022-09-06T05:47:21Z</time>
      </trkpt>
      <trkpt lat="46.75329" lon="5.79678">
        <ele>598.4</ele>
        <time>2022-09-06T05:47:22Z</time>
      </trkpt>
      <trkpt lat="46.75337" lon="5.79685">
        <ele>598</ele>
        <time>2022-09-06T05:47:23Z</time>
      </trkpt>
      <trkpt lat="46.75347" lon="5.79689">
        <ele>597.6</ele>
        <time>2022-09-06T05:47:24Z</time>
      </trkpt>
      <trkpt lat="46.75358" lon="5.79693">
        <ele>597.2</ele>
        <time>2022-09-06T05:47:25Z</time>
      </trkpt>
      <trkpt lat="46.75368" lon="5.79699">
        <ele>596.6</ele>
        <time>2022-09-06T05:47:26Z</time>
      </trkpt>
      <trkpt lat="46.75376" lon="5.79709">
        <ele>596.2</ele>
        <time>2022-09-06T05:47:27Z</time>
      </trkpt>
      <trkpt lat="46.75384" lon="5.79721">
        <ele>595.8</ele>
        <time>2022-09-06T05:47:28Z</time>
      </trkpt>
      <trkpt lat="46.7539" lon="5.79736">
        <ele>595.2</ele>
        <time>2022-09-06T05:47:29Z</time>
      </trkpt>
      <trkpt lat="46.75395" lon="5.7975">
        <ele>594.8</ele>
        <time>2022-09-06T05:47:30Z</time>
      </trkpt>
      <trkpt lat="46.75399" lon="5.79764">
        <ele>594.4</ele>
        <time>2022-09-06T05:47:31Z</time>
      </trkpt>
      <trkpt lat="46.75405" lon="5.79776">
        <ele>593.8</ele>
        <time>2022-09-06T05:47:32Z</time>
      </trkpt>
      <trkpt lat="46.75412" lon="5.79789">
        <ele>593.2</ele>
        <time>2022-09-06T05:47:33Z</time>
      </trkpt>
      <trkpt lat="46.75419" lon="5.79802">
        <ele>592.6</ele>
        <time>2022-09-06T05:47:34Z</time>
      </trkpt>
      <trkpt lat="46.75426" lon="5.79814">
        <ele>592.2</ele>
        <time>2022-09-06T05:47:35Z</time>
      </trkpt>
      <trkpt lat="46.75433" lon="5.79826">
        <ele>591.6</ele>
        <time>2022-09-06T05:47:36Z</time>
      </trkpt>
      <trkpt lat="46.7544" lon="5.79838">
        <ele>591.2</ele>
        <time>2022-09-06T05:47:37Z</time>
      </trkpt>
      <trkpt lat="46.75447" lon="5.7985">
        <ele>590.8</ele>
        <time>2022-09-06T05:47:38Z</time>
      </trkpt>
      <trkpt lat="46.75453" lon="5.79862">
        <ele>590.2</ele>
        <time>2022-09-06T05:47:39Z</time>
      </trkpt>
      <trkpt lat="46.75461" lon="5.79874">
        <ele>589.6</ele>
        <time>2022-09-06T05:47:40Z</time>
      </trkpt>
      <trkpt lat="46.75468" lon="5.79888">
        <ele>589.2</ele>
        <time>2022-09-06T05:47:41Z</time>
      </trkpt>
      <trkpt lat="46.75474" lon="5.799">
        <ele>588.6</ele>
        <time>2022-09-06T05:47:42Z</time>
      </trkpt>
      <trkpt lat="46.7548" lon="5.79913">
        <ele>588.2</ele>
        <time>2022-09-06T05:47:43Z</time>
      </trkpt>
      <trkpt lat="46.75485" lon="5.79926">
        <ele>587.6</ele>
        <time>2022-09-06T05:47:44Z</time>
      </trkpt>
      <trkpt lat="46.75491" lon="5.7994">
        <ele>587.2</ele>
        <time>2022-09-06T05:47:45Z</time>
      </trkpt>
      <trkpt lat="46.75497" lon="5.79954">
        <ele>586.8</ele>
        <time>2022-09-06T05:47:46Z</time>
      </trkpt>
      <trkpt lat="46.75502" lon="5.79968">
        <ele>586.2</ele>
        <time>2022-09-06T05:47:47Z</time>
      </trkpt>
      <trkpt lat="46.75506" lon="5.79984">
        <ele>585.6</ele>
        <time>2022-09-06T05:47:48Z</time>
      </trkpt>
      <trkpt lat="46.75508" lon="5.79998">
        <ele>585.2</ele>
        <time>2022-09-06T05:47:49Z</time>
      </trkpt>
      <trkpt lat="46.75511" lon="5.80014">
        <ele>584.8</ele>
        <time>2022-09-06T05:47:50Z</time>
      </trkpt>
      <trkpt lat="46.75516" lon="5.80026">
        <ele>584.8</ele>
        <time>2022-09-06T05:47:51Z</time>
      </trkpt>
      <trkpt lat="46.75521" lon="5.80036">
        <ele>584.6</ele>
        <time>2022-09-06T05:47:52Z</time>
      </trkpt>
      <trkpt lat="46.75527" lon="5.80046">
        <ele>584.6</ele>
        <time>2022-09-06T05:47:53Z</time>
      </trkpt>
      <trkpt lat="46.75532" lon="5.80056">
        <ele>584.6</ele>
        <time>2022-09-06T05:47:54Z</time>
      </trkpt>
      <trkpt lat="46.75538" lon="5.80065">
        <ele>584.6</ele>
        <time>2022-09-06T05:47:55Z</time>
      </trkpt>
      <trkpt lat="46.75544" lon="5.80075">
        <ele>584.6</ele>
        <time>2022-09-06T05:47:56Z</time>
      </trkpt>
      <trkpt lat="46.75549" lon="5.80084">
        <ele>584.8</ele>
        <time>2022-09-06T05:47:57Z</time>
      </trkpt>
      <trkpt lat="46.75555" lon="5.80093">
        <ele>584.8</ele>
        <time>2022-09-06T05:47:58Z</time>
      </trkpt>
      <trkpt lat="46.7556" lon="5.80102">
        <ele>584.8</ele>
        <time>2022-09-06T05:47:59Z</time>
      </trkpt>
      <trkpt lat="46.75565" lon="5.80111">
        <ele>585</ele>
        <time>2022-09-06T05:48:00Z</time>
      </trkpt>
      <trkpt lat="46.7557" lon="5.80119">
        <ele>585</ele>
        <time>2022-09-06T05:48:01Z</time>
      </trkpt>
      <trkpt lat="46.75575" lon="5.80128">
        <ele>585</ele>
        <time>2022-09-06T05:48:02Z</time>
      </trkpt>
      <trkpt lat="46.7558" lon="5.80136">
        <ele>585.2</ele>
        <time>2022-09-06T05:48:03Z</time>
      </trkpt>
      <trkpt lat="46.75585" lon="5.80144">
        <ele>585.2</ele>
        <time>2022-09-06T05:48:04Z</time>
      </trkpt>
      <trkpt lat="46.75589" lon="5.80151">
        <ele>585.6</ele>
        <time>2022-09-06T05:48:05Z</time>
      </trkpt>
      <trkpt lat="46.75594" lon="5.80159">
        <ele>585.6</ele>
        <time>2022-09-06T05:48:06Z</time>
      </trkpt>
      <trkpt lat="46.75598" lon="5.80167">
        <ele>585.8</ele>
        <time>2022-09-06T05:48:07Z</time>
      </trkpt>
      <trkpt lat="46.75602" lon="5.80175">
        <ele>585.8</ele>
        <time>2022-09-06T05:48:08Z</time>
      </trkpt>
      <trkpt lat="46.75607" lon="5.80183">
        <ele>585.8</ele>
        <time>2022-09-06T05:48:09Z</time>
      </trkpt>
      <trkpt lat="46.75611" lon="5.80191">
        <ele>586</ele>
        <time>2022-09-06T05:48:10Z</time>
      </trkpt>
      <trkpt lat="46.75616" lon="5.80198">
        <ele>586</ele>
        <time>2022-09-06T05:48:11Z</time>
      </trkpt>
      <trkpt lat="46.7562" lon="5.80204">
        <ele>586.4</ele>
        <time>2022-09-06T05:48:12Z</time>
      </trkpt>
      <trkpt lat="46.75625" lon="5.80211">
        <ele>586.4</ele>
        <time>2022-09-06T05:48:13Z</time>
      </trkpt>
      <trkpt lat="46.75629" lon="5.80218">
        <ele>586.6</ele>
        <time>2022-09-06T05:48:14Z</time>
      </trkpt>
      <trkpt lat="46.75632" lon="5.80225">
        <ele>586.6</ele>
        <time>2022-09-06T05:48:15Z</time>
      </trkpt>
      <trkpt lat="46.75636" lon="5.80232">
        <ele>586.6</ele>
        <time>2022-09-06T05:48:16Z</time>
      </trkpt>
      <trkpt lat="46.7564" lon="5.80239">
        <ele>587</ele>
        <time>2022-09-06T05:48:17Z</time>
      </trkpt>
      <trkpt lat="46.75644" lon="5.80246">
        <ele>587</ele>
        <time>2022-09-06T05:48:18Z</time>
      </trkpt>
      <trkpt lat="46.75648" lon="5.80252">
        <ele>587.2</ele>
        <time>2022-09-06T05:48:19Z</time>
      </trkpt>
      <trkpt lat="46.75652" lon="5.80258">
        <ele>587.2</ele>
        <time>2022-09-06T05:48:20Z</time>
      </trkpt>
      <trkpt lat="46.75656" lon="5.80265">
        <ele>587.4</ele>
        <time>2022-09-06T05:48:21Z</time>
      </trkpt>
      <trkpt lat="46.75659" lon="5.80271">
        <ele>587.4</ele>
        <time>2022-09-06T05:48:22Z</time>
      </trkpt>
      <trkpt lat="46.75663" lon="5.80278">
        <ele>587.8</ele>
        <time>2022-09-06T05:48:23Z</time>
      </trkpt>
      <trkpt lat="46.75666" lon="5.80285">
        <ele>587.8</ele>
        <time>2022-09-06T05:48:24Z</time>
      </trkpt>
      <trkpt lat="46.7567" lon="5.80292">
        <ele>588</ele>
        <time>2022-09-06T05:48:25Z</time>
      </trkpt>
      <trkpt lat="46.75672" lon="5.803">
        <ele>588</ele>
        <time>2022-09-06T05:48:26Z</time>
      </trkpt>
      <trkpt lat="46.75675" lon="5.80307">
        <ele>588.4</ele>
        <time>2022-09-06T05:48:27Z</time>
      </trkpt>
      <trkpt lat="46.75678" lon="5.80315">
        <ele>588.4</ele>
        <time>2022-09-06T05:48:28Z</time>
      </trkpt>
      <trkpt lat="46.75681" lon="5.80322">
        <ele>588.6</ele>
        <time>2022-09-06T05:48:29Z</time>
      </trkpt>
      <trkpt lat="46.75684" lon="5.80328">
        <ele>588.6</ele>
        <time>2022-09-06T05:48:30Z</time>
      </trkpt>
      <trkpt lat="46.75687" lon="5.80335">
        <ele>588.8</ele>
        <time>2022-09-06T05:48:31Z</time>
      </trkpt>
      <trkpt lat="46.7569" lon="5.80341">
        <ele>588.8</ele>
        <time>2022-09-06T05:48:32Z</time>
      </trkpt>
      <trkpt lat="46.75692" lon="5.80348">
        <ele>588.8</ele>
        <time>2022-09-06T05:48:33Z</time>
      </trkpt>
      <trkpt lat="46.75695" lon="5.80355">
        <ele>589.2</ele>
        <time>2022-09-06T05:48:34Z</time>
      </trkpt>
      <trkpt lat="46.75697" lon="5.80362">
        <ele>589.2</ele>
        <time>2022-09-06T05:48:35Z</time>
      </trkpt>
      <trkpt lat="46.75699" lon="5.8037">
        <ele>589.2</ele>
        <time>2022-09-06T05:48:36Z</time>
      </trkpt>
      <trkpt lat="46.757" lon="5.80378">
        <ele>589.4</ele>
        <time>2022-09-06T05:48:37Z</time>
      </trkpt>
      <trkpt lat="46.75702" lon="5.80386">
        <ele>589.4</ele>
        <time>2022-09-06T05:48:38Z</time>
      </trkpt>
      <trkpt lat="46.75704" lon="5.80394">
        <ele>589.6</ele>
        <time>2022-09-06T05:48:39Z</time>
      </trkpt>
      <trkpt lat="46.75707" lon="5.80402">
        <ele>589.6</ele>
        <time>2022-09-06T05:48:40Z</time>
      </trkpt>
      <trkpt lat="46.75709" lon="5.8041">
        <ele>590</ele>
        <time>2022-09-06T05:48:41Z</time>
      </trkpt>
      <trkpt lat="46.75711" lon="5.80418">
        <ele>590.2</ele>
        <time>2022-09-06T05:48:42Z</time>
      </trkpt>
      <trkpt lat="46.75713" lon="5.80426">
        <ele>590.2</ele>
        <time>2022-09-06T05:48:43Z</time>
      </trkpt>
      <trkpt lat="46.75714" lon="5.80435">
        <ele>590.4</ele>
        <time>2022-09-06T05:48:44Z</time>
      </trkpt>
      <trkpt lat="46.75716" lon="5.80443">
        <ele>590.8</ele>
        <time>2022-09-06T05:48:45Z</time>
      </trkpt>
      <trkpt lat="46.75717" lon="5.80452">
        <ele>590.8</ele>
        <time>2022-09-06T05:48:46Z</time>
      </trkpt>
      <trkpt lat="46.75717" lon="5.8046">
        <ele>591.2</ele>
        <time>2022-09-06T05:48:47Z</time>
      </trkpt>
      <trkpt lat="46.75719" lon="5.80468">
        <ele>591.4</ele>
        <time>2022-09-06T05:48:48Z</time>
      </trkpt>
      <trkpt lat="46.75719" lon="5.80476">
        <ele>591.6</ele>
        <time>2022-09-06T05:48:49Z</time>
      </trkpt>
      <trkpt lat="46.7572" lon="5.80484">
        <ele>591.8</ele>
        <time>2022-09-06T05:48:50Z</time>
      </trkpt>
      <trkpt lat="46.7572" lon="5.80491">
        <ele>592</ele>
        <time>2022-09-06T05:48:51Z</time>
      </trkpt>
      <trkpt lat="46.7572" lon="5.80499">
        <ele>592.4</ele>
        <time>2022-09-06T05:48:52Z</time>
      </trkpt>
      <trkpt lat="46.7572" lon="5.80505">
        <ele>592.6</ele>
        <time>2022-09-06T05:48:53Z</time>
      </trkpt>
      <trkpt lat="46.75721" lon="5.80511">
        <ele>592.8</ele>
        <time>2022-09-06T05:48:54Z</time>
      </trkpt>
      <trkpt lat="46.75721" lon="5.80517">
        <ele>593.2</ele>
        <time>2022-09-06T05:48:55Z</time>
      </trkpt>
      <trkpt lat="46.75721" lon="5.80523">
        <ele>593.4</ele>
        <time>2022-09-06T05:48:56Z</time>
      </trkpt>
      <trkpt lat="46.75722" lon="5.80528">
        <ele>593.6</ele>
        <time>2022-09-06T05:48:57Z</time>
      </trkpt>
      <trkpt lat="46.75723" lon="5.80534">
        <ele>593.8</ele>
        <time>2022-09-06T05:48:58Z</time>
      </trkpt>
      <trkpt lat="46.75723" lon="5.80539">
        <ele>593.8</ele>
        <time>2022-09-06T05:48:59Z</time>
      </trkpt>
      <trkpt lat="46.75723" lon="5.80544">
        <ele>594.2</ele>
        <time>2022-09-06T05:49:00Z</time>
      </trkpt>
      <trkpt lat="46.75723" lon="5.80549">
        <ele>594.2</ele>
        <time>2022-09-06T05:49:01Z</time>
      </trkpt>
      <trkpt lat="46.75723" lon="5.80555">
        <ele>594.6</ele>
        <time>2022-09-06T05:49:02Z</time>
      </trkpt>
      <trkpt lat="46.75723" lon="5.8056">
        <ele>594.6</ele>
        <time>2022-09-06T05:49:03Z</time>
      </trkpt>
      <trkpt lat="46.75724" lon="5.80566">
        <ele>594.8</ele>
        <time>2022-09-06T05:49:04Z</time>
      </trkpt>
      <trkpt lat="46.75724" lon="5.80573">
        <ele>594.8</ele>
        <time>2022-09-06T05:49:05Z</time>
      </trkpt>
      <trkpt lat="46.75723" lon="5.8058">
        <ele>595</ele>
        <time>2022-09-06T05:49:06Z</time>
      </trkpt>
      <trkpt lat="46.75723" lon="5.80587">
        <ele>595</ele>
        <time>2022-09-06T05:49:07Z</time>
      </trkpt>
      <trkpt lat="46.75723" lon="5.80594">
        <ele>595</ele>
        <time>2022-09-06T05:49:08Z</time>
      </trkpt>
      <trkpt lat="46.75722" lon="5.80601">
        <ele>595</ele>
        <time>2022-09-06T05:49:09Z</time>
      </trkpt>
      <trkpt lat="46.75722" lon="5.80609">
        <ele>595.2</ele>
        <time>2022-09-06T05:49:10Z</time>
      </trkpt>
      <trkpt lat="46.75722" lon="5.80616">
        <ele>595.2</ele>
        <time>2022-09-06T05:49:11Z</time>
      </trkpt>
      <trkpt lat="46.75721" lon="5.80624">
        <ele>595.2</ele>
        <time>2022-09-06T05:49:12Z</time>
      </trkpt>
      <trkpt lat="46.75719" lon="5.80632">
        <ele>595.2</ele>
        <time>2022-09-06T05:49:13Z</time>
      </trkpt>
      <trkpt lat="46.75718" lon="5.8064">
        <ele>595.4</ele>
        <time>2022-09-06T05:49:14Z</time>
      </trkpt>
      <trkpt lat="46.75717" lon="5.80648">
        <ele>595.4</ele>
        <time>2022-09-06T05:49:15Z</time>
      </trkpt>
      <trkpt lat="46.75716" lon="5.80656">
        <ele>595.4</ele>
        <time>2022-09-06T05:49:16Z</time>
      </trkpt>
      <trkpt lat="46.75714" lon="5.80664">
        <ele>595.4</ele>
        <time>2022-09-06T05:49:17Z</time>
      </trkpt>
      <trkpt lat="46.75711" lon="5.80672">
        <ele>595.4</ele>
        <time>2022-09-06T05:49:18Z</time>
      </trkpt>
      <trkpt lat="46.75709" lon="5.80679">
        <ele>595.8</ele>
        <time>2022-09-06T05:49:19Z</time>
      </trkpt>
      <trkpt lat="46.75707" lon="5.80687">
        <ele>595.8</ele>
        <time>2022-09-06T05:49:20Z</time>
      </trkpt>
      <trkpt lat="46.75705" lon="5.80694">
        <ele>596</ele>
        <time>2022-09-06T05:49:21Z</time>
      </trkpt>
      <trkpt lat="46.75703" lon="5.80702">
        <ele>596</ele>
        <time>2022-09-06T05:49:22Z</time>
      </trkpt>
      <trkpt lat="46.75701" lon="5.8071">
        <ele>596.4</ele>
        <time>2022-09-06T05:49:23Z</time>
      </trkpt>
      <trkpt lat="46.75699" lon="5.80717">
        <ele>596.4</ele>
        <time>2022-09-06T05:49:24Z</time>
      </trkpt>
      <trkpt lat="46.75697" lon="5.80725">
        <ele>596.6</ele>
        <time>2022-09-06T05:49:25Z</time>
      </trkpt>
      <trkpt lat="46.75695" lon="5.80733">
        <ele>596.6</ele>
        <time>2022-09-06T05:49:26Z</time>
      </trkpt>
      <trkpt lat="46.75693" lon="5.8074">
        <ele>596.6</ele>
        <time>2022-09-06T05:49:27Z</time>
      </trkpt>
      <trkpt lat="46.75691" lon="5.80748">
        <ele>597</ele>
        <time>2022-09-06T05:49:28Z</time>
      </trkpt>
      <trkpt lat="46.75688" lon="5.80755">
        <ele>597</ele>
        <time>2022-09-06T05:49:29Z</time>
      </trkpt>
      <trkpt lat="46.75686" lon="5.80763">
        <ele>597.2</ele>
        <time>2022-09-06T05:49:30Z</time>
      </trkpt>
      <trkpt lat="46.75684" lon="5.8077">
        <ele>597.2</ele>
        <time>2022-09-06T05:49:31Z</time>
      </trkpt>
      <trkpt lat="46.75682" lon="5.80778">
        <ele>597.6</ele>
        <time>2022-09-06T05:49:32Z</time>
      </trkpt>
      <trkpt lat="46.7568" lon="5.80785">
        <ele>597.6</ele>
        <time>2022-09-06T05:49:33Z</time>
      </trkpt>
      <trkpt lat="46.75678" lon="5.80792">
        <ele>597.8</ele>
        <time>2022-09-06T05:49:34Z</time>
      </trkpt>
      <trkpt lat="46.75677" lon="5.80799">
        <ele>598</ele>
        <time>2022-09-06T05:49:35Z</time>
      </trkpt>
      <trkpt lat="46.75675" lon="5.80806">
        <ele>598</ele>
        <time>2022-09-06T05:49:36Z</time>
      </trkpt>
      <trkpt lat="46.75673" lon="5.80813">
        <ele>598.2</ele>
        <time>2022-09-06T05:49:37Z</time>
      </trkpt>
      <trkpt lat="46.75671" lon="5.8082">
        <ele>598.2</ele>
        <time>2022-09-06T05:49:38Z</time>
      </trkpt>
      <trkpt lat="46.7567" lon="5.80827">
        <ele>598.6</ele>
        <time>2022-09-06T05:49:39Z</time>
      </trkpt>
      <trkpt lat="46.75668" lon="5.80834">
        <ele>598.6</ele>
        <time>2022-09-06T05:49:40Z</time>
      </trkpt>
      <trkpt lat="46.75667" lon="5.80841">
        <ele>598.8</ele>
        <time>2022-09-06T05:49:41Z</time>
      </trkpt>
      <trkpt lat="46.75665" lon="5.80847">
        <ele>598.8</ele>
        <time>2022-09-06T05:49:42Z</time>
      </trkpt>
      <trkpt lat="46.75663" lon="5.80854">
        <ele>599</ele>
        <time>2022-09-06T05:49:43Z</time>
      </trkpt>
      <trkpt lat="46.75661" lon="5.8086">
        <ele>599</ele>
        <time>2022-09-06T05:49:44Z</time>
      </trkpt>
      <trkpt lat="46.75659" lon="5.80867">
        <ele>599.4</ele>
        <time>2022-09-06T05:49:45Z</time>
      </trkpt>
      <trkpt lat="46.75656" lon="5.80873">
        <ele>599.4</ele>
        <time>2022-09-06T05:49:46Z</time>
      </trkpt>
      <trkpt lat="46.75654" lon="5.8088">
        <ele>599.6</ele>
        <time>2022-09-06T05:49:47Z</time>
      </trkpt>
      <trkpt lat="46.75653" lon="5.80886">
        <ele>599.6</ele>
        <time>2022-09-06T05:49:48Z</time>
      </trkpt>
      <trkpt lat="46.75651" lon="5.80893">
        <ele>599.8</ele>
        <time>2022-09-06T05:49:49Z</time>
      </trkpt>
      <trkpt lat="46.75649" lon="5.80899">
        <ele>599.8</ele>
        <time>2022-09-06T05:49:50Z</time>
      </trkpt>
      <trkpt lat="46.75646" lon="5.80905">
        <ele>600.2</ele>
        <time>2022-09-06T05:49:51Z</time>
      </trkpt>
      <trkpt lat="46.75644" lon="5.80912">
        <ele>600.2</ele>
        <time>2022-09-06T05:49:52Z</time>
      </trkpt>
      <trkpt lat="46.75642" lon="5.80918">
        <ele>600.2</ele>
        <time>2022-09-06T05:49:53Z</time>
      </trkpt>
      <trkpt lat="46.7564" lon="5.80924">
        <ele>600.4</ele>
        <time>2022-09-06T05:49:54Z</time>
      </trkpt>
      <trkpt lat="46.75638" lon="5.80931">
        <ele>600.4</ele>
        <time>2022-09-06T05:49:55Z</time>
      </trkpt>
      <trkpt lat="46.75637" lon="5.80937">
        <ele>600.8</ele>
        <time>2022-09-06T05:49:56Z</time>
      </trkpt>
      <trkpt lat="46.75636" lon="5.80943">
        <ele>601</ele>
        <time>2022-09-06T05:49:57Z</time>
      </trkpt>
      <trkpt lat="46.75633" lon="5.80954">
        <ele>601</ele>
        <time>2022-09-06T05:49:58Z</time>
      </trkpt>
      <trkpt lat="46.75631" lon="5.80959">
        <ele>601.2</ele>
        <time>2022-09-06T05:49:59Z</time>
      </trkpt>
      <trkpt lat="46.75629" lon="5.80963">
        <ele>601.2</ele>
        <time>2022-09-06T05:50:00Z</time>
      </trkpt>
      <trkpt lat="46.75626" lon="5.80966">
        <ele>601.4</ele>
        <time>2022-09-06T05:50:01Z</time>
      </trkpt>
      <trkpt lat="46.75623" lon="5.80966">
        <ele>601.4</ele>
        <time>2022-09-06T05:50:02Z</time>
      </trkpt>
      <trkpt lat="46.7562" lon="5.80966">
        <ele>601.6</ele>
        <time>2022-09-06T05:50:03Z</time>
      </trkpt>
      <trkpt lat="46.75616" lon="5.80965">
        <ele>601.6</ele>
        <time>2022-09-06T05:50:04Z</time>
      </trkpt>
      <trkpt lat="46.75613" lon="5.80964">
        <ele>601.8</ele>
        <time>2022-09-06T05:50:05Z</time>
      </trkpt>
    </trkseg>
  </trk>
</gpx>